<?xml version='1.0' encoding='UTF-8'?>
<gpx version="1.1" creator="https://www.komoot.de" xmlns="http://www.topografix.com/GPX/1/1" xmlns:xsi="http://www.w3.org/2001/XMLSchema-instance" xsi:schemaLocation="http://www.topografix.com/GPX/1/1 http://www.topografix.com/GPX/1/1/gpx.xsd">
  <metadata>
    <name>Toboggan suresnois (départ mairie) - 130km</name>
    <author>
      <link href="https://www.komoot.de">
        <text>komoot</text>
        <type>text/html</type>
      </link>
    </author>
  </metadata>
  <trk>
    <name>Toboggan suresnois (départ mairie) - 130km</name>
    <trkseg>
      <trkpt lat="48.884359" lon="2.269386">
        <ele>42.024128</ele>
        <time>2023-03-30T13:43:38.245Z</time>
      </trkpt>
      <trkpt lat="48.884439" lon="2.269026">
        <ele>42.024128</ele>
        <time>2023-03-30T13:43:43.195Z</time>
      </trkpt>
      <trkpt lat="48.884462" lon="2.268923">
        <ele>42.024128</ele>
        <time>2023-03-30T13:43:44.752Z</time>
      </trkpt>
      <trkpt lat="48.884560" lon="2.268487">
        <ele>42.024128</ele>
        <time>2023-03-30T13:43:50.554Z</time>
      </trkpt>
      <trkpt lat="48.884586" lon="2.268373">
        <ele>42.024128</ele>
        <time>2023-03-30T13:43:52.138Z</time>
      </trkpt>
      <trkpt lat="48.884663" lon="2.268043">
        <ele>42.021549</ele>
        <time>2023-03-30T13:43:56.218Z</time>
      </trkpt>
      <trkpt lat="48.884795" lon="2.267467">
        <ele>41.991728</ele>
        <time>2023-03-30T13:44:03.505Z</time>
      </trkpt>
      <trkpt lat="48.884866" lon="2.267418">
        <ele>41.985931</ele>
        <time>2023-03-30T13:44:04.975Z</time>
      </trkpt>
      <trkpt lat="48.885647" lon="2.264041">
        <ele>41.012561</ele>
        <time>2023-03-30T13:44:35.927Z</time>
      </trkpt>
      <trkpt lat="48.885604" lon="2.263934">
        <ele>40.944852</ele>
        <time>2023-03-30T13:44:36.820Z</time>
      </trkpt>
      <trkpt lat="48.885635" lon="2.263809">
        <ele>40.872718</ele>
        <time>2023-03-30T13:44:37.902Z</time>
      </trkpt>
      <trkpt lat="48.885665" lon="2.263684">
        <ele>40.800869</ele>
        <time>2023-03-30T13:44:38.924Z</time>
      </trkpt>
      <trkpt lat="48.885729" lon="2.263679">
        <ele>40.748248</ele>
        <time>2023-03-30T13:44:39.676Z</time>
      </trkpt>
      <trkpt lat="48.885795" lon="2.263389">
        <ele>40.582550</ele>
        <time>2023-03-30T13:44:42.008Z</time>
      </trkpt>
      <trkpt lat="48.885951" lon="2.262734">
        <ele>40.325132</ele>
        <time>2023-03-30T13:44:47.671Z</time>
      </trkpt>
      <trkpt lat="48.885924" lon="2.262633">
        <ele>40.300016</ele>
        <time>2023-03-30T13:44:48.631Z</time>
      </trkpt>
      <trkpt lat="48.886180" lon="2.262095">
        <ele>40.147036</ele>
        <time>2023-03-30T13:44:54.085Z</time>
      </trkpt>
      <trkpt lat="48.886348" lon="2.261853">
        <ele>40.065970</ele>
        <time>2023-03-30T13:44:57.340Z</time>
      </trkpt>
      <trkpt lat="48.886381" lon="2.261735">
        <ele>40.036431</ele>
        <time>2023-03-30T13:44:58.516Z</time>
      </trkpt>
      <trkpt lat="48.886281" lon="2.261709">
        <ele>40.000890</ele>
        <time>2023-03-30T13:44:59.830Z</time>
      </trkpt>
      <trkpt lat="48.886199" lon="2.261603">
        <ele>39.963187</ele>
        <time>2023-03-30T13:45:01.411Z</time>
      </trkpt>
      <trkpt lat="48.886167" lon="2.261485">
        <ele>39.933783</ele>
        <time>2023-03-30T13:45:02.595Z</time>
      </trkpt>
      <trkpt lat="48.886167" lon="2.261414">
        <ele>39.917428</ele>
        <time>2023-03-30T13:45:03.244Z</time>
      </trkpt>
      <trkpt lat="48.886201" lon="2.261343">
        <ele>39.897194</ele>
        <time>2023-03-30T13:45:04.011Z</time>
      </trkpt>
      <trkpt lat="48.886247" lon="2.261313">
        <ele>39.879660</ele>
        <time>2023-03-30T13:45:04.682Z</time>
      </trkpt>
      <trkpt lat="48.885937" lon="2.261143">
        <ele>39.850214</ele>
        <time>2023-03-30T13:45:09.926Z</time>
      </trkpt>
      <trkpt lat="48.886108" lon="2.261308">
        <ele>40.097892</ele>
        <time>2023-03-30T13:45:13.532Z</time>
      </trkpt>
      <trkpt lat="48.886136" lon="2.261358">
        <ele>40.150707</ele>
        <time>2023-03-30T13:45:14.337Z</time>
      </trkpt>
      <trkpt lat="48.886167" lon="2.261414">
        <ele>40.209576</ele>
        <time>2023-03-30T13:45:15.220Z</time>
      </trkpt>
      <trkpt lat="48.886201" lon="2.261343">
        <ele>40.280211</ele>
        <time>2023-03-30T13:45:16.282Z</time>
      </trkpt>
      <trkpt lat="48.886247" lon="2.261313">
        <ele>40.341424</ele>
        <time>2023-03-30T13:45:17.252Z</time>
      </trkpt>
      <trkpt lat="48.885937" lon="2.261143">
        <ele>40.744452</ele>
        <time>2023-03-30T13:45:24.271Z</time>
      </trkpt>
      <trkpt lat="48.885580" lon="2.260958">
        <ele>41.205717</ele>
        <time>2023-03-30T13:45:32.140Z</time>
      </trkpt>
      <trkpt lat="48.885436" lon="2.260881">
        <ele>41.392399</ele>
        <time>2023-03-30T13:45:35.406Z</time>
      </trkpt>
      <trkpt lat="48.885050" lon="2.260673">
        <ele>41.893240</ele>
        <time>2023-03-30T13:45:44.130Z</time>
      </trkpt>
      <trkpt lat="48.884959" lon="2.260633">
        <ele>41.994574</ele>
        <time>2023-03-30T13:45:46.143Z</time>
      </trkpt>
      <trkpt lat="48.884944" lon="2.260441">
        <ele>42.063182</ele>
        <time>2023-03-30T13:45:48.925Z</time>
      </trkpt>
      <trkpt lat="48.884868" lon="2.260282">
        <ele>42.132932</ele>
        <time>2023-03-30T13:45:52.227Z</time>
      </trkpt>
      <trkpt lat="48.884746" lon="2.260215">
        <ele>42.202927</ele>
        <time>2023-03-30T13:45:55.560Z</time>
      </trkpt>
      <trkpt lat="48.884621" lon="2.260264">
        <ele>42.272584</ele>
        <time>2023-03-30T13:45:58.708Z</time>
      </trkpt>
      <trkpt lat="48.884539" lon="2.260417">
        <ele>42.342622</ele>
        <time>2023-03-30T13:46:01.552Z</time>
      </trkpt>
      <trkpt lat="48.884434" lon="2.260368">
        <ele>42.401890</ele>
        <time>2023-03-30T13:46:03.484Z</time>
      </trkpt>
      <trkpt lat="48.883753" lon="2.260045">
        <ele>42.786829</ele>
        <time>2023-03-30T13:46:14.306Z</time>
      </trkpt>
      <trkpt lat="48.883262" lon="2.259812">
        <ele>42.863858</ele>
        <time>2023-03-30T13:46:21.613Z</time>
      </trkpt>
      <trkpt lat="48.883001" lon="2.259688">
        <ele>42.744103</ele>
        <time>2023-03-30T13:46:25.903Z</time>
      </trkpt>
      <trkpt lat="48.882898" lon="2.259639">
        <ele>42.696838</ele>
        <time>2023-03-30T13:46:27.469Z</time>
      </trkpt>
      <trkpt lat="48.882179" lon="2.259298">
        <ele>42.366989</ele>
        <time>2023-03-30T13:46:37.846Z</time>
      </trkpt>
      <trkpt lat="48.881527" lon="2.258989">
        <ele>41.975459</ele>
        <time>2023-03-30T13:46:45.944Z</time>
      </trkpt>
      <trkpt lat="48.881478" lon="2.258965">
        <ele>41.931663</ele>
        <time>2023-03-30T13:46:46.621Z</time>
      </trkpt>
      <trkpt lat="48.881450" lon="2.258952">
        <ele>41.906757</ele>
        <time>2023-03-30T13:46:47.010Z</time>
      </trkpt>
      <trkpt lat="48.881049" lon="2.258653">
        <ele>41.526803</ele>
        <time>2023-03-30T13:46:52.727Z</time>
      </trkpt>
      <trkpt lat="48.880486" lon="2.258389">
        <ele>41.025577</ele>
        <time>2023-03-30T13:47:00.131Z</time>
      </trkpt>
      <trkpt lat="48.880417" lon="2.258356">
        <ele>40.964040</ele>
        <time>2023-03-30T13:47:01.018Z</time>
      </trkpt>
      <trkpt lat="48.880316" lon="2.258298">
        <ele>40.872192</ele>
        <time>2023-03-30T13:47:02.335Z</time>
      </trkpt>
      <trkpt lat="48.880189" lon="2.258231">
        <ele>40.757830</ele>
        <time>2023-03-30T13:47:03.948Z</time>
      </trkpt>
      <trkpt lat="48.879928" lon="2.258141">
        <ele>40.573386</ele>
        <time>2023-03-30T13:47:07.121Z</time>
      </trkpt>
      <trkpt lat="48.877318" lon="2.256790">
        <ele>39.422809</ele>
        <time>2023-03-30T13:47:44.513Z</time>
      </trkpt>
      <trkpt lat="48.876979" lon="2.256619">
        <ele>39.320826</ele>
        <time>2023-03-30T13:47:49.867Z</time>
      </trkpt>
      <trkpt lat="48.876826" lon="2.256493">
        <ele>39.271144</ele>
        <time>2023-03-30T13:47:52.240Z</time>
      </trkpt>
      <trkpt lat="48.876760" lon="2.256469">
        <ele>39.251767</ele>
        <time>2023-03-30T13:47:53.200Z</time>
      </trkpt>
      <trkpt lat="48.876038" lon="2.256146">
        <ele>38.985385</ele>
        <time>2023-03-30T13:48:03.611Z</time>
      </trkpt>
      <trkpt lat="48.875779" lon="2.256018">
        <ele>38.885562</ele>
        <time>2023-03-30T13:48:07.169Z</time>
      </trkpt>
      <trkpt lat="48.875668" lon="2.255964">
        <ele>38.842844</ele>
        <time>2023-03-30T13:48:08.703Z</time>
      </trkpt>
      <trkpt lat="48.875600" lon="2.255929">
        <ele>38.816530</ele>
        <time>2023-03-30T13:48:09.690Z</time>
      </trkpt>
      <trkpt lat="48.874449" lon="2.255328">
        <ele>38.317731</ele>
        <time>2023-03-30T13:48:26.249Z</time>
      </trkpt>
      <trkpt lat="48.874340" lon="2.255216">
        <ele>38.256032</ele>
        <time>2023-03-30T13:48:27.948Z</time>
      </trkpt>
      <trkpt lat="48.874251" lon="2.255124">
        <ele>38.205557</ele>
        <time>2023-03-30T13:48:29.437Z</time>
      </trkpt>
      <trkpt lat="48.874214" lon="2.255027">
        <ele>38.170969</ele>
        <time>2023-03-30T13:48:30.461Z</time>
      </trkpt>
      <trkpt lat="48.874093" lon="2.254966">
        <ele>38.111182</ele>
        <time>2023-03-30T13:48:32.143Z</time>
      </trkpt>
      <trkpt lat="48.874012" lon="2.255030">
        <ele>38.068370</ele>
        <time>2023-03-30T13:48:33.336Z</time>
      </trkpt>
      <trkpt lat="48.873891" lon="2.254972">
        <ele>38.008868</ele>
        <time>2023-03-30T13:48:35.055Z</time>
      </trkpt>
      <trkpt lat="48.873839" lon="2.254946">
        <ele>37.983195</ele>
        <time>2023-03-30T13:48:35.786Z</time>
      </trkpt>
      <trkpt lat="48.873746" lon="2.254901">
        <ele>37.937423</ele>
        <time>2023-03-30T13:48:37.026Z</time>
      </trkpt>
      <trkpt lat="48.873727" lon="2.254741">
        <ele>37.887270</ele>
        <time>2023-03-30T13:48:44.460Z</time>
      </trkpt>
      <trkpt lat="48.873675" lon="2.254707">
        <ele>37.860723</ele>
        <time>2023-03-30T13:48:48.364Z</time>
      </trkpt>
      <trkpt lat="48.873727" lon="2.254741">
        <ele>37.834176</ele>
        <time>2023-03-30T13:48:52.269Z</time>
      </trkpt>
      <trkpt lat="48.873746" lon="2.254901">
        <ele>37.784023</ele>
        <time>2023-03-30T13:48:59.703Z</time>
      </trkpt>
      <trkpt lat="48.873678" lon="2.254869">
        <ele>37.750639</ele>
        <time>2023-03-30T13:49:00.575Z</time>
      </trkpt>
      <trkpt lat="48.873752" lon="2.254945">
        <ele>37.715340</ele>
        <time>2023-03-30T13:49:01.748Z</time>
      </trkpt>
      <trkpt lat="48.873856" lon="2.255054">
        <ele>37.713703</ele>
        <time>2023-03-30T13:49:03.431Z</time>
      </trkpt>
      <trkpt lat="48.873973" lon="2.255204">
        <ele>37.711720</ele>
        <time>2023-03-30T13:49:05.369Z</time>
      </trkpt>
      <trkpt lat="48.873983" lon="2.255264">
        <ele>37.711193</ele>
        <time>2023-03-30T13:49:05.918Z</time>
      </trkpt>
      <trkpt lat="48.873994" lon="2.255296">
        <ele>37.710885</ele>
        <time>2023-03-30T13:49:06.234Z</time>
      </trkpt>
      <trkpt lat="48.874045" lon="2.255369">
        <ele>37.709978</ele>
        <time>2023-03-30T13:49:07.204Z</time>
      </trkpt>
      <trkpt lat="48.874114" lon="2.255396">
        <ele>37.709055</ele>
        <time>2023-03-30T13:49:08.188Z</time>
      </trkpt>
      <trkpt lat="48.874175" lon="2.255375">
        <ele>37.708245</ele>
        <time>2023-03-30T13:49:09.056Z</time>
      </trkpt>
      <trkpt lat="48.874225" lon="2.255315">
        <ele>37.707419</ele>
        <time>2023-03-30T13:49:09.895Z</time>
      </trkpt>
      <trkpt lat="48.874242" lon="2.255274">
        <ele>37.707006</ele>
        <time>2023-03-30T13:49:10.337Z</time>
      </trkpt>
      <trkpt lat="48.874251" lon="2.255124">
        <ele>37.705723</ele>
        <time>2023-03-30T13:49:11.809Z</time>
      </trkpt>
      <trkpt lat="48.874214" lon="2.255027">
        <ele>37.704767</ele>
        <time>2023-03-30T13:49:12.921Z</time>
      </trkpt>
      <trkpt lat="48.874093" lon="2.254966">
        <ele>37.703116</ele>
        <time>2023-03-30T13:49:14.860Z</time>
      </trkpt>
      <trkpt lat="48.874012" lon="2.255030">
        <ele>37.701933</ele>
        <time>2023-03-30T13:49:16.287Z</time>
      </trkpt>
      <trkpt lat="48.873891" lon="2.254972">
        <ele>37.700290</ele>
        <time>2023-03-30T13:49:18.354Z</time>
      </trkpt>
      <trkpt lat="48.873854" lon="2.254825">
        <ele>37.698948</ele>
        <time>2023-03-30T13:49:20.099Z</time>
      </trkpt>
      <trkpt lat="48.873768" lon="2.254489">
        <ele>37.695876</ele>
        <time>2023-03-30T13:49:24.003Z</time>
      </trkpt>
      <trkpt lat="48.873691" lon="2.254154">
        <ele>37.692852</ele>
        <time>2023-03-30T13:49:27.940Z</time>
      </trkpt>
      <trkpt lat="48.873627" lon="2.253797">
        <ele>37.701068</ele>
        <time>2023-03-30T13:49:31.886Z</time>
      </trkpt>
      <trkpt lat="48.873584" lon="2.253372">
        <ele>37.713900</ele>
        <time>2023-03-30T13:49:36.372Z</time>
      </trkpt>
      <trkpt lat="48.873573" lon="2.253025">
        <ele>37.724267</ele>
        <time>2023-03-30T13:49:39.854Z</time>
      </trkpt>
      <trkpt lat="48.873607" lon="2.252159">
        <ele>37.750156</ele>
        <time>2023-03-30T13:49:48.693Z</time>
      </trkpt>
      <trkpt lat="48.873709" lon="2.251578">
        <ele>37.768101</ele>
        <time>2023-03-30T13:49:54.798Z</time>
      </trkpt>
      <trkpt lat="48.873854" lon="2.251101">
        <ele>37.497816</ele>
        <time>2023-03-30T13:49:59.548Z</time>
      </trkpt>
      <trkpt lat="48.873882" lon="2.251044">
        <ele>37.438927</ele>
        <time>2023-03-30T13:50:00.119Z</time>
      </trkpt>
      <trkpt lat="48.874443" lon="2.249958">
        <ele>36.295876</ele>
        <time>2023-03-30T13:50:10.570Z</time>
      </trkpt>
      <trkpt lat="48.874506" lon="2.249577">
        <ele>35.970691</ele>
        <time>2023-03-30T13:50:13.533Z</time>
      </trkpt>
      <trkpt lat="48.874507" lon="2.249271">
        <ele>35.717399</ele>
        <time>2023-03-30T13:50:15.796Z</time>
      </trkpt>
      <trkpt lat="48.874514" lon="2.248973">
        <ele>35.478843</ele>
        <time>2023-03-30T13:50:18.963Z</time>
      </trkpt>
      <trkpt lat="48.874518" lon="2.248804">
        <ele>35.368076</ele>
        <time>2023-03-30T13:50:20.732Z</time>
      </trkpt>
      <trkpt lat="48.874392" lon="2.248684">
        <ele>35.220011</ele>
        <time>2023-03-30T13:50:22.459Z</time>
      </trkpt>
      <trkpt lat="48.874261" lon="2.248559">
        <ele>35.065986</ele>
        <time>2023-03-30T13:50:24.210Z</time>
      </trkpt>
      <trkpt lat="48.874238" lon="2.248537">
        <ele>35.038925</ele>
        <time>2023-03-30T13:50:24.512Z</time>
      </trkpt>
      <trkpt lat="48.873298" lon="2.247574">
        <ele>33.910116</ele>
        <time>2023-03-30T13:50:38.182Z</time>
      </trkpt>
      <trkpt lat="48.872487" lon="2.246832">
        <ele>33.942261</ele>
        <time>2023-03-30T13:50:53.229Z</time>
      </trkpt>
      <trkpt lat="48.871281" lon="2.245856">
        <ele>34.430052</ele>
        <time>2023-03-30T13:51:16.279Z</time>
      </trkpt>
      <trkpt lat="48.870498" lon="2.245273">
        <ele>34.914035</ele>
        <time>2023-03-30T13:51:31.655Z</time>
      </trkpt>
      <trkpt lat="48.869950" lon="2.244855">
        <ele>35.248306</ele>
        <time>2023-03-30T13:51:42.043Z</time>
      </trkpt>
      <trkpt lat="48.869051" lon="2.244123">
        <ele>35.083740</ele>
        <time>2023-03-30T13:51:57.234Z</time>
      </trkpt>
      <trkpt lat="48.868019" lon="2.243177">
        <ele>34.559231</ele>
        <time>2023-03-30T13:52:13.195Z</time>
      </trkpt>
      <trkpt lat="48.867419" lon="2.242602">
        <ele>33.906322</ele>
        <time>2023-03-30T13:52:21.534Z</time>
      </trkpt>
      <trkpt lat="48.867338" lon="2.242393">
        <ele>33.759433</ele>
        <time>2023-03-30T13:52:23.423Z</time>
      </trkpt>
      <trkpt lat="48.867179" lon="2.241672">
        <ele>33.304282</ele>
        <time>2023-03-30T13:52:29.480Z</time>
      </trkpt>
      <trkpt lat="48.867077" lon="2.241036">
        <ele>33.352080</ele>
        <time>2023-03-30T13:52:35.503Z</time>
      </trkpt>
      <trkpt lat="48.867016" lon="2.240387">
        <ele>33.399948</ele>
        <time>2023-03-30T13:52:41.764Z</time>
      </trkpt>
      <trkpt lat="48.866953" lon="2.239768">
        <ele>33.445683</ele>
        <time>2023-03-30T13:52:48.186Z</time>
      </trkpt>
      <trkpt lat="48.866889" lon="2.238885">
        <ele>33.511912</ele>
        <time>2023-03-30T13:52:59.009Z</time>
      </trkpt>
      <trkpt lat="48.866812" lon="2.238460">
        <ele>33.550216</ele>
        <time>2023-03-30T13:53:04.275Z</time>
      </trkpt>
      <trkpt lat="48.866758" lon="2.238169">
        <ele>33.576488</ele>
        <time>2023-03-30T13:53:07.570Z</time>
      </trkpt>
      <trkpt lat="48.866682" lon="2.237821">
        <ele>33.608348</ele>
        <time>2023-03-30T13:53:11.967Z</time>
      </trkpt>
      <trkpt lat="48.866441" lon="2.237024">
        <ele>33.684567</ele>
        <time>2023-03-30T13:53:21.370Z</time>
      </trkpt>
      <trkpt lat="48.866151" lon="2.236304">
        <ele>33.588326</ele>
        <time>2023-03-30T13:53:28.229Z</time>
      </trkpt>
      <trkpt lat="48.866023" lon="2.236007">
        <ele>33.311127</ele>
        <time>2023-03-30T13:53:30.964Z</time>
      </trkpt>
      <trkpt lat="48.865764" lon="2.235526">
        <ele>32.825849</ele>
        <time>2023-03-30T13:53:35.581Z</time>
      </trkpt>
      <trkpt lat="48.865174" lon="2.234598">
        <ele>31.818284</ele>
        <time>2023-03-30T13:53:45.254Z</time>
      </trkpt>
      <trkpt lat="48.865238" lon="2.234466">
        <ele>31.690264</ele>
        <time>2023-03-30T13:53:47.142Z</time>
      </trkpt>
      <trkpt lat="48.865434" lon="2.234052">
        <ele>31.748457</ele>
        <time>2023-03-30T13:53:53.407Z</time>
      </trkpt>
      <trkpt lat="48.865990" lon="2.232857">
        <ele>32.265274</ele>
        <time>2023-03-30T13:54:15.127Z</time>
      </trkpt>
      <trkpt lat="48.866202" lon="2.232298">
        <ele>32.493103</ele>
        <time>2023-03-30T13:54:25.844Z</time>
      </trkpt>
      <trkpt lat="48.866358" lon="2.231799">
        <ele>32.740162</ele>
        <time>2023-03-30T13:54:35.554Z</time>
      </trkpt>
      <trkpt lat="48.866467" lon="2.231441">
        <ele>32.941641</ele>
        <time>2023-03-30T13:54:40.898Z</time>
      </trkpt>
      <trkpt lat="48.866558" lon="2.231121">
        <ele>33.119694</ele>
        <time>2023-03-30T13:54:45.279Z</time>
      </trkpt>
      <trkpt lat="48.866596" lon="2.230979">
        <ele>33.197989</ele>
        <time>2023-03-30T13:54:47.168Z</time>
      </trkpt>
      <trkpt lat="48.867306" lon="2.228323">
        <ele>34.677245</ele>
        <time>2023-03-30T13:55:17.890Z</time>
      </trkpt>
      <trkpt lat="48.867418" lon="2.227900">
        <ele>34.915169</ele>
        <time>2023-03-30T13:55:23.431Z</time>
      </trkpt>
      <trkpt lat="48.867433" lon="2.227842">
        <ele>34.947687</ele>
        <time>2023-03-30T13:55:24.260Z</time>
      </trkpt>
      <trkpt lat="48.867467" lon="2.227721">
        <ele>35.016342</ele>
        <time>2023-03-30T13:55:25.969Z</time>
      </trkpt>
      <trkpt lat="48.867543" lon="2.227529">
        <ele>35.133264</ele>
        <time>2023-03-30T13:55:28.871Z</time>
      </trkpt>
      <trkpt lat="48.867580" lon="2.227496">
        <ele>35.167291</ele>
        <time>2023-03-30T13:55:29.678Z</time>
      </trkpt>
      <trkpt lat="48.867584" lon="2.227381">
        <ele>35.227380</ele>
        <time>2023-03-30T13:55:31.145Z</time>
      </trkpt>
      <trkpt lat="48.867606" lon="2.227306">
        <ele>35.270229</ele>
        <time>2023-03-30T13:55:32.247Z</time>
      </trkpt>
      <trkpt lat="48.867823" lon="2.226571">
        <ele>35.928831</ele>
        <time>2023-03-30T13:55:43.356Z</time>
      </trkpt>
      <trkpt lat="48.867836" lon="2.226529">
        <ele>35.972568</ele>
        <time>2023-03-30T13:55:44.018Z</time>
      </trkpt>
      <trkpt lat="48.867791" lon="2.226493">
        <ele>36.045408</ele>
        <time>2023-03-30T13:55:44.997Z</time>
      </trkpt>
      <trkpt lat="48.867755" lon="2.226470">
        <ele>36.101344</ele>
        <time>2023-03-30T13:55:45.785Z</time>
      </trkpt>
      <trkpt lat="48.867747" lon="2.226465">
        <ele>36.113734</ele>
        <time>2023-03-30T13:55:45.965Z</time>
      </trkpt>
      <trkpt lat="48.867733" lon="2.226456">
        <ele>36.135507</ele>
        <time>2023-03-30T13:55:46.309Z</time>
      </trkpt>
      <trkpt lat="48.867671" lon="2.226409">
        <ele>36.234747</ele>
        <time>2023-03-30T13:55:47.799Z</time>
      </trkpt>
      <trkpt lat="48.867582" lon="2.226350">
        <ele>36.373827</ele>
        <time>2023-03-30T13:55:49.928Z</time>
      </trkpt>
      <trkpt lat="48.867543" lon="2.226327">
        <ele>36.433748</ele>
        <time>2023-03-30T13:55:51.697Z</time>
      </trkpt>
      <trkpt lat="48.867510" lon="2.226306">
        <ele>36.484992</ele>
        <time>2023-03-30T13:55:52.471Z</time>
      </trkpt>
      <trkpt lat="48.867561" lon="2.226101">
        <ele>36.691507</ele>
        <time>2023-03-30T13:55:55.422Z</time>
      </trkpt>
      <trkpt lat="48.867537" lon="2.225941">
        <ele>36.846138</ele>
        <time>2023-03-30T13:55:57.971Z</time>
      </trkpt>
      <trkpt lat="48.867513" lon="2.225919">
        <ele>36.886282</ele>
        <time>2023-03-30T13:55:58.572Z</time>
      </trkpt>
      <trkpt lat="48.867360" lon="2.225783">
        <ele>37.140159</ele>
        <time>2023-03-30T13:56:02.413Z</time>
      </trkpt>
      <trkpt lat="48.867346" lon="2.225771">
        <ele>37.163181</ele>
        <time>2023-03-30T13:56:02.780Z</time>
      </trkpt>
      <trkpt lat="48.867309" lon="2.225738">
        <ele>37.224629</ele>
        <time>2023-03-30T13:56:03.745Z</time>
      </trkpt>
      <trkpt lat="48.867034" lon="2.225507">
        <ele>37.674682</ele>
        <time>2023-03-30T13:56:10.579Z</time>
      </trkpt>
      <trkpt lat="48.867004" lon="2.225486">
        <ele>37.721992</ele>
        <time>2023-03-30T13:56:11.275Z</time>
      </trkpt>
      <trkpt lat="48.866979" lon="2.225481">
        <ele>37.758111</ele>
        <time>2023-03-30T13:56:11.741Z</time>
      </trkpt>
      <trkpt lat="48.866979" lon="2.225383">
        <ele>37.850453</ele>
        <time>2023-03-30T13:56:13.057Z</time>
      </trkpt>
      <trkpt lat="48.866978" lon="2.225329">
        <ele>37.901355</ele>
        <time>2023-03-30T13:56:13.727Z</time>
      </trkpt>
      <trkpt lat="48.866975" lon="2.225301">
        <ele>37.928086</ele>
        <time>2023-03-30T13:56:14.068Z</time>
      </trkpt>
      <trkpt lat="48.866990" lon="2.225282">
        <ele>37.956054</ele>
        <time>2023-03-30T13:56:14.417Z</time>
      </trkpt>
      <trkpt lat="48.867002" lon="2.225236">
        <ele>37.983249</ele>
        <time>2023-03-30T13:56:15.032Z</time>
      </trkpt>
      <trkpt lat="48.866880" lon="2.225079">
        <ele>38.070064</ele>
        <time>2023-03-30T13:56:17.818Z</time>
      </trkpt>
      <trkpt lat="48.866796" lon="2.224975">
        <ele>38.128903</ele>
        <time>2023-03-30T13:56:19.632Z</time>
      </trkpt>
      <trkpt lat="48.866567" lon="2.224714">
        <ele>38.284353</ele>
        <time>2023-03-30T13:56:24.258Z</time>
      </trkpt>
      <trkpt lat="48.866436" lon="2.224599">
        <ele>38.366514</ele>
        <time>2023-03-30T13:56:26.690Z</time>
      </trkpt>
      <trkpt lat="48.866329" lon="2.224516">
        <ele>38.431757</ele>
        <time>2023-03-30T13:56:28.485Z</time>
      </trkpt>
      <trkpt lat="48.866277" lon="2.224396">
        <ele>38.483097</ele>
        <time>2023-03-30T13:56:29.977Z</time>
      </trkpt>
      <trkpt lat="48.866127" lon="2.224076">
        <ele>38.623484</ele>
        <time>2023-03-30T13:56:34.043Z</time>
      </trkpt>
      <trkpt lat="48.866124" lon="2.224045">
        <ele>38.634679</ele>
        <time>2023-03-30T13:56:34.393Z</time>
      </trkpt>
      <trkpt lat="48.866111" lon="2.224004">
        <ele>38.650940</ele>
        <time>2023-03-30T13:56:34.874Z</time>
      </trkpt>
      <trkpt lat="48.866041" lon="2.223942">
        <ele>38.694941</ele>
        <time>2023-03-30T13:56:36.133Z</time>
      </trkpt>
      <trkpt lat="48.866037" lon="2.223878">
        <ele>38.717910</ele>
        <time>2023-03-30T13:56:36.845Z</time>
      </trkpt>
      <trkpt lat="48.865546" lon="2.222834">
        <ele>39.827640</ele>
        <time>2023-03-30T13:56:50.813Z</time>
      </trkpt>
      <trkpt lat="48.865485" lon="2.222701">
        <ele>40.050900</ele>
        <time>2023-03-30T13:56:52.953Z</time>
      </trkpt>
      <trkpt lat="48.865033" lon="2.221809">
        <ele>41.601354</ele>
        <time>2023-03-30T13:57:09.559Z</time>
      </trkpt>
      <trkpt lat="48.864966" lon="2.221628">
        <ele>41.887344</ele>
        <time>2023-03-30T13:57:13.096Z</time>
      </trkpt>
      <trkpt lat="48.864911" lon="2.221503">
        <ele>42.094425</ele>
        <time>2023-03-30T13:57:15.867Z</time>
      </trkpt>
      <trkpt lat="48.864766" lon="2.221224">
        <ele>42.584044</ele>
        <time>2023-03-30T13:57:22.654Z</time>
      </trkpt>
      <trkpt lat="48.864739" lon="2.221178">
        <ele>42.668936</ele>
        <time>2023-03-30T13:57:23.903Z</time>
      </trkpt>
      <trkpt lat="48.864708" lon="2.221109">
        <ele>42.897533</ele>
        <time>2023-03-30T13:57:25.642Z</time>
      </trkpt>
      <trkpt lat="48.864680" lon="2.221053">
        <ele>43.149929</ele>
        <time>2023-03-30T13:57:27.146Z</time>
      </trkpt>
      <trkpt lat="48.864627" lon="2.220937">
        <ele>43.656713</ele>
        <time>2023-03-30T13:57:30.101Z</time>
      </trkpt>
      <trkpt lat="48.864584" lon="2.220836">
        <ele>44.088404</ele>
        <time>2023-03-30T13:57:32.687Z</time>
      </trkpt>
      <trkpt lat="48.864289" lon="2.220276">
        <ele>46.662711</ele>
        <time>2023-03-30T13:57:48.876Z</time>
      </trkpt>
      <trkpt lat="48.864240" lon="2.220127">
        <ele>47.260450</ele>
        <time>2023-03-30T13:57:52.897Z</time>
      </trkpt>
      <trkpt lat="48.864089" lon="2.219826">
        <ele>48.618743</ele>
        <time>2023-03-30T13:58:02.090Z</time>
      </trkpt>
      <trkpt lat="48.863907" lon="2.219401">
        <ele>50.438426</ele>
        <time>2023-03-30T13:58:15.238Z</time>
      </trkpt>
      <trkpt lat="48.863809" lon="2.219167">
        <ele>51.433808</ele>
        <time>2023-03-30T13:58:22.817Z</time>
      </trkpt>
      <trkpt lat="48.863730" lon="2.219005">
        <ele>52.157414</ele>
        <time>2023-03-30T13:58:28.479Z</time>
      </trkpt>
      <trkpt lat="48.863663" lon="2.218952">
        <ele>52.569631</ele>
        <time>2023-03-30T13:58:31.589Z</time>
      </trkpt>
      <trkpt lat="48.863121" lon="2.218715">
        <ele>55.661932</ele>
        <time>2023-03-30T13:58:56.693Z</time>
      </trkpt>
      <trkpt lat="48.862909" lon="2.218519">
        <ele>57.022444</ele>
        <time>2023-03-30T13:59:06.947Z</time>
      </trkpt>
      <trkpt lat="48.862704" lon="2.218182">
        <ele>58.678057</ele>
        <time>2023-03-30T13:59:18.147Z</time>
      </trkpt>
      <trkpt lat="48.862644" lon="2.218013">
        <ele>59.370760</ele>
        <time>2023-03-30T13:59:22.389Z</time>
      </trkpt>
      <trkpt lat="48.862638" lon="2.217895">
        <ele>59.797665</ele>
        <time>2023-03-30T13:59:25.155Z</time>
      </trkpt>
      <trkpt lat="48.862671" lon="2.217831">
        <ele>60.090978</ele>
        <time>2023-03-30T13:59:26.927Z</time>
      </trkpt>
      <trkpt lat="48.862746" lon="2.217766">
        <ele>60.564346</ele>
        <time>2023-03-30T13:59:29.415Z</time>
      </trkpt>
      <trkpt lat="48.862725" lon="2.217689">
        <ele>60.865013</ele>
        <time>2023-03-30T13:59:30.988Z</time>
      </trkpt>
      <trkpt lat="48.862664" lon="2.217364">
        <ele>62.084093</ele>
        <time>2023-03-30T13:59:37.827Z</time>
      </trkpt>
      <trkpt lat="48.862622" lon="2.217145">
        <ele>62.544136</ele>
        <time>2023-03-30T13:59:41.750Z</time>
      </trkpt>
      <trkpt lat="48.862574" lon="2.216915">
        <ele>62.808173</ele>
        <time>2023-03-30T13:59:46.292Z</time>
      </trkpt>
      <trkpt lat="48.862631" lon="2.216876">
        <ele>62.912144</ele>
        <time>2023-03-30T13:59:47.973Z</time>
      </trkpt>
      <trkpt lat="48.862681" lon="2.216903">
        <ele>63.000402</ele>
        <time>2023-03-30T13:59:49.164Z</time>
      </trkpt>
      <trkpt lat="48.862771" lon="2.216975">
        <ele>63.169568</ele>
        <time>2023-03-30T13:59:51.526Z</time>
      </trkpt>
      <trkpt lat="48.863031" lon="2.217372">
        <ele>63.782545</ele>
        <time>2023-03-30T14:00:00.163Z</time>
      </trkpt>
      <trkpt lat="48.863183" lon="2.217502">
        <ele>64.072641</ele>
        <time>2023-03-30T14:00:04.107Z</time>
      </trkpt>
      <trkpt lat="48.864054" lon="2.217838">
        <ele>65.828831</ele>
        <time>2023-03-30T14:00:17.338Z</time>
      </trkpt>
      <trkpt lat="48.864125" lon="2.217827">
        <ele>66.111409</ele>
        <time>2023-03-30T14:00:18.707Z</time>
      </trkpt>
      <trkpt lat="48.864235" lon="2.217891">
        <ele>66.577762</ele>
        <time>2023-03-30T14:00:31.999Z</time>
      </trkpt>
      <trkpt lat="48.864370" lon="2.217939">
        <ele>67.126716</ele>
        <time>2023-03-30T14:00:48.007Z</time>
      </trkpt>
      <trkpt lat="48.864476" lon="2.217980">
        <ele>67.559792</ele>
        <time>2023-03-30T14:01:01.466Z</time>
      </trkpt>
      <trkpt lat="48.864699" lon="2.218081">
        <ele>68.481109</ele>
        <time>2023-03-30T14:01:30.359Z</time>
      </trkpt>
      <trkpt lat="48.864782" lon="2.218115">
        <ele>68.821467</ele>
        <time>2023-03-30T14:01:33.160Z</time>
      </trkpt>
      <trkpt lat="48.864699" lon="2.218081">
        <ele>69.161826</ele>
        <time>2023-03-30T14:01:36.204Z</time>
      </trkpt>
      <trkpt lat="48.864476" lon="2.217980">
        <ele>70.083143</ele>
        <time>2023-03-30T14:02:06.877Z</time>
      </trkpt>
      <trkpt lat="48.864370" lon="2.217939">
        <ele>70.516219</ele>
        <time>2023-03-30T14:02:21.764Z</time>
      </trkpt>
      <trkpt lat="48.864235" lon="2.217891">
        <ele>71.065173</ele>
        <time>2023-03-30T14:02:40.369Z</time>
      </trkpt>
      <trkpt lat="48.864125" lon="2.217827">
        <ele>71.531526</ele>
        <time>2023-03-30T14:02:56.350Z</time>
      </trkpt>
      <trkpt lat="48.864152" lon="2.217783">
        <ele>71.688254</ele>
        <time>2023-03-30T14:02:58.069Z</time>
      </trkpt>
      <trkpt lat="48.864230" lon="2.217330">
        <ele>73.193960</ele>
        <time>2023-03-30T14:03:10.838Z</time>
      </trkpt>
      <trkpt lat="48.864246" lon="2.216818">
        <ele>75.464120</ele>
        <time>2023-03-30T14:03:25.289Z</time>
      </trkpt>
      <trkpt lat="48.864320" lon="2.216226">
        <ele>78.132947</ele>
        <time>2023-03-30T14:03:43.096Z</time>
      </trkpt>
      <trkpt lat="48.864412" lon="2.215266">
        <ele>82.429571</ele>
        <time>2023-03-30T14:04:12.473Z</time>
      </trkpt>
      <trkpt lat="48.864483" lon="2.214705">
        <ele>84.741441</ele>
        <time>2023-03-30T14:04:27.045Z</time>
      </trkpt>
      <trkpt lat="48.864505" lon="2.213784">
        <ele>86.284039</ele>
        <time>2023-03-30T14:04:45.092Z</time>
      </trkpt>
      <trkpt lat="48.864506" lon="2.213717">
        <ele>86.396213</ele>
        <time>2023-03-30T14:04:46.204Z</time>
      </trkpt>
      <trkpt lat="48.864517" lon="2.213642">
        <ele>86.524831</ele>
        <time>2023-03-30T14:04:47.430Z</time>
      </trkpt>
      <trkpt lat="48.864526" lon="2.213547">
        <ele>86.685484</ele>
        <time>2023-03-30T14:04:48.984Z</time>
      </trkpt>
      <trkpt lat="48.864485" lon="2.213497">
        <ele>86.819226</ele>
        <time>2023-03-30T14:04:50.238Z</time>
      </trkpt>
      <trkpt lat="48.864451" lon="2.213453">
        <ele>86.932839</ele>
        <time>2023-03-30T14:04:51.276Z</time>
      </trkpt>
      <trkpt lat="48.864165" lon="2.213097">
        <ele>87.873380</ele>
        <time>2023-03-30T14:04:59.216Z</time>
      </trkpt>
      <trkpt lat="48.864010" lon="2.212893">
        <ele>88.395043</ele>
        <time>2023-03-30T14:05:02.991Z</time>
      </trkpt>
      <trkpt lat="48.863800" lon="2.212630">
        <ele>89.087354</ele>
        <time>2023-03-30T14:05:07.845Z</time>
      </trkpt>
      <trkpt lat="48.863703" lon="2.212645">
        <ele>89.150504</ele>
        <time>2023-03-30T14:05:09.353Z</time>
      </trkpt>
      <trkpt lat="48.863464" lon="2.212361">
        <ele>88.971728</ele>
        <time>2023-03-30T14:05:13.907Z</time>
      </trkpt>
      <trkpt lat="48.863430" lon="2.212321">
        <ele>88.946392</ele>
        <time>2023-03-30T14:05:14.479Z</time>
      </trkpt>
      <trkpt lat="48.863326" lon="2.212201">
        <ele>88.869445</ele>
        <time>2023-03-30T14:05:16.360Z</time>
      </trkpt>
      <trkpt lat="48.863176" lon="2.212337">
        <ele>88.766517</ele>
        <time>2023-03-30T14:05:18.604Z</time>
      </trkpt>
      <trkpt lat="48.863074" lon="2.212344">
        <ele>88.706345</ele>
        <time>2023-03-30T14:05:19.932Z</time>
      </trkpt>
      <trkpt lat="48.863015" lon="2.212349">
        <ele>88.671521</ele>
        <time>2023-03-30T14:05:20.736Z</time>
      </trkpt>
      <trkpt lat="48.862024" lon="2.212430">
        <ele>88.078944</ele>
        <time>2023-03-30T14:05:32.789Z</time>
      </trkpt>
      <trkpt lat="48.861809" lon="2.212390">
        <ele>87.925801</ele>
        <time>2023-03-30T14:05:35.244Z</time>
      </trkpt>
      <trkpt lat="48.861663" lon="2.212359">
        <ele>87.821575</ele>
        <time>2023-03-30T14:05:36.910Z</time>
      </trkpt>
      <trkpt lat="48.861624" lon="2.212417">
        <ele>87.782999</ele>
        <time>2023-03-30T14:05:37.521Z</time>
      </trkpt>
      <trkpt lat="48.861587" lon="2.212470">
        <ele>87.747054</ele>
        <time>2023-03-30T14:05:38.086Z</time>
      </trkpt>
      <trkpt lat="48.861512" lon="2.212578">
        <ele>87.674012</ele>
        <time>2023-03-30T14:05:39.240Z</time>
      </trkpt>
      <trkpt lat="48.861331" lon="2.212795">
        <ele>87.511027</ele>
        <time>2023-03-30T14:05:41.859Z</time>
      </trkpt>
      <trkpt lat="48.860970" lon="2.212975">
        <ele>87.242414</ele>
        <time>2023-03-30T14:05:46.369Z</time>
      </trkpt>
      <trkpt lat="48.860862" lon="2.213023">
        <ele>87.162859</ele>
        <time>2023-03-30T14:05:47.860Z</time>
      </trkpt>
      <trkpt lat="48.860077" lon="2.213405">
        <ele>87.760519</ele>
        <time>2023-03-30T14:06:02.818Z</time>
      </trkpt>
      <trkpt lat="48.859860" lon="2.213492">
        <ele>88.286575</ele>
        <time>2023-03-30T14:06:07.631Z</time>
      </trkpt>
      <trkpt lat="48.859668" lon="2.213484">
        <ele>88.736802</ele>
        <time>2023-03-30T14:06:12.229Z</time>
      </trkpt>
      <trkpt lat="48.859539" lon="2.213538">
        <ele>89.050442</ele>
        <time>2023-03-30T14:06:15.248Z</time>
      </trkpt>
      <trkpt lat="48.859501" lon="2.213401">
        <ele>89.279728</ele>
        <time>2023-03-30T14:06:17.966Z</time>
      </trkpt>
      <trkpt lat="48.859397" lon="2.213061">
        <ele>89.857966</ele>
        <time>2023-03-30T14:06:24.097Z</time>
      </trkpt>
      <trkpt lat="48.859349" lon="2.212904">
        <ele>90.124953</ele>
        <time>2023-03-30T14:06:27.431Z</time>
      </trkpt>
      <trkpt lat="48.859268" lon="2.212627">
        <ele>90.592430</ele>
        <time>2023-03-30T14:06:32.860Z</time>
      </trkpt>
      <trkpt lat="48.859225" lon="2.212494">
        <ele>90.820968</ele>
        <time>2023-03-30T14:06:35.685Z</time>
      </trkpt>
      <trkpt lat="48.859170" lon="2.212354">
        <ele>91.074177</ele>
        <time>2023-03-30T14:06:39.101Z</time>
      </trkpt>
      <trkpt lat="48.859042" lon="2.211893">
        <ele>92.346021</ele>
        <time>2023-03-30T14:06:49.806Z</time>
      </trkpt>
      <trkpt lat="48.859006" lon="2.211732">
        <ele>92.778239</ele>
        <time>2023-03-30T14:06:53.529Z</time>
      </trkpt>
      <trkpt lat="48.858978" lon="2.211612">
        <ele>93.101870</ele>
        <time>2023-03-30T14:06:56.241Z</time>
      </trkpt>
      <trkpt lat="48.858943" lon="2.211562">
        <ele>93.287440</ele>
        <time>2023-03-30T14:06:57.841Z</time>
      </trkpt>
      <trkpt lat="48.858897" lon="2.211496">
        <ele>93.531830</ele>
        <time>2023-03-30T14:07:00.215Z</time>
      </trkpt>
      <trkpt lat="48.858814" lon="2.211381">
        <ele>93.965730</ele>
        <time>2023-03-30T14:07:04.142Z</time>
      </trkpt>
      <trkpt lat="48.858589" lon="2.211198">
        <ele>94.951628</ele>
        <time>2023-03-30T14:07:12.483Z</time>
      </trkpt>
      <trkpt lat="48.858098" lon="2.210915">
        <ele>96.980378</ele>
        <time>2023-03-30T14:07:27.611Z</time>
      </trkpt>
      <trkpt lat="48.858062" lon="2.210714">
        <ele>97.509882</ele>
        <time>2023-03-30T14:07:31.186Z</time>
      </trkpt>
      <trkpt lat="48.857949" lon="2.210519">
        <ele>98.112620</ele>
        <time>2023-03-30T14:07:35.932Z</time>
      </trkpt>
      <trkpt lat="48.857747" lon="2.210338">
        <ele>98.673623</ele>
        <time>2023-03-30T14:07:42.023Z</time>
      </trkpt>
      <trkpt lat="48.856958" lon="2.209773">
        <ele>100.760277</ele>
        <time>2023-03-30T14:08:05.428Z</time>
      </trkpt>
      <trkpt lat="48.856851" lon="2.209678">
        <ele>101.056746</ele>
        <time>2023-03-30T14:08:08.473Z</time>
      </trkpt>
      <trkpt lat="48.855519" lon="2.208007">
        <ele>103.779489</ele>
        <time>2023-03-30T14:08:41.755Z</time>
      </trkpt>
      <trkpt lat="48.854475" lon="2.206703">
        <ele>106.573168</ele>
        <time>2023-03-30T14:09:08.946Z</time>
      </trkpt>
      <trkpt lat="48.854298" lon="2.206574">
        <ele>107.112504</ele>
        <time>2023-03-30T14:09:13.684Z</time>
      </trkpt>
      <trkpt lat="48.852899" lon="2.205842">
        <ele>112.888677</ele>
        <time>2023-03-30T14:09:59.896Z</time>
      </trkpt>
      <trkpt lat="48.852830" lon="2.205820">
        <ele>113.274378</ele>
        <time>2023-03-30T14:10:02.659Z</time>
      </trkpt>
      <trkpt lat="48.852160" lon="2.205630">
        <ele>117.003062</ele>
        <time>2023-03-30T14:10:30.048Z</time>
      </trkpt>
      <trkpt lat="48.852083" lon="2.205602">
        <ele>117.436202</ele>
        <time>2023-03-30T14:10:33.146Z</time>
      </trkpt>
      <trkpt lat="48.851961" lon="2.205509">
        <ele>118.182893</ele>
        <time>2023-03-30T14:10:38.623Z</time>
      </trkpt>
      <trkpt lat="48.851830" lon="2.205478">
        <ele>118.908200</ele>
        <time>2023-03-30T14:10:44.030Z</time>
      </trkpt>
      <trkpt lat="48.851717" lon="2.205346">
        <ele>119.690438</ele>
        <time>2023-03-30T14:10:49.502Z</time>
      </trkpt>
      <trkpt lat="48.851256" lon="2.205101">
        <ele>122.379212</ele>
        <time>2023-03-30T14:11:08.337Z</time>
      </trkpt>
      <trkpt lat="48.851035" lon="2.204928">
        <ele>123.747867</ele>
        <time>2023-03-30T14:11:17.550Z</time>
      </trkpt>
      <trkpt lat="48.850943" lon="2.204811">
        <ele>124.408331</ele>
        <time>2023-03-30T14:11:22.058Z</time>
      </trkpt>
      <trkpt lat="48.850752" lon="2.204383">
        <ele>126.281820</ele>
        <time>2023-03-30T14:11:34.655Z</time>
      </trkpt>
      <trkpt lat="48.850643" lon="2.204245">
        <ele>127.062889</ele>
        <time>2023-03-30T14:11:39.954Z</time>
      </trkpt>
      <trkpt lat="48.850360" lon="2.203743">
        <ele>129.366645</ele>
        <time>2023-03-30T14:11:55.208Z</time>
      </trkpt>
      <trkpt lat="48.850099" lon="2.203088">
        <ele>131.183102</ele>
        <time>2023-03-30T14:12:11.538Z</time>
      </trkpt>
      <trkpt lat="48.850001" lon="2.202875">
        <ele>131.799638</ele>
        <time>2023-03-30T14:12:16.832Z</time>
      </trkpt>
      <trkpt lat="48.849754" lon="2.202300">
        <ele>133.428562</ele>
        <time>2023-03-30T14:12:29.761Z</time>
      </trkpt>
      <trkpt lat="48.849436" lon="2.201621">
        <ele>135.405592</ele>
        <time>2023-03-30T14:12:43.852Z</time>
      </trkpt>
      <trkpt lat="48.849297" lon="2.201406">
        <ele>135.967469</ele>
        <time>2023-03-30T14:12:48.758Z</time>
      </trkpt>
      <trkpt lat="48.849009" lon="2.201078">
        <ele>136.816012</ele>
        <time>2023-03-30T14:12:57.266Z</time>
      </trkpt>
      <trkpt lat="48.849647" lon="2.199317">
        <ele>139.945590</ele>
        <time>2023-03-30T14:13:28.004Z</time>
      </trkpt>
      <trkpt lat="48.849795" lon="2.198767">
        <ele>141.479671</ele>
        <time>2023-03-30T14:13:38.495Z</time>
      </trkpt>
      <trkpt lat="48.849957" lon="2.197996">
        <ele>143.569179</ele>
        <time>2023-03-30T14:13:54.583Z</time>
      </trkpt>
      <trkpt lat="48.849989" lon="2.197830">
        <ele>144.015753</ele>
        <time>2023-03-30T14:13:58.324Z</time>
      </trkpt>
      <trkpt lat="48.850423" lon="2.195652">
        <ele>150.001185</ele>
        <time>2023-03-30T14:14:49.175Z</time>
      </trkpt>
      <trkpt lat="48.850681" lon="2.194457">
        <ele>153.370995</ele>
        <time>2023-03-30T14:15:15.111Z</time>
      </trkpt>
      <trkpt lat="48.850695" lon="2.194393">
        <ele>153.551703</ele>
        <time>2023-03-30T14:15:16.446Z</time>
      </trkpt>
      <trkpt lat="48.850735" lon="2.194319">
        <ele>153.808297</ele>
        <time>2023-03-30T14:15:18.302Z</time>
      </trkpt>
      <trkpt lat="48.851172" lon="2.192667">
        <ele>156.331427</ele>
        <time>2023-03-30T14:15:45.384Z</time>
      </trkpt>
      <trkpt lat="48.851279" lon="2.192267">
        <ele>156.880785</ele>
        <time>2023-03-30T14:15:51.289Z</time>
      </trkpt>
      <trkpt lat="48.851472" lon="2.191503">
        <ele>157.821728</ele>
        <time>2023-03-30T14:16:02.051Z</time>
      </trkpt>
      <trkpt lat="48.851516" lon="2.191250">
        <ele>157.924520</ele>
        <time>2023-03-30T14:16:05.611Z</time>
      </trkpt>
      <trkpt lat="48.851572" lon="2.190929">
        <ele>158.054967</ele>
        <time>2023-03-30T14:16:09.811Z</time>
      </trkpt>
      <trkpt lat="48.851613" lon="2.190657">
        <ele>158.164577</ele>
        <time>2023-03-30T14:16:13.407Z</time>
      </trkpt>
      <trkpt lat="48.851900" lon="2.189461">
        <ele>158.664635</ele>
        <time>2023-03-30T14:16:27.216Z</time>
      </trkpt>
      <trkpt lat="48.851919" lon="2.189202">
        <ele>158.767001</ele>
        <time>2023-03-30T14:16:29.760Z</time>
      </trkpt>
      <trkpt lat="48.851875" lon="2.188626">
        <ele>158.755614</ele>
        <time>2023-03-30T14:16:35.140Z</time>
      </trkpt>
      <trkpt lat="48.851826" lon="2.188474">
        <ele>158.711761</ele>
        <time>2023-03-30T14:16:36.688Z</time>
      </trkpt>
      <trkpt lat="48.851749" lon="2.188393">
        <ele>158.674889</ele>
        <time>2023-03-30T14:16:38.022Z</time>
      </trkpt>
      <trkpt lat="48.850631" lon="2.187732">
        <ele>158.202546</ele>
        <time>2023-03-30T14:16:53.832Z</time>
      </trkpt>
      <trkpt lat="48.850479" lon="2.187596">
        <ele>158.145688</ele>
        <time>2023-03-30T14:16:56.151Z</time>
      </trkpt>
      <trkpt lat="48.850384" lon="2.187450">
        <ele>158.163977</ele>
        <time>2023-03-30T14:16:57.917Z</time>
      </trkpt>
      <trkpt lat="48.850352" lon="2.187203">
        <ele>158.186402</ele>
        <time>2023-03-30T14:17:00.108Z</time>
      </trkpt>
      <trkpt lat="48.850402" lon="2.187010">
        <ele>158.204878</ele>
        <time>2023-03-30T14:17:01.950Z</time>
      </trkpt>
      <trkpt lat="48.850836" lon="2.186297">
        <ele>158.291396</ele>
        <time>2023-03-30T14:17:11.468Z</time>
      </trkpt>
      <trkpt lat="48.850892" lon="2.186178">
        <ele>158.304428</ele>
        <time>2023-03-30T14:17:13.045Z</time>
      </trkpt>
      <trkpt lat="48.850893" lon="2.186171">
        <ele>158.305066</ele>
        <time>2023-03-30T14:17:13.129Z</time>
      </trkpt>
      <trkpt lat="48.850912" lon="2.186069">
        <ele>158.314509</ele>
        <time>2023-03-30T14:17:14.299Z</time>
      </trkpt>
      <trkpt lat="48.850902" lon="2.185823">
        <ele>158.336463</ele>
        <time>2023-03-30T14:17:17.108Z</time>
      </trkpt>
      <trkpt lat="48.850859" lon="2.185713">
        <ele>158.347860</ele>
        <time>2023-03-30T14:17:18.600Z</time>
      </trkpt>
      <trkpt lat="48.850504" lon="2.185295">
        <ele>158.471372</ele>
        <time>2023-03-30T14:17:27.008Z</time>
      </trkpt>
      <trkpt lat="48.848526" lon="2.182836">
        <ele>159.740847</ele>
        <time>2023-03-30T14:18:09.513Z</time>
      </trkpt>
      <trkpt lat="48.848339" lon="2.182640">
        <ele>159.848663</ele>
        <time>2023-03-30T14:18:12.772Z</time>
      </trkpt>
      <trkpt lat="48.848059" lon="2.182429">
        <ele>159.996998</ele>
        <time>2023-03-30T14:18:17.806Z</time>
      </trkpt>
      <trkpt lat="48.847543" lon="2.182027">
        <ele>160.581606</ele>
        <time>2023-03-30T14:18:28.351Z</time>
      </trkpt>
      <trkpt lat="48.847139" lon="2.181720">
        <ele>161.365146</ele>
        <time>2023-03-30T14:18:36.855Z</time>
      </trkpt>
      <trkpt lat="48.847118" lon="2.181634">
        <ele>161.469858</ele>
        <time>2023-03-30T14:18:38.062Z</time>
      </trkpt>
      <trkpt lat="48.847075" lon="2.181608">
        <ele>161.550136</ele>
        <time>2023-03-30T14:18:39.005Z</time>
      </trkpt>
      <trkpt lat="48.847212" lon="2.181004">
        <ele>162.279424</ele>
        <time>2023-03-30T14:18:48.461Z</time>
      </trkpt>
      <trkpt lat="48.847273" lon="2.180592">
        <ele>162.761487</ele>
        <time>2023-03-30T14:18:55.419Z</time>
      </trkpt>
      <trkpt lat="48.847498" lon="2.179068">
        <ele>164.755149</ele>
        <time>2023-03-30T14:19:22.325Z</time>
      </trkpt>
      <trkpt lat="48.847713" lon="2.177231">
        <ele>166.970712</ele>
        <time>2023-03-30T14:19:48.607Z</time>
      </trkpt>
      <trkpt lat="48.847813" lon="2.176357">
        <ele>167.176962</ele>
        <time>2023-03-30T14:19:59.156Z</time>
      </trkpt>
      <trkpt lat="48.848283" lon="2.173847">
        <ele>167.231301</ele>
        <time>2023-03-30T14:20:23.281Z</time>
      </trkpt>
      <trkpt lat="48.848495" lon="2.172514">
        <ele>166.798268</ele>
        <time>2023-03-30T14:20:35.077Z</time>
      </trkpt>
      <trkpt lat="48.848534" lon="2.171995">
        <ele>166.598161</ele>
        <time>2023-03-30T14:20:39.412Z</time>
      </trkpt>
      <trkpt lat="48.848563" lon="2.171594">
        <ele>166.386350</ele>
        <time>2023-03-30T14:20:42.757Z</time>
      </trkpt>
      <trkpt lat="48.848605" lon="2.171135">
        <ele>166.143035</ele>
        <time>2023-03-30T14:20:46.606Z</time>
      </trkpt>
      <trkpt lat="48.848628" lon="2.170861">
        <ele>165.998007</ele>
        <time>2023-03-30T14:20:48.906Z</time>
      </trkpt>
      <trkpt lat="48.848618" lon="2.170743">
        <ele>165.935540</ele>
        <time>2023-03-30T14:20:49.886Z</time>
      </trkpt>
      <trkpt lat="48.848500" lon="2.170548">
        <ele>165.796448</ele>
        <time>2023-03-30T14:20:52.022Z</time>
      </trkpt>
      <trkpt lat="48.848301" lon="2.170290">
        <ele>165.587736</ele>
        <time>2023-03-30T14:20:55.208Z</time>
      </trkpt>
      <trkpt lat="48.848032" lon="2.169940">
        <ele>165.305183</ele>
        <time>2023-03-30T14:20:59.590Z</time>
      </trkpt>
      <trkpt lat="48.847814" lon="2.169658">
        <ele>165.136617</ele>
        <time>2023-03-30T14:21:03.314Z</time>
      </trkpt>
      <trkpt lat="48.847709" lon="2.169520">
        <ele>165.063845</ele>
        <time>2023-03-30T14:21:05.095Z</time>
      </trkpt>
      <trkpt lat="48.847106" lon="2.169191">
        <ele>164.727995</ele>
        <time>2023-03-30T14:21:13.379Z</time>
      </trkpt>
      <trkpt lat="48.846873" lon="2.169077">
        <ele>164.599681</ele>
        <time>2023-03-30T14:21:16.668Z</time>
      </trkpt>
      <trkpt lat="48.846876" lon="2.169015">
        <ele>164.578235</ele>
        <time>2023-03-30T14:21:17.232Z</time>
      </trkpt>
      <trkpt lat="48.846846" lon="2.168963">
        <ele>164.554380</ele>
        <time>2023-03-30T14:21:17.846Z</time>
      </trkpt>
      <trkpt lat="48.846848" lon="2.168746">
        <ele>164.479515</ele>
        <time>2023-03-30T14:21:20.543Z</time>
      </trkpt>
      <trkpt lat="48.846853" lon="2.168318">
        <ele>164.331847</ele>
        <time>2023-03-30T14:21:25.931Z</time>
      </trkpt>
      <trkpt lat="48.846851" lon="2.167025">
        <ele>164.468151</ele>
        <time>2023-03-30T14:21:42.610Z</time>
      </trkpt>
      <trkpt lat="48.846851" lon="2.166931">
        <ele>164.480408</ele>
        <time>2023-03-30T14:21:43.904Z</time>
      </trkpt>
      <trkpt lat="48.846836" lon="2.158827">
        <ele>165.888300</ele>
        <time>2023-03-30T14:23:38.762Z</time>
      </trkpt>
      <trkpt lat="48.846898" lon="2.158709">
        <ele>165.920497</ele>
        <time>2023-03-30T14:23:40.295Z</time>
      </trkpt>
      <trkpt lat="48.846873" lon="2.158598">
        <ele>165.945514</ele>
        <time>2023-03-30T14:23:41.522Z</time>
      </trkpt>
      <trkpt lat="48.846841" lon="2.158564">
        <ele>165.958166</ele>
        <time>2023-03-30T14:23:42.141Z</time>
      </trkpt>
      <trkpt lat="48.846848" lon="2.156293">
        <ele>166.457976</ele>
        <time>2023-03-30T14:24:06.388Z</time>
      </trkpt>
      <trkpt lat="48.846849" lon="2.155991">
        <ele>166.526688</ele>
        <time>2023-03-30T14:24:09.624Z</time>
      </trkpt>
      <trkpt lat="48.846851" lon="2.155007">
        <ele>166.750567</ele>
        <time>2023-03-30T14:24:19.913Z</time>
      </trkpt>
      <trkpt lat="48.846852" lon="2.154726">
        <ele>166.814500</ele>
        <time>2023-03-30T14:24:22.829Z</time>
      </trkpt>
      <trkpt lat="48.846840" lon="2.153022">
        <ele>167.176038</ele>
        <time>2023-03-30T14:24:41.446Z</time>
      </trkpt>
      <trkpt lat="48.846840" lon="2.152709">
        <ele>167.242216</ele>
        <time>2023-03-30T14:24:44.780Z</time>
      </trkpt>
      <trkpt lat="48.846860" lon="2.150455">
        <ele>167.188751</ele>
        <time>2023-03-30T14:25:07.715Z</time>
      </trkpt>
      <trkpt lat="48.846899" lon="2.150442">
        <ele>167.179566</ele>
        <time>2023-03-30T14:25:08.279Z</time>
      </trkpt>
      <trkpt lat="48.846935" lon="2.150350">
        <ele>167.163361</ele>
        <time>2023-03-30T14:25:09.258Z</time>
      </trkpt>
      <trkpt lat="48.846909" lon="2.150266">
        <ele>167.149307</ele>
        <time>2023-03-30T14:25:10.108Z</time>
      </trkpt>
      <trkpt lat="48.846855" lon="2.150243">
        <ele>167.136405</ele>
        <time>2023-03-30T14:25:10.897Z</time>
      </trkpt>
      <trkpt lat="48.846849" lon="2.148938">
        <ele>166.734579</ele>
        <time>2023-03-30T14:25:21.807Z</time>
      </trkpt>
      <trkpt lat="48.846849" lon="2.148931">
        <ele>166.729742</ele>
        <time>2023-03-30T14:25:21.858Z</time>
      </trkpt>
      <trkpt lat="48.846852" lon="2.148865">
        <ele>166.684030</ele>
        <time>2023-03-30T14:25:22.370Z</time>
      </trkpt>
      <trkpt lat="48.846912" lon="2.148766">
        <ele>166.591036</ele>
        <time>2023-03-30T14:25:23.406Z</time>
      </trkpt>
      <trkpt lat="48.847922" lon="2.147167">
        <ele>165.078567</ele>
        <time>2023-03-30T14:25:40.810Z</time>
      </trkpt>
      <trkpt lat="48.847959" lon="2.147141">
        <ele>165.052668</ele>
        <time>2023-03-30T14:25:41.316Z</time>
      </trkpt>
      <trkpt lat="48.848023" lon="2.147166">
        <ele>165.010684</ele>
        <time>2023-03-30T14:25:42.109Z</time>
      </trkpt>
      <trkpt lat="48.848077" lon="2.147073">
        <ele>164.958829</ele>
        <time>2023-03-30T14:25:43.107Z</time>
      </trkpt>
      <trkpt lat="48.848059" lon="2.146989">
        <ele>164.921894</ele>
        <time>2023-03-30T14:25:43.807Z</time>
      </trkpt>
      <trkpt lat="48.848922" lon="2.145585">
        <ele>164.118650</ele>
        <time>2023-03-30T14:26:00.480Z</time>
      </trkpt>
      <trkpt lat="48.849382" lon="2.144890">
        <ele>163.458510</ele>
        <time>2023-03-30T14:26:09.756Z</time>
      </trkpt>
      <trkpt lat="48.849431" lon="2.144854">
        <ele>163.390732</ele>
        <time>2023-03-30T14:26:10.476Z</time>
      </trkpt>
      <trkpt lat="48.849191" lon="2.143758">
        <ele>162.444159</ele>
        <time>2023-03-30T14:26:19.749Z</time>
      </trkpt>
      <trkpt lat="48.849189" lon="2.143743">
        <ele>162.431617</ele>
        <time>2023-03-30T14:26:19.861Z</time>
      </trkpt>
      <trkpt lat="48.849103" lon="2.143272">
        <ele>162.031058</ele>
        <time>2023-03-30T14:26:23.428Z</time>
      </trkpt>
      <trkpt lat="48.849084" lon="2.143080">
        <ele>161.871948</ele>
        <time>2023-03-30T14:26:24.813Z</time>
      </trkpt>
      <trkpt lat="48.849095" lon="2.142856">
        <ele>161.611551</ele>
        <time>2023-03-30T14:26:26.395Z</time>
      </trkpt>
      <trkpt lat="48.849189" lon="2.142511">
        <ele>160.675658</ele>
        <time>2023-03-30T14:26:28.935Z</time>
      </trkpt>
      <trkpt lat="48.849266" lon="2.142335">
        <ele>160.145939</ele>
        <time>2023-03-30T14:26:30.334Z</time>
      </trkpt>
      <trkpt lat="48.849340" lon="2.142253">
        <ele>159.797111</ele>
        <time>2023-03-30T14:26:31.293Z</time>
      </trkpt>
      <trkpt lat="48.849683" lon="2.142269">
        <ele>158.490064</ele>
        <time>2023-03-30T14:26:34.744Z</time>
      </trkpt>
      <trkpt lat="48.850426" lon="2.142377">
        <ele>155.647182</ele>
        <time>2023-03-30T14:26:41.967Z</time>
      </trkpt>
      <trkpt lat="48.850607" lon="2.142190">
        <ele>154.799491</ele>
        <time>2023-03-30T14:26:43.999Z</time>
      </trkpt>
      <trkpt lat="48.850653" lon="2.142056">
        <ele>154.332851</ele>
        <time>2023-03-30T14:26:44.917Z</time>
      </trkpt>
      <trkpt lat="48.850661" lon="2.141947">
        <ele>153.994227</ele>
        <time>2023-03-30T14:26:45.577Z</time>
      </trkpt>
      <trkpt lat="48.850631" lon="2.141783">
        <ele>153.468677</ele>
        <time>2023-03-30T14:26:46.607Z</time>
      </trkpt>
      <trkpt lat="48.850467" lon="2.141462">
        <ele>152.213933</ele>
        <time>2023-03-30T14:26:49.089Z</time>
      </trkpt>
      <trkpt lat="48.850428" lon="2.141325">
        <ele>151.753059</ele>
        <time>2023-03-30T14:26:50.013Z</time>
      </trkpt>
      <trkpt lat="48.850421" lon="2.141138">
        <ele>151.174762</ele>
        <time>2023-03-30T14:26:51.173Z</time>
      </trkpt>
      <trkpt lat="48.850467" lon="2.140966">
        <ele>150.601526</ele>
        <time>2023-03-30T14:26:52.330Z</time>
      </trkpt>
      <trkpt lat="48.850590" lon="2.140907">
        <ele>149.996335</ele>
        <time>2023-03-30T14:26:53.560Z</time>
      </trkpt>
      <trkpt lat="48.850714" lon="2.140952">
        <ele>149.398160</ele>
        <time>2023-03-30T14:26:54.769Z</time>
      </trkpt>
      <trkpt lat="48.850951" lon="2.141153">
        <ele>148.124695</ele>
        <time>2023-03-30T14:26:57.370Z</time>
      </trkpt>
      <trkpt lat="48.851254" lon="2.141366">
        <ele>146.558267</ele>
        <time>2023-03-30T14:27:00.679Z</time>
      </trkpt>
      <trkpt lat="48.851315" lon="2.141351">
        <ele>146.336742</ele>
        <time>2023-03-30T14:27:01.269Z</time>
      </trkpt>
      <trkpt lat="48.851045" lon="2.140934">
        <ele>145.272538</ele>
        <time>2023-03-30T14:27:05.079Z</time>
      </trkpt>
      <trkpt lat="48.849490" lon="2.138534">
        <ele>137.566431</ele>
        <time>2023-03-30T14:27:28.739Z</time>
      </trkpt>
      <trkpt lat="48.848692" lon="2.137420">
        <ele>131.905771</ele>
        <time>2023-03-30T14:27:38.670Z</time>
      </trkpt>
      <trkpt lat="48.848901" lon="2.136946">
        <ele>128.258550</ele>
        <time>2023-03-30T14:27:41.937Z</time>
      </trkpt>
      <trkpt lat="48.849346" lon="2.135962">
        <ele>120.626447</ele>
        <time>2023-03-30T14:27:48.646Z</time>
      </trkpt>
      <trkpt lat="48.849580" lon="2.135336">
        <ele>116.024407</ele>
        <time>2023-03-30T14:27:52.669Z</time>
      </trkpt>
      <trkpt lat="48.849659" lon="2.135042">
        <ele>114.676669</ele>
        <time>2023-03-30T14:27:54.459Z</time>
      </trkpt>
      <trkpt lat="48.849740" lon="2.134452">
        <ele>112.431518</ele>
        <time>2023-03-30T14:27:57.926Z</time>
      </trkpt>
      <trkpt lat="48.849730" lon="2.134266">
        <ele>111.736335</ele>
        <time>2023-03-30T14:27:59.016Z</time>
      </trkpt>
      <trkpt lat="48.849726" lon="2.134177">
        <ele>111.404026</ele>
        <time>2023-03-30T14:27:59.537Z</time>
      </trkpt>
      <trkpt lat="48.849695" lon="2.134022">
        <ele>110.800551</ele>
        <time>2023-03-30T14:28:00.506Z</time>
      </trkpt>
      <trkpt lat="48.849560" lon="2.133729">
        <ele>109.468130</ele>
        <time>2023-03-30T14:28:02.662Z</time>
      </trkpt>
      <trkpt lat="48.848919" lon="2.132905">
        <ele>105.784785</ele>
        <time>2023-03-30T14:28:11.586Z</time>
      </trkpt>
      <trkpt lat="48.848874" lon="2.132786">
        <ele>106.020359</ele>
        <time>2023-03-30T14:28:13.258Z</time>
      </trkpt>
      <trkpt lat="48.848896" lon="2.132760">
        <ele>106.093053</ele>
        <time>2023-03-30T14:28:13.692Z</time>
      </trkpt>
      <trkpt lat="48.848890" lon="2.132681">
        <ele>106.229548</ele>
        <time>2023-03-30T14:28:14.653Z</time>
      </trkpt>
      <trkpt lat="48.849307" lon="2.132295">
        <ele>107.503113</ele>
        <time>2023-03-30T14:28:26.984Z</time>
      </trkpt>
      <trkpt lat="48.849492" lon="2.132057">
        <ele>108.135343</ele>
        <time>2023-03-30T14:28:34.473Z</time>
      </trkpt>
      <trkpt lat="48.849841" lon="2.131496">
        <ele>109.460409</ele>
        <time>2023-03-30T14:28:50.534Z</time>
      </trkpt>
      <trkpt lat="48.849955" lon="2.131383">
        <ele>109.815420</ele>
        <time>2023-03-30T14:28:55.128Z</time>
      </trkpt>
      <trkpt lat="48.849966" lon="2.131202">
        <ele>110.127403</ele>
        <time>2023-03-30T14:28:58.736Z</time>
      </trkpt>
      <trkpt lat="48.849978" lon="2.131067">
        <ele>110.461918</ele>
        <time>2023-03-30T14:29:01.786Z</time>
      </trkpt>
      <trkpt lat="48.849971" lon="2.130919">
        <ele>110.831945</ele>
        <time>2023-03-30T14:29:05.333Z</time>
      </trkpt>
      <trkpt lat="48.850111" lon="2.130914">
        <ele>111.362651</ele>
        <time>2023-03-30T14:29:09.851Z</time>
      </trkpt>
      <trkpt lat="48.850316" lon="2.131032">
        <ele>112.193402</ele>
        <time>2023-03-30T14:29:17.671Z</time>
      </trkpt>
      <trkpt lat="48.850416" lon="2.131048">
        <ele>112.574468</ele>
        <time>2023-03-30T14:29:20.923Z</time>
      </trkpt>
      <trkpt lat="48.851608" lon="2.130908">
        <ele>117.002078</ele>
        <time>2023-03-30T14:29:56.247Z</time>
      </trkpt>
      <trkpt lat="48.852342" lon="2.130955">
        <ele>117.871604</ele>
        <time>2023-03-30T14:30:12.252Z</time>
      </trkpt>
      <trkpt lat="48.854100" lon="2.131161">
        <ele>118.766671</ele>
        <time>2023-03-30T14:30:40.518Z</time>
      </trkpt>
      <trkpt lat="48.854134" lon="2.131245">
        <ele>118.738794</ele>
        <time>2023-03-30T14:30:41.319Z</time>
      </trkpt>
      <trkpt lat="48.854166" lon="2.131259">
        <ele>118.724489</ele>
        <time>2023-03-30T14:30:41.701Z</time>
      </trkpt>
      <trkpt lat="48.854224" lon="2.131216">
        <ele>118.696765</ele>
        <time>2023-03-30T14:30:42.470Z</time>
      </trkpt>
      <trkpt lat="48.854236" lon="2.131171">
        <ele>118.683040</ele>
        <time>2023-03-30T14:30:42.888Z</time>
      </trkpt>
      <trkpt lat="48.854216" lon="2.131081">
        <ele>118.656189</ele>
        <time>2023-03-30T14:30:43.738Z</time>
      </trkpt>
      <trkpt lat="48.854892" lon="2.130209">
        <ele>118.346162</ele>
        <time>2023-03-30T14:30:54.488Z</time>
      </trkpt>
      <trkpt lat="48.855254" lon="2.129731">
        <ele>118.544738</ele>
        <time>2023-03-30T14:31:00.400Z</time>
      </trkpt>
      <trkpt lat="48.855479" lon="2.129414">
        <ele>118.671783</ele>
        <time>2023-03-30T14:31:04.767Z</time>
      </trkpt>
      <trkpt lat="48.856065" lon="2.128606">
        <ele>118.999423</ele>
        <time>2023-03-30T14:31:18.440Z</time>
      </trkpt>
      <trkpt lat="48.856316" lon="2.127960">
        <ele>121.143626</ele>
        <time>2023-03-30T14:31:30.910Z</time>
      </trkpt>
      <trkpt lat="48.856593" lon="2.127171">
        <ele>124.588466</ele>
        <time>2023-03-30T14:31:51.981Z</time>
      </trkpt>
      <trkpt lat="48.857117" lon="2.125850">
        <ele>130.812214</ele>
        <time>2023-03-30T14:32:39.892Z</time>
      </trkpt>
      <trkpt lat="48.857453" lon="2.124756">
        <ele>136.852700</ele>
        <time>2023-03-30T14:33:21.173Z</time>
      </trkpt>
      <trkpt lat="48.857501" lon="2.124726">
        <ele>137.247365</ele>
        <time>2023-03-30T14:33:23.703Z</time>
      </trkpt>
      <trkpt lat="48.857512" lon="2.124556">
        <ele>138.102007</ele>
        <time>2023-03-30T14:33:29.036Z</time>
      </trkpt>
      <trkpt lat="48.857770" lon="2.123669">
        <ele>142.954142</ele>
        <time>2023-03-30T14:33:56.199Z</time>
      </trkpt>
      <trkpt lat="48.857843" lon="2.123406">
        <ele>143.240119</ele>
        <time>2023-03-30T14:34:02.560Z</time>
      </trkpt>
      <trkpt lat="48.858035" lon="2.122712">
        <ele>143.159602</ele>
        <time>2023-03-30T14:34:15.691Z</time>
      </trkpt>
      <trkpt lat="48.858307" lon="2.121633">
        <ele>143.036026</ele>
        <time>2023-03-30T14:34:25.290Z</time>
      </trkpt>
      <trkpt lat="48.859031" lon="2.119798">
        <ele>136.885094</ele>
        <time>2023-03-30T14:34:38.290Z</time>
      </trkpt>
      <trkpt lat="48.858893" lon="2.119606">
        <ele>135.759555</ele>
        <time>2023-03-30T14:34:39.956Z</time>
      </trkpt>
      <trkpt lat="48.858845" lon="2.119472">
        <ele>135.155643</ele>
        <time>2023-03-30T14:34:40.848Z</time>
      </trkpt>
      <trkpt lat="48.858855" lon="2.119364">
        <ele>134.723949</ele>
        <time>2023-03-30T14:34:41.467Z</time>
      </trkpt>
      <trkpt lat="48.858908" lon="2.119313">
        <ele>134.346563</ele>
        <time>2023-03-30T14:34:42.019Z</time>
      </trkpt>
      <trkpt lat="48.859163" lon="2.119249">
        <ele>132.791657</ele>
        <time>2023-03-30T14:34:44.356Z</time>
      </trkpt>
      <trkpt lat="48.859271" lon="2.119082">
        <ele>131.994700</ele>
        <time>2023-03-30T14:34:45.734Z</time>
      </trkpt>
      <trkpt lat="48.859782" lon="2.117591">
        <ele>128.364671</ele>
        <time>2023-03-30T14:34:56.227Z</time>
      </trkpt>
      <trkpt lat="48.859844" lon="2.117431">
        <ele>127.963727</ele>
        <time>2023-03-30T14:34:57.480Z</time>
      </trkpt>
      <trkpt lat="48.860734" lon="2.115619">
        <ele>127.958370</ele>
        <time>2023-03-30T14:35:24.559Z</time>
      </trkpt>
      <trkpt lat="48.860807" lon="2.115410">
        <ele>128.234418</ele>
        <time>2023-03-30T14:35:28.019Z</time>
      </trkpt>
      <trkpt lat="48.860893" lon="2.115159">
        <ele>128.564560</ele>
        <time>2023-03-30T14:35:33.654Z</time>
      </trkpt>
      <trkpt lat="48.861007" lon="2.114826">
        <ele>129.002480</ele>
        <time>2023-03-30T14:35:39.989Z</time>
      </trkpt>
      <trkpt lat="48.861076" lon="2.114502">
        <ele>129.399761</ele>
        <time>2023-03-30T14:35:46.972Z</time>
      </trkpt>
      <trkpt lat="48.860836" lon="2.114352">
        <ele>130.134720</ele>
        <time>2023-03-30T14:35:55.059Z</time>
      </trkpt>
      <trkpt lat="48.860593" lon="2.113702">
        <ele>131.573596</ele>
        <time>2023-03-30T14:36:11.710Z</time>
      </trkpt>
      <trkpt lat="48.860593" lon="2.113702">
        <ele>131.573596</ele>
        <time>2023-03-30T14:36:11.759Z</time>
      </trkpt>
      <trkpt lat="48.860593" lon="2.113702">
        <ele>131.573596</ele>
        <time>2023-03-30T14:36:11.759Z</time>
      </trkpt>
      <trkpt lat="48.860590" lon="2.113700">
        <ele>131.583179</ele>
        <time>2023-03-30T14:36:11.819Z</time>
      </trkpt>
      <trkpt lat="48.860720" lon="2.113680">
        <ele>131.965429</ele>
        <time>2023-03-30T14:36:14.242Z</time>
      </trkpt>
      <trkpt lat="48.860880" lon="2.113700">
        <ele>132.435079</ele>
        <time>2023-03-30T14:36:17.220Z</time>
      </trkpt>
      <trkpt lat="48.861190" lon="2.114080">
        <ele>133.600118</ele>
        <time>2023-03-30T14:36:24.602Z</time>
      </trkpt>
      <trkpt lat="48.861310" lon="2.113850">
        <ele>134.165081</ele>
        <time>2023-03-30T14:36:28.181Z</time>
      </trkpt>
      <trkpt lat="48.861410" lon="2.113440">
        <ele>135.199105</ele>
        <time>2023-03-30T14:36:33.514Z</time>
      </trkpt>
      <trkpt lat="48.861460" lon="2.113370">
        <ele>135.522283</ele>
        <time>2023-03-30T14:36:34.774Z</time>
      </trkpt>
      <trkpt lat="48.861430" lon="2.113140">
        <ele>136.255668</ele>
        <time>2023-03-30T14:36:37.635Z</time>
      </trkpt>
      <trkpt lat="48.861440" lon="2.113144">
        <ele>136.304830</ele>
        <time>2023-03-30T14:36:37.824Z</time>
      </trkpt>
      <trkpt lat="48.861501" lon="2.112819">
        <ele>137.361909</ele>
        <time>2023-03-30T14:36:43.850Z</time>
      </trkpt>
      <trkpt lat="48.861567" lon="2.112644">
        <ele>137.992827</ele>
        <time>2023-03-30T14:36:48.208Z</time>
      </trkpt>
      <trkpt lat="48.861893" lon="2.111778">
        <ele>141.113527</ele>
        <time>2023-03-30T14:37:11.544Z</time>
      </trkpt>
      <trkpt lat="48.862296" lon="2.110727">
        <ele>145.231532</ele>
        <time>2023-03-30T14:37:44.205Z</time>
      </trkpt>
      <trkpt lat="48.862326" lon="2.110648">
        <ele>145.570385</ele>
        <time>2023-03-30T14:37:47.204Z</time>
      </trkpt>
      <trkpt lat="48.862369" lon="2.110569">
        <ele>145.951279</ele>
        <time>2023-03-30T14:37:50.158Z</time>
      </trkpt>
      <trkpt lat="48.862595" lon="2.110266">
        <ele>147.652900</ele>
        <time>2023-03-30T14:38:03.288Z</time>
      </trkpt>
      <trkpt lat="48.862833" lon="2.110000">
        <ele>149.320987</ele>
        <time>2023-03-30T14:38:15.916Z</time>
      </trkpt>
      <trkpt lat="48.862967" lon="2.109687">
        <ele>150.708233</ele>
        <time>2023-03-30T14:38:25.983Z</time>
      </trkpt>
      <trkpt lat="48.863061" lon="2.109384">
        <ele>151.952680</ele>
        <time>2023-03-30T14:38:34.067Z</time>
      </trkpt>
      <trkpt lat="48.863169" lon="2.109050">
        <ele>153.335181</ele>
        <time>2023-03-30T14:38:41.693Z</time>
      </trkpt>
      <trkpt lat="48.863306" lon="2.108123">
        <ele>152.307888</ele>
        <time>2023-03-30T14:38:54.270Z</time>
      </trkpt>
      <trkpt lat="48.863609" lon="2.107187">
        <ele>151.076848</ele>
        <time>2023-03-30T14:39:01.483Z</time>
      </trkpt>
      <trkpt lat="48.863761" lon="2.106786">
        <ele>150.530706</ele>
        <time>2023-03-30T14:39:04.336Z</time>
      </trkpt>
      <trkpt lat="48.864276" lon="2.105629">
        <ele>145.030373</ele>
        <time>2023-03-30T14:39:12.649Z</time>
      </trkpt>
      <trkpt lat="48.864533" lon="2.105356">
        <ele>142.798712</ele>
        <time>2023-03-30T14:39:15.433Z</time>
      </trkpt>
      <trkpt lat="48.864291" lon="2.104685">
        <ele>139.215617</ele>
        <time>2023-03-30T14:39:19.885Z</time>
      </trkpt>
      <trkpt lat="48.864045" lon="2.103872">
        <ele>134.857461</ele>
        <time>2023-03-30T14:39:25.108Z</time>
      </trkpt>
      <trkpt lat="48.864025" lon="2.103808">
        <ele>134.502002</ele>
        <time>2023-03-30T14:39:25.529Z</time>
      </trkpt>
      <trkpt lat="48.866087" lon="2.102020">
        <ele>117.175888</ele>
        <time>2023-03-30T14:39:46.626Z</time>
      </trkpt>
      <trkpt lat="48.866322" lon="2.101988">
        <ele>115.569153</ele>
        <time>2023-03-30T14:39:48.727Z</time>
      </trkpt>
      <trkpt lat="48.866635" lon="2.102122">
        <ele>113.354742</ele>
        <time>2023-03-30T14:39:51.661Z</time>
      </trkpt>
      <trkpt lat="48.866835" lon="2.102090">
        <ele>111.985239</ele>
        <time>2023-03-30T14:39:53.497Z</time>
      </trkpt>
      <trkpt lat="48.867009" lon="2.101968">
        <ele>111.371633</ele>
        <time>2023-03-30T14:39:55.325Z</time>
      </trkpt>
      <trkpt lat="48.867103" lon="2.101898">
        <ele>111.331898</ele>
        <time>2023-03-30T14:39:56.310Z</time>
      </trkpt>
      <trkpt lat="48.867191" lon="2.101867">
        <ele>111.297608</ele>
        <time>2023-03-30T14:39:57.235Z</time>
      </trkpt>
      <trkpt lat="48.867247" lon="2.101886">
        <ele>111.275826</ele>
        <time>2023-03-30T14:39:57.860Z</time>
      </trkpt>
      <trkpt lat="48.867301" lon="2.101860">
        <ele>111.254324</ele>
        <time>2023-03-30T14:39:58.438Z</time>
      </trkpt>
      <trkpt lat="48.867341" lon="2.101788">
        <ele>111.230791</ele>
        <time>2023-03-30T14:39:59.056Z</time>
      </trkpt>
      <trkpt lat="48.867348" lon="2.101701">
        <ele>111.208904</ele>
        <time>2023-03-30T14:39:59.633Z</time>
      </trkpt>
      <trkpt lat="48.867322" lon="2.101612">
        <ele>111.184587</ele>
        <time>2023-03-30T14:40:00.341Z</time>
      </trkpt>
      <trkpt lat="48.867240" lon="2.101558">
        <ele>111.150664</ele>
        <time>2023-03-30T14:40:01.515Z</time>
      </trkpt>
      <trkpt lat="48.867198" lon="2.101453">
        <ele>111.119978</ele>
        <time>2023-03-30T14:40:02.524Z</time>
      </trkpt>
      <trkpt lat="48.867144" lon="2.101317">
        <ele>111.080310</ele>
        <time>2023-03-30T14:40:03.706Z</time>
      </trkpt>
      <trkpt lat="48.867084" lon="2.101136">
        <ele>111.029698</ele>
        <time>2023-03-30T14:40:05.711Z</time>
      </trkpt>
      <trkpt lat="48.866897" lon="2.100861">
        <ele>110.930932</ele>
        <time>2023-03-30T14:40:10.118Z</time>
      </trkpt>
      <trkpt lat="48.866793" lon="2.100760">
        <ele>110.884085</ele>
        <time>2023-03-30T14:40:12.866Z</time>
      </trkpt>
      <trkpt lat="48.866537" lon="2.100543">
        <ele>110.772818</ele>
        <time>2023-03-30T14:40:19.820Z</time>
      </trkpt>
      <trkpt lat="48.866458" lon="2.100411">
        <ele>110.751888</ele>
        <time>2023-03-30T14:40:23.646Z</time>
      </trkpt>
      <trkpt lat="48.866061" lon="2.099144">
        <ele>116.291625</ele>
        <time>2023-03-30T14:41:00.094Z</time>
      </trkpt>
      <trkpt lat="48.865592" lon="2.097611">
        <ele>123.161138</ele>
        <time>2023-03-30T14:41:46.712Z</time>
      </trkpt>
      <trkpt lat="48.865509" lon="2.097340">
        <ele>124.501225</ele>
        <time>2023-03-30T14:41:54.690Z</time>
      </trkpt>
      <trkpt lat="48.865448" lon="2.097141">
        <ele>125.485423</ele>
        <time>2023-03-30T14:42:01.222Z</time>
      </trkpt>
      <trkpt lat="48.865249" lon="2.096490">
        <ele>128.703505</ele>
        <time>2023-03-30T14:42:22.672Z</time>
      </trkpt>
      <trkpt lat="48.865192" lon="2.096304">
        <ele>129.623370</ele>
        <time>2023-03-30T14:42:28.780Z</time>
      </trkpt>
      <trkpt lat="48.865150" lon="2.096169">
        <ele>130.292835</ele>
        <time>2023-03-30T14:42:33.185Z</time>
      </trkpt>
      <trkpt lat="48.865107" lon="2.096027">
        <ele>130.993621</ele>
        <time>2023-03-30T14:42:37.329Z</time>
      </trkpt>
      <trkpt lat="48.864932" lon="2.095455">
        <ele>133.811182</ele>
        <time>2023-03-30T14:42:53.982Z</time>
      </trkpt>
      <trkpt lat="48.864861" lon="2.095120">
        <ele>134.992665</ele>
        <time>2023-03-30T14:43:03.010Z</time>
      </trkpt>
      <trkpt lat="48.864838" lon="2.094893">
        <ele>135.763666</ele>
        <time>2023-03-30T14:43:07.936Z</time>
      </trkpt>
      <trkpt lat="48.864837" lon="2.094844">
        <ele>135.928234</ele>
        <time>2023-03-30T14:43:09.144Z</time>
      </trkpt>
      <trkpt lat="48.864837" lon="2.094799">
        <ele>136.079294</ele>
        <time>2023-03-30T14:43:10.193Z</time>
      </trkpt>
      <trkpt lat="48.864838" lon="2.094753">
        <ele>136.233796</ele>
        <time>2023-03-30T14:43:11.202Z</time>
      </trkpt>
      <trkpt lat="48.864841" lon="2.094702">
        <ele>136.405681</ele>
        <time>2023-03-30T14:43:12.353Z</time>
      </trkpt>
      <trkpt lat="48.864844" lon="2.094651">
        <ele>136.577565</ele>
        <time>2023-03-30T14:43:13.478Z</time>
      </trkpt>
      <trkpt lat="48.864850" lon="2.094600">
        <ele>136.751484</ele>
        <time>2023-03-30T14:43:14.612Z</time>
      </trkpt>
      <trkpt lat="48.864857" lon="2.094549">
        <ele>136.926372</ele>
        <time>2023-03-30T14:43:15.706Z</time>
      </trkpt>
      <trkpt lat="48.864865" lon="2.094498">
        <ele>137.102374</ele>
        <time>2023-03-30T14:43:16.762Z</time>
      </trkpt>
      <trkpt lat="48.864874" lon="2.094449">
        <ele>137.273153</ele>
        <time>2023-03-30T14:43:17.743Z</time>
      </trkpt>
      <trkpt lat="48.864885" lon="2.094400">
        <ele>137.446955</ele>
        <time>2023-03-30T14:43:18.727Z</time>
      </trkpt>
      <trkpt lat="48.864897" lon="2.094353">
        <ele>137.616195</ele>
        <time>2023-03-30T14:43:19.862Z</time>
      </trkpt>
      <trkpt lat="48.864910" lon="2.094307">
        <ele>137.784259</ele>
        <time>2023-03-30T14:43:21.042Z</time>
      </trkpt>
      <trkpt lat="48.865074" lon="2.094082">
        <ele>138.911578</ele>
        <time>2023-03-30T14:43:28.432Z</time>
      </trkpt>
      <trkpt lat="48.865148" lon="2.094003">
        <ele>139.373012</ele>
        <time>2023-03-30T14:43:31.320Z</time>
      </trkpt>
      <trkpt lat="48.865310" lon="2.093681">
        <ele>140.733808</ele>
        <time>2023-03-30T14:43:40.843Z</time>
      </trkpt>
      <trkpt lat="48.865416" lon="2.093599">
        <ele>141.340729</ele>
        <time>2023-03-30T14:43:45.082Z</time>
      </trkpt>
      <trkpt lat="48.865507" lon="2.093530">
        <ele>141.859657</ele>
        <time>2023-03-30T14:43:48.960Z</time>
      </trkpt>
      <trkpt lat="48.865695" lon="2.093502">
        <ele>142.823601</ele>
        <time>2023-03-30T14:43:55.976Z</time>
      </trkpt>
      <trkpt lat="48.865807" lon="2.093538">
        <ele>143.419421</ele>
        <time>2023-03-30T14:44:00.017Z</time>
      </trkpt>
      <trkpt lat="48.866032" lon="2.093720">
        <ele>144.753740</ele>
        <time>2023-03-30T14:44:08.357Z</time>
      </trkpt>
      <trkpt lat="48.866151" lon="2.093777">
        <ele>145.406934</ele>
        <time>2023-03-30T14:44:12.171Z</time>
      </trkpt>
      <trkpt lat="48.866292" lon="2.093785">
        <ele>146.145623</ele>
        <time>2023-03-30T14:44:16.373Z</time>
      </trkpt>
      <trkpt lat="48.866459" lon="2.093714">
        <ele>147.053465</ele>
        <time>2023-03-30T14:44:21.928Z</time>
      </trkpt>
      <trkpt lat="48.866608" lon="2.093550">
        <ele>148.016522</ele>
        <time>2023-03-30T14:44:28.013Z</time>
      </trkpt>
      <trkpt lat="48.866723" lon="2.093306">
        <ele>149.050241</ele>
        <time>2023-03-30T14:44:35.004Z</time>
      </trkpt>
      <trkpt lat="48.866799" lon="2.093066">
        <ele>149.967545</ele>
        <time>2023-03-30T14:44:41.152Z</time>
      </trkpt>
      <trkpt lat="48.866810" lon="2.092941">
        <ele>150.401860</ele>
        <time>2023-03-30T14:44:44.399Z</time>
      </trkpt>
      <trkpt lat="48.866763" lon="2.092674">
        <ele>151.353717</ele>
        <time>2023-03-30T14:44:51.310Z</time>
      </trkpt>
      <trkpt lat="48.866704" lon="2.092543">
        <ele>151.900469</ele>
        <time>2023-03-30T14:44:55.434Z</time>
      </trkpt>
      <trkpt lat="48.866628" lon="2.092372">
        <ele>152.654864</ele>
        <time>2023-03-30T14:45:01.138Z</time>
      </trkpt>
      <trkpt lat="48.865930" lon="2.090972">
        <ele>159.822702</ele>
        <time>2023-03-30T14:45:51.397Z</time>
      </trkpt>
      <trkpt lat="48.865606" lon="2.090259">
        <ele>163.358678</ele>
        <time>2023-03-30T14:46:12.203Z</time>
      </trkpt>
      <trkpt lat="48.865477" lon="2.089815">
        <ele>164.522729</ele>
        <time>2023-03-30T14:46:22.697Z</time>
      </trkpt>
      <trkpt lat="48.865074" lon="2.087900">
        <ele>169.021259</ele>
        <time>2023-03-30T14:46:59.173Z</time>
      </trkpt>
      <trkpt lat="48.865050" lon="2.087392">
        <ele>169.985518</ele>
        <time>2023-03-30T14:47:07.062Z</time>
      </trkpt>
      <trkpt lat="48.864996" lon="2.087194">
        <ele>170.300838</ele>
        <time>2023-03-30T14:47:10.339Z</time>
      </trkpt>
      <trkpt lat="48.864833" lon="2.086977">
        <ele>170.785380</ele>
        <time>2023-03-30T14:47:15.548Z</time>
      </trkpt>
      <trkpt lat="48.862164" lon="2.084521">
        <ele>177.335067</ele>
        <time>2023-03-30T14:48:28.599Z</time>
      </trkpt>
      <trkpt lat="48.862135" lon="2.084495">
        <ele>177.364712</ele>
        <time>2023-03-30T14:48:29.261Z</time>
      </trkpt>
      <trkpt lat="48.861763" lon="2.084133">
        <ele>177.753619</ele>
        <time>2023-03-30T14:48:37.687Z</time>
      </trkpt>
      <trkpt lat="48.861599" lon="2.083994">
        <ele>177.918948</ele>
        <time>2023-03-30T14:48:41.156Z</time>
      </trkpt>
      <trkpt lat="48.861291" lon="2.083838">
        <ele>178.204793</ele>
        <time>2023-03-30T14:48:46.878Z</time>
      </trkpt>
      <trkpt lat="48.861214" lon="2.083811">
        <ele>178.274371</ele>
        <time>2023-03-30T14:48:48.289Z</time>
      </trkpt>
      <trkpt lat="48.860035" lon="2.083788">
        <ele>179.102755</ele>
        <time>2023-03-30T14:49:07.748Z</time>
      </trkpt>
      <trkpt lat="48.856880" lon="2.083791">
        <ele>180.315425</ele>
        <time>2023-03-30T14:49:59.969Z</time>
      </trkpt>
      <trkpt lat="48.854161" lon="2.083802">
        <ele>179.832589</ele>
        <time>2023-03-30T14:50:37.349Z</time>
      </trkpt>
      <trkpt lat="48.854177" lon="2.083342">
        <ele>179.805995</ele>
        <time>2023-03-30T14:50:42.023Z</time>
      </trkpt>
      <trkpt lat="48.854197" lon="2.082789">
        <ele>179.774020</ele>
        <time>2023-03-30T14:50:47.647Z</time>
      </trkpt>
      <trkpt lat="48.854254" lon="2.080587">
        <ele>179.974719</ele>
        <time>2023-03-30T14:51:10.764Z</time>
      </trkpt>
      <trkpt lat="48.854350" lon="2.077264">
        <ele>180.152045</ele>
        <time>2023-03-30T14:51:42.618Z</time>
      </trkpt>
      <trkpt lat="48.854403" lon="2.076014">
        <ele>180.802811</ele>
        <time>2023-03-30T14:51:56.580Z</time>
      </trkpt>
      <trkpt lat="48.854417" lon="2.074796">
        <ele>181.550034</ele>
        <time>2023-03-30T14:52:11.952Z</time>
      </trkpt>
      <trkpt lat="48.854424" lon="2.074234">
        <ele>181.941648</ele>
        <time>2023-03-30T14:52:19.665Z</time>
      </trkpt>
      <trkpt lat="48.854461" lon="2.073343">
        <ele>182.924680</ele>
        <time>2023-03-30T14:52:32.620Z</time>
      </trkpt>
      <trkpt lat="48.854464" lon="2.073260">
        <ele>183.016209</ele>
        <time>2023-03-30T14:52:33.849Z</time>
      </trkpt>
      <trkpt lat="48.854608" lon="2.067683">
        <ele>188.259203</ele>
        <time>2023-03-30T14:53:53.239Z</time>
      </trkpt>
      <trkpt lat="48.854663" lon="2.066313">
        <ele>188.703808</ele>
        <time>2023-03-30T14:54:05.888Z</time>
      </trkpt>
      <trkpt lat="48.854698" lon="2.064589">
        <ele>187.598851</ele>
        <time>2023-03-30T14:54:19.848Z</time>
      </trkpt>
      <trkpt lat="48.854702" lon="2.064402">
        <ele>187.458602</ele>
        <time>2023-03-30T14:54:21.382Z</time>
      </trkpt>
      <trkpt lat="48.854707" lon="2.064316">
        <ele>187.393886</ele>
        <time>2023-03-30T14:54:22.090Z</time>
      </trkpt>
      <trkpt lat="48.854888" lon="2.064234">
        <ele>187.178715</ele>
        <time>2023-03-30T14:54:24.407Z</time>
      </trkpt>
      <trkpt lat="48.854908" lon="2.064222">
        <ele>187.154219</ele>
        <time>2023-03-30T14:54:24.682Z</time>
      </trkpt>
      <trkpt lat="48.856138" lon="2.063325">
        <ele>184.166891</ele>
        <time>2023-03-30T14:54:39.662Z</time>
      </trkpt>
      <trkpt lat="48.856307" lon="2.063277">
        <ele>183.718475</ele>
        <time>2023-03-30T14:54:41.448Z</time>
      </trkpt>
      <trkpt lat="48.856397" lon="2.063264">
        <ele>183.482680</ele>
        <time>2023-03-30T14:54:42.385Z</time>
      </trkpt>
      <trkpt lat="48.856543" lon="2.063299">
        <ele>183.097175</ele>
        <time>2023-03-30T14:54:43.927Z</time>
      </trkpt>
      <trkpt lat="48.857362" lon="2.063809">
        <ele>179.683920</ele>
        <time>2023-03-30T14:54:52.666Z</time>
      </trkpt>
      <trkpt lat="48.857527" lon="2.064065">
        <ele>178.517229</ele>
        <time>2023-03-30T14:54:54.874Z</time>
      </trkpt>
      <trkpt lat="48.857695" lon="2.064535">
        <ele>176.775892</ele>
        <time>2023-03-30T14:54:58.147Z</time>
      </trkpt>
      <trkpt lat="48.857772" lon="2.064758">
        <ele>175.956003</ele>
        <time>2023-03-30T14:54:59.691Z</time>
      </trkpt>
      <trkpt lat="48.857774" lon="2.064763">
        <ele>175.936953</ele>
        <time>2023-03-30T14:54:59.726Z</time>
      </trkpt>
      <trkpt lat="48.857888" lon="2.064933">
        <ele>175.146706</ele>
        <time>2023-03-30T14:55:01.210Z</time>
      </trkpt>
      <trkpt lat="48.858401" lon="2.065270">
        <ele>172.250319</ele>
        <time>2023-03-30T14:55:06.402Z</time>
      </trkpt>
      <trkpt lat="48.858548" lon="2.065440">
        <ele>171.174232</ele>
        <time>2023-03-30T14:55:08.106Z</time>
      </trkpt>
      <trkpt lat="48.858700" lon="2.065720">
        <ele>169.782866</ele>
        <time>2023-03-30T14:55:10.316Z</time>
      </trkpt>
      <trkpt lat="48.858798" lon="2.066037">
        <ele>168.440399</ele>
        <time>2023-03-30T14:55:12.411Z</time>
      </trkpt>
      <trkpt lat="48.859020" lon="2.067056">
        <ele>164.326164</ele>
        <time>2023-03-30T14:55:18.827Z</time>
      </trkpt>
      <trkpt lat="48.859127" lon="2.067418">
        <ele>162.805082</ele>
        <time>2023-03-30T14:55:21.257Z</time>
      </trkpt>
      <trkpt lat="48.859162" lon="2.067741">
        <ele>161.652613</ele>
        <time>2023-03-30T14:55:23.315Z</time>
      </trkpt>
      <trkpt lat="48.859096" lon="2.068168">
        <ele>160.128878</ele>
        <time>2023-03-30T14:55:26.062Z</time>
      </trkpt>
      <trkpt lat="48.858976" lon="2.068464">
        <ele>158.921063</ele>
        <time>2023-03-30T14:55:28.240Z</time>
      </trkpt>
      <trkpt lat="48.858821" lon="2.068690">
        <ele>157.786954</ele>
        <time>2023-03-30T14:55:30.265Z</time>
      </trkpt>
      <trkpt lat="48.858674" lon="2.069111">
        <ele>156.131232</ele>
        <time>2023-03-30T14:55:33.167Z</time>
      </trkpt>
      <trkpt lat="48.858661" lon="2.069236">
        <ele>155.691601</ele>
        <time>2023-03-30T14:55:33.939Z</time>
      </trkpt>
      <trkpt lat="48.858677" lon="2.069537">
        <ele>154.642544</ele>
        <time>2023-03-30T14:55:35.766Z</time>
      </trkpt>
      <trkpt lat="48.858828" lon="2.069854">
        <ele>153.282985</ele>
        <time>2023-03-30T14:55:38.166Z</time>
      </trkpt>
      <trkpt lat="48.859037" lon="2.070007">
        <ele>151.910024</ele>
        <time>2023-03-30T14:55:40.346Z</time>
      </trkpt>
      <trkpt lat="48.859349" lon="2.070157">
        <ele>149.946696</ele>
        <time>2023-03-30T14:55:43.420Z</time>
      </trkpt>
      <trkpt lat="48.859505" lon="2.070133">
        <ele>149.005955</ele>
        <time>2023-03-30T14:55:44.897Z</time>
      </trkpt>
      <trkpt lat="48.859645" lon="2.070035">
        <ele>148.081196</ele>
        <time>2023-03-30T14:55:46.336Z</time>
      </trkpt>
      <trkpt lat="48.859821" lon="2.069821">
        <ele>146.728947</ele>
        <time>2023-03-30T14:55:48.431Z</time>
      </trkpt>
      <trkpt lat="48.860312" lon="2.069059">
        <ele>142.518845</ele>
        <time>2023-03-30T14:55:54.756Z</time>
      </trkpt>
      <trkpt lat="48.860766" lon="2.068169">
        <ele>137.264814</ele>
        <time>2023-03-30T14:56:01.377Z</time>
      </trkpt>
      <trkpt lat="48.861024" lon="2.067843">
        <ele>134.871510</ele>
        <time>2023-03-30T14:56:04.389Z</time>
      </trkpt>
      <trkpt lat="48.861265" lon="2.067638">
        <ele>132.901454</ele>
        <time>2023-03-30T14:56:06.863Z</time>
      </trkpt>
      <trkpt lat="48.861673" lon="2.067520">
        <ele>129.938779</ele>
        <time>2023-03-30T14:56:10.570Z</time>
      </trkpt>
      <trkpt lat="48.861858" lon="2.067491">
        <ele>128.693145</ele>
        <time>2023-03-30T14:56:12.229Z</time>
      </trkpt>
      <trkpt lat="48.862159" lon="2.067574">
        <ele>126.705169</ele>
        <time>2023-03-30T14:56:14.984Z</time>
      </trkpt>
      <trkpt lat="48.862709" lon="2.067846">
        <ele>122.946583</ele>
        <time>2023-03-30T14:56:20.250Z</time>
      </trkpt>
      <trkpt lat="48.862801" lon="2.067863">
        <ele>122.344319</ele>
        <time>2023-03-30T14:56:21.097Z</time>
      </trkpt>
      <trkpt lat="48.863022" lon="2.067805">
        <ele>120.886900</ele>
        <time>2023-03-30T14:56:23.153Z</time>
      </trkpt>
      <trkpt lat="48.863098" lon="2.067816">
        <ele>120.390780</ele>
        <time>2023-03-30T14:56:23.842Z</time>
      </trkpt>
      <trkpt lat="48.863174" lon="2.067938">
        <ele>119.672482</ele>
        <time>2023-03-30T14:56:24.849Z</time>
      </trkpt>
      <trkpt lat="48.863342" lon="2.068952">
        <ele>115.349877</ele>
        <time>2023-03-30T14:56:31.141Z</time>
      </trkpt>
      <trkpt lat="48.863405" lon="2.069120">
        <ele>114.569564</ele>
        <time>2023-03-30T14:56:32.317Z</time>
      </trkpt>
      <trkpt lat="48.863463" lon="2.069160">
        <ele>114.178900</ele>
        <time>2023-03-30T14:56:32.896Z</time>
      </trkpt>
      <trkpt lat="48.863965" lon="2.069323">
        <ele>111.030260</ele>
        <time>2023-03-30T14:56:37.588Z</time>
      </trkpt>
      <trkpt lat="48.864347" lon="2.069386">
        <ele>108.673393</ele>
        <time>2023-03-30T14:56:41.082Z</time>
      </trkpt>
      <trkpt lat="48.864907" lon="2.069203">
        <ele>105.394714</ele>
        <time>2023-03-30T14:56:46.343Z</time>
      </trkpt>
      <trkpt lat="48.865083" lon="2.069184">
        <ele>104.467187</ele>
        <time>2023-03-30T14:56:47.970Z</time>
      </trkpt>
      <trkpt lat="48.865256" lon="2.069213">
        <ele>103.552248</ele>
        <time>2023-03-30T14:56:49.569Z</time>
      </trkpt>
      <trkpt lat="48.865429" lon="2.069321">
        <ele>102.569121</ele>
        <time>2023-03-30T14:56:51.311Z</time>
      </trkpt>
      <trkpt lat="48.865683" lon="2.069639">
        <ele>100.839353</ele>
        <time>2023-03-30T14:56:54.394Z</time>
      </trkpt>
      <trkpt lat="48.865716" lon="2.069699">
        <ele>100.568903</ele>
        <time>2023-03-30T14:56:54.884Z</time>
      </trkpt>
      <trkpt lat="48.865973" lon="2.070166">
        <ele>98.463404</ele>
        <time>2023-03-30T14:56:58.660Z</time>
      </trkpt>
      <trkpt lat="48.866172" lon="2.070507">
        <ele>97.077849</ele>
        <time>2023-03-30T14:57:01.505Z</time>
      </trkpt>
      <trkpt lat="48.866304" lon="2.070484">
        <ele>96.669385</ele>
        <time>2023-03-30T14:57:02.775Z</time>
      </trkpt>
      <trkpt lat="48.866503" lon="2.070394">
        <ele>96.031100</ele>
        <time>2023-03-30T14:57:04.861Z</time>
      </trkpt>
      <trkpt lat="48.867660" lon="2.069979">
        <ele>92.376472</ele>
        <time>2023-03-30T14:57:17.172Z</time>
      </trkpt>
      <trkpt lat="48.867707" lon="2.070003">
        <ele>92.224047</ele>
        <time>2023-03-30T14:57:17.691Z</time>
      </trkpt>
      <trkpt lat="48.867723" lon="2.070087">
        <ele>92.047198</ele>
        <time>2023-03-30T14:57:18.354Z</time>
      </trkpt>
      <trkpt lat="48.867811" lon="2.070219">
        <ele>91.711541</ele>
        <time>2023-03-30T14:57:19.667Z</time>
      </trkpt>
      <trkpt lat="48.868550" lon="2.070903">
        <ele>89.839725</ele>
        <time>2023-03-30T14:57:29.483Z</time>
      </trkpt>
      <trkpt lat="48.868763" lon="2.071176">
        <ele>89.236989</ele>
        <time>2023-03-30T14:57:33.006Z</time>
      </trkpt>
      <trkpt lat="48.868913" lon="2.071465">
        <ele>88.713099</ele>
        <time>2023-03-30T14:57:35.823Z</time>
      </trkpt>
      <trkpt lat="48.869464" lon="2.072488">
        <ele>86.475092</ele>
        <time>2023-03-30T14:57:44.412Z</time>
      </trkpt>
      <trkpt lat="48.869675" lon="2.072782">
        <ele>85.654187</ele>
        <time>2023-03-30T14:57:47.266Z</time>
      </trkpt>
      <trkpt lat="48.869861" lon="2.072853">
        <ele>85.104154</ele>
        <time>2023-03-30T14:57:49.221Z</time>
      </trkpt>
      <trkpt lat="48.869951" lon="2.072696">
        <ele>84.711264</ele>
        <time>2023-03-30T14:57:50.674Z</time>
      </trkpt>
      <trkpt lat="48.870185" lon="2.072322">
        <ele>83.737470</ele>
        <time>2023-03-30T14:57:54.197Z</time>
      </trkpt>
      <trkpt lat="48.870314" lon="2.072265">
        <ele>83.352169</ele>
        <time>2023-03-30T14:57:55.605Z</time>
      </trkpt>
      <trkpt lat="48.870336" lon="2.072311">
        <ele>83.244873</ele>
        <time>2023-03-30T14:57:56.024Z</time>
      </trkpt>
      <trkpt lat="48.870407" lon="2.072327">
        <ele>83.039010</ele>
        <time>2023-03-30T14:57:56.775Z</time>
      </trkpt>
      <trkpt lat="48.870448" lon="2.072258">
        <ele>82.863587</ele>
        <time>2023-03-30T14:57:57.445Z</time>
      </trkpt>
      <trkpt lat="48.870449" lon="2.072204">
        <ele>82.767446</ele>
        <time>2023-03-30T14:57:57.828Z</time>
      </trkpt>
      <trkpt lat="48.870521" lon="2.072103">
        <ele>82.793627</ele>
        <time>2023-03-30T14:57:58.910Z</time>
      </trkpt>
      <trkpt lat="48.870626" lon="2.072039">
        <ele>82.823860</ele>
        <time>2023-03-30T14:58:00.164Z</time>
      </trkpt>
      <trkpt lat="48.870940" lon="2.072054">
        <ele>82.907817</ele>
        <time>2023-03-30T14:58:03.736Z</time>
      </trkpt>
      <trkpt lat="48.870941" lon="2.072055">
        <ele>82.908137</ele>
        <time>2023-03-30T14:58:03.748Z</time>
      </trkpt>
      <trkpt lat="48.870997" lon="2.072037">
        <ele>82.923433</ele>
        <time>2023-03-30T14:58:04.435Z</time>
      </trkpt>
      <trkpt lat="48.871072" lon="2.071948">
        <ele>82.948860</ele>
        <time>2023-03-30T14:58:05.567Z</time>
      </trkpt>
      <trkpt lat="48.871074" lon="2.071798">
        <ele>82.975233</ele>
        <time>2023-03-30T14:58:06.815Z</time>
      </trkpt>
      <trkpt lat="48.870849" lon="2.071391">
        <ele>83.068690</ele>
        <time>2023-03-30T14:58:12.834Z</time>
      </trkpt>
      <trkpt lat="48.870591" lon="2.070964">
        <ele>83.170612</ele>
        <time>2023-03-30T14:58:22.201Z</time>
      </trkpt>
      <trkpt lat="48.870240" lon="2.070405">
        <ele>83.655457</ele>
        <time>2023-03-30T14:58:35.156Z</time>
      </trkpt>
      <trkpt lat="48.869960" lon="2.070072">
        <ele>84.314115</ele>
        <time>2023-03-30T14:58:43.161Z</time>
      </trkpt>
      <trkpt lat="48.869801" lon="2.069883">
        <ele>84.688066</ele>
        <time>2023-03-30T14:58:47.510Z</time>
      </trkpt>
      <trkpt lat="48.869633" lon="2.069456">
        <ele>85.294444</ele>
        <time>2023-03-30T14:58:54.773Z</time>
      </trkpt>
      <trkpt lat="48.869600" lon="2.069321">
        <ele>85.469964</ele>
        <time>2023-03-30T14:58:56.756Z</time>
      </trkpt>
      <trkpt lat="48.869315" lon="2.068599">
        <ele>86.496161</ele>
        <time>2023-03-30T14:59:08.537Z</time>
      </trkpt>
      <trkpt lat="48.869191" lon="2.068459">
        <ele>86.786343</ele>
        <time>2023-03-30T14:59:11.642Z</time>
      </trkpt>
      <trkpt lat="48.868969" lon="2.067325">
        <ele>88.256881</ele>
        <time>2023-03-30T14:59:28.103Z</time>
      </trkpt>
      <trkpt lat="48.868725" lon="2.066033">
        <ele>89.927582</ele>
        <time>2023-03-30T14:59:48.965Z</time>
      </trkpt>
      <trkpt lat="48.868665" lon="2.065471">
        <ele>90.995459</ele>
        <time>2023-03-30T14:59:57.775Z</time>
      </trkpt>
      <trkpt lat="48.868615" lon="2.064656">
        <ele>92.571038</ele>
        <time>2023-03-30T15:00:10.857Z</time>
      </trkpt>
      <trkpt lat="48.868629" lon="2.063717">
        <ele>94.378958</ele>
        <time>2023-03-30T15:00:27.917Z</time>
      </trkpt>
      <trkpt lat="48.868640" lon="2.063178">
        <ele>95.488896</ele>
        <time>2023-03-30T15:00:38.768Z</time>
      </trkpt>
      <trkpt lat="48.868720" lon="2.062880">
        <ele>96.363225</ele>
        <time>2023-03-30T15:00:45.171Z</time>
      </trkpt>
      <trkpt lat="48.868832" lon="2.062559">
        <ele>97.350286</ele>
        <time>2023-03-30T15:00:52.733Z</time>
      </trkpt>
      <trkpt lat="48.868950" lon="2.061562">
        <ele>100.102085</ele>
        <time>2023-03-30T15:01:13.465Z</time>
      </trkpt>
      <trkpt lat="48.869041" lon="2.061036">
        <ele>101.579532</ele>
        <time>2023-03-30T15:01:25.204Z</time>
      </trkpt>
      <trkpt lat="48.869482" lon="2.059608">
        <ele>105.587231</ele>
        <time>2023-03-30T15:01:58.800Z</time>
      </trkpt>
      <trkpt lat="48.869586" lon="2.059220">
        <ele>106.626455</ele>
        <time>2023-03-30T15:02:06.701Z</time>
      </trkpt>
      <trkpt lat="48.869684" lon="2.058728">
        <ele>107.901526</ele>
        <time>2023-03-30T15:02:16.096Z</time>
      </trkpt>
      <trkpt lat="48.869743" lon="2.058118">
        <ele>109.430822</ele>
        <time>2023-03-30T15:02:27.371Z</time>
      </trkpt>
      <trkpt lat="48.869728" lon="2.057896">
        <ele>110.020939</ele>
        <time>2023-03-30T15:02:31.561Z</time>
      </trkpt>
      <trkpt lat="48.869626" lon="2.056952">
        <ele>112.556934</ele>
        <time>2023-03-30T15:02:49.324Z</time>
      </trkpt>
      <trkpt lat="48.869588" lon="2.056606">
        <ele>113.486847</ele>
        <time>2023-03-30T15:02:56.282Z</time>
      </trkpt>
      <trkpt lat="48.869434" lon="2.055168">
        <ele>117.634001</ele>
        <time>2023-03-30T15:03:27.936Z</time>
      </trkpt>
      <trkpt lat="48.869427" lon="2.055109">
        <ele>117.862819</ele>
        <time>2023-03-30T15:03:29.280Z</time>
      </trkpt>
      <trkpt lat="48.869348" lon="2.054289">
        <ele>121.025895</ele>
        <time>2023-03-30T15:03:49.368Z</time>
      </trkpt>
      <trkpt lat="48.869275" lon="2.053826">
        <ele>122.843080</ele>
        <time>2023-03-30T15:04:02.065Z</time>
      </trkpt>
      <trkpt lat="48.869126" lon="2.053001">
        <ele>126.108393</ele>
        <time>2023-03-30T15:04:25.792Z</time>
      </trkpt>
      <trkpt lat="48.869082" lon="2.052919">
        <ele>126.512288</ele>
        <time>2023-03-30T15:04:28.794Z</time>
      </trkpt>
      <trkpt lat="48.868953" lon="2.052775">
        <ele>127.386914</ele>
        <time>2023-03-30T15:04:35.147Z</time>
      </trkpt>
      <trkpt lat="48.868840" lon="2.052711">
        <ele>127.962076</ele>
        <time>2023-03-30T15:04:39.568Z</time>
      </trkpt>
      <trkpt lat="48.868281" lon="2.052740">
        <ele>130.629875</ele>
        <time>2023-03-30T15:04:58.788Z</time>
      </trkpt>
      <trkpt lat="48.868085" lon="2.052701">
        <ele>131.572704</ele>
        <time>2023-03-30T15:05:05.086Z</time>
      </trkpt>
      <trkpt lat="48.867944" lon="2.052546">
        <ele>132.402634</ele>
        <time>2023-03-30T15:05:11.268Z</time>
      </trkpt>
      <trkpt lat="48.867874" lon="2.052458">
        <ele>132.835883</ele>
        <time>2023-03-30T15:05:14.220Z</time>
      </trkpt>
      <trkpt lat="48.867818" lon="2.052331">
        <ele>133.315584</ele>
        <time>2023-03-30T15:05:17.462Z</time>
      </trkpt>
      <trkpt lat="48.867815" lon="2.052272">
        <ele>133.501248</ele>
        <time>2023-03-30T15:05:18.929Z</time>
      </trkpt>
      <trkpt lat="48.867810" lon="2.052172">
        <ele>133.815901</ele>
        <time>2023-03-30T15:05:21.244Z</time>
      </trkpt>
      <trkpt lat="48.867779" lon="2.051630">
        <ele>135.522834</ele>
        <time>2023-03-30T15:05:32.306Z</time>
      </trkpt>
      <trkpt lat="48.867770" lon="2.051423">
        <ele>136.097259</ele>
        <time>2023-03-30T15:05:36.219Z</time>
      </trkpt>
      <trkpt lat="48.867769" lon="2.051353">
        <ele>136.280203</ele>
        <time>2023-03-30T15:05:37.527Z</time>
      </trkpt>
      <trkpt lat="48.867767" lon="2.051240">
        <ele>136.575565</ele>
        <time>2023-03-30T15:05:39.603Z</time>
      </trkpt>
      <trkpt lat="48.867766" lon="2.051147">
        <ele>136.818595</ele>
        <time>2023-03-30T15:05:41.532Z</time>
      </trkpt>
      <trkpt lat="48.867752" lon="2.050968">
        <ele>137.289593</ele>
        <time>2023-03-30T15:05:44.877Z</time>
      </trkpt>
      <trkpt lat="48.867718" lon="2.050909">
        <ele>137.494543</ele>
        <time>2023-03-30T15:05:46.271Z</time>
      </trkpt>
      <trkpt lat="48.867505" lon="2.050879">
        <ele>138.344234</ele>
        <time>2023-03-30T15:05:52.343Z</time>
      </trkpt>
      <trkpt lat="48.867330" lon="2.050881">
        <ele>139.039379</ele>
        <time>2023-03-30T15:05:56.852Z</time>
      </trkpt>
      <trkpt lat="48.867219" lon="2.050924">
        <ele>139.494377</ele>
        <time>2023-03-30T15:05:59.879Z</time>
      </trkpt>
      <trkpt lat="48.867196" lon="2.050936">
        <ele>139.590967</ele>
        <time>2023-03-30T15:06:00.622Z</time>
      </trkpt>
      <trkpt lat="48.866860" lon="2.051123">
        <ele>141.012238</ele>
        <time>2023-03-30T15:06:10.320Z</time>
      </trkpt>
      <trkpt lat="48.866766" lon="2.051134">
        <ele>141.386724</ele>
        <time>2023-03-30T15:06:13.152Z</time>
      </trkpt>
      <trkpt lat="48.866726" lon="2.051077">
        <ele>141.604501</ele>
        <time>2023-03-30T15:06:14.791Z</time>
      </trkpt>
      <trkpt lat="48.866708" lon="2.050850">
        <ele>142.201930</ele>
        <time>2023-03-30T15:06:19.562Z</time>
      </trkpt>
      <trkpt lat="48.866700" lon="2.050338">
        <ele>144.122209</ele>
        <time>2023-03-30T15:06:32.629Z</time>
      </trkpt>
      <trkpt lat="48.866728" lon="2.050127">
        <ele>145.166677</ele>
        <time>2023-03-30T15:06:38.629Z</time>
      </trkpt>
      <trkpt lat="48.866836" lon="2.049959">
        <ele>146.306503</ele>
        <time>2023-03-30T15:06:45.055Z</time>
      </trkpt>
      <trkpt lat="48.866861" lon="2.049816">
        <ele>147.024472</ele>
        <time>2023-03-30T15:06:49.203Z</time>
      </trkpt>
      <trkpt lat="48.866836" lon="2.049603">
        <ele>148.074341</ele>
        <time>2023-03-30T15:06:55.370Z</time>
      </trkpt>
      <trkpt lat="48.866656" lon="2.048876">
        <ele>151.843591</ele>
        <time>2023-03-30T15:07:18.504Z</time>
      </trkpt>
      <trkpt lat="48.866625" lon="2.048757">
        <ele>152.464651</ele>
        <time>2023-03-30T15:07:22.618Z</time>
      </trkpt>
      <trkpt lat="48.866349" lon="2.047693">
        <ele>158.258965</ele>
        <time>2023-03-30T15:08:00.268Z</time>
      </trkpt>
      <trkpt lat="48.865941" lon="2.046113">
        <ele>167.563076</ele>
        <time>2023-03-30T15:08:57.274Z</time>
      </trkpt>
      <trkpt lat="48.865397" lon="2.044004">
        <ele>176.679079</ele>
        <time>2023-03-30T15:09:59.256Z</time>
      </trkpt>
      <trkpt lat="48.865353" lon="2.043854">
        <ele>177.244047</ele>
        <time>2023-03-30T15:10:02.731Z</time>
      </trkpt>
      <trkpt lat="48.865289" lon="2.043511">
        <ele>178.470500</ele>
        <time>2023-03-30T15:10:09.919Z</time>
      </trkpt>
      <trkpt lat="48.865274" lon="2.043254">
        <ele>179.358044</ele>
        <time>2023-03-30T15:10:14.847Z</time>
      </trkpt>
      <trkpt lat="48.865574" lon="2.040528">
        <ele>183.377639</ele>
        <time>2023-03-30T15:10:55.323Z</time>
      </trkpt>
      <trkpt lat="48.866545" lon="2.038716">
        <ele>184.384933</ele>
        <time>2023-03-30T15:11:22.966Z</time>
      </trkpt>
      <trkpt lat="48.866547" lon="2.038712">
        <ele>184.386528</ele>
        <time>2023-03-30T15:11:23.019Z</time>
      </trkpt>
      <trkpt lat="48.867367" lon="2.037108">
        <ele>183.337479</ele>
        <time>2023-03-30T15:11:40.288Z</time>
      </trkpt>
      <trkpt lat="48.867504" lon="2.036847">
        <ele>183.018427</ele>
        <time>2023-03-30T15:11:42.842Z</time>
      </trkpt>
      <trkpt lat="48.867507" lon="2.036841">
        <ele>183.011226</ele>
        <time>2023-03-30T15:11:42.903Z</time>
      </trkpt>
      <trkpt lat="48.867655" lon="2.036611">
        <ele>182.703798</ele>
        <time>2023-03-30T15:11:45.237Z</time>
      </trkpt>
      <trkpt lat="48.867802" lon="2.036490">
        <ele>182.460982</ele>
        <time>2023-03-30T15:11:47.120Z</time>
      </trkpt>
      <trkpt lat="48.867820" lon="2.036487">
        <ele>182.434679</ele>
        <time>2023-03-30T15:11:47.320Z</time>
      </trkpt>
      <trkpt lat="48.867880" lon="2.036431">
        <ele>182.332411</ele>
        <time>2023-03-30T15:11:48.075Z</time>
      </trkpt>
      <trkpt lat="48.867900" lon="2.036357">
        <ele>182.255969</ele>
        <time>2023-03-30T15:11:48.618Z</time>
      </trkpt>
      <trkpt lat="48.867899" lon="2.036303">
        <ele>182.204353</ele>
        <time>2023-03-30T15:11:48.977Z</time>
      </trkpt>
      <trkpt lat="48.867885" lon="2.036253">
        <ele>182.152430</ele>
        <time>2023-03-30T15:11:49.340Z</time>
      </trkpt>
      <trkpt lat="48.867830" lon="2.036188">
        <ele>182.051238</ele>
        <time>2023-03-30T15:11:50.099Z</time>
      </trkpt>
      <trkpt lat="48.867812" lon="2.036182">
        <ele>182.024471</ele>
        <time>2023-03-30T15:11:50.289Z</time>
      </trkpt>
      <trkpt lat="48.867657" lon="2.036089">
        <ele>181.251130</ele>
        <time>2023-03-30T15:11:52.021Z</time>
      </trkpt>
      <trkpt lat="48.867446" lon="2.035733">
        <ele>179.656040</ele>
        <time>2023-03-30T15:11:55.185Z</time>
      </trkpt>
      <trkpt lat="48.867171" lon="2.035268">
        <ele>177.574606</ele>
        <time>2023-03-30T15:11:59.140Z</time>
      </trkpt>
      <trkpt lat="48.867073" lon="2.035103">
        <ele>176.834610</ele>
        <time>2023-03-30T15:12:01.088Z</time>
      </trkpt>
      <trkpt lat="48.866408" lon="2.034013">
        <ele>171.539492</ele>
        <time>2023-03-30T15:12:13.735Z</time>
      </trkpt>
      <trkpt lat="48.866252" lon="2.033703">
        <ele>169.793913</ele>
        <time>2023-03-30T15:12:16.991Z</time>
      </trkpt>
      <trkpt lat="48.866088" lon="2.033521">
        <ele>168.413424</ele>
        <time>2023-03-30T15:12:19.562Z</time>
      </trkpt>
      <trkpt lat="48.866023" lon="2.033461">
        <ele>167.896415</ele>
        <time>2023-03-30T15:12:20.519Z</time>
      </trkpt>
      <trkpt lat="48.865887" lon="2.033262">
        <ele>166.613045</ele>
        <time>2023-03-30T15:12:22.204Z</time>
      </trkpt>
      <trkpt lat="48.865884" lon="2.033256">
        <ele>166.579340</ele>
        <time>2023-03-30T15:12:22.248Z</time>
      </trkpt>
      <trkpt lat="48.865831" lon="2.033112">
        <ele>165.841367</ele>
        <time>2023-03-30T15:12:23.222Z</time>
      </trkpt>
      <trkpt lat="48.865802" lon="2.032990">
        <ele>165.261207</ele>
        <time>2023-03-30T15:12:23.989Z</time>
      </trkpt>
      <trkpt lat="48.865758" lon="2.032890">
        <ele>164.723147</ele>
        <time>2023-03-30T15:12:24.705Z</time>
      </trkpt>
      <trkpt lat="48.865703" lon="2.032833">
        <ele>164.270586</ele>
        <time>2023-03-30T15:12:25.299Z</time>
      </trkpt>
      <trkpt lat="48.865354" lon="2.032199">
        <ele>160.605671</ele>
        <time>2023-03-30T15:12:30.242Z</time>
      </trkpt>
      <trkpt lat="48.864581" lon="2.031128">
        <ele>155.976250</ele>
        <time>2023-03-30T15:12:40.016Z</time>
      </trkpt>
      <trkpt lat="48.864371" lon="2.030793">
        <ele>154.628850</ele>
        <time>2023-03-30T15:12:43.177Z</time>
      </trkpt>
      <trkpt lat="48.864240" lon="2.030532">
        <ele>153.672934</ele>
        <time>2023-03-30T15:12:45.403Z</time>
      </trkpt>
      <trkpt lat="48.864091" lon="2.030238">
        <ele>152.617040</ele>
        <time>2023-03-30T15:12:48.034Z</time>
      </trkpt>
      <trkpt lat="48.864040" lon="2.030138">
        <ele>152.329635</ele>
        <time>2023-03-30T15:12:48.875Z</time>
      </trkpt>
      <trkpt lat="48.863848" lon="2.029767">
        <ele>151.257433</ele>
        <time>2023-03-30T15:12:52.062Z</time>
      </trkpt>
      <trkpt lat="48.863778" lon="2.029632">
        <ele>150.866990</ele>
        <time>2023-03-30T15:12:53.170Z</time>
      </trkpt>
      <trkpt lat="48.863855" lon="2.029524">
        <ele>150.505241</ele>
        <time>2023-03-30T15:12:54.725Z</time>
      </trkpt>
      <trkpt lat="48.863913" lon="2.029194">
        <ele>149.729382</ele>
        <time>2023-03-30T15:12:57.874Z</time>
      </trkpt>
      <trkpt lat="48.863958" lon="2.029119">
        <ele>149.498812</ele>
        <time>2023-03-30T15:12:58.829Z</time>
      </trkpt>
      <trkpt lat="48.864043" lon="2.029014">
        <ele>149.120637</ele>
        <time>2023-03-30T15:13:00.404Z</time>
      </trkpt>
      <trkpt lat="48.864069" lon="2.028942">
        <ele>148.934077</ele>
        <time>2023-03-30T15:13:01.163Z</time>
      </trkpt>
      <trkpt lat="48.864179" lon="2.028336">
        <ele>147.506166</ele>
        <time>2023-03-30T15:13:06.991Z</time>
      </trkpt>
      <trkpt lat="48.864175" lon="2.028128">
        <ele>147.033513</ele>
        <time>2023-03-30T15:13:08.939Z</time>
      </trkpt>
      <trkpt lat="48.864069" lon="2.027447">
        <ele>145.444264</ele>
        <time>2023-03-30T15:13:15.603Z</time>
      </trkpt>
      <trkpt lat="48.864465" lon="2.026624">
        <ele>143.128861</ele>
        <time>2023-03-30T15:13:25.150Z</time>
      </trkpt>
      <trkpt lat="48.864614" lon="2.026323">
        <ele>142.273465</ele>
        <time>2023-03-30T15:13:28.642Z</time>
      </trkpt>
      <trkpt lat="48.864904" lon="2.025705">
        <ele>140.549692</ele>
        <time>2023-03-30T15:13:35.804Z</time>
      </trkpt>
      <trkpt lat="48.864986" lon="2.025447">
        <ele>140.133571</ele>
        <time>2023-03-30T15:13:38.615Z</time>
      </trkpt>
      <trkpt lat="48.865120" lon="2.024225">
        <ele>139.025908</ele>
        <time>2023-03-30T15:13:51.382Z</time>
      </trkpt>
      <trkpt lat="48.865963" lon="2.022175">
        <ele>138.029267</ele>
        <time>2023-03-30T15:14:22.310Z</time>
      </trkpt>
      <trkpt lat="48.866129" lon="2.021882">
        <ele>138.095805</ele>
        <time>2023-03-30T15:14:27.947Z</time>
      </trkpt>
      <trkpt lat="48.866553" lon="2.021366">
        <ele>138.237875</ele>
        <time>2023-03-30T15:14:40.042Z</time>
      </trkpt>
      <trkpt lat="48.866824" lon="2.021065">
        <ele>138.329774</ele>
        <time>2023-03-30T15:14:47.703Z</time>
      </trkpt>
      <trkpt lat="48.867005" lon="2.020647">
        <ele>138.441276</ele>
        <time>2023-03-30T15:14:55.419Z</time>
      </trkpt>
      <trkpt lat="48.867276" lon="2.019987">
        <ele>138.614626</ele>
        <time>2023-03-30T15:15:07.080Z</time>
      </trkpt>
      <trkpt lat="48.867477" lon="2.019663">
        <ele>138.713855</ele>
        <time>2023-03-30T15:15:13.303Z</time>
      </trkpt>
      <trkpt lat="48.867711" lon="2.019395">
        <ele>138.813090</ele>
        <time>2023-03-30T15:15:19.092Z</time>
      </trkpt>
      <trkpt lat="48.867965" lon="2.019128">
        <ele>138.917688</ele>
        <time>2023-03-30T15:15:25.047Z</time>
      </trkpt>
      <trkpt lat="48.868243" lon="2.018689">
        <ele>139.193664</ele>
        <time>2023-03-30T15:15:32.952Z</time>
      </trkpt>
      <trkpt lat="48.868553" lon="2.018045">
        <ele>139.559622</ele>
        <time>2023-03-30T15:15:44.283Z</time>
      </trkpt>
      <trkpt lat="48.868705" lon="2.017644">
        <ele>139.771860</ele>
        <time>2023-03-30T15:15:51.527Z</time>
      </trkpt>
      <trkpt lat="48.869329" lon="2.016564">
        <ele>140.668343</ele>
        <time>2023-03-30T15:16:16.295Z</time>
      </trkpt>
      <trkpt lat="48.869488" lon="2.016132">
        <ele>141.105646</ele>
        <time>2023-03-30T15:16:25.106Z</time>
      </trkpt>
      <trkpt lat="48.869777" lon="2.015158">
        <ele>142.049551</ele>
        <time>2023-03-30T15:16:43.419Z</time>
      </trkpt>
      <trkpt lat="48.869950" lon="2.014759">
        <ele>142.471706</ele>
        <time>2023-03-30T15:16:51.229Z</time>
      </trkpt>
      <trkpt lat="48.869963" lon="2.014667">
        <ele>142.554831</ele>
        <time>2023-03-30T15:16:52.706Z</time>
      </trkpt>
      <trkpt lat="48.869982" lon="2.014516">
        <ele>142.610095</ele>
        <time>2023-03-30T15:16:55.113Z</time>
      </trkpt>
      <trkpt lat="48.870131" lon="2.013480">
        <ele>142.793707</ele>
        <time>2023-03-30T15:17:10.942Z</time>
      </trkpt>
      <trkpt lat="48.870373" lon="2.012062">
        <ele>143.047349</ele>
        <time>2023-03-30T15:17:29.546Z</time>
      </trkpt>
      <trkpt lat="48.870645" lon="2.011172">
        <ele>143.526183</ele>
        <time>2023-03-30T15:17:42.645Z</time>
      </trkpt>
      <trkpt lat="48.871027" lon="2.010261">
        <ele>144.090034</ele>
        <time>2023-03-30T15:17:59.492Z</time>
      </trkpt>
      <trkpt lat="48.871083" lon="2.010036">
        <ele>144.215588</ele>
        <time>2023-03-30T15:18:03.725Z</time>
      </trkpt>
      <trkpt lat="48.871206" lon="2.009156">
        <ele>144.902539</ele>
        <time>2023-03-30T15:18:19.665Z</time>
      </trkpt>
      <trkpt lat="48.871212" lon="2.008991">
        <ele>145.085413</ele>
        <time>2023-03-30T15:18:22.755Z</time>
      </trkpt>
      <trkpt lat="48.871183" lon="2.008838">
        <ele>145.261618</ele>
        <time>2023-03-30T15:18:25.529Z</time>
      </trkpt>
      <trkpt lat="48.871197" lon="2.008697">
        <ele>145.419421</ele>
        <time>2023-03-30T15:18:27.878Z</time>
      </trkpt>
      <trkpt lat="48.871276" lon="2.008444">
        <ele>145.729347</ele>
        <time>2023-03-30T15:18:32.625Z</time>
      </trkpt>
      <trkpt lat="48.871495" lon="2.007952">
        <ele>146.386766</ele>
        <time>2023-03-30T15:18:42.791Z</time>
      </trkpt>
      <trkpt lat="48.871662" lon="2.007635">
        <ele>146.836215</ele>
        <time>2023-03-30T15:18:50.142Z</time>
      </trkpt>
      <trkpt lat="48.871944" lon="2.007256">
        <ele>147.469466</ele>
        <time>2023-03-30T15:19:00.793Z</time>
      </trkpt>
      <trkpt lat="48.872017" lon="2.007088">
        <ele>147.640872</ele>
        <time>2023-03-30T15:19:04.654Z</time>
      </trkpt>
      <trkpt lat="48.872101" lon="2.006682">
        <ele>147.973577</ele>
        <time>2023-03-30T15:19:12.772Z</time>
      </trkpt>
      <trkpt lat="48.872259" lon="2.006213">
        <ele>148.385490</ele>
        <time>2023-03-30T15:19:22.302Z</time>
      </trkpt>
      <trkpt lat="48.872563" lon="2.005505">
        <ele>149.046427</ele>
        <time>2023-03-30T15:19:36.481Z</time>
      </trkpt>
      <trkpt lat="48.872770" lon="2.004756">
        <ele>149.634272</ele>
        <time>2023-03-30T15:19:47.916Z</time>
      </trkpt>
      <trkpt lat="48.873124" lon="2.003512">
        <ele>148.818577</ele>
        <time>2023-03-30T15:20:04.567Z</time>
      </trkpt>
      <trkpt lat="48.873538" lon="2.002327">
        <ele>148.011097</ele>
        <time>2023-03-30T15:20:18.695Z</time>
      </trkpt>
      <trkpt lat="48.873763" lon="2.001116">
        <ele>148.194139</ele>
        <time>2023-03-30T15:20:32.829Z</time>
      </trkpt>
      <trkpt lat="48.873821" lon="2.001026">
        <ele>148.212711</ele>
        <time>2023-03-30T15:20:34.389Z</time>
      </trkpt>
      <trkpt lat="48.874051" lon="2.000822">
        <ele>148.272383</ele>
        <time>2023-03-30T15:20:40.054Z</time>
      </trkpt>
      <trkpt lat="48.874218" lon="2.000669">
        <ele>148.316076</ele>
        <time>2023-03-30T15:20:44.913Z</time>
      </trkpt>
      <trkpt lat="48.874413" lon="2.000343">
        <ele>148.381025</ele>
        <time>2023-03-30T15:20:52.650Z</time>
      </trkpt>
      <trkpt lat="48.874555" lon="1.999933">
        <ele>149.041823</ele>
        <time>2023-03-30T15:21:02.088Z</time>
      </trkpt>
      <trkpt lat="48.874662" lon="1.999325">
        <ele>150.615658</ele>
        <time>2023-03-30T15:21:16.760Z</time>
      </trkpt>
      <trkpt lat="48.874748" lon="1.998838">
        <ele>151.876566</ele>
        <time>2023-03-30T15:21:29.431Z</time>
      </trkpt>
      <trkpt lat="48.874970" lon="1.998088">
        <ele>153.933165</ele>
        <time>2023-03-30T15:21:49.569Z</time>
      </trkpt>
      <trkpt lat="48.875030" lon="1.997915">
        <ele>154.422222</ele>
        <time>2023-03-30T15:21:54.396Z</time>
      </trkpt>
      <trkpt lat="48.875252" lon="1.997482">
        <ele>155.725766</ele>
        <time>2023-03-30T15:22:07.929Z</time>
      </trkpt>
      <trkpt lat="48.875360" lon="1.997290">
        <ele>156.277105</ele>
        <time>2023-03-30T15:22:14.032Z</time>
      </trkpt>
      <trkpt lat="48.875697" lon="1.996883">
        <ele>157.705113</ele>
        <time>2023-03-30T15:22:29.379Z</time>
      </trkpt>
      <trkpt lat="48.876535" lon="1.996136">
        <ele>160.928261</ele>
        <time>2023-03-30T15:23:00.147Z</time>
      </trkpt>
      <trkpt lat="48.876635" lon="1.996006">
        <ele>161.336012</ele>
        <time>2023-03-30T15:23:04.073Z</time>
      </trkpt>
      <trkpt lat="48.876721" lon="1.995815">
        <ele>161.741682</ele>
        <time>2023-03-30T15:23:08.573Z</time>
      </trkpt>
      <trkpt lat="48.876765" lon="1.995609">
        <ele>162.121270</ele>
        <time>2023-03-30T15:23:12.904Z</time>
      </trkpt>
      <trkpt lat="48.876821" lon="1.994718">
        <ele>163.689911</ele>
        <time>2023-03-30T15:23:30.746Z</time>
      </trkpt>
      <trkpt lat="48.877050" lon="1.993239">
        <ele>166.424522</ele>
        <time>2023-03-30T15:24:01.751Z</time>
      </trkpt>
      <trkpt lat="48.877088" lon="1.992424">
        <ele>168.157352</ele>
        <time>2023-03-30T15:24:19.049Z</time>
      </trkpt>
      <trkpt lat="48.877118" lon="1.992230">
        <ele>168.580017</ele>
        <time>2023-03-30T15:24:23.623Z</time>
      </trkpt>
      <trkpt lat="48.877473" lon="1.991157">
        <ele>171.127402</ele>
        <time>2023-03-30T15:24:50.945Z</time>
      </trkpt>
      <trkpt lat="48.877590" lon="1.990684">
        <ele>172.099736</ele>
        <time>2023-03-30T15:25:02.104Z</time>
      </trkpt>
      <trkpt lat="48.877647" lon="1.990451">
        <ele>172.491684</ele>
        <time>2023-03-30T15:25:07.291Z</time>
      </trkpt>
      <trkpt lat="48.877706" lon="1.990212">
        <ele>172.894172</ele>
        <time>2023-03-30T15:25:12.895Z</time>
      </trkpt>
      <trkpt lat="48.877828" lon="1.989711">
        <ele>173.736475</ele>
        <time>2023-03-30T15:25:23.907Z</time>
      </trkpt>
      <trkpt lat="48.877978" lon="1.989072">
        <ele>174.806195</ele>
        <time>2023-03-30T15:25:37.027Z</time>
      </trkpt>
      <trkpt lat="48.878030" lon="1.988848">
        <ele>175.180716</ele>
        <time>2023-03-30T15:25:41.245Z</time>
      </trkpt>
      <trkpt lat="48.878121" lon="1.988413">
        <ele>175.900409</ele>
        <time>2023-03-30T15:25:49.437Z</time>
      </trkpt>
      <trkpt lat="48.878240" lon="1.987505">
        <ele>176.490385</ele>
        <time>2023-03-30T15:26:05.059Z</time>
      </trkpt>
      <trkpt lat="48.878264" lon="1.987276">
        <ele>176.598833</ele>
        <time>2023-03-30T15:26:08.411Z</time>
      </trkpt>
      <trkpt lat="48.878342" lon="1.986561">
        <ele>176.937789</ele>
        <time>2023-03-30T15:26:19.077Z</time>
      </trkpt>
      <trkpt lat="48.878374" lon="1.986295">
        <ele>177.064254</ele>
        <time>2023-03-30T15:26:23.014Z</time>
      </trkpt>
      <trkpt lat="48.878509" lon="1.985755">
        <ele>177.334429</ele>
        <time>2023-03-30T15:26:31.038Z</time>
      </trkpt>
      <trkpt lat="48.878577" lon="1.985530">
        <ele>177.382865</ele>
        <time>2023-03-30T15:26:34.411Z</time>
      </trkpt>
      <trkpt lat="48.878640" lon="1.985367">
        <ele>177.346142</ele>
        <time>2023-03-30T15:26:36.942Z</time>
      </trkpt>
      <trkpt lat="48.878735" lon="1.985211">
        <ele>177.304847</ele>
        <time>2023-03-30T15:26:39.675Z</time>
      </trkpt>
      <trkpt lat="48.878940" lon="1.985221">
        <ele>177.244271</ele>
        <time>2023-03-30T15:26:43.755Z</time>
      </trkpt>
      <trkpt lat="48.879379" lon="1.985344">
        <ele>177.112434</ele>
        <time>2023-03-30T15:26:52.297Z</time>
      </trkpt>
      <trkpt lat="48.879917" lon="1.985568">
        <ele>176.947692</ele>
        <time>2023-03-30T15:27:02.689Z</time>
      </trkpt>
      <trkpt lat="48.880256" lon="1.985777">
        <ele>176.800122</ele>
        <time>2023-03-30T15:27:09.417Z</time>
      </trkpt>
      <trkpt lat="48.880348" lon="1.985861">
        <ele>176.728986</ele>
        <time>2023-03-30T15:27:11.423Z</time>
      </trkpt>
      <trkpt lat="48.880598" lon="1.986201">
        <ele>176.506652</ele>
        <time>2023-03-30T15:27:17.541Z</time>
      </trkpt>
      <trkpt lat="48.880761" lon="1.985837">
        <ele>176.314676</ele>
        <time>2023-03-30T15:27:21.206Z</time>
      </trkpt>
      <trkpt lat="48.880947" lon="1.985405">
        <ele>176.089581</ele>
        <time>2023-03-30T15:27:25.466Z</time>
      </trkpt>
      <trkpt lat="48.881067" lon="1.985280">
        <ele>175.993160</ele>
        <time>2023-03-30T15:27:27.285Z</time>
      </trkpt>
      <trkpt lat="48.881191" lon="1.985210">
        <ele>175.905480</ele>
        <time>2023-03-30T15:27:28.920Z</time>
      </trkpt>
      <trkpt lat="48.881715" lon="1.985063">
        <ele>175.679588</ele>
        <time>2023-03-30T15:27:35.720Z</time>
      </trkpt>
      <trkpt lat="48.881895" lon="1.984918">
        <ele>175.680086</ele>
        <time>2023-03-30T15:27:38.422Z</time>
      </trkpt>
      <trkpt lat="48.882063" lon="1.984727">
        <ele>175.680599</ele>
        <time>2023-03-30T15:27:41.472Z</time>
      </trkpt>
      <trkpt lat="48.882160" lon="1.984667">
        <ele>175.680855</ele>
        <time>2023-03-30T15:27:42.953Z</time>
      </trkpt>
      <trkpt lat="48.882411" lon="1.984696">
        <ele>175.681470</ele>
        <time>2023-03-30T15:27:46.872Z</time>
      </trkpt>
      <trkpt lat="48.882518" lon="1.984741">
        <ele>175.681742</ele>
        <time>2023-03-30T15:27:48.588Z</time>
      </trkpt>
      <trkpt lat="48.882919" lon="1.984867">
        <ele>175.682743</ele>
        <time>2023-03-30T15:27:55.491Z</time>
      </trkpt>
      <trkpt lat="48.882976" lon="1.984679">
        <ele>175.683075</ele>
        <time>2023-03-30T15:27:57.943Z</time>
      </trkpt>
      <trkpt lat="48.883635" lon="1.982518">
        <ele>175.664801</ele>
        <time>2023-03-30T15:28:22.522Z</time>
      </trkpt>
      <trkpt lat="48.883815" lon="1.982659">
        <ele>175.662066</ele>
        <time>2023-03-30T15:28:25.358Z</time>
      </trkpt>
      <trkpt lat="48.883962" lon="1.982756">
        <ele>175.659902</ele>
        <time>2023-03-30T15:28:27.392Z</time>
      </trkpt>
      <trkpt lat="48.884127" lon="1.982727">
        <ele>175.513818</ele>
        <time>2023-03-30T15:28:29.524Z</time>
      </trkpt>
      <trkpt lat="48.884177" lon="1.982743">
        <ele>175.449690</ele>
        <time>2023-03-30T15:28:30.149Z</time>
      </trkpt>
      <trkpt lat="48.884214" lon="1.982737">
        <ele>175.402989</ele>
        <time>2023-03-30T15:28:30.586Z</time>
      </trkpt>
      <trkpt lat="48.884293" lon="1.982663">
        <ele>175.286537</ele>
        <time>2023-03-30T15:28:31.697Z</time>
      </trkpt>
      <trkpt lat="48.884327" lon="1.982540">
        <ele>175.176418</ele>
        <time>2023-03-30T15:28:32.747Z</time>
      </trkpt>
      <trkpt lat="48.884328" lon="1.982520">
        <ele>175.159864</ele>
        <time>2023-03-30T15:28:32.911Z</time>
      </trkpt>
      <trkpt lat="48.884356" lon="1.982422">
        <ele>175.071678</ele>
        <time>2023-03-30T15:28:33.768Z</time>
      </trkpt>
      <trkpt lat="48.884457" lon="1.982292">
        <ele>174.905604</ele>
        <time>2023-03-30T15:28:35.281Z</time>
      </trkpt>
      <trkpt lat="48.884545" lon="1.982251">
        <ele>174.790090</ele>
        <time>2023-03-30T15:28:36.340Z</time>
      </trkpt>
      <trkpt lat="48.884613" lon="1.982258">
        <ele>174.704549</ele>
        <time>2023-03-30T15:28:37.135Z</time>
      </trkpt>
      <trkpt lat="48.884736" lon="1.982399">
        <ele>174.511227</ele>
        <time>2023-03-30T15:28:38.902Z</time>
      </trkpt>
      <trkpt lat="48.884901" lon="1.982796">
        <ele>174.123619</ele>
        <time>2023-03-30T15:28:42.413Z</time>
      </trkpt>
      <trkpt lat="48.885031" lon="1.983125">
        <ele>173.806841</ele>
        <time>2023-03-30T15:28:45.237Z</time>
      </trkpt>
      <trkpt lat="48.885150" lon="1.983289">
        <ele>173.605281</ele>
        <time>2023-03-30T15:28:47.077Z</time>
      </trkpt>
      <trkpt lat="48.885294" lon="1.983381">
        <ele>173.409248</ele>
        <time>2023-03-30T15:28:48.898Z</time>
      </trkpt>
      <trkpt lat="48.885374" lon="1.983394">
        <ele>173.384127</ele>
        <time>2023-03-30T15:28:49.866Z</time>
      </trkpt>
      <trkpt lat="48.885574" lon="1.983330">
        <ele>173.335712</ele>
        <time>2023-03-30T15:28:52.278Z</time>
      </trkpt>
      <trkpt lat="48.885694" lon="1.983209">
        <ele>173.301605</ele>
        <time>2023-03-30T15:28:53.999Z</time>
      </trkpt>
      <trkpt lat="48.885794" lon="1.983017">
        <ele>173.263452</ele>
        <time>2023-03-30T15:28:55.970Z</time>
      </trkpt>
      <trkpt lat="48.888997" lon="1.973432">
        <ele>172.088266</ele>
        <time>2023-03-30T15:30:37.949Z</time>
      </trkpt>
      <trkpt lat="48.890263" lon="1.969645">
        <ele>173.031301</ele>
        <time>2023-03-30T15:31:24.104Z</time>
      </trkpt>
      <trkpt lat="48.890917" lon="1.967682">
        <ele>173.677401</ele>
        <time>2023-03-30T15:31:48.096Z</time>
      </trkpt>
      <trkpt lat="48.891117" lon="1.967083">
        <ele>173.878956</ele>
        <time>2023-03-30T15:31:55.403Z</time>
      </trkpt>
      <trkpt lat="48.892811" lon="1.961984">
        <ele>175.401426</ele>
        <time>2023-03-30T15:32:57.274Z</time>
      </trkpt>
      <trkpt lat="48.892882" lon="1.961915">
        <ele>175.435144</ele>
        <time>2023-03-30T15:32:58.666Z</time>
      </trkpt>
      <trkpt lat="48.892943" lon="1.961598">
        <ele>175.537615</ele>
        <time>2023-03-30T15:33:02.137Z</time>
      </trkpt>
      <trkpt lat="48.894472" lon="1.956974">
        <ele>177.155702</ele>
        <time>2023-03-30T15:33:59.548Z</time>
      </trkpt>
      <trkpt lat="48.895369" lon="1.954322">
        <ele>177.814692</ele>
        <time>2023-03-30T15:34:30.787Z</time>
      </trkpt>
      <trkpt lat="48.895554" lon="1.953890">
        <ele>177.938735</ele>
        <time>2023-03-30T15:34:36.319Z</time>
      </trkpt>
      <trkpt lat="48.896283" lon="1.952549">
        <ele>178.357387</ele>
        <time>2023-03-30T15:34:55.355Z</time>
      </trkpt>
      <trkpt lat="48.896707" lon="1.951779">
        <ele>178.377133</ele>
        <time>2023-03-30T15:35:05.959Z</time>
      </trkpt>
      <trkpt lat="48.897079" lon="1.951103">
        <ele>178.340852</ele>
        <time>2023-03-30T15:35:14.534Z</time>
      </trkpt>
      <trkpt lat="48.897735" lon="1.949897">
        <ele>178.118727</ele>
        <time>2023-03-30T15:35:28.262Z</time>
      </trkpt>
      <trkpt lat="48.898394" lon="1.948686">
        <ele>177.556744</ele>
        <time>2023-03-30T15:35:41.676Z</time>
      </trkpt>
      <trkpt lat="48.899253" lon="1.947108">
        <ele>177.107094</ele>
        <time>2023-03-30T15:35:59.574Z</time>
      </trkpt>
      <trkpt lat="48.899982" lon="1.945784">
        <ele>176.910055</ele>
        <time>2023-03-30T15:36:16.425Z</time>
      </trkpt>
      <trkpt lat="48.900508" lon="1.944829">
        <ele>176.943479</ele>
        <time>2023-03-30T15:36:28.533Z</time>
      </trkpt>
      <trkpt lat="48.901114" lon="1.943728">
        <ele>176.983407</ele>
        <time>2023-03-30T15:36:43.038Z</time>
      </trkpt>
      <trkpt lat="48.902076" lon="1.942004">
        <ele>177.054000</ele>
        <time>2023-03-30T15:37:05.565Z</time>
      </trkpt>
      <trkpt lat="48.902265" lon="1.941576">
        <ele>176.974939</ele>
        <time>2023-03-30T15:37:10.570Z</time>
      </trkpt>
      <trkpt lat="48.902309" lon="1.941647">
        <ele>176.952262</ele>
        <time>2023-03-30T15:37:11.822Z</time>
      </trkpt>
      <trkpt lat="48.903319" lon="1.941846">
        <ele>176.592207</ele>
        <time>2023-03-30T15:37:31.223Z</time>
      </trkpt>
      <trkpt lat="48.903533" lon="1.941968">
        <ele>176.511413</ele>
        <time>2023-03-30T15:37:35.415Z</time>
      </trkpt>
      <trkpt lat="48.903760" lon="1.942275">
        <ele>176.383835</ele>
        <time>2023-03-30T15:37:40.872Z</time>
      </trkpt>
      <trkpt lat="48.903929" lon="1.942662">
        <ele>176.160520</ele>
        <time>2023-03-30T15:37:46.288Z</time>
      </trkpt>
      <trkpt lat="48.904223" lon="1.945569">
        <ele>174.963708</ele>
        <time>2023-03-30T15:38:20.952Z</time>
      </trkpt>
      <trkpt lat="48.904333" lon="1.946861">
        <ele>174.713776</ele>
        <time>2023-03-30T15:38:37.458Z</time>
      </trkpt>
      <trkpt lat="48.904442" lon="1.947631">
        <ele>174.597610</ele>
        <time>2023-03-30T15:38:48.098Z</time>
      </trkpt>
      <trkpt lat="48.904684" lon="1.948832">
        <ele>174.774692</ele>
        <time>2023-03-30T15:39:05.851Z</time>
      </trkpt>
      <trkpt lat="48.904717" lon="1.948979">
        <ele>174.796590</ele>
        <time>2023-03-30T15:39:08.061Z</time>
      </trkpt>
      <trkpt lat="48.905122" lon="1.950111">
        <ele>174.964604</ele>
        <time>2023-03-30T15:39:25.854Z</time>
      </trkpt>
      <trkpt lat="48.905290" lon="1.950878">
        <ele>174.918277</ele>
        <time>2023-03-30T15:39:36.858Z</time>
      </trkpt>
      <trkpt lat="48.905614" lon="1.953669">
        <ele>173.480321</ele>
        <time>2023-03-30T15:40:13.055Z</time>
      </trkpt>
      <trkpt lat="48.905683" lon="1.954032">
        <ele>172.964421</ele>
        <time>2023-03-30T15:40:17.203Z</time>
      </trkpt>
      <trkpt lat="48.905767" lon="1.954214">
        <ele>172.660805</ele>
        <time>2023-03-30T15:40:19.531Z</time>
      </trkpt>
      <trkpt lat="48.905989" lon="1.954463">
        <ele>172.087926</ele>
        <time>2023-03-30T15:40:23.746Z</time>
      </trkpt>
      <trkpt lat="48.906541" lon="1.955115">
        <ele>169.554696</ele>
        <time>2023-03-30T15:40:33.521Z</time>
      </trkpt>
      <trkpt lat="48.906805" lon="1.955191">
        <ele>167.622824</ele>
        <time>2023-03-30T15:40:37.085Z</time>
      </trkpt>
      <trkpt lat="48.907245" lon="1.955262">
        <ele>164.441430</ele>
        <time>2023-03-30T15:40:42.781Z</time>
      </trkpt>
      <trkpt lat="48.908017" lon="1.955805">
        <ele>158.326190</ele>
        <time>2023-03-30T15:40:53.338Z</time>
      </trkpt>
      <trkpt lat="48.908610" lon="1.955856">
        <ele>153.495297</ele>
        <time>2023-03-30T15:41:00.601Z</time>
      </trkpt>
      <trkpt lat="48.909550" lon="1.954998">
        <ele>144.533208</ele>
        <time>2023-03-30T15:41:14.386Z</time>
      </trkpt>
      <trkpt lat="48.909684" lon="1.954960">
        <ele>143.427502</ele>
        <time>2023-03-30T15:41:16.147Z</time>
      </trkpt>
      <trkpt lat="48.909734" lon="1.954995">
        <ele>143.180155</ele>
        <time>2023-03-30T15:41:16.847Z</time>
      </trkpt>
      <trkpt lat="48.909779" lon="1.955085">
        <ele>142.846138</ele>
        <time>2023-03-30T15:41:17.815Z</time>
      </trkpt>
      <trkpt lat="48.909866" lon="1.955388">
        <ele>141.869479</ele>
        <time>2023-03-30T15:41:20.657Z</time>
      </trkpt>
      <trkpt lat="48.910101" lon="1.956403">
        <ele>138.690870</ele>
        <time>2023-03-30T15:41:30.265Z</time>
      </trkpt>
      <trkpt lat="48.910356" lon="1.957522">
        <ele>135.249057</ele>
        <time>2023-03-30T15:41:41.893Z</time>
      </trkpt>
      <trkpt lat="48.910721" lon="1.959117">
        <ele>131.995770</ele>
        <time>2023-03-30T15:41:58.352Z</time>
      </trkpt>
      <trkpt lat="48.910816" lon="1.959534">
        <ele>131.145637</ele>
        <time>2023-03-30T15:42:02.588Z</time>
      </trkpt>
      <trkpt lat="48.910858" lon="1.959629">
        <ele>130.925095</ele>
        <time>2023-03-30T15:42:03.673Z</time>
      </trkpt>
      <trkpt lat="48.910900" lon="1.959725">
        <ele>130.702952</ele>
        <time>2023-03-30T15:42:04.770Z</time>
      </trkpt>
      <trkpt lat="48.911982" lon="1.962248">
        <ele>125.678174</ele>
        <time>2023-03-30T15:42:34.427Z</time>
      </trkpt>
      <trkpt lat="48.911984" lon="1.962254">
        <ele>125.667161</ele>
        <time>2023-03-30T15:42:34.497Z</time>
      </trkpt>
      <trkpt lat="48.912099" lon="1.962466">
        <ele>125.609469</ele>
        <time>2023-03-30T15:42:37.497Z</time>
      </trkpt>
      <trkpt lat="48.912187" lon="1.962316">
        <ele>125.614807</ele>
        <time>2023-03-30T15:42:40.008Z</time>
      </trkpt>
      <trkpt lat="48.912629" lon="1.961961">
        <ele>125.634995</ele>
        <time>2023-03-30T15:42:49.471Z</time>
      </trkpt>
      <trkpt lat="48.912887" lon="1.961741">
        <ele>125.646941</ele>
        <time>2023-03-30T15:42:55.929Z</time>
      </trkpt>
      <trkpt lat="48.912953" lon="1.961856">
        <ele>125.650993</ele>
        <time>2023-03-30T15:42:58.015Z</time>
      </trkpt>
      <trkpt lat="48.913205" lon="1.962506">
        <ele>125.671027</ele>
        <time>2023-03-30T15:43:10.409Z</time>
      </trkpt>
      <trkpt lat="48.913468" lon="1.963361">
        <ele>126.281559</ele>
        <time>2023-03-30T15:43:26.450Z</time>
      </trkpt>
      <trkpt lat="48.913849" lon="1.965261">
        <ele>127.853307</ele>
        <time>2023-03-30T15:43:59.047Z</time>
      </trkpt>
      <trkpt lat="48.913953" lon="1.965616">
        <ele>127.916015</ele>
        <time>2023-03-30T15:44:05.577Z</time>
      </trkpt>
      <trkpt lat="48.914110" lon="1.965982">
        <ele>127.986529</ele>
        <time>2023-03-30T15:44:12.682Z</time>
      </trkpt>
      <trkpt lat="48.914468" lon="1.966422">
        <ele>128.099504</ele>
        <time>2023-03-30T15:44:23.132Z</time>
      </trkpt>
      <trkpt lat="48.914805" lon="1.966923">
        <ele>128.215167</ele>
        <time>2023-03-30T15:44:32.154Z</time>
      </trkpt>
      <trkpt lat="48.914939" lon="1.967306">
        <ele>128.285169</ele>
        <time>2023-03-30T15:44:37.386Z</time>
      </trkpt>
      <trkpt lat="48.914994" lon="1.967679">
        <ele>127.908370</ele>
        <time>2023-03-30T15:44:41.743Z</time>
      </trkpt>
      <trkpt lat="48.914954" lon="1.968273">
        <ele>127.220293</ele>
        <time>2023-03-30T15:44:48.180Z</time>
      </trkpt>
      <trkpt lat="48.915030" lon="1.969112">
        <ele>126.244336</ele>
        <time>2023-03-30T15:44:56.762Z</time>
      </trkpt>
      <trkpt lat="48.915517" lon="1.970016">
        <ele>125.118882</ele>
        <time>2023-03-30T15:45:08.340Z</time>
      </trkpt>
      <trkpt lat="48.916503" lon="1.971567">
        <ele>124.910705</ele>
        <time>2023-03-30T15:45:35.810Z</time>
      </trkpt>
      <trkpt lat="48.916551" lon="1.971612">
        <ele>124.902429</ele>
        <time>2023-03-30T15:45:37.286Z</time>
      </trkpt>
      <trkpt lat="48.916588" lon="1.971702">
        <ele>124.892188</ele>
        <time>2023-03-30T15:45:39.108Z</time>
      </trkpt>
      <trkpt lat="48.916657" lon="1.971718">
        <ele>124.881942</ele>
        <time>2023-03-30T15:45:41.024Z</time>
      </trkpt>
      <trkpt lat="48.916676" lon="1.971704">
        <ele>124.878843</ele>
        <time>2023-03-30T15:45:41.648Z</time>
      </trkpt>
      <trkpt lat="48.916693" lon="1.971684">
        <ele>124.875688</ele>
        <time>2023-03-30T15:45:42.267Z</time>
      </trkpt>
      <trkpt lat="48.916713" lon="1.971567">
        <ele>125.079044</ele>
        <time>2023-03-30T15:45:44.540Z</time>
      </trkpt>
      <trkpt lat="48.916659" lon="1.971479">
        <ele>125.293200</ele>
        <time>2023-03-30T15:45:46.735Z</time>
      </trkpt>
      <trkpt lat="48.916705" lon="1.971303">
        <ele>125.630101</ele>
        <time>2023-03-30T15:45:49.697Z</time>
      </trkpt>
      <trkpt lat="48.916913" lon="1.970935">
        <ele>126.493465</ele>
        <time>2023-03-30T15:45:59.539Z</time>
      </trkpt>
      <trkpt lat="48.916977" lon="1.970811">
        <ele>126.773916</ele>
        <time>2023-03-30T15:46:02.278Z</time>
      </trkpt>
      <trkpt lat="48.917802" lon="1.969323">
        <ele>130.168234</ele>
        <time>2023-03-30T15:46:37.984Z</time>
      </trkpt>
      <trkpt lat="48.917803" lon="1.969322">
        <ele>130.171024</ele>
        <time>2023-03-30T15:46:38.019Z</time>
      </trkpt>
      <trkpt lat="48.918008" lon="1.969064">
        <ele>130.791093</ele>
        <time>2023-03-30T15:46:45.200Z</time>
      </trkpt>
      <trkpt lat="48.918273" lon="1.968757">
        <ele>131.567396</ele>
        <time>2023-03-30T15:46:53.859Z</time>
      </trkpt>
      <trkpt lat="48.918461" lon="1.968471">
        <ele>132.187010</ele>
        <time>2023-03-30T15:47:00.330Z</time>
      </trkpt>
      <trkpt lat="48.918674" lon="1.967971">
        <ele>133.099700</ele>
        <time>2023-03-30T15:47:09.243Z</time>
      </trkpt>
      <trkpt lat="48.919009" lon="1.967090">
        <ele>133.872486</ele>
        <time>2023-03-30T15:47:23.117Z</time>
      </trkpt>
      <trkpt lat="48.919134" lon="1.966921">
        <ele>133.838356</ele>
        <time>2023-03-30T15:47:26.226Z</time>
      </trkpt>
      <trkpt lat="48.919326" lon="1.966681">
        <ele>133.787638</ele>
        <time>2023-03-30T15:47:30.550Z</time>
      </trkpt>
      <trkpt lat="48.919668" lon="1.966335">
        <ele>133.703810</ele>
        <time>2023-03-30T15:47:36.497Z</time>
      </trkpt>
      <trkpt lat="48.920208" lon="1.965976">
        <ele>133.583526</ele>
        <time>2023-03-30T15:47:43.457Z</time>
      </trkpt>
      <trkpt lat="48.920285" lon="1.965923">
        <ele>133.540201</ele>
        <time>2023-03-30T15:47:44.381Z</time>
      </trkpt>
      <trkpt lat="48.920538" lon="1.965685">
        <ele>132.814447</ele>
        <time>2023-03-30T15:47:47.501Z</time>
      </trkpt>
      <trkpt lat="48.921025" lon="1.964998">
        <ele>131.194144</ele>
        <time>2023-03-30T15:47:54.253Z</time>
      </trkpt>
      <trkpt lat="48.921469" lon="1.964290">
        <ele>129.624966</ele>
        <time>2023-03-30T15:48:00.937Z</time>
      </trkpt>
      <trkpt lat="48.921786" lon="1.963957">
        <ele>129.092348</ele>
        <time>2023-03-30T15:48:05.268Z</time>
      </trkpt>
      <trkpt lat="48.921906" lon="1.963775">
        <ele>129.019214</ele>
        <time>2023-03-30T15:48:07.356Z</time>
      </trkpt>
      <trkpt lat="48.922139" lon="1.963721">
        <ele>128.917472</ele>
        <time>2023-03-30T15:48:11.485Z</time>
      </trkpt>
      <trkpt lat="48.922322" lon="1.963571">
        <ele>128.827745</ele>
        <time>2023-03-30T15:48:15.316Z</time>
      </trkpt>
      <trkpt lat="48.922497" lon="1.963197">
        <ele>128.697510</ele>
        <time>2023-03-30T15:48:21.570Z</time>
      </trkpt>
      <trkpt lat="48.922687" lon="1.962720">
        <ele>128.539290</ele>
        <time>2023-03-30T15:48:29.194Z</time>
      </trkpt>
      <trkpt lat="48.922893" lon="1.962402">
        <ele>128.412624</ele>
        <time>2023-03-30T15:48:35.790Z</time>
      </trkpt>
      <trkpt lat="48.923076" lon="1.962360">
        <ele>128.373331</ele>
        <time>2023-03-30T15:48:39.632Z</time>
      </trkpt>
      <trkpt lat="48.923062" lon="1.962187">
        <ele>128.352277</ele>
        <time>2023-03-30T15:48:41.995Z</time>
      </trkpt>
      <trkpt lat="48.923175" lon="1.961448">
        <ele>128.260633</ele>
        <time>2023-03-30T15:48:50.817Z</time>
      </trkpt>
      <trkpt lat="48.923227" lon="1.960978">
        <ele>128.203065</ele>
        <time>2023-03-30T15:48:55.472Z</time>
      </trkpt>
      <trkpt lat="48.923197" lon="1.960713">
        <ele>128.170586</ele>
        <time>2023-03-30T15:48:57.668Z</time>
      </trkpt>
      <trkpt lat="48.923114" lon="1.960444">
        <ele>128.134691</ele>
        <time>2023-03-30T15:49:00.094Z</time>
      </trkpt>
      <trkpt lat="48.923083" lon="1.959908">
        <ele>128.040218</ele>
        <time>2023-03-30T15:49:04.243Z</time>
      </trkpt>
      <trkpt lat="48.923068" lon="1.959577">
        <ele>127.620078</ele>
        <time>2023-03-30T15:49:06.756Z</time>
      </trkpt>
      <trkpt lat="48.923187" lon="1.959162">
        <ele>127.046703</ele>
        <time>2023-03-30T15:49:10.223Z</time>
      </trkpt>
      <trkpt lat="48.923475" lon="1.958273">
        <ele>125.791581</ele>
        <time>2023-03-30T15:49:17.957Z</time>
      </trkpt>
      <trkpt lat="48.923568" lon="1.957531">
        <ele>124.835055</ele>
        <time>2023-03-30T15:49:23.310Z</time>
      </trkpt>
      <trkpt lat="48.923657" lon="1.956160">
        <ele>120.704066</ele>
        <time>2023-03-30T15:49:32.061Z</time>
      </trkpt>
      <trkpt lat="48.923727" lon="1.955531">
        <ele>118.624523</ele>
        <time>2023-03-30T15:49:35.918Z</time>
      </trkpt>
      <trkpt lat="48.923786" lon="1.954695">
        <ele>115.883756</ele>
        <time>2023-03-30T15:49:40.985Z</time>
      </trkpt>
      <trkpt lat="48.923888" lon="1.953951">
        <ele>114.427037</ele>
        <time>2023-03-30T15:49:45.624Z</time>
      </trkpt>
      <trkpt lat="48.924006" lon="1.953364">
        <ele>113.322992</ele>
        <time>2023-03-30T15:49:49.413Z</time>
      </trkpt>
      <trkpt lat="48.924068" lon="1.953170">
        <ele>112.934994</ele>
        <time>2023-03-30T15:49:50.771Z</time>
      </trkpt>
      <trkpt lat="48.924838" lon="1.950707">
        <ele>113.385415</ele>
        <time>2023-03-30T15:50:21.304Z</time>
      </trkpt>
      <trkpt lat="48.925749" lon="1.947750">
        <ele>121.796131</ele>
        <time>2023-03-30T15:51:37.768Z</time>
      </trkpt>
      <trkpt lat="48.926004" lon="1.947003">
        <ele>124.179061</ele>
        <time>2023-03-30T15:51:54.903Z</time>
      </trkpt>
      <trkpt lat="48.925233" lon="1.944748">
        <ele>128.486623</ele>
        <time>2023-03-30T15:52:43.439Z</time>
      </trkpt>
      <trkpt lat="48.924904" lon="1.944014">
        <ele>130.720614</ele>
        <time>2023-03-30T15:53:00.858Z</time>
      </trkpt>
      <trkpt lat="48.924088" lon="1.943548">
        <ele>134.112839</ele>
        <time>2023-03-30T15:53:32.335Z</time>
      </trkpt>
      <trkpt lat="48.923907" lon="1.943388">
        <ele>134.927530</ele>
        <time>2023-03-30T15:53:39.493Z</time>
      </trkpt>
      <trkpt lat="48.923168" lon="1.942525">
        <ele>140.939324</ele>
        <time>2023-03-30T15:54:16.104Z</time>
      </trkpt>
      <trkpt lat="48.923058" lon="1.942462">
        <ele>141.761785</ele>
        <time>2023-03-30T15:54:21.300Z</time>
      </trkpt>
      <trkpt lat="48.922902" lon="1.942438">
        <ele>142.859007</ele>
        <time>2023-03-30T15:54:28.380Z</time>
      </trkpt>
      <trkpt lat="48.922691" lon="1.942563">
        <ele>144.443468</ele>
        <time>2023-03-30T15:54:39.155Z</time>
      </trkpt>
      <trkpt lat="48.922505" lon="1.942613">
        <ele>145.765210</ele>
        <time>2023-03-30T15:54:48.286Z</time>
      </trkpt>
      <trkpt lat="48.922282" lon="1.942497">
        <ele>147.414360</ele>
        <time>2023-03-30T15:54:59.348Z</time>
      </trkpt>
      <trkpt lat="48.921928" lon="1.942128">
        <ele>150.605482</ele>
        <time>2023-03-30T15:55:19.568Z</time>
      </trkpt>
      <trkpt lat="48.921608" lon="1.941594">
        <ele>154.204933</ele>
        <time>2023-03-30T15:55:41.485Z</time>
      </trkpt>
      <trkpt lat="48.921231" lon="1.940868">
        <ele>158.813556</ele>
        <time>2023-03-30T15:56:09.732Z</time>
      </trkpt>
      <trkpt lat="48.921025" lon="1.940357">
        <ele>161.792757</ele>
        <time>2023-03-30T15:56:27.594Z</time>
      </trkpt>
      <trkpt lat="48.920527" lon="1.938714">
        <ele>167.401684</ele>
        <time>2023-03-30T15:57:11.099Z</time>
      </trkpt>
      <trkpt lat="48.920429" lon="1.938491">
        <ele>168.233323</ele>
        <time>2023-03-30T15:57:16.077Z</time>
      </trkpt>
      <trkpt lat="48.920209" lon="1.938115">
        <ele>169.794016</ele>
        <time>2023-03-30T15:57:24.810Z</time>
      </trkpt>
      <trkpt lat="48.919873" lon="1.937675">
        <ele>170.713734</ele>
        <time>2023-03-30T15:57:35.294Z</time>
      </trkpt>
      <trkpt lat="48.919305" lon="1.937008">
        <ele>171.647978</ele>
        <time>2023-03-30T15:57:53.489Z</time>
      </trkpt>
      <trkpt lat="48.918386" lon="1.936257">
        <ele>172.903300</ele>
        <time>2023-03-30T15:58:16.436Z</time>
      </trkpt>
      <trkpt lat="48.915656" lon="1.934733">
        <ele>175.867616</ele>
        <time>2023-03-30T15:59:27.837Z</time>
      </trkpt>
      <trkpt lat="48.915648" lon="1.934732">
        <ele>175.876266</ele>
        <time>2023-03-30T15:59:28.037Z</time>
      </trkpt>
      <trkpt lat="48.915072" lon="1.934627">
        <ele>176.430120</ele>
        <time>2023-03-30T15:59:42.326Z</time>
      </trkpt>
      <trkpt lat="48.914978" lon="1.933894">
        <ele>176.787287</ele>
        <time>2023-03-30T15:59:51.507Z</time>
      </trkpt>
      <trkpt lat="48.914878" lon="1.933121">
        <ele>177.164067</ele>
        <time>2023-03-30T16:00:00.836Z</time>
      </trkpt>
      <trkpt lat="48.914320" lon="1.928796">
        <ele>178.452250</ele>
        <time>2023-03-30T16:00:47.791Z</time>
      </trkpt>
      <trkpt lat="48.914024" lon="1.927717">
        <ele>178.793188</ele>
        <time>2023-03-30T16:01:00.562Z</time>
      </trkpt>
      <trkpt lat="48.913778" lon="1.926993">
        <ele>179.034273</ele>
        <time>2023-03-30T16:01:09.650Z</time>
      </trkpt>
      <trkpt lat="48.913591" lon="1.925453">
        <ele>179.699343</ele>
        <time>2023-03-30T16:01:27.399Z</time>
      </trkpt>
      <trkpt lat="48.913449" lon="1.924321">
        <ele>180.190260</ele>
        <time>2023-03-30T16:01:40.507Z</time>
      </trkpt>
      <trkpt lat="48.913253" lon="1.922710">
        <ele>181.219160</ele>
        <time>2023-03-30T16:02:00.377Z</time>
      </trkpt>
      <trkpt lat="48.913176" lon="1.922319">
        <ele>181.475496</ele>
        <time>2023-03-30T16:02:05.577Z</time>
      </trkpt>
      <trkpt lat="48.913145" lon="1.921971">
        <ele>181.696039</ele>
        <time>2023-03-30T16:02:10.070Z</time>
      </trkpt>
      <trkpt lat="48.913162" lon="1.921784">
        <ele>181.814594</ele>
        <time>2023-03-30T16:02:12.575Z</time>
      </trkpt>
      <trkpt lat="48.913490" lon="1.920655">
        <ele>182.503558</ele>
        <time>2023-03-30T16:02:28.216Z</time>
      </trkpt>
      <trkpt lat="48.913741" lon="1.919583">
        <ele>183.128309</ele>
        <time>2023-03-30T16:02:41.547Z</time>
      </trkpt>
      <trkpt lat="48.914072" lon="1.918763">
        <ele>183.443876</ele>
        <time>2023-03-30T16:02:52.199Z</time>
      </trkpt>
      <trkpt lat="48.914093" lon="1.918654">
        <ele>183.453121</ele>
        <time>2023-03-30T16:02:53.395Z</time>
      </trkpt>
      <trkpt lat="48.914063" lon="1.918546">
        <ele>183.462665</ele>
        <time>2023-03-30T16:02:54.602Z</time>
      </trkpt>
      <trkpt lat="48.913900" lon="1.918254">
        <ele>183.493850</ele>
        <time>2023-03-30T16:02:58.467Z</time>
      </trkpt>
      <trkpt lat="48.913886" lon="1.918233">
        <ele>183.496285</ele>
        <time>2023-03-30T16:02:58.763Z</time>
      </trkpt>
      <trkpt lat="48.913494" lon="1.917725">
        <ele>183.560058</ele>
        <time>2023-03-30T16:03:06.184Z</time>
      </trkpt>
      <trkpt lat="48.913225" lon="1.917388">
        <ele>183.603215</ele>
        <time>2023-03-30T16:03:11.317Z</time>
      </trkpt>
      <trkpt lat="48.913598" lon="1.916779">
        <ele>183.653457</ele>
        <time>2023-03-30T16:03:19.455Z</time>
      </trkpt>
      <trkpt lat="48.913738" lon="1.916398">
        <ele>183.673938</ele>
        <time>2023-03-30T16:03:23.851Z</time>
      </trkpt>
      <trkpt lat="48.913810" lon="1.915968">
        <ele>183.694758</ele>
        <time>2023-03-30T16:03:28.369Z</time>
      </trkpt>
      <trkpt lat="48.913807" lon="1.915694">
        <ele>183.707615</ele>
        <time>2023-03-30T16:03:31.186Z</time>
      </trkpt>
      <trkpt lat="48.913805" lon="1.915562">
        <ele>183.713811</ele>
        <time>2023-03-30T16:03:32.525Z</time>
      </trkpt>
      <trkpt lat="48.913778" lon="1.914599">
        <ele>183.755062</ele>
        <time>2023-03-30T16:03:41.915Z</time>
      </trkpt>
      <trkpt lat="48.913707" lon="1.911857">
        <ele>183.367127</ele>
        <time>2023-03-30T16:04:07.624Z</time>
      </trkpt>
      <trkpt lat="48.913760" lon="1.910950">
        <ele>182.952521</ele>
        <time>2023-03-30T16:04:15.242Z</time>
      </trkpt>
      <trkpt lat="48.913816" lon="1.910942">
        <ele>182.913552</ele>
        <time>2023-03-30T16:04:15.936Z</time>
      </trkpt>
      <trkpt lat="48.913887" lon="1.910861">
        <ele>182.852071</ele>
        <time>2023-03-30T16:04:17.003Z</time>
      </trkpt>
      <trkpt lat="48.913891" lon="1.910735">
        <ele>182.794634</ele>
        <time>2023-03-30T16:04:18.043Z</time>
      </trkpt>
      <trkpt lat="48.913866" lon="1.910658">
        <ele>182.755529</ele>
        <time>2023-03-30T16:04:18.773Z</time>
      </trkpt>
      <trkpt lat="48.913765" lon="1.910595">
        <ele>182.679902</ele>
        <time>2023-03-30T16:04:20.218Z</time>
      </trkpt>
      <trkpt lat="48.913668" lon="1.909796">
        <ele>182.309945</ele>
        <time>2023-03-30T16:04:26.973Z</time>
      </trkpt>
      <trkpt lat="48.913650" lon="1.909377">
        <ele>182.122214</ele>
        <time>2023-03-30T16:04:30.508Z</time>
      </trkpt>
      <trkpt lat="48.913637" lon="1.908736">
        <ele>181.896088</ele>
        <time>2023-03-30T16:04:35.864Z</time>
      </trkpt>
      <trkpt lat="48.913694" lon="1.908142">
        <ele>181.684422</ele>
        <time>2023-03-30T16:04:40.999Z</time>
      </trkpt>
      <trkpt lat="48.914553" lon="1.903931">
        <ele>180.191115</ele>
        <time>2023-03-30T16:05:19.840Z</time>
      </trkpt>
      <trkpt lat="48.914823" lon="1.902640">
        <ele>179.440870</ele>
        <time>2023-03-30T16:05:30.955Z</time>
      </trkpt>
      <trkpt lat="48.915251" lon="1.900589">
        <ele>178.339416</ele>
        <time>2023-03-30T16:05:48.142Z</time>
      </trkpt>
      <trkpt lat="48.915742" lon="1.898309">
        <ele>177.434808</ele>
        <time>2023-03-30T16:06:09.023Z</time>
      </trkpt>
      <trkpt lat="48.915825" lon="1.897864">
        <ele>177.367492</ele>
        <time>2023-03-30T16:06:13.259Z</time>
      </trkpt>
      <trkpt lat="48.915869" lon="1.897370">
        <ele>177.294946</ele>
        <time>2023-03-30T16:06:17.952Z</time>
      </trkpt>
      <trkpt lat="48.915844" lon="1.896772">
        <ele>177.207747</ele>
        <time>2023-03-30T16:06:23.680Z</time>
      </trkpt>
      <trkpt lat="48.914941" lon="1.890640">
        <ele>177.444847</ele>
        <time>2023-03-30T16:07:25.333Z</time>
      </trkpt>
      <trkpt lat="48.914901" lon="1.890185">
        <ele>177.680712</ele>
        <time>2023-03-30T16:07:30.449Z</time>
      </trkpt>
      <trkpt lat="48.914762" lon="1.887275">
        <ele>179.393812</ele>
        <time>2023-03-30T16:08:06.610Z</time>
      </trkpt>
      <trkpt lat="48.914654" lon="1.884545">
        <ele>181.328813</ele>
        <time>2023-03-30T16:08:41.739Z</time>
      </trkpt>
      <trkpt lat="48.914569" lon="1.882129">
        <ele>182.633650</ele>
        <time>2023-03-30T16:09:10.865Z</time>
      </trkpt>
      <trkpt lat="48.914619" lon="1.881747">
        <ele>182.738003</ele>
        <time>2023-03-30T16:09:15.275Z</time>
      </trkpt>
      <trkpt lat="48.914677" lon="1.881537">
        <ele>182.799032</ele>
        <time>2023-03-30T16:09:17.758Z</time>
      </trkpt>
      <trkpt lat="48.914849" lon="1.881143">
        <ele>182.925756</ele>
        <time>2023-03-30T16:09:22.942Z</time>
      </trkpt>
      <trkpt lat="48.915006" lon="1.880936">
        <ele>183.010445</ele>
        <time>2023-03-30T16:09:26.445Z</time>
      </trkpt>
      <trkpt lat="48.915213" lon="1.880753">
        <ele>183.108041</ele>
        <time>2023-03-30T16:09:30.363Z</time>
      </trkpt>
      <trkpt lat="48.917559" lon="1.879205">
        <ele>181.366303</ele>
        <time>2023-03-30T16:10:04.880Z</time>
      </trkpt>
      <trkpt lat="48.919148" lon="1.878135">
        <ele>176.660390</ele>
        <time>2023-03-30T16:10:22.761Z</time>
      </trkpt>
      <trkpt lat="48.919400" lon="1.877902">
        <ele>175.433740</ele>
        <time>2023-03-30T16:10:25.600Z</time>
      </trkpt>
      <trkpt lat="48.920534" lon="1.876368">
        <ele>168.810007</ele>
        <time>2023-03-30T16:10:40.068Z</time>
      </trkpt>
      <trkpt lat="48.921065" lon="1.875657">
        <ele>165.396387</ele>
        <time>2023-03-30T16:10:46.717Z</time>
      </trkpt>
      <trkpt lat="48.921368" lon="1.875241">
        <ele>163.426804</ele>
        <time>2023-03-30T16:10:50.583Z</time>
      </trkpt>
      <trkpt lat="48.921759" lon="1.874734">
        <ele>160.901244</ele>
        <time>2023-03-30T16:10:55.480Z</time>
      </trkpt>
      <trkpt lat="48.921943" lon="1.874416">
        <ele>159.514266</ele>
        <time>2023-03-30T16:10:58.130Z</time>
      </trkpt>
      <trkpt lat="48.922235" lon="1.873901">
        <ele>157.287666</ele>
        <time>2023-03-30T16:11:02.339Z</time>
      </trkpt>
      <trkpt lat="48.922661" lon="1.873353">
        <ele>154.508962</ele>
        <time>2023-03-30T16:11:07.559Z</time>
      </trkpt>
      <trkpt lat="48.922697" lon="1.873294">
        <ele>154.245411</ele>
        <time>2023-03-30T16:11:08.053Z</time>
      </trkpt>
      <trkpt lat="48.922812" lon="1.872994">
        <ele>153.054238</ele>
        <time>2023-03-30T16:11:10.209Z</time>
      </trkpt>
      <trkpt lat="48.922839" lon="1.872761">
        <ele>152.148216</ele>
        <time>2023-03-30T16:11:11.674Z</time>
      </trkpt>
      <trkpt lat="48.922836" lon="1.872538">
        <ele>151.294079</ele>
        <time>2023-03-30T16:11:13.064Z</time>
      </trkpt>
      <trkpt lat="48.922788" lon="1.872346">
        <ele>150.507413</ele>
        <time>2023-03-30T16:11:14.337Z</time>
      </trkpt>
      <trkpt lat="48.922677" lon="1.872094">
        <ele>149.345633</ele>
        <time>2023-03-30T16:11:16.206Z</time>
      </trkpt>
      <trkpt lat="48.922522" lon="1.871964">
        <ele>148.314205</ele>
        <time>2023-03-30T16:11:17.852Z</time>
      </trkpt>
      <trkpt lat="48.922384" lon="1.871898">
        <ele>147.471168</ele>
        <time>2023-03-30T16:11:19.186Z</time>
      </trkpt>
      <trkpt lat="48.922239" lon="1.871902">
        <ele>146.625974</ele>
        <time>2023-03-30T16:11:20.521Z</time>
      </trkpt>
      <trkpt lat="48.921539" lon="1.872199">
        <ele>142.231265</ele>
        <time>2023-03-30T16:11:27.110Z</time>
      </trkpt>
      <trkpt lat="48.921436" lon="1.872211">
        <ele>141.456102</ele>
        <time>2023-03-30T16:11:28.034Z</time>
      </trkpt>
      <trkpt lat="48.921409" lon="1.872128">
        <ele>140.999443</ele>
        <time>2023-03-30T16:11:28.580Z</time>
      </trkpt>
      <trkpt lat="48.921369" lon="1.872110">
        <ele>140.686440</ele>
        <time>2023-03-30T16:11:28.953Z</time>
      </trkpt>
      <trkpt lat="48.921330" lon="1.872134">
        <ele>140.370767</ele>
        <time>2023-03-30T16:11:29.329Z</time>
      </trkpt>
      <trkpt lat="48.921224" lon="1.871926">
        <ele>139.072868</ele>
        <time>2023-03-30T16:11:30.879Z</time>
      </trkpt>
      <trkpt lat="48.918867" lon="1.867610">
        <ele>111.085664</ele>
        <time>2023-03-30T16:12:03.543Z</time>
      </trkpt>
      <trkpt lat="48.918177" lon="1.866335">
        <ele>103.405191</ele>
        <time>2023-03-30T16:12:13.331Z</time>
      </trkpt>
      <trkpt lat="48.917081" lon="1.864299">
        <ele>92.442650</ele>
        <time>2023-03-30T16:12:29.127Z</time>
      </trkpt>
      <trkpt lat="48.916618" lon="1.863604">
        <ele>88.370433</ele>
        <time>2023-03-30T16:12:35.042Z</time>
      </trkpt>
      <trkpt lat="48.915761" lon="1.862654">
        <ele>81.742589</ele>
        <time>2023-03-30T16:12:44.723Z</time>
      </trkpt>
      <trkpt lat="48.915551" lon="1.862346">
        <ele>79.932630</ele>
        <time>2023-03-30T16:12:47.389Z</time>
      </trkpt>
      <trkpt lat="48.915266" lon="1.861841">
        <ele>77.406565</ele>
        <time>2023-03-30T16:12:51.390Z</time>
      </trkpt>
      <trkpt lat="48.914935" lon="1.861025">
        <ele>73.767570</ele>
        <time>2023-03-30T16:12:57.179Z</time>
      </trkpt>
      <trkpt lat="48.914797" lon="1.860749">
        <ele>72.451500</ele>
        <time>2023-03-30T16:12:59.291Z</time>
      </trkpt>
      <trkpt lat="48.913964" lon="1.859503">
        <ele>66.264065</ele>
        <time>2023-03-30T16:13:10.206Z</time>
      </trkpt>
      <trkpt lat="48.913293" lon="1.858523">
        <ele>61.641983</ele>
        <time>2023-03-30T16:13:19.071Z</time>
      </trkpt>
      <trkpt lat="48.912920" lon="1.858269">
        <ele>59.536881</ele>
        <time>2023-03-30T16:13:22.966Z</time>
      </trkpt>
      <trkpt lat="48.911806" lon="1.857713">
        <ele>53.336531</ele>
        <time>2023-03-30T16:13:33.871Z</time>
      </trkpt>
      <trkpt lat="48.911499" lon="1.857488">
        <ele>51.534399</ele>
        <time>2023-03-30T16:13:37.024Z</time>
      </trkpt>
      <trkpt lat="48.911231" lon="1.857161">
        <ele>49.958206</ele>
        <time>2023-03-30T16:13:40.244Z</time>
      </trkpt>
      <trkpt lat="48.911148" lon="1.857022">
        <ele>49.407520</ele>
        <time>2023-03-30T16:13:41.411Z</time>
      </trkpt>
      <trkpt lat="48.911030" lon="1.856739">
        <ele>48.424774</ele>
        <time>2023-03-30T16:13:43.500Z</time>
      </trkpt>
      <trkpt lat="48.910973" lon="1.856236">
        <ele>46.928075</ele>
        <time>2023-03-30T16:13:46.742Z</time>
      </trkpt>
      <trkpt lat="48.911001" lon="1.856000">
        <ele>46.224872</ele>
        <time>2023-03-30T16:13:48.286Z</time>
      </trkpt>
      <trkpt lat="48.911252" lon="1.855209">
        <ele>43.649254</ele>
        <time>2023-03-30T16:13:53.836Z</time>
      </trkpt>
      <trkpt lat="48.911313" lon="1.855097">
        <ele>43.225966</ele>
        <time>2023-03-30T16:13:54.762Z</time>
      </trkpt>
      <trkpt lat="48.911407" lon="1.854980">
        <ele>42.887865</ele>
        <time>2023-03-30T16:13:55.959Z</time>
      </trkpt>
      <trkpt lat="48.911870" lon="1.854642">
        <ele>41.458200</ele>
        <time>2023-03-30T16:14:01.182Z</time>
      </trkpt>
      <trkpt lat="48.911968" lon="1.854537">
        <ele>41.124516</ele>
        <time>2023-03-30T16:14:02.456Z</time>
      </trkpt>
      <trkpt lat="48.912032" lon="1.854440">
        <ele>40.873030</ele>
        <time>2023-03-30T16:14:03.424Z</time>
      </trkpt>
      <trkpt lat="48.912040" lon="1.854388">
        <ele>40.775314</ele>
        <time>2023-03-30T16:14:03.808Z</time>
      </trkpt>
      <trkpt lat="48.912034" lon="1.854286">
        <ele>40.587941</ele>
        <time>2023-03-30T16:14:04.525Z</time>
      </trkpt>
      <trkpt lat="48.911775" lon="1.853458">
        <ele>38.910122</ele>
        <time>2023-03-30T16:14:11.068Z</time>
      </trkpt>
      <trkpt lat="48.910862" lon="1.853983">
        <ele>37.036462</ele>
        <time>2023-03-30T16:14:21.396Z</time>
      </trkpt>
      <trkpt lat="48.910743" lon="1.854099">
        <ele>36.806425</ele>
        <time>2023-03-30T16:14:22.915Z</time>
      </trkpt>
      <trkpt lat="48.910680" lon="1.853928">
        <ele>36.596713</ele>
        <time>2023-03-30T16:14:24.344Z</time>
      </trkpt>
      <trkpt lat="48.910240" lon="1.853371">
        <ele>35.665059</ele>
        <time>2023-03-30T16:14:31.333Z</time>
      </trkpt>
      <trkpt lat="48.910139" lon="1.853249">
        <ele>35.455154</ele>
        <time>2023-03-30T16:14:32.964Z</time>
      </trkpt>
      <trkpt lat="48.910053" lon="1.853146">
        <ele>35.314488</ele>
        <time>2023-03-30T16:14:34.382Z</time>
      </trkpt>
      <trkpt lat="48.909596" lon="1.852594">
        <ele>36.208656</ele>
        <time>2023-03-30T16:14:42.380Z</time>
      </trkpt>
      <trkpt lat="48.909535" lon="1.852486">
        <ele>36.352079</ele>
        <time>2023-03-30T16:14:43.852Z</time>
      </trkpt>
      <trkpt lat="48.909482" lon="1.852395">
        <ele>36.474540</ele>
        <time>2023-03-30T16:14:45.285Z</time>
      </trkpt>
      <trkpt lat="48.909148" lon="1.851822">
        <ele>37.245924</ele>
        <time>2023-03-30T16:14:55.961Z</time>
      </trkpt>
      <trkpt lat="48.909115" lon="1.851769">
        <ele>37.319455</ele>
        <time>2023-03-30T16:14:57.155Z</time>
      </trkpt>
      <trkpt lat="48.908781" lon="1.851322">
        <ele>38.001116</ele>
        <time>2023-03-30T16:15:09.887Z</time>
      </trkpt>
      <trkpt lat="48.908564" lon="1.851113">
        <ele>39.506169</ele>
        <time>2023-03-30T16:15:18.334Z</time>
      </trkpt>
      <trkpt lat="48.908402" lon="1.850907">
        <ele>40.880927</ele>
        <time>2023-03-30T16:15:25.690Z</time>
      </trkpt>
      <trkpt lat="48.908127" lon="1.850450">
        <ele>43.532658</ele>
        <time>2023-03-30T16:15:40.730Z</time>
      </trkpt>
      <trkpt lat="48.907857" lon="1.850041">
        <ele>46.013548</ele>
        <time>2023-03-30T16:15:57.303Z</time>
      </trkpt>
      <trkpt lat="48.907467" lon="1.849456">
        <ele>49.579663</ele>
        <time>2023-03-30T16:16:24.506Z</time>
      </trkpt>
      <trkpt lat="48.907120" lon="1.849005">
        <ele>53.039726</ele>
        <time>2023-03-30T16:16:47.292Z</time>
      </trkpt>
      <trkpt lat="48.906694" lon="1.848612">
        <ele>56.852164</ele>
        <time>2023-03-30T16:17:11.171Z</time>
      </trkpt>
      <trkpt lat="48.906551" lon="1.848465">
        <ele>58.172843</ele>
        <time>2023-03-30T16:17:18.910Z</time>
      </trkpt>
      <trkpt lat="48.906135" lon="1.848083">
        <ele>61.891178</ele>
        <time>2023-03-30T16:17:39.934Z</time>
      </trkpt>
      <trkpt lat="48.905974" lon="1.847964">
        <ele>63.260926</ele>
        <time>2023-03-30T16:17:47.194Z</time>
      </trkpt>
      <trkpt lat="48.905572" lon="1.847802">
        <ele>65.244817</ele>
        <time>2023-03-30T16:18:04.267Z</time>
      </trkpt>
      <trkpt lat="48.905001" lon="1.847665">
        <ele>67.849644</ele>
        <time>2023-03-30T16:18:24.378Z</time>
      </trkpt>
      <trkpt lat="48.904600" lon="1.847654">
        <ele>69.656914</ele>
        <time>2023-03-30T16:18:35.521Z</time>
      </trkpt>
      <trkpt lat="48.903940" lon="1.847580">
        <ele>72.105030</ele>
        <time>2023-03-30T16:18:53.071Z</time>
      </trkpt>
      <trkpt lat="48.903686" lon="1.847487">
        <ele>72.657186</ele>
        <time>2023-03-30T16:18:59.979Z</time>
      </trkpt>
      <trkpt lat="48.903152" lon="1.847238">
        <ele>73.837614</ele>
        <time>2023-03-30T16:19:13.877Z</time>
      </trkpt>
      <trkpt lat="48.903051" lon="1.847189">
        <ele>74.061669</ele>
        <time>2023-03-30T16:19:16.160Z</time>
      </trkpt>
      <trkpt lat="48.902425" lon="1.846938">
        <ele>75.429896</ele>
        <time>2023-03-30T16:19:29.362Z</time>
      </trkpt>
      <trkpt lat="48.902172" lon="1.846818">
        <ele>75.753432</ele>
        <time>2023-03-30T16:19:34.177Z</time>
      </trkpt>
      <trkpt lat="48.901225" lon="1.846148">
        <ele>77.020356</ele>
        <time>2023-03-30T16:19:54.156Z</time>
      </trkpt>
      <trkpt lat="48.900624" lon="1.845840">
        <ele>77.999802</ele>
        <time>2023-03-30T16:20:06.483Z</time>
      </trkpt>
      <trkpt lat="48.899866" lon="1.845568">
        <ele>80.091614</ele>
        <time>2023-03-30T16:20:24.648Z</time>
      </trkpt>
      <trkpt lat="48.899202" lon="1.845382">
        <ele>81.905057</ele>
        <time>2023-03-30T16:20:43.729Z</time>
      </trkpt>
      <trkpt lat="48.897962" lon="1.845015">
        <ele>86.660943</ele>
        <time>2023-03-30T16:21:22.958Z</time>
      </trkpt>
      <trkpt lat="48.897832" lon="1.844959">
        <ele>87.197359</ele>
        <time>2023-03-30T16:21:27.119Z</time>
      </trkpt>
      <trkpt lat="48.896312" lon="1.843829">
        <ele>93.660051</ele>
        <time>2023-03-30T16:22:18.888Z</time>
      </trkpt>
      <trkpt lat="48.896083" lon="1.843571">
        <ele>94.724982</ele>
        <time>2023-03-30T16:22:27.497Z</time>
      </trkpt>
      <trkpt lat="48.895120" lon="1.842069">
        <ele>98.637573</ele>
        <time>2023-03-30T16:23:05.632Z</time>
      </trkpt>
      <trkpt lat="48.893038" lon="1.839071">
        <ele>103.777024</ele>
        <time>2023-03-30T16:24:05.864Z</time>
      </trkpt>
      <trkpt lat="48.892926" lon="1.838910">
        <ele>104.007757</ele>
        <time>2023-03-30T16:24:08.992Z</time>
      </trkpt>
      <trkpt lat="48.891022" lon="1.837050">
        <ele>107.615312</ele>
        <time>2023-03-30T16:24:56.234Z</time>
      </trkpt>
      <trkpt lat="48.888453" lon="1.832991">
        <ele>114.204468</ele>
        <time>2023-03-30T16:26:18.354Z</time>
      </trkpt>
      <trkpt lat="48.888184" lon="1.832529">
        <ele>114.951219</ele>
        <time>2023-03-30T16:26:27.362Z</time>
      </trkpt>
      <trkpt lat="48.887499" lon="1.831042">
        <ele>117.044382</ele>
        <time>2023-03-30T16:26:53.398Z</time>
      </trkpt>
      <trkpt lat="48.887017" lon="1.829996">
        <ele>118.473874</ele>
        <time>2023-03-30T16:27:11.436Z</time>
      </trkpt>
      <trkpt lat="48.886746" lon="1.829506">
        <ele>119.099496</ele>
        <time>2023-03-30T16:27:20.418Z</time>
      </trkpt>
      <trkpt lat="48.886418" lon="1.829027">
        <ele>119.679777</ele>
        <time>2023-03-30T16:27:30.071Z</time>
      </trkpt>
      <trkpt lat="48.886098" lon="1.828631">
        <ele>120.206231</ele>
        <time>2023-03-30T16:27:38.497Z</time>
      </trkpt>
      <trkpt lat="48.885752" lon="1.828268">
        <ele>120.742623</ele>
        <time>2023-03-30T16:27:46.644Z</time>
      </trkpt>
      <trkpt lat="48.885373" lon="1.827957">
        <ele>121.156425</ele>
        <time>2023-03-30T16:27:54.608Z</time>
      </trkpt>
      <trkpt lat="48.885114" lon="1.827792">
        <ele>121.228578</ele>
        <time>2023-03-30T16:27:59.631Z</time>
      </trkpt>
      <trkpt lat="48.883211" lon="1.826717">
        <ele>121.306517</ele>
        <time>2023-03-30T16:28:29.798Z</time>
      </trkpt>
      <trkpt lat="48.882997" lon="1.826596">
        <ele>121.208232</ele>
        <time>2023-03-30T16:28:32.772Z</time>
      </trkpt>
      <trkpt lat="48.882480" lon="1.826328">
        <ele>120.973095</ele>
        <time>2023-03-30T16:28:39.835Z</time>
      </trkpt>
      <trkpt lat="48.881561" lon="1.825809">
        <ele>120.280067</ele>
        <time>2023-03-30T16:28:52.326Z</time>
      </trkpt>
      <trkpt lat="48.881492" lon="1.825676">
        <ele>120.181926</ele>
        <time>2023-03-30T16:28:53.725Z</time>
      </trkpt>
      <trkpt lat="48.881427" lon="1.825761">
        <ele>120.106403</ele>
        <time>2023-03-30T16:28:54.787Z</time>
      </trkpt>
      <trkpt lat="48.881492" lon="1.825676">
        <ele>120.030880</ele>
        <time>2023-03-30T16:28:55.851Z</time>
      </trkpt>
      <trkpt lat="48.882155" lon="1.824820">
        <ele>119.264687</ele>
        <time>2023-03-30T16:29:06.546Z</time>
      </trkpt>
      <trkpt lat="48.882454" lon="1.824500">
        <ele>118.905867</ele>
        <time>2023-03-30T16:29:11.045Z</time>
      </trkpt>
      <trkpt lat="48.885527" lon="1.821557">
        <ele>115.599354</ele>
        <time>2023-03-30T16:29:55.478Z</time>
      </trkpt>
      <trkpt lat="48.885694" lon="1.821346">
        <ele>115.524694</ele>
        <time>2023-03-30T16:29:58.429Z</time>
      </trkpt>
      <trkpt lat="48.885815" lon="1.821069">
        <ele>115.449499</ele>
        <time>2023-03-30T16:30:01.458Z</time>
      </trkpt>
      <trkpt lat="48.886106" lon="1.818993">
        <ele>114.976369</ele>
        <time>2023-03-30T16:30:21.699Z</time>
      </trkpt>
      <trkpt lat="48.887542" lon="1.816493">
        <ele>114.081204</ele>
        <time>2023-03-30T16:30:51.156Z</time>
      </trkpt>
      <trkpt lat="48.887845" lon="1.816024">
        <ele>113.837748</ele>
        <time>2023-03-30T16:30:56.560Z</time>
      </trkpt>
      <trkpt lat="48.888445" lon="1.815262">
        <ele>113.514710</ele>
        <time>2023-03-30T16:31:06.606Z</time>
      </trkpt>
      <trkpt lat="48.889258" lon="1.814404">
        <ele>113.574293</ele>
        <time>2023-03-30T16:31:20.933Z</time>
      </trkpt>
      <trkpt lat="48.890006" lon="1.813766">
        <ele>113.768390</ele>
        <time>2023-03-30T16:31:35.810Z</time>
      </trkpt>
      <trkpt lat="48.890523" lon="1.813386">
        <ele>114.148900</ele>
        <time>2023-03-30T16:31:46.193Z</time>
      </trkpt>
      <trkpt lat="48.891289" lon="1.812514">
        <ele>114.782943</ele>
        <time>2023-03-30T16:32:02.978Z</time>
      </trkpt>
      <trkpt lat="48.891943" lon="1.811686">
        <ele>115.141598</ele>
        <time>2023-03-30T16:32:16.578Z</time>
      </trkpt>
      <trkpt lat="48.892911" lon="1.810578">
        <ele>115.685964</ele>
        <time>2023-03-30T16:32:36.612Z</time>
      </trkpt>
      <trkpt lat="48.894089" lon="1.809230">
        <ele>116.578029</ele>
        <time>2023-03-30T16:33:02.656Z</time>
      </trkpt>
      <trkpt lat="48.895485" lon="1.808084">
        <ele>116.833490</ele>
        <time>2023-03-30T16:33:27.896Z</time>
      </trkpt>
      <trkpt lat="48.898711" lon="1.805634">
        <ele>115.489440</ele>
        <time>2023-03-30T16:34:15.698Z</time>
      </trkpt>
      <trkpt lat="48.898916" lon="1.805479">
        <ele>115.404015</ele>
        <time>2023-03-30T16:34:19.172Z</time>
      </trkpt>
      <trkpt lat="48.899704" lon="1.804799">
        <ele>115.327548</ele>
        <time>2023-03-30T16:34:33.014Z</time>
      </trkpt>
      <trkpt lat="48.900347" lon="1.804051">
        <ele>115.277834</ele>
        <time>2023-03-30T16:34:44.844Z</time>
      </trkpt>
      <trkpt lat="48.901133" lon="1.802743">
        <ele>114.952828</ele>
        <time>2023-03-30T16:35:00.402Z</time>
      </trkpt>
      <trkpt lat="48.901577" lon="1.801903">
        <ele>114.732366</ele>
        <time>2023-03-30T16:35:10.160Z</time>
      </trkpt>
      <trkpt lat="48.901891" lon="1.801450">
        <ele>114.739439</ele>
        <time>2023-03-30T16:35:16.587Z</time>
      </trkpt>
      <trkpt lat="48.902773" lon="1.800388">
        <ele>114.835262</ele>
        <time>2023-03-30T16:35:34.643Z</time>
      </trkpt>
      <trkpt lat="48.903726" lon="1.799317">
        <ele>114.187672</ele>
        <time>2023-03-30T16:35:51.199Z</time>
      </trkpt>
      <trkpt lat="48.904002" lon="1.799103">
        <ele>113.947109</ele>
        <time>2023-03-30T16:35:54.972Z</time>
      </trkpt>
      <trkpt lat="48.904877" lon="1.798641">
        <ele>112.782493</ele>
        <time>2023-03-30T16:36:05.719Z</time>
      </trkpt>
      <trkpt lat="48.905393" lon="1.798304">
        <ele>111.528999</ele>
        <time>2023-03-30T16:36:11.975Z</time>
      </trkpt>
      <trkpt lat="48.906483" lon="1.797200">
        <ele>108.352264</ele>
        <time>2023-03-30T16:36:25.673Z</time>
      </trkpt>
      <trkpt lat="48.907008" lon="1.796588">
        <ele>106.432330</ele>
        <time>2023-03-30T16:36:32.267Z</time>
      </trkpt>
      <trkpt lat="48.907724" lon="1.795561">
        <ele>103.887373</ele>
        <time>2023-03-30T16:36:42.551Z</time>
      </trkpt>
      <trkpt lat="48.907813" lon="1.795433">
        <ele>103.701385</ele>
        <time>2023-03-30T16:36:43.827Z</time>
      </trkpt>
      <trkpt lat="48.908262" lon="1.794936">
        <ele>102.858155</ele>
        <time>2023-03-30T16:36:49.936Z</time>
      </trkpt>
      <trkpt lat="48.908932" lon="1.794576">
        <ele>101.779085</ele>
        <time>2023-03-30T16:36:58.378Z</time>
      </trkpt>
      <trkpt lat="48.909102" lon="1.794439">
        <ele>101.495734</ele>
        <time>2023-03-30T16:37:00.962Z</time>
      </trkpt>
      <trkpt lat="48.909244" lon="1.794274">
        <ele>101.446136</ele>
        <time>2023-03-30T16:37:03.966Z</time>
      </trkpt>
      <trkpt lat="48.909425" lon="1.793945">
        <ele>101.367859</ele>
        <time>2023-03-30T16:37:08.615Z</time>
      </trkpt>
      <trkpt lat="48.909559" lon="1.793596">
        <ele>101.294118</ele>
        <time>2023-03-30T16:37:12.866Z</time>
      </trkpt>
      <trkpt lat="48.909642" lon="1.793262">
        <ele>101.228972</ele>
        <time>2023-03-30T16:37:16.476Z</time>
      </trkpt>
      <trkpt lat="48.909737" lon="1.792719">
        <ele>101.126456</ele>
        <time>2023-03-30T16:37:21.742Z</time>
      </trkpt>
      <trkpt lat="48.909954" lon="1.791063">
        <ele>100.461710</ele>
        <time>2023-03-30T16:37:35.476Z</time>
      </trkpt>
      <trkpt lat="48.910034" lon="1.790787">
        <ele>100.297650</ele>
        <time>2023-03-30T16:37:38.032Z</time>
      </trkpt>
      <trkpt lat="48.910210" lon="1.790323">
        <ele>100.006280</ele>
        <time>2023-03-30T16:37:42.529Z</time>
      </trkpt>
      <trkpt lat="48.910421" lon="1.789912">
        <ele>99.722636</ele>
        <time>2023-03-30T16:37:46.892Z</time>
      </trkpt>
      <trkpt lat="48.910494" lon="1.789729">
        <ele>99.606209</ele>
        <time>2023-03-30T16:37:48.631Z</time>
      </trkpt>
      <trkpt lat="48.910573" lon="1.789427">
        <ele>99.430290</ele>
        <time>2023-03-30T16:37:51.288Z</time>
      </trkpt>
      <trkpt lat="48.910588" lon="1.789162">
        <ele>99.287179</ele>
        <time>2023-03-30T16:37:53.377Z</time>
      </trkpt>
      <trkpt lat="48.910520" lon="1.788943">
        <ele>99.156858</ele>
        <time>2023-03-30T16:37:55.286Z</time>
      </trkpt>
      <trkpt lat="48.910487" lon="1.788854">
        <ele>99.101876</ele>
        <time>2023-03-30T16:37:56.070Z</time>
      </trkpt>
      <trkpt lat="48.910390" lon="1.788508">
        <ele>98.899482</ele>
        <time>2023-03-30T16:37:58.988Z</time>
      </trkpt>
      <trkpt lat="48.910379" lon="1.788323">
        <ele>98.799535</ele>
        <time>2023-03-30T16:38:00.421Z</time>
      </trkpt>
      <trkpt lat="48.910414" lon="1.788047">
        <ele>98.648294</ele>
        <time>2023-03-30T16:38:02.683Z</time>
      </trkpt>
      <trkpt lat="48.910489" lon="1.787884">
        <ele>98.541235</ele>
        <time>2023-03-30T16:38:04.293Z</time>
      </trkpt>
      <trkpt lat="48.910753" lon="1.787636">
        <ele>98.287236</ele>
        <time>2023-03-30T16:38:08.398Z</time>
      </trkpt>
      <trkpt lat="48.910964" lon="1.787445">
        <ele>98.086241</ele>
        <time>2023-03-30T16:38:11.773Z</time>
      </trkpt>
      <trkpt lat="48.911059" lon="1.787070">
        <ele>98.021347</ele>
        <time>2023-03-30T16:38:15.447Z</time>
      </trkpt>
      <trkpt lat="48.911348" lon="1.786770">
        <ele>97.993650</ele>
        <time>2023-03-30T16:38:20.573Z</time>
      </trkpt>
      <trkpt lat="48.911652" lon="1.786661">
        <ele>97.968924</ele>
        <time>2023-03-30T16:38:25.153Z</time>
      </trkpt>
      <trkpt lat="48.911912" lon="1.786670">
        <ele>97.948334</ele>
        <time>2023-03-30T16:38:28.943Z</time>
      </trkpt>
      <trkpt lat="48.912334" lon="1.786837">
        <ele>97.913814</ele>
        <time>2023-03-30T16:38:35.335Z</time>
      </trkpt>
      <trkpt lat="48.912475" lon="1.786903">
        <ele>97.902135</ele>
        <time>2023-03-30T16:38:37.602Z</time>
      </trkpt>
      <trkpt lat="48.912686" lon="1.786899">
        <ele>97.898405</ele>
        <time>2023-03-30T16:38:40.805Z</time>
      </trkpt>
      <trkpt lat="48.913001" lon="1.786821">
        <ele>97.906852</ele>
        <time>2023-03-30T16:38:45.704Z</time>
      </trkpt>
      <trkpt lat="48.913498" lon="1.786640">
        <ele>97.920379</ele>
        <time>2023-03-30T16:38:53.478Z</time>
      </trkpt>
      <trkpt lat="48.914958" lon="1.785913">
        <ele>97.662847</ele>
        <time>2023-03-30T16:39:15.965Z</time>
      </trkpt>
      <trkpt lat="48.915385" lon="1.785769">
        <ele>97.485567</ele>
        <time>2023-03-30T16:39:22.027Z</time>
      </trkpt>
      <trkpt lat="48.915895" lon="1.785699">
        <ele>97.278003</ele>
        <time>2023-03-30T16:39:28.926Z</time>
      </trkpt>
      <trkpt lat="48.917085" lon="1.785820">
        <ele>95.427237</ele>
        <time>2023-03-30T16:39:42.826Z</time>
      </trkpt>
      <trkpt lat="48.918238" lon="1.785738">
        <ele>93.343860</ele>
        <time>2023-03-30T16:39:55.125Z</time>
      </trkpt>
      <trkpt lat="48.918622" lon="1.785695">
        <ele>92.590521</ele>
        <time>2023-03-30T16:39:59.249Z</time>
      </trkpt>
      <trkpt lat="48.918813" lon="1.785608">
        <ele>92.200441</ele>
        <time>2023-03-30T16:40:01.359Z</time>
      </trkpt>
      <trkpt lat="48.919052" lon="1.785386">
        <ele>91.652603</ele>
        <time>2023-03-30T16:40:04.444Z</time>
      </trkpt>
      <trkpt lat="48.919190" lon="1.785182">
        <ele>91.276184</ele>
        <time>2023-03-30T16:40:06.636Z</time>
      </trkpt>
      <trkpt lat="48.920190" lon="1.783108">
        <ele>89.188125</ele>
        <time>2023-03-30T16:40:27.133Z</time>
      </trkpt>
      <trkpt lat="48.920396" lon="1.782729">
        <ele>88.850246</ele>
        <time>2023-03-30T16:40:31.118Z</time>
      </trkpt>
      <trkpt lat="48.920708" lon="1.782421">
        <ele>88.563830</ele>
        <time>2023-03-30T16:40:35.708Z</time>
      </trkpt>
      <trkpt lat="48.921006" lon="1.782237">
        <ele>88.367949</ele>
        <time>2023-03-30T16:40:39.699Z</time>
      </trkpt>
      <trkpt lat="48.921258" lon="1.782149">
        <ele>88.210468</ele>
        <time>2023-03-30T16:40:42.967Z</time>
      </trkpt>
      <trkpt lat="48.922344" lon="1.781768">
        <ele>87.462393</ele>
        <time>2023-03-30T16:40:58.182Z</time>
      </trkpt>
      <trkpt lat="48.922869" lon="1.781477">
        <ele>86.825794</ele>
        <time>2023-03-30T16:41:05.459Z</time>
      </trkpt>
      <trkpt lat="48.922939" lon="1.781376">
        <ele>86.715893</ele>
        <time>2023-03-30T16:41:06.675Z</time>
      </trkpt>
      <trkpt lat="48.923133" lon="1.781097">
        <ele>86.411783</ele>
        <time>2023-03-30T16:41:09.907Z</time>
      </trkpt>
      <trkpt lat="48.923437" lon="1.780525">
        <ele>85.861020</ele>
        <time>2023-03-30T16:41:15.538Z</time>
      </trkpt>
      <trkpt lat="48.923722" lon="1.779694">
        <ele>84.988912</ele>
        <time>2023-03-30T16:41:22.306Z</time>
      </trkpt>
      <trkpt lat="48.923913" lon="1.779045">
        <ele>84.231304</ele>
        <time>2023-03-30T16:41:27.183Z</time>
      </trkpt>
      <trkpt lat="48.923960" lon="1.778637">
        <ele>83.790007</ele>
        <time>2023-03-30T16:41:30.075Z</time>
      </trkpt>
      <trkpt lat="48.923951" lon="1.778404">
        <ele>83.541350</ele>
        <time>2023-03-30T16:41:31.778Z</time>
      </trkpt>
      <trkpt lat="48.923999" lon="1.778158">
        <ele>83.267959</ele>
        <time>2023-03-30T16:41:33.662Z</time>
      </trkpt>
      <trkpt lat="48.924179" lon="1.778017">
        <ele>82.939717</ele>
        <time>2023-03-30T16:41:36.085Z</time>
      </trkpt>
      <trkpt lat="48.924428" lon="1.777774">
        <ele>82.954901</ele>
        <time>2023-03-30T16:41:40.026Z</time>
      </trkpt>
      <trkpt lat="48.924593" lon="1.777612">
        <ele>83.485946</ele>
        <time>2023-03-30T16:41:43.065Z</time>
      </trkpt>
      <trkpt lat="48.925580" lon="1.777114">
        <ele>86.298180</ele>
        <time>2023-03-30T16:42:08.636Z</time>
      </trkpt>
      <trkpt lat="48.925834" lon="1.776888">
        <ele>87.093906</ele>
        <time>2023-03-30T16:42:18.629Z</time>
      </trkpt>
      <trkpt lat="48.926017" lon="1.776609">
        <ele>88.224243</ele>
        <time>2023-03-30T16:42:28.429Z</time>
      </trkpt>
      <trkpt lat="48.926799" lon="1.774678">
        <ele>98.346650</ele>
        <time>2023-03-30T16:43:33.152Z</time>
      </trkpt>
      <trkpt lat="48.926983" lon="1.774367">
        <ele>100.201582</ele>
        <time>2023-03-30T16:43:45.413Z</time>
      </trkpt>
      <trkpt lat="48.927173" lon="1.774163">
        <ele>101.739921</ele>
        <time>2023-03-30T16:43:55.661Z</time>
      </trkpt>
      <trkpt lat="48.927652" lon="1.773766">
        <ele>105.348378</ele>
        <time>2023-03-30T16:44:19.241Z</time>
      </trkpt>
      <trkpt lat="48.927793" lon="1.773592">
        <ele>106.549324</ele>
        <time>2023-03-30T16:44:26.922Z</time>
      </trkpt>
      <trkpt lat="48.927878" lon="1.773442">
        <ele>107.410355</ele>
        <time>2023-03-30T16:44:32.424Z</time>
      </trkpt>
      <trkpt lat="48.927962" lon="1.773194">
        <ele>108.623175</ele>
        <time>2023-03-30T16:44:40.111Z</time>
      </trkpt>
      <trkpt lat="48.928047" lon="1.772725">
        <ele>110.737947</ele>
        <time>2023-03-30T16:44:53.249Z</time>
      </trkpt>
      <trkpt lat="48.928361" lon="1.768529">
        <ele>122.510589</ele>
        <time>2023-03-30T16:46:26.786Z</time>
      </trkpt>
      <trkpt lat="48.928444" lon="1.767661">
        <ele>123.940306</ele>
        <time>2023-03-30T16:46:37.436Z</time>
      </trkpt>
      <trkpt lat="48.928702" lon="1.766112">
        <ele>125.512353</ele>
        <time>2023-03-30T16:46:53.173Z</time>
      </trkpt>
      <trkpt lat="48.928707" lon="1.766082">
        <ele>125.531425</ele>
        <time>2023-03-30T16:46:53.475Z</time>
      </trkpt>
      <trkpt lat="48.928723" lon="1.766015">
        <ele>125.575356</ele>
        <time>2023-03-30T16:46:54.133Z</time>
      </trkpt>
      <trkpt lat="48.928992" lon="1.764582">
        <ele>126.493758</ele>
        <time>2023-03-30T16:47:12.725Z</time>
      </trkpt>
      <trkpt lat="48.929140" lon="1.762447">
        <ele>130.071368</ele>
        <time>2023-03-30T16:47:49.872Z</time>
      </trkpt>
      <trkpt lat="48.929161" lon="1.761825">
        <ele>131.150195</ele>
        <time>2023-03-30T16:48:00.992Z</time>
      </trkpt>
      <trkpt lat="48.929108" lon="1.760366">
        <ele>133.140355</ele>
        <time>2023-03-30T16:48:24.346Z</time>
      </trkpt>
      <trkpt lat="48.929008" lon="1.759484">
        <ele>134.336480</ele>
        <time>2023-03-30T16:48:36.709Z</time>
      </trkpt>
      <trkpt lat="48.928976" lon="1.759310">
        <ele>134.577952</ele>
        <time>2023-03-30T16:48:39.258Z</time>
      </trkpt>
      <trkpt lat="48.928714" lon="1.757916">
        <ele>136.089068</ele>
        <time>2023-03-30T16:48:59.201Z</time>
      </trkpt>
      <trkpt lat="48.928693" lon="1.757762">
        <ele>136.241161</ele>
        <time>2023-03-30T16:49:01.298Z</time>
      </trkpt>
      <trkpt lat="48.928712" lon="1.757668">
        <ele>136.336263</ele>
        <time>2023-03-30T16:49:02.654Z</time>
      </trkpt>
      <trkpt lat="48.928754" lon="1.757631">
        <ele>136.407689</ele>
        <time>2023-03-30T16:49:03.677Z</time>
      </trkpt>
      <trkpt lat="48.929127" lon="1.757674">
        <ele>136.958262</ele>
        <time>2023-03-30T16:49:11.281Z</time>
      </trkpt>
      <trkpt lat="48.929185" lon="1.757647">
        <ele>137.047533</ele>
        <time>2023-03-30T16:49:12.511Z</time>
      </trkpt>
      <trkpt lat="48.929533" lon="1.756887">
        <ele>137.817218</ele>
        <time>2023-03-30T16:49:24.902Z</time>
      </trkpt>
      <trkpt lat="48.929688" lon="1.756651">
        <ele>138.014128</ele>
        <time>2023-03-30T16:49:29.413Z</time>
      </trkpt>
      <trkpt lat="48.929808" lon="1.756605">
        <ele>138.125273</ele>
        <time>2023-03-30T16:49:32.020Z</time>
      </trkpt>
      <trkpt lat="48.929986" lon="1.756533">
        <ele>138.290694</ele>
        <time>2023-03-30T16:49:35.861Z</time>
      </trkpt>
      <trkpt lat="48.930088" lon="1.756412">
        <ele>138.406843</ele>
        <time>2023-03-30T16:49:38.391Z</time>
      </trkpt>
      <trkpt lat="48.930213" lon="1.756044">
        <ele>138.651296</ele>
        <time>2023-03-30T16:49:43.501Z</time>
      </trkpt>
      <trkpt lat="48.930335" lon="1.755552">
        <ele>138.961602</ele>
        <time>2023-03-30T16:49:49.487Z</time>
      </trkpt>
      <trkpt lat="48.930396" lon="1.755316">
        <ele>139.111248</ele>
        <time>2023-03-30T16:49:52.248Z</time>
      </trkpt>
      <trkpt lat="48.930568" lon="1.754734">
        <ele>138.943964</ele>
        <time>2023-03-30T16:49:58.598Z</time>
      </trkpt>
      <trkpt lat="48.930662" lon="1.754604">
        <ele>138.812403</ele>
        <time>2023-03-30T16:50:00.335Z</time>
      </trkpt>
      <trkpt lat="48.930766" lon="1.754581">
        <ele>138.703541</ele>
        <time>2023-03-30T16:50:01.731Z</time>
      </trkpt>
      <trkpt lat="48.931207" lon="1.754725">
        <ele>138.236329</ele>
        <time>2023-03-30T16:50:07.292Z</time>
      </trkpt>
      <trkpt lat="48.931435" lon="1.754690">
        <ele>137.998953</ele>
        <time>2023-03-30T16:50:09.919Z</time>
      </trkpt>
      <trkpt lat="48.931689" lon="1.754573">
        <ele>137.724058</ele>
        <time>2023-03-30T16:50:12.877Z</time>
      </trkpt>
      <trkpt lat="48.931890" lon="1.754480">
        <ele>137.506441</ele>
        <time>2023-03-30T16:50:15.175Z</time>
      </trkpt>
      <trkpt lat="48.932262" lon="1.754308">
        <ele>137.081216</ele>
        <time>2023-03-30T16:50:19.404Z</time>
      </trkpt>
      <trkpt lat="48.932599" lon="1.754152">
        <ele>136.685758</ele>
        <time>2023-03-30T16:50:23.326Z</time>
      </trkpt>
      <trkpt lat="48.932712" lon="1.754081">
        <ele>136.548510</ele>
        <time>2023-03-30T16:50:24.721Z</time>
      </trkpt>
      <trkpt lat="48.932832" lon="1.753971">
        <ele>136.391243</ele>
        <time>2023-03-30T16:50:26.335Z</time>
      </trkpt>
      <trkpt lat="48.932905" lon="1.753881">
        <ele>136.285776</ele>
        <time>2023-03-30T16:50:27.444Z</time>
      </trkpt>
      <trkpt lat="48.932960" lon="1.753742">
        <ele>136.166097</ele>
        <time>2023-03-30T16:50:28.715Z</time>
      </trkpt>
      <trkpt lat="48.933010" lon="1.753598">
        <ele>136.045968</ele>
        <time>2023-03-30T16:50:30.008Z</time>
      </trkpt>
      <trkpt lat="48.933208" lon="1.752948">
        <ele>135.517531</ele>
        <time>2023-03-30T16:50:36.011Z</time>
      </trkpt>
      <trkpt lat="48.933650" lon="1.751491">
        <ele>135.582232</ele>
        <time>2023-03-30T16:50:53.715Z</time>
      </trkpt>
      <trkpt lat="48.934356" lon="1.749165">
        <ele>135.405341</ele>
        <time>2023-03-30T16:51:20.415Z</time>
      </trkpt>
      <trkpt lat="48.934530" lon="1.748663">
        <ele>135.215998</ele>
        <time>2023-03-30T16:51:24.885Z</time>
      </trkpt>
      <trkpt lat="48.934706" lon="1.748237">
        <ele>135.048121</ele>
        <time>2023-03-30T16:51:28.827Z</time>
      </trkpt>
      <trkpt lat="48.935317" lon="1.747008">
        <ele>134.946088</ele>
        <time>2023-03-30T16:51:40.997Z</time>
      </trkpt>
      <trkpt lat="48.935932" lon="1.745859">
        <ele>135.017290</ele>
        <time>2023-03-30T16:51:56.985Z</time>
      </trkpt>
      <trkpt lat="48.936553" lon="1.744560">
        <ele>136.942043</ele>
        <time>2023-03-30T16:52:22.324Z</time>
      </trkpt>
      <trkpt lat="48.936687" lon="1.744268">
        <ele>137.419184</ele>
        <time>2023-03-30T16:52:28.639Z</time>
      </trkpt>
      <trkpt lat="48.937593" lon="1.742546">
        <ele>138.949477</ele>
        <time>2023-03-30T16:53:00.455Z</time>
      </trkpt>
      <trkpt lat="48.937856" lon="1.742180">
        <ele>139.060104</ele>
        <time>2023-03-30T16:53:05.920Z</time>
      </trkpt>
      <trkpt lat="48.938140" lon="1.741864">
        <ele>139.169316</ele>
        <time>2023-03-30T16:53:10.658Z</time>
      </trkpt>
      <trkpt lat="48.939826" lon="1.740258">
        <ele>135.005933</ele>
        <time>2023-03-30T16:53:31.985Z</time>
      </trkpt>
      <trkpt lat="48.941340" lon="1.738779">
        <ele>127.779923</ele>
        <time>2023-03-30T16:53:49.410Z</time>
      </trkpt>
      <trkpt lat="48.941724" lon="1.738416">
        <ele>125.711137</ele>
        <time>2023-03-30T16:53:53.718Z</time>
      </trkpt>
      <trkpt lat="48.942087" lon="1.738057">
        <ele>123.687075</ele>
        <time>2023-03-30T16:53:57.840Z</time>
      </trkpt>
      <trkpt lat="48.942398" lon="1.737841">
        <ele>122.088675</ele>
        <time>2023-03-30T16:54:01.099Z</time>
      </trkpt>
      <trkpt lat="48.943031" lon="1.737596">
        <ele>119.034193</ele>
        <time>2023-03-30T16:54:07.298Z</time>
      </trkpt>
      <trkpt lat="48.943055" lon="1.737587">
        <ele>118.916612</ele>
        <time>2023-03-30T16:54:07.534Z</time>
      </trkpt>
      <trkpt lat="48.943297" lon="1.737494">
        <ele>117.729296</ele>
        <time>2023-03-30T16:54:09.906Z</time>
      </trkpt>
      <trkpt lat="48.945293" lon="1.736794">
        <ele>107.949085</ele>
        <time>2023-03-30T16:54:29.368Z</time>
      </trkpt>
      <trkpt lat="48.946939" lon="1.736135">
        <ele>99.207067</ele>
        <time>2023-03-30T16:54:45.489Z</time>
      </trkpt>
      <trkpt lat="48.947040" lon="1.736091">
        <ele>98.571770</ele>
        <time>2023-03-30T16:54:46.466Z</time>
      </trkpt>
      <trkpt lat="48.947454" lon="1.735955">
        <ele>96.010537</ele>
        <time>2023-03-30T16:54:50.380Z</time>
      </trkpt>
      <trkpt lat="48.948612" lon="1.735874">
        <ele>88.483130</ele>
        <time>2023-03-30T16:55:00.824Z</time>
      </trkpt>
      <trkpt lat="48.949391" lon="1.735816">
        <ele>82.513188</ele>
        <time>2023-03-30T16:55:07.789Z</time>
      </trkpt>
      <trkpt lat="48.949673" lon="1.735827">
        <ele>80.353925</ele>
        <time>2023-03-30T16:55:10.291Z</time>
      </trkpt>
      <trkpt lat="48.949877" lon="1.735915">
        <ele>78.730967</ele>
        <time>2023-03-30T16:55:12.157Z</time>
      </trkpt>
      <trkpt lat="48.950528" lon="1.736449">
        <ele>72.605357</ele>
        <time>2023-03-30T16:55:18.597Z</time>
      </trkpt>
      <trkpt lat="48.950720" lon="1.736528">
        <ele>70.910455</ele>
        <time>2023-03-30T16:55:20.332Z</time>
      </trkpt>
      <trkpt lat="48.950983" lon="1.736477">
        <ele>68.651073</ele>
        <time>2023-03-30T16:55:22.647Z</time>
      </trkpt>
      <trkpt lat="48.951923" lon="1.736064">
        <ele>60.553133</ele>
        <time>2023-03-30T16:55:31.242Z</time>
      </trkpt>
      <trkpt lat="48.951997" lon="1.736028">
        <ele>59.994271</ele>
        <time>2023-03-30T16:55:31.936Z</time>
      </trkpt>
      <trkpt lat="48.952083" lon="1.735989">
        <ele>59.348736</ele>
        <time>2023-03-30T16:55:32.727Z</time>
      </trkpt>
      <trkpt lat="48.953371" lon="1.735302">
        <ele>49.530925</ele>
        <time>2023-03-30T16:55:44.942Z</time>
      </trkpt>
      <trkpt lat="48.953437" lon="1.735264">
        <ele>49.023319</ele>
        <time>2023-03-30T16:55:45.599Z</time>
      </trkpt>
      <trkpt lat="48.954612" lon="1.734591">
        <ele>42.117717</ele>
        <time>2023-03-30T16:55:57.247Z</time>
      </trkpt>
      <trkpt lat="48.955218" lon="1.734242">
        <ele>38.869503</ele>
        <time>2023-03-30T16:56:03.303Z</time>
      </trkpt>
      <trkpt lat="48.955660" lon="1.733995">
        <ele>37.886707</ele>
        <time>2023-03-30T16:56:07.958Z</time>
      </trkpt>
      <trkpt lat="48.955986" lon="1.733813">
        <ele>37.161923</ele>
        <time>2023-03-30T16:56:11.705Z</time>
      </trkpt>
      <trkpt lat="48.956297" lon="1.733641">
        <ele>36.471253</ele>
        <time>2023-03-30T16:56:15.749Z</time>
      </trkpt>
      <trkpt lat="48.956448" lon="1.733564">
        <ele>36.138852</ele>
        <time>2023-03-30T16:56:17.872Z</time>
      </trkpt>
      <trkpt lat="48.956584" lon="1.733516">
        <ele>35.847439</ele>
        <time>2023-03-30T16:56:19.696Z</time>
      </trkpt>
      <trkpt lat="48.957190" lon="1.733362">
        <ele>35.300933</ele>
        <time>2023-03-30T16:56:28.376Z</time>
      </trkpt>
      <trkpt lat="48.957759" lon="1.733268">
        <ele>35.301184</ele>
        <time>2023-03-30T16:56:37.838Z</time>
      </trkpt>
      <trkpt lat="48.958374" lon="1.733170">
        <ele>35.301455</ele>
        <time>2023-03-30T16:56:48.254Z</time>
      </trkpt>
      <trkpt lat="48.958730" lon="1.733061">
        <ele>35.239912</ele>
        <time>2023-03-30T16:56:53.202Z</time>
      </trkpt>
      <trkpt lat="48.959542" lon="1.732701">
        <ele>34.755632</ele>
        <time>2023-03-30T16:57:02.865Z</time>
      </trkpt>
      <trkpt lat="48.960513" lon="1.732256">
        <ele>34.876251</ele>
        <time>2023-03-30T16:57:16.532Z</time>
      </trkpt>
      <trkpt lat="48.960963" lon="1.732118">
        <ele>36.521110</ele>
        <time>2023-03-30T16:57:27.417Z</time>
      </trkpt>
      <trkpt lat="48.961030" lon="1.732099">
        <ele>36.765320</ele>
        <time>2023-03-30T16:57:29.234Z</time>
      </trkpt>
      <trkpt lat="48.961170" lon="1.732065">
        <ele>37.273323</ele>
        <time>2023-03-30T16:57:33.004Z</time>
      </trkpt>
      <trkpt lat="48.961153" lon="1.732149">
        <ele>37.480126</ele>
        <time>2023-03-30T16:57:35.122Z</time>
      </trkpt>
      <trkpt lat="48.961167" lon="1.732253">
        <ele>37.729897</ele>
        <time>2023-03-30T16:57:37.706Z</time>
      </trkpt>
      <trkpt lat="48.961243" lon="1.732492">
        <ele>38.354671</ele>
        <time>2023-03-30T16:57:44.030Z</time>
      </trkpt>
      <trkpt lat="48.961281" lon="1.732648">
        <ele>38.746138</ele>
        <time>2023-03-30T16:57:48.252Z</time>
      </trkpt>
      <trkpt lat="48.961343" lon="1.732782">
        <ele>39.131816</ele>
        <time>2023-03-30T16:57:52.616Z</time>
      </trkpt>
      <trkpt lat="48.961897" lon="1.733790">
        <ele>43.926540</ele>
        <time>2023-03-30T16:58:31.710Z</time>
      </trkpt>
      <trkpt lat="48.961956" lon="1.734018">
        <ele>45.153936</ele>
        <time>2023-03-30T16:58:40.353Z</time>
      </trkpt>
      <trkpt lat="48.961987" lon="1.734602">
        <ele>48.088356</ele>
        <time>2023-03-30T16:59:00.983Z</time>
      </trkpt>
      <trkpt lat="48.962062" lon="1.734802">
        <ele>49.241896</ele>
        <time>2023-03-30T16:59:08.773Z</time>
      </trkpt>
      <trkpt lat="48.962241" lon="1.735112">
        <ele>51.309490</ele>
        <time>2023-03-30T16:59:22.953Z</time>
      </trkpt>
      <trkpt lat="48.962287" lon="1.735373">
        <ele>52.662940</ele>
        <time>2023-03-30T16:59:32.316Z</time>
      </trkpt>
      <trkpt lat="48.962280" lon="1.735465">
        <ele>53.126789</ele>
        <time>2023-03-30T16:59:35.547Z</time>
      </trkpt>
      <trkpt lat="48.962252" lon="1.735584">
        <ele>53.759896</ele>
        <time>2023-03-30T16:59:39.903Z</time>
      </trkpt>
      <trkpt lat="48.962153" lon="1.735745">
        <ele>54.942644</ele>
        <time>2023-03-30T16:59:47.542Z</time>
      </trkpt>
      <trkpt lat="48.961884" lon="1.736188">
        <ele>58.515997</ele>
        <time>2023-03-30T17:00:08.785Z</time>
      </trkpt>
      <trkpt lat="48.961788" lon="1.736401">
        <ele>60.045954</ele>
        <time>2023-03-30T17:00:18.073Z</time>
      </trkpt>
      <trkpt lat="48.961715" lon="1.736662">
        <ele>61.725968</ele>
        <time>2023-03-30T17:00:28.318Z</time>
      </trkpt>
      <trkpt lat="48.961642" lon="1.737117">
        <ele>64.499713</ele>
        <time>2023-03-30T17:00:45.705Z</time>
      </trkpt>
      <trkpt lat="48.961508" lon="1.738238">
        <ele>71.328104</ele>
        <time>2023-03-30T17:01:29.496Z</time>
      </trkpt>
      <trkpt lat="48.961505" lon="1.739634">
        <ele>80.732583</ele>
        <time>2023-03-30T17:02:25.026Z</time>
      </trkpt>
      <trkpt lat="48.961239" lon="1.742360">
        <ele>99.335541</ele>
        <time>2023-03-30T17:04:18.878Z</time>
      </trkpt>
      <trkpt lat="48.961227" lon="1.742679">
        <ele>101.495897</ele>
        <time>2023-03-30T17:04:31.911Z</time>
      </trkpt>
      <trkpt lat="48.961219" lon="1.743334">
        <ele>105.925241</ele>
        <time>2023-03-30T17:04:58.383Z</time>
      </trkpt>
      <trkpt lat="48.961213" lon="1.743580">
        <ele>107.589641</ele>
        <time>2023-03-30T17:05:08.244Z</time>
      </trkpt>
      <trkpt lat="48.961000" lon="1.745194">
        <ele>116.012107</ele>
        <time>2023-03-30T17:06:07.858Z</time>
      </trkpt>
      <trkpt lat="48.960920" lon="1.745760">
        <ele>118.970074</ele>
        <time>2023-03-30T17:06:25.968Z</time>
      </trkpt>
      <trkpt lat="48.960863" lon="1.746653">
        <ele>122.691708</ele>
        <time>2023-03-30T17:06:51.002Z</time>
      </trkpt>
      <trkpt lat="48.960865" lon="1.746802">
        <ele>123.111362</ele>
        <time>2023-03-30T17:06:54.949Z</time>
      </trkpt>
      <trkpt lat="48.960767" lon="1.746999">
        <ele>123.807332</ele>
        <time>2023-03-30T17:07:01.193Z</time>
      </trkpt>
      <trkpt lat="48.960470" lon="1.747377">
        <ele>125.467279</ele>
        <time>2023-03-30T17:07:15.522Z</time>
      </trkpt>
      <trkpt lat="48.960310" lon="1.747481">
        <ele>126.213357</ele>
        <time>2023-03-30T17:07:21.700Z</time>
      </trkpt>
      <trkpt lat="48.960173" lon="1.747513">
        <ele>126.807785</ele>
        <time>2023-03-30T17:07:26.535Z</time>
      </trkpt>
      <trkpt lat="48.959657" lon="1.747638">
        <ele>129.048596</ele>
        <time>2023-03-30T17:07:44.487Z</time>
      </trkpt>
      <trkpt lat="48.959500" lon="1.747713">
        <ele>129.669954</ele>
        <time>2023-03-30T17:07:50.071Z</time>
      </trkpt>
      <trkpt lat="48.957921" lon="1.749042">
        <ele>135.689252</ele>
        <time>2023-03-30T17:08:51.428Z</time>
      </trkpt>
      <trkpt lat="48.957681" lon="1.749280">
        <ele>136.330468</ele>
        <time>2023-03-30T17:09:00.664Z</time>
      </trkpt>
      <trkpt lat="48.957509" lon="1.749505">
        <ele>136.838121</ele>
        <time>2023-03-30T17:09:07.885Z</time>
      </trkpt>
      <trkpt lat="48.957171" lon="1.750161">
        <ele>138.063991</ele>
        <time>2023-03-30T17:09:24.594Z</time>
      </trkpt>
      <trkpt lat="48.955912" lon="1.752065">
        <ele>140.202647</ele>
        <time>2023-03-30T17:10:08.397Z</time>
      </trkpt>
      <trkpt lat="48.955497" lon="1.753062">
        <ele>140.543055</ele>
        <time>2023-03-30T17:10:23.572Z</time>
      </trkpt>
      <trkpt lat="48.955077" lon="1.753899">
        <ele>140.092767</ele>
        <time>2023-03-30T17:10:36.332Z</time>
      </trkpt>
      <trkpt lat="48.954850" lon="1.754421">
        <ele>139.825139</ele>
        <time>2023-03-30T17:10:43.521Z</time>
      </trkpt>
      <trkpt lat="48.954294" lon="1.755800">
        <ele>138.690756</ele>
        <time>2023-03-30T17:11:02.501Z</time>
      </trkpt>
      <trkpt lat="48.953822" lon="1.756693">
        <ele>137.506587</ele>
        <time>2023-03-30T17:11:15.333Z</time>
      </trkpt>
      <trkpt lat="48.953635" lon="1.756979">
        <ele>137.089670</ele>
        <time>2023-03-30T17:11:19.476Z</time>
      </trkpt>
      <trkpt lat="48.953220" lon="1.757337">
        <ele>135.798031</ele>
        <time>2023-03-30T17:11:26.574Z</time>
      </trkpt>
      <trkpt lat="48.953057" lon="1.757519">
        <ele>134.858937</ele>
        <time>2023-03-30T17:11:29.517Z</time>
      </trkpt>
      <trkpt lat="48.952934" lon="1.757737">
        <ele>133.982017</ele>
        <time>2023-03-30T17:11:32.216Z</time>
      </trkpt>
      <trkpt lat="48.952704" lon="1.758250">
        <ele>132.086812</ele>
        <time>2023-03-30T17:11:37.906Z</time>
      </trkpt>
      <trkpt lat="48.952304" lon="1.758906">
        <ele>129.355513</ele>
        <time>2023-03-30T17:11:45.757Z</time>
      </trkpt>
      <trkpt lat="48.952244" lon="1.759037">
        <ele>128.868205</ele>
        <time>2023-03-30T17:11:47.130Z</time>
      </trkpt>
      <trkpt lat="48.952224" lon="1.759154">
        <ele>128.499330</ele>
        <time>2023-03-30T17:11:48.163Z</time>
      </trkpt>
      <trkpt lat="48.952054" lon="1.759108">
        <ele>127.268916</ele>
        <time>2023-03-30T17:11:50.383Z</time>
      </trkpt>
      <trkpt lat="48.951686" lon="1.758862">
        <ele>123.980230</ele>
        <time>2023-03-30T17:11:55.484Z</time>
      </trkpt>
      <trkpt lat="48.951533" lon="1.758706">
        <ele>122.473510</ele>
        <time>2023-03-30T17:11:57.793Z</time>
      </trkpt>
      <trkpt lat="48.950738" lon="1.757717">
        <ele>114.073178</ele>
        <time>2023-03-30T17:12:10.515Z</time>
      </trkpt>
      <trkpt lat="48.950612" lon="1.757657">
        <ele>113.156838</ele>
        <time>2023-03-30T17:12:12.120Z</time>
      </trkpt>
      <trkpt lat="48.950364" lon="1.757393">
        <ele>111.420725</ele>
        <time>2023-03-30T17:12:15.822Z</time>
      </trkpt>
      <trkpt lat="48.950111" lon="1.756955">
        <ele>109.222843</ele>
        <time>2023-03-30T17:12:20.695Z</time>
      </trkpt>
      <trkpt lat="48.950040" lon="1.756821">
        <ele>108.574102</ele>
        <time>2023-03-30T17:12:22.199Z</time>
      </trkpt>
      <trkpt lat="48.950040" lon="1.756820">
        <ele>108.570334</ele>
        <time>2023-03-30T17:12:22.208Z</time>
      </trkpt>
      <trkpt lat="48.949944" lon="1.756519">
        <ele>107.309521</ele>
        <time>2023-03-30T17:12:25.198Z</time>
      </trkpt>
      <trkpt lat="48.949835" lon="1.755938">
        <ele>105.032789</ele>
        <time>2023-03-30T17:12:30.933Z</time>
      </trkpt>
      <trkpt lat="48.949807" lon="1.755791">
        <ele>104.456079</ele>
        <time>2023-03-30T17:12:32.451Z</time>
      </trkpt>
      <trkpt lat="48.949756" lon="1.755762">
        <ele>104.143731</ele>
        <time>2023-03-30T17:12:33.232Z</time>
      </trkpt>
      <trkpt lat="48.949655" lon="1.755808">
        <ele>103.538880</ele>
        <time>2023-03-30T17:12:34.737Z</time>
      </trkpt>
      <trkpt lat="48.949486" lon="1.756087">
        <ele>102.492799</ele>
        <time>2023-03-30T17:12:38.640Z</time>
      </trkpt>
      <trkpt lat="48.949360" lon="1.756535">
        <ele>101.290095</ele>
        <time>2023-03-30T17:12:43.525Z</time>
      </trkpt>
      <trkpt lat="48.949271" lon="1.756690">
        <ele>100.781994</ele>
        <time>2023-03-30T17:12:45.472Z</time>
      </trkpt>
      <trkpt lat="48.949155" lon="1.756753">
        <ele>100.319196</ele>
        <time>2023-03-30T17:12:47.381Z</time>
      </trkpt>
      <trkpt lat="48.949020" lon="1.756760">
        <ele>99.811603</ele>
        <time>2023-03-30T17:12:49.340Z</time>
      </trkpt>
      <trkpt lat="48.948790" lon="1.756662">
        <ele>98.914116</ele>
        <time>2023-03-30T17:12:52.840Z</time>
      </trkpt>
      <trkpt lat="48.948735" lon="1.756481">
        <ele>98.421937</ele>
        <time>2023-03-30T17:12:54.711Z</time>
      </trkpt>
      <trkpt lat="48.948767" lon="1.755790">
        <ele>96.712416</ele>
        <time>2023-03-30T17:13:01.120Z</time>
      </trkpt>
      <trkpt lat="48.948757" lon="1.755489">
        <ele>95.249115</ele>
        <time>2023-03-30T17:13:03.715Z</time>
      </trkpt>
      <trkpt lat="48.948720" lon="1.755240">
        <ele>93.701960</ele>
        <time>2023-03-30T17:13:05.853Z</time>
      </trkpt>
      <trkpt lat="48.948534" lon="1.754627">
        <ele>89.609658</ele>
        <time>2023-03-30T17:13:11.315Z</time>
      </trkpt>
      <trkpt lat="48.948507" lon="1.754430">
        <ele>88.390056</ele>
        <time>2023-03-30T17:13:12.922Z</time>
      </trkpt>
      <trkpt lat="48.948508" lon="1.754189">
        <ele>86.929492</ele>
        <time>2023-03-30T17:13:14.842Z</time>
      </trkpt>
      <trkpt lat="48.948534" lon="1.753999">
        <ele>85.753303</ele>
        <time>2023-03-30T17:13:16.386Z</time>
      </trkpt>
      <trkpt lat="48.948675" lon="1.753537">
        <ele>82.665883</ele>
        <time>2023-03-30T17:13:20.426Z</time>
      </trkpt>
      <trkpt lat="48.948727" lon="1.753207">
        <ele>80.609226</ele>
        <time>2023-03-30T17:13:23.113Z</time>
      </trkpt>
      <trkpt lat="48.948725" lon="1.753001">
        <ele>79.347621</ele>
        <time>2023-03-30T17:13:24.750Z</time>
      </trkpt>
      <trkpt lat="48.948680" lon="1.752852">
        <ele>78.328023</ele>
        <time>2023-03-30T17:13:26.048Z</time>
      </trkpt>
      <trkpt lat="48.948550" lon="1.752682">
        <ele>76.705814</ele>
        <time>2023-03-30T17:13:28.127Z</time>
      </trkpt>
      <trkpt lat="48.948406" lon="1.752590">
        <ele>75.227490</ele>
        <time>2023-03-30T17:13:30.020Z</time>
      </trkpt>
      <trkpt lat="48.948122" lon="1.752496">
        <ele>72.476189</ele>
        <time>2023-03-30T17:13:33.552Z</time>
      </trkpt>
      <trkpt lat="48.947887" lon="1.752306">
        <ele>69.957370</ele>
        <time>2023-03-30T17:13:36.799Z</time>
      </trkpt>
      <trkpt lat="48.947354" lon="1.751587">
        <ele>63.216346</ele>
        <time>2023-03-30T17:13:45.634Z</time>
      </trkpt>
      <trkpt lat="48.946896" lon="1.751093">
        <ele>60.285642</ele>
        <time>2023-03-30T17:13:52.826Z</time>
      </trkpt>
      <trkpt lat="48.946566" lon="1.750629">
        <ele>58.086331</ele>
        <time>2023-03-30T17:13:58.783Z</time>
      </trkpt>
      <trkpt lat="48.946366" lon="1.750297">
        <ele>56.637636</ele>
        <time>2023-03-30T17:14:02.855Z</time>
      </trkpt>
      <trkpt lat="48.945730" lon="1.751132">
        <ele>54.764960</ele>
        <time>2023-03-30T17:14:15.716Z</time>
      </trkpt>
      <trkpt lat="48.945194" lon="1.751690">
        <ele>56.313526</ele>
        <time>2023-03-30T17:14:31.439Z</time>
      </trkpt>
      <trkpt lat="48.945029" lon="1.751801">
        <ele>56.743739</ele>
        <time>2023-03-30T17:14:37.989Z</time>
      </trkpt>
      <trkpt lat="48.944682" lon="1.752125">
        <ele>57.714535</ele>
        <time>2023-03-30T17:14:54.243Z</time>
      </trkpt>
      <trkpt lat="48.944332" lon="1.751656">
        <ele>60.416010</ele>
        <time>2023-03-30T17:15:14.988Z</time>
      </trkpt>
      <trkpt lat="48.944049" lon="1.751184">
        <ele>64.566092</ele>
        <time>2023-03-30T17:15:37.578Z</time>
      </trkpt>
      <trkpt lat="48.943769" lon="1.750491">
        <ele>69.849565</ele>
        <time>2023-03-30T17:16:11.422Z</time>
      </trkpt>
      <trkpt lat="48.943666" lon="1.750442">
        <ele>70.916474</ele>
        <time>2023-03-30T17:16:18.623Z</time>
      </trkpt>
      <trkpt lat="48.943546" lon="1.750511">
        <ele>72.184698</ele>
        <time>2023-03-30T17:16:28.190Z</time>
      </trkpt>
      <trkpt lat="48.943380" lon="1.750722">
        <ele>74.322702</ele>
        <time>2023-03-30T17:16:42.699Z</time>
      </trkpt>
      <trkpt lat="48.943215" lon="1.750369">
        <ele>77.248110</ele>
        <time>2023-03-30T17:17:02.609Z</time>
      </trkpt>
      <trkpt lat="48.942864" lon="1.749535">
        <ele>84.377736</ele>
        <time>2023-03-30T17:17:46.980Z</time>
      </trkpt>
      <trkpt lat="48.942737" lon="1.749471">
        <ele>85.843757</ele>
        <time>2023-03-30T17:17:55.485Z</time>
      </trkpt>
      <trkpt lat="48.942542" lon="1.749444">
        <ele>87.989536</ele>
        <time>2023-03-30T17:18:09.058Z</time>
      </trkpt>
      <trkpt lat="48.942131" lon="1.750204">
        <ele>95.075578</ele>
        <time>2023-03-30T17:18:48.969Z</time>
      </trkpt>
      <trkpt lat="48.941769" lon="1.749922">
        <ele>98.387180</ele>
        <time>2023-03-30T17:19:11.083Z</time>
      </trkpt>
      <trkpt lat="48.941355" lon="1.749568">
        <ele>101.988147</ele>
        <time>2023-03-30T17:19:34.572Z</time>
      </trkpt>
      <trkpt lat="48.941050" lon="1.749547">
        <ele>104.303555</ele>
        <time>2023-03-30T17:19:48.604Z</time>
      </trkpt>
      <trkpt lat="48.940722" lon="1.749578">
        <ele>106.795815</ele>
        <time>2023-03-30T17:20:04.436Z</time>
      </trkpt>
      <trkpt lat="48.940464" lon="1.749570">
        <ele>108.752828</ele>
        <time>2023-03-30T17:20:17.210Z</time>
      </trkpt>
      <trkpt lat="48.939876" lon="1.749430">
        <ele>112.965038</ele>
        <time>2023-03-30T17:20:46.332Z</time>
      </trkpt>
      <trkpt lat="48.939692" lon="1.749462">
        <ele>114.258495</ele>
        <time>2023-03-30T17:20:54.840Z</time>
      </trkpt>
      <trkpt lat="48.939547" lon="1.749623">
        <ele>115.511942</ele>
        <time>2023-03-30T17:21:03.365Z</time>
      </trkpt>
      <trkpt lat="48.939161" lon="1.750424">
        <ele>120.069508</ele>
        <time>2023-03-30T17:21:35.401Z</time>
      </trkpt>
      <trkpt lat="48.938979" lon="1.750705">
        <ele>121.879935</ele>
        <time>2023-03-30T17:21:48.400Z</time>
      </trkpt>
      <trkpt lat="48.938818" lon="1.750860">
        <ele>122.815613</ele>
        <time>2023-03-30T17:21:57.600Z</time>
      </trkpt>
      <trkpt lat="48.938657" lon="1.750953">
        <ele>123.620190</ele>
        <time>2023-03-30T17:22:05.618Z</time>
      </trkpt>
      <trkpt lat="48.937986" lon="1.751222">
        <ele>126.862212</ele>
        <time>2023-03-30T17:22:34.114Z</time>
      </trkpt>
      <trkpt lat="48.937588" lon="1.751362">
        <ele>128.770799</ele>
        <time>2023-03-30T17:22:48.531Z</time>
      </trkpt>
      <trkpt lat="48.937388" lon="1.751482">
        <ele>129.775227</ele>
        <time>2023-03-30T17:22:55.473Z</time>
      </trkpt>
      <trkpt lat="48.937208" lon="1.751701">
        <ele>130.498054</ele>
        <time>2023-03-30T17:23:02.584Z</time>
      </trkpt>
      <trkpt lat="48.936832" lon="1.752396">
        <ele>130.988709</ele>
        <time>2023-03-30T17:23:18.165Z</time>
      </trkpt>
      <trkpt lat="48.936544" lon="1.752716">
        <ele>131.284504</ele>
        <time>2023-03-30T17:23:25.928Z</time>
      </trkpt>
      <trkpt lat="48.936286" lon="1.752873">
        <ele>131.515006</ele>
        <time>2023-03-30T17:23:31.376Z</time>
      </trkpt>
      <trkpt lat="48.936152" lon="1.752907">
        <ele>131.627705</ele>
        <time>2023-03-30T17:23:33.919Z</time>
      </trkpt>
      <trkpt lat="48.935869" lon="1.752905">
        <ele>131.862482</ele>
        <time>2023-03-30T17:23:39.103Z</time>
      </trkpt>
      <trkpt lat="48.934809" lon="1.752669">
        <ele>132.338841</ele>
        <time>2023-03-30T17:24:01.198Z</time>
      </trkpt>
      <trkpt lat="48.934453" lon="1.752719">
        <ele>132.489377</ele>
        <time>2023-03-30T17:24:09.282Z</time>
      </trkpt>
      <trkpt lat="48.934188" lon="1.752854">
        <ele>132.607042</ele>
        <time>2023-03-30T17:24:15.834Z</time>
      </trkpt>
      <trkpt lat="48.933264" lon="1.753594">
        <ele>134.351442</ele>
        <time>2023-03-30T17:24:43.266Z</time>
      </trkpt>
      <trkpt lat="48.933167" lon="1.753677">
        <ele>134.561102</ele>
        <time>2023-03-30T17:24:46.472Z</time>
      </trkpt>
      <trkpt lat="48.933099" lon="1.753731">
        <ele>134.705612</ele>
        <time>2023-03-30T17:24:48.679Z</time>
      </trkpt>
      <trkpt lat="48.932960" lon="1.753742">
        <ele>134.967865</ele>
        <time>2023-03-30T17:24:52.796Z</time>
      </trkpt>
      <trkpt lat="48.932905" lon="1.753881">
        <ele>135.168715</ele>
        <time>2023-03-30T17:24:55.344Z</time>
      </trkpt>
      <trkpt lat="48.932832" lon="1.753971">
        <ele>135.345714</ele>
        <time>2023-03-30T17:24:57.632Z</time>
      </trkpt>
      <trkpt lat="48.932712" lon="1.754081">
        <ele>135.609645</ele>
        <time>2023-03-30T17:25:01.087Z</time>
      </trkpt>
      <trkpt lat="48.932599" lon="1.754152">
        <ele>135.839981</ele>
        <time>2023-03-30T17:25:04.074Z</time>
      </trkpt>
      <trkpt lat="48.932262" lon="1.754308">
        <ele>136.460210</ele>
        <time>2023-03-30T17:25:12.814Z</time>
      </trkpt>
      <trkpt lat="48.931890" lon="1.754480">
        <ele>137.120990</ele>
        <time>2023-03-30T17:25:22.385Z</time>
      </trkpt>
      <trkpt lat="48.931689" lon="1.754573">
        <ele>137.478046</ele>
        <time>2023-03-30T17:25:27.396Z</time>
      </trkpt>
      <trkpt lat="48.931435" lon="1.754690">
        <ele>137.929081</ele>
        <time>2023-03-30T17:25:33.313Z</time>
      </trkpt>
      <trkpt lat="48.931207" lon="1.754725">
        <ele>138.318558</ele>
        <time>2023-03-30T17:25:38.133Z</time>
      </trkpt>
      <trkpt lat="48.930766" lon="1.754581">
        <ele>139.085139</ele>
        <time>2023-03-30T17:25:46.522Z</time>
      </trkpt>
      <trkpt lat="48.930662" lon="1.754604">
        <ele>139.068193</ele>
        <time>2023-03-30T17:25:48.279Z</time>
      </trkpt>
      <trkpt lat="48.930568" lon="1.754734">
        <ele>138.996207</ele>
        <time>2023-03-30T17:25:50.337Z</time>
      </trkpt>
      <trkpt lat="48.930396" lon="1.755316">
        <ele>138.758569</ele>
        <time>2023-03-30T17:25:56.422Z</time>
      </trkpt>
      <trkpt lat="48.930335" lon="1.755552">
        <ele>138.664132</ele>
        <time>2023-03-30T17:25:58.659Z</time>
      </trkpt>
      <trkpt lat="48.930213" lon="1.756044">
        <ele>138.468310</ele>
        <time>2023-03-30T17:26:03.129Z</time>
      </trkpt>
      <trkpt lat="48.930088" lon="1.756412">
        <ele>138.314044</ele>
        <time>2023-03-30T17:26:06.476Z</time>
      </trkpt>
      <trkpt lat="48.929986" lon="1.756533">
        <ele>138.240746</ele>
        <time>2023-03-30T17:26:08.010Z</time>
      </trkpt>
      <trkpt lat="48.929808" lon="1.756605">
        <ele>138.136355</ele>
        <time>2023-03-30T17:26:10.126Z</time>
      </trkpt>
      <trkpt lat="48.929688" lon="1.756651">
        <ele>137.967027</ele>
        <time>2023-03-30T17:26:11.503Z</time>
      </trkpt>
      <trkpt lat="48.929533" lon="1.756887">
        <ele>137.450465</ele>
        <time>2023-03-30T17:26:13.928Z</time>
      </trkpt>
      <trkpt lat="48.929185" lon="1.757647">
        <ele>136.016454</ele>
        <time>2023-03-30T17:26:20.438Z</time>
      </trkpt>
      <trkpt lat="48.929127" lon="1.757674">
        <ele>135.873548</ele>
        <time>2023-03-30T17:26:21.071Z</time>
      </trkpt>
      <trkpt lat="48.928754" lon="1.757631">
        <ele>134.992177</ele>
        <time>2023-03-30T17:26:24.997Z</time>
      </trkpt>
      <trkpt lat="48.928712" lon="1.757668">
        <ele>134.877838</ele>
        <time>2023-03-30T17:26:25.493Z</time>
      </trkpt>
      <trkpt lat="48.927673" lon="1.756858">
        <ele>131.668606</ele>
        <time>2023-03-30T17:26:42.881Z</time>
      </trkpt>
      <trkpt lat="48.927412" lon="1.757497">
        <ele>130.195412</ele>
        <time>2023-03-30T17:26:50.161Z</time>
      </trkpt>
      <trkpt lat="48.927377" lon="1.757582">
        <ele>129.999002</ele>
        <time>2023-03-30T17:26:51.126Z</time>
      </trkpt>
      <trkpt lat="48.927281" lon="1.757777">
        <ele>129.521907</ele>
        <time>2023-03-30T17:26:53.482Z</time>
      </trkpt>
      <trkpt lat="48.927189" lon="1.757946">
        <ele>129.092187</ele>
        <time>2023-03-30T17:26:55.643Z</time>
      </trkpt>
      <trkpt lat="48.926926" lon="1.758242">
        <ele>128.056248</ele>
        <time>2023-03-30T17:27:00.474Z</time>
      </trkpt>
      <trkpt lat="48.926031" lon="1.759143">
        <ele>124.346602</ele>
        <time>2023-03-30T17:27:15.855Z</time>
      </trkpt>
      <trkpt lat="48.925767" lon="1.759320">
        <ele>123.349311</ele>
        <time>2023-03-30T17:27:19.913Z</time>
      </trkpt>
      <trkpt lat="48.925545" lon="1.759363">
        <ele>122.575654</ele>
        <time>2023-03-30T17:27:23.073Z</time>
      </trkpt>
      <trkpt lat="48.925294" lon="1.759347">
        <ele>121.898474</ele>
        <time>2023-03-30T17:27:26.688Z</time>
      </trkpt>
      <trkpt lat="48.925023" lon="1.759432">
        <ele>121.260484</ele>
        <time>2023-03-30T17:27:30.749Z</time>
      </trkpt>
      <trkpt lat="48.924508" lon="1.759797">
        <ele>119.950580</ele>
        <time>2023-03-30T17:27:39.330Z</time>
      </trkpt>
      <trkpt lat="48.923470" lon="1.760668">
        <ele>117.126957</ele>
        <time>2023-03-30T17:27:59.119Z</time>
      </trkpt>
      <trkpt lat="48.922986" lon="1.761074">
        <ele>115.726786</ele>
        <time>2023-03-30T17:28:08.276Z</time>
      </trkpt>
      <trkpt lat="48.922654" lon="1.761503">
        <ele>114.623355</ele>
        <time>2023-03-30T17:28:14.885Z</time>
      </trkpt>
      <trkpt lat="48.921752" lon="1.762866">
        <ele>108.891033</ele>
        <time>2023-03-30T17:28:32.126Z</time>
      </trkpt>
      <trkpt lat="48.921484" lon="1.763295">
        <ele>106.767230</ele>
        <time>2023-03-30T17:28:37.141Z</time>
      </trkpt>
      <trkpt lat="48.921391" lon="1.763503">
        <ele>105.864565</ele>
        <time>2023-03-30T17:28:39.266Z</time>
      </trkpt>
      <trkpt lat="48.921202" lon="1.763928">
        <ele>104.023313</ele>
        <time>2023-03-30T17:28:43.673Z</time>
      </trkpt>
      <trkpt lat="48.921075" lon="1.764078">
        <ele>103.536974</ele>
        <time>2023-03-30T17:28:45.813Z</time>
      </trkpt>
      <trkpt lat="48.920969" lon="1.764046">
        <ele>103.325056</ele>
        <time>2023-03-30T17:28:47.255Z</time>
      </trkpt>
      <trkpt lat="48.920596" lon="1.763729">
        <ele>102.487270</ele>
        <time>2023-03-30T17:28:53.122Z</time>
      </trkpt>
      <trkpt lat="48.920539" lon="1.763740">
        <ele>102.374597</ele>
        <time>2023-03-30T17:28:53.925Z</time>
      </trkpt>
      <trkpt lat="48.920620" lon="1.764223">
        <ele>101.732259</ele>
        <time>2023-03-30T17:28:58.793Z</time>
      </trkpt>
      <trkpt lat="48.920592" lon="1.764357">
        <ele>101.551068</ele>
        <time>2023-03-30T17:29:00.340Z</time>
      </trkpt>
      <trkpt lat="48.920451" lon="1.764416">
        <ele>101.264304</ele>
        <time>2023-03-30T17:29:02.967Z</time>
      </trkpt>
      <trkpt lat="48.920102" lon="1.764128">
        <ele>100.485767</ele>
        <time>2023-03-30T17:29:12.136Z</time>
      </trkpt>
      <trkpt lat="48.920043" lon="1.764316">
        <ele>100.258358</ele>
        <time>2023-03-30T17:29:16.091Z</time>
      </trkpt>
      <trkpt lat="48.920006" lon="1.764746">
        <ele>101.629078</ele>
        <time>2023-03-30T17:29:25.798Z</time>
      </trkpt>
      <trkpt lat="48.919976" lon="1.765000">
        <ele>102.444771</ele>
        <time>2023-03-30T17:29:32.462Z</time>
      </trkpt>
      <trkpt lat="48.919963" lon="1.765005">
        <ele>102.509268</ele>
        <time>2023-03-30T17:29:32.947Z</time>
      </trkpt>
      <trkpt lat="48.919934" lon="1.765033">
        <ele>102.674465</ele>
        <time>2023-03-30T17:29:34.211Z</time>
      </trkpt>
      <trkpt lat="48.919921" lon="1.765124">
        <ele>102.968811</ele>
        <time>2023-03-30T17:29:36.268Z</time>
      </trkpt>
      <trkpt lat="48.919945" lon="1.765176">
        <ele>103.169661</ele>
        <time>2023-03-30T17:29:37.583Z</time>
      </trkpt>
      <trkpt lat="48.919882" lon="1.765335">
        <ele>103.756511</ele>
        <time>2023-03-30T17:29:42.765Z</time>
      </trkpt>
      <trkpt lat="48.919760" lon="1.765349">
        <ele>104.345003</ele>
        <time>2023-03-30T17:29:48.131Z</time>
      </trkpt>
      <trkpt lat="48.918923" lon="1.765988">
        <ele>108.849231</ele>
        <time>2023-03-30T17:30:29.157Z</time>
      </trkpt>
      <trkpt lat="48.918774" lon="1.766100">
        <ele>109.508358</ele>
        <time>2023-03-30T17:30:36.662Z</time>
      </trkpt>
      <trkpt lat="48.918565" lon="1.766261">
        <ele>110.429338</ele>
        <time>2023-03-30T17:30:46.575Z</time>
      </trkpt>
      <trkpt lat="48.918476" lon="1.766445">
        <ele>111.019608</ele>
        <time>2023-03-30T17:30:52.943Z</time>
      </trkpt>
      <trkpt lat="48.918401" lon="1.766492">
        <ele>111.338499</ele>
        <time>2023-03-30T17:30:56.225Z</time>
      </trkpt>
      <trkpt lat="48.918400" lon="1.766607">
        <ele>111.635635</ele>
        <time>2023-03-30T17:30:59.184Z</time>
      </trkpt>
      <trkpt lat="48.918269" lon="1.766916">
        <ele>112.585678</ele>
        <time>2023-03-30T17:31:08.345Z</time>
      </trkpt>
      <trkpt lat="48.917709" lon="1.768820">
        <ele>117.121615</ele>
        <time>2023-03-30T17:31:49.409Z</time>
      </trkpt>
      <trkpt lat="48.916260" lon="1.773637">
        <ele>124.264657</ele>
        <time>2023-03-30T17:33:30.630Z</time>
      </trkpt>
      <trkpt lat="48.916223" lon="1.773774">
        <ele>124.347183</ele>
        <time>2023-03-30T17:33:33.155Z</time>
      </trkpt>
      <trkpt lat="48.915407" lon="1.776920">
        <ele>124.944372</ele>
        <time>2023-03-30T17:34:20.734Z</time>
      </trkpt>
      <trkpt lat="48.915240" lon="1.777446">
        <ele>124.732677</ele>
        <time>2023-03-30T17:34:27.511Z</time>
      </trkpt>
      <trkpt lat="48.914168" lon="1.780587">
        <ele>121.120641</ele>
        <time>2023-03-30T17:35:04.737Z</time>
      </trkpt>
      <trkpt lat="48.914053" lon="1.780869">
        <ele>120.602153</ele>
        <time>2023-03-30T17:35:08.116Z</time>
      </trkpt>
      <trkpt lat="48.913764" lon="1.781351">
        <ele>119.582830</ele>
        <time>2023-03-30T17:35:14.868Z</time>
      </trkpt>
      <trkpt lat="48.913203" lon="1.782106">
        <ele>117.802435</ele>
        <time>2023-03-30T17:35:26.296Z</time>
      </trkpt>
      <trkpt lat="48.913202" lon="1.782108">
        <ele>117.798509</ele>
        <time>2023-03-30T17:35:26.325Z</time>
      </trkpt>
      <trkpt lat="48.912891" lon="1.782913">
        <ele>116.228119</ele>
        <time>2023-03-30T17:35:35.415Z</time>
      </trkpt>
      <trkpt lat="48.912666" lon="1.783344">
        <ele>115.203556</ele>
        <time>2023-03-30T17:35:40.795Z</time>
      </trkpt>
      <trkpt lat="48.912384" lon="1.783707">
        <ele>114.157380</ele>
        <time>2023-03-30T17:35:46.177Z</time>
      </trkpt>
      <trkpt lat="48.912180" lon="1.783885">
        <ele>113.491334</ele>
        <time>2023-03-30T17:35:49.582Z</time>
      </trkpt>
      <trkpt lat="48.912124" lon="1.783929">
        <ele>113.312828</ele>
        <time>2023-03-30T17:35:50.499Z</time>
      </trkpt>
      <trkpt lat="48.910989" lon="1.784661">
        <ele>111.862987</ele>
        <time>2023-03-30T17:36:03.534Z</time>
      </trkpt>
      <trkpt lat="48.910767" lon="1.784852">
        <ele>111.875589</ele>
        <time>2023-03-30T17:36:07.489Z</time>
      </trkpt>
      <trkpt lat="48.910711" lon="1.784932">
        <ele>111.879385</ele>
        <time>2023-03-30T17:36:08.734Z</time>
      </trkpt>
      <trkpt lat="48.910444" lon="1.785540">
        <ele>111.903133</ele>
        <time>2023-03-30T17:36:18.737Z</time>
      </trkpt>
      <trkpt lat="48.910158" lon="1.785129">
        <ele>112.237313</ele>
        <time>2023-03-30T17:36:29.482Z</time>
      </trkpt>
      <trkpt lat="48.910065" lon="1.784957">
        <ele>112.642802</ele>
        <time>2023-03-30T17:36:34.126Z</time>
      </trkpt>
      <trkpt lat="48.909315" lon="1.783212">
        <ele>116.438730</ele>
        <time>2023-03-30T17:37:13.492Z</time>
      </trkpt>
      <trkpt lat="48.909206" lon="1.783026">
        <ele>116.892422</ele>
        <time>2023-03-30T17:37:17.293Z</time>
      </trkpt>
      <trkpt lat="48.908331" lon="1.784760">
        <ele>116.239737</ele>
        <time>2023-03-30T17:37:35.826Z</time>
      </trkpt>
      <trkpt lat="48.908080" lon="1.785426">
        <ele>116.026432</ele>
        <time>2023-03-30T17:37:41.295Z</time>
      </trkpt>
      <trkpt lat="48.908012" lon="1.785488">
        <ele>116.000529</ele>
        <time>2023-03-30T17:37:42.165Z</time>
      </trkpt>
      <trkpt lat="48.907291" lon="1.784152">
        <ele>115.629289</ele>
        <time>2023-03-30T17:37:56.895Z</time>
      </trkpt>
      <trkpt lat="48.907247" lon="1.784048">
        <ele>115.602727</ele>
        <time>2023-03-30T17:37:58.269Z</time>
      </trkpt>
      <trkpt lat="48.906092" lon="1.781296">
        <ele>117.512618</ele>
        <time>2023-03-30T17:38:52.831Z</time>
      </trkpt>
      <trkpt lat="48.905172" lon="1.779222">
        <ele>118.608490</ele>
        <time>2023-03-30T17:39:29.411Z</time>
      </trkpt>
      <trkpt lat="48.904644" lon="1.778206">
        <ele>119.072323</ele>
        <time>2023-03-30T17:39:49.706Z</time>
      </trkpt>
      <trkpt lat="48.904243" lon="1.777564">
        <ele>119.372675</ele>
        <time>2023-03-30T17:40:02.712Z</time>
      </trkpt>
      <trkpt lat="48.903951" lon="1.777131">
        <ele>119.583060</ele>
        <time>2023-03-30T17:40:11.163Z</time>
      </trkpt>
      <trkpt lat="48.903724" lon="1.776951">
        <ele>119.668104</ele>
        <time>2023-03-30T17:40:16.554Z</time>
      </trkpt>
      <trkpt lat="48.902769" lon="1.776806">
        <ele>119.817584</ele>
        <time>2023-03-30T17:40:36.476Z</time>
      </trkpt>
      <trkpt lat="48.902400" lon="1.776938">
        <ele>119.876623</ele>
        <time>2023-03-30T17:40:43.876Z</time>
      </trkpt>
      <trkpt lat="48.899812" lon="1.778668">
        <ele>121.464661</ele>
        <time>2023-03-30T17:41:46.630Z</time>
      </trkpt>
      <trkpt lat="48.899469" lon="1.778855">
        <ele>121.831708</ele>
        <time>2023-03-30T17:41:55.591Z</time>
      </trkpt>
      <trkpt lat="48.899206" lon="1.778820">
        <ele>122.097658</ele>
        <time>2023-03-30T17:42:02.235Z</time>
      </trkpt>
      <trkpt lat="48.898877" lon="1.778622">
        <ele>122.454077</ele>
        <time>2023-03-30T17:42:11.316Z</time>
      </trkpt>
      <trkpt lat="48.898135" lon="1.778034">
        <ele>123.708382</ele>
        <time>2023-03-30T17:42:33.492Z</time>
      </trkpt>
      <trkpt lat="48.897094" lon="1.777358">
        <ele>125.463219</ele>
        <time>2023-03-30T17:43:03.983Z</time>
      </trkpt>
      <trkpt lat="48.896226" lon="1.776856">
        <ele>126.343593</ele>
        <time>2023-03-30T17:43:27.256Z</time>
      </trkpt>
      <trkpt lat="48.895496" lon="1.776502">
        <ele>127.069984</ele>
        <time>2023-03-30T17:43:44.561Z</time>
      </trkpt>
      <trkpt lat="48.894719" lon="1.776188">
        <ele>127.630633</ele>
        <time>2023-03-30T17:44:02.311Z</time>
      </trkpt>
      <trkpt lat="48.894478" lon="1.776025">
        <ele>127.810044</ele>
        <time>2023-03-30T17:44:08.134Z</time>
      </trkpt>
      <trkpt lat="48.891686" lon="1.774099">
        <ele>130.203761</ele>
        <time>2023-03-30T17:45:21.475Z</time>
      </trkpt>
      <trkpt lat="48.891217" lon="1.773619">
        <ele>130.416151</ele>
        <time>2023-03-30T17:45:34.186Z</time>
      </trkpt>
      <trkpt lat="48.890906" lon="1.773215">
        <ele>130.569817</ele>
        <time>2023-03-30T17:45:42.829Z</time>
      </trkpt>
      <trkpt lat="48.890558" lon="1.772750">
        <ele>130.583374</ele>
        <time>2023-03-30T17:45:51.941Z</time>
      </trkpt>
      <trkpt lat="48.889879" lon="1.771743">
        <ele>129.708180</ele>
        <time>2023-03-30T17:46:08.946Z</time>
      </trkpt>
      <trkpt lat="48.889609" lon="1.771469">
        <ele>129.408641</ele>
        <time>2023-03-30T17:46:14.405Z</time>
      </trkpt>
      <trkpt lat="48.889426" lon="1.771325">
        <ele>129.218499</ele>
        <time>2023-03-30T17:46:17.832Z</time>
      </trkpt>
      <trkpt lat="48.889181" lon="1.771159">
        <ele>128.927431</ele>
        <time>2023-03-30T17:46:22.194Z</time>
      </trkpt>
      <trkpt lat="48.888851" lon="1.771001">
        <ele>128.399372</ele>
        <time>2023-03-30T17:46:27.773Z</time>
      </trkpt>
      <trkpt lat="48.888378" lon="1.770668">
        <ele>127.603819</ele>
        <time>2023-03-30T17:46:36.158Z</time>
      </trkpt>
      <trkpt lat="48.888103" lon="1.770428">
        <ele>127.119879</ele>
        <time>2023-03-30T17:46:41.283Z</time>
      </trkpt>
      <trkpt lat="48.887536" lon="1.769784">
        <ele>126.217092</ele>
        <time>2023-03-30T17:46:53.091Z</time>
      </trkpt>
      <trkpt lat="48.887009" lon="1.769112">
        <ele>125.904626</ele>
        <time>2023-03-30T17:47:05.149Z</time>
      </trkpt>
      <trkpt lat="48.886802" lon="1.768752">
        <ele>125.761755</ele>
        <time>2023-03-30T17:47:10.997Z</time>
      </trkpt>
      <trkpt lat="48.886368" lon="1.767436">
        <ele>125.883271</ele>
        <time>2023-03-30T17:47:31.929Z</time>
      </trkpt>
      <trkpt lat="48.886220" lon="1.767234">
        <ele>126.124108</ele>
        <time>2023-03-30T17:47:36.613Z</time>
      </trkpt>
      <trkpt lat="48.885969" lon="1.766966">
        <ele>126.495524</ele>
        <time>2023-03-30T17:47:44.157Z</time>
      </trkpt>
      <trkpt lat="48.885650" lon="1.766798">
        <ele>126.904362</ele>
        <time>2023-03-30T17:47:52.800Z</time>
      </trkpt>
      <trkpt lat="48.885475" lon="1.766778">
        <ele>127.116895</ele>
        <time>2023-03-30T17:47:57.440Z</time>
      </trkpt>
      <trkpt lat="48.884709" lon="1.766730">
        <ele>128.324841</ele>
        <time>2023-03-30T17:48:18.668Z</time>
      </trkpt>
      <trkpt lat="48.883089" lon="1.765755">
        <ele>131.903907</ele>
        <time>2023-03-30T17:48:59.864Z</time>
      </trkpt>
      <trkpt lat="48.882498" lon="1.765401">
        <ele>133.137997</ele>
        <time>2023-03-30T17:49:14.101Z</time>
      </trkpt>
      <trkpt lat="48.881944" lon="1.765017">
        <ele>134.320880</ele>
        <time>2023-03-30T17:49:27.350Z</time>
      </trkpt>
      <trkpt lat="48.881368" lon="1.764591">
        <ele>135.614880</ele>
        <time>2023-03-30T17:49:41.675Z</time>
      </trkpt>
      <trkpt lat="48.881141" lon="1.764389">
        <ele>136.162789</ele>
        <time>2023-03-30T17:49:47.847Z</time>
      </trkpt>
      <trkpt lat="48.880951" lon="1.764989">
        <ele>137.075105</ele>
        <time>2023-03-30T17:49:58.494Z</time>
      </trkpt>
      <trkpt lat="48.880819" lon="1.765319">
        <ele>137.604258</ele>
        <time>2023-03-30T17:50:04.580Z</time>
      </trkpt>
      <trkpt lat="48.879988" lon="1.766453">
        <ele>139.328545</ele>
        <time>2023-03-30T17:50:29.767Z</time>
      </trkpt>
      <trkpt lat="48.879436" lon="1.767971">
        <ele>140.608588</ele>
        <time>2023-03-30T17:50:50.725Z</time>
      </trkpt>
      <trkpt lat="48.879193" lon="1.768526">
        <ele>140.526663</ele>
        <time>2023-03-30T17:50:56.825Z</time>
      </trkpt>
      <trkpt lat="48.877000" lon="1.773071">
        <ele>139.117723</ele>
        <time>2023-03-30T17:51:46.327Z</time>
      </trkpt>
      <trkpt lat="48.876091" lon="1.775078">
        <ele>138.441686</ele>
        <time>2023-03-30T17:52:09.030Z</time>
      </trkpt>
      <trkpt lat="48.875654" lon="1.775985">
        <ele>137.728626</ele>
        <time>2023-03-30T17:52:18.022Z</time>
      </trkpt>
      <trkpt lat="48.875357" lon="1.776525">
        <ele>137.282185</ele>
        <time>2023-03-30T17:52:23.441Z</time>
      </trkpt>
      <trkpt lat="48.874832" lon="1.777348">
        <ele>136.594129</ele>
        <time>2023-03-30T17:52:32.169Z</time>
      </trkpt>
      <trkpt lat="48.873676" lon="1.779295">
        <ele>135.367862</ele>
        <time>2023-03-30T17:52:54.227Z</time>
      </trkpt>
      <trkpt lat="48.873356" lon="1.779986">
        <ele>135.283956</ele>
        <time>2023-03-30T17:53:02.703Z</time>
      </trkpt>
      <trkpt lat="48.873271" lon="1.780330">
        <ele>135.247472</ele>
        <time>2023-03-30T17:53:06.443Z</time>
      </trkpt>
      <trkpt lat="48.873233" lon="1.780607">
        <ele>135.219377</ele>
        <time>2023-03-30T17:53:09.354Z</time>
      </trkpt>
      <trkpt lat="48.873152" lon="1.782843">
        <ele>134.997685</ele>
        <time>2023-03-30T17:53:30.731Z</time>
      </trkpt>
      <trkpt lat="48.873148" lon="1.782971">
        <ele>134.985014</ele>
        <time>2023-03-30T17:53:31.914Z</time>
      </trkpt>
      <trkpt lat="48.873139" lon="1.783218">
        <ele>134.960551</ele>
        <time>2023-03-30T17:53:34.196Z</time>
      </trkpt>
      <trkpt lat="48.873136" lon="1.783349">
        <ele>134.947590</ele>
        <time>2023-03-30T17:53:35.430Z</time>
      </trkpt>
      <trkpt lat="48.873096" lon="1.784938">
        <ele>134.778594</ele>
        <time>2023-03-30T17:53:49.869Z</time>
      </trkpt>
      <trkpt lat="48.872560" lon="1.787850">
        <ele>134.459623</ele>
        <time>2023-03-30T17:54:18.775Z</time>
      </trkpt>
      <trkpt lat="48.872274" lon="1.789174">
        <ele>134.323074</ele>
        <time>2023-03-30T17:54:31.813Z</time>
      </trkpt>
      <trkpt lat="48.872052" lon="1.789897">
        <ele>134.114161</ele>
        <time>2023-03-30T17:54:38.842Z</time>
      </trkpt>
      <trkpt lat="48.871793" lon="1.790545">
        <ele>133.903034</ele>
        <time>2023-03-30T17:54:45.353Z</time>
      </trkpt>
      <trkpt lat="48.871439" lon="1.791318">
        <ele>133.640772</ele>
        <time>2023-03-30T17:54:53.461Z</time>
      </trkpt>
      <trkpt lat="48.870827" lon="1.792397">
        <ele>133.848422</ele>
        <time>2023-03-30T17:55:06.962Z</time>
      </trkpt>
      <trkpt lat="48.870696" lon="1.792727">
        <ele>133.950048</ele>
        <time>2023-03-30T17:55:11.073Z</time>
      </trkpt>
      <trkpt lat="48.870604" lon="1.793157">
        <ele>134.069270</ele>
        <time>2023-03-30T17:55:16.156Z</time>
      </trkpt>
      <trkpt lat="48.870581" lon="1.793401">
        <ele>134.134261</ele>
        <time>2023-03-30T17:55:19.034Z</time>
      </trkpt>
      <trkpt lat="48.870543" lon="1.794485">
        <ele>134.706318</ele>
        <time>2023-03-30T17:55:32.744Z</time>
      </trkpt>
      <trkpt lat="48.870517" lon="1.794754">
        <ele>134.919309</ele>
        <time>2023-03-30T17:55:36.520Z</time>
      </trkpt>
      <trkpt lat="48.870498" lon="1.794871">
        <ele>135.013717</ele>
        <time>2023-03-30T17:55:38.218Z</time>
      </trkpt>
      <trkpt lat="48.870335" lon="1.795610">
        <ele>135.624315</ele>
        <time>2023-03-30T17:55:49.376Z</time>
      </trkpt>
      <trkpt lat="48.870095" lon="1.796361">
        <ele>136.278395</ele>
        <time>2023-03-30T17:56:00.290Z</time>
      </trkpt>
      <trkpt lat="48.869902" lon="1.796791">
        <ele>136.236361</ele>
        <time>2023-03-30T17:56:06.088Z</time>
      </trkpt>
      <trkpt lat="48.869781" lon="1.796972">
        <ele>136.099951</ele>
        <time>2023-03-30T17:56:08.691Z</time>
      </trkpt>
      <trkpt lat="48.869676" lon="1.797182">
        <ele>135.960522</ele>
        <time>2023-03-30T17:56:11.182Z</time>
      </trkpt>
      <trkpt lat="48.869440" lon="1.798051">
        <ele>135.463578</ele>
        <time>2023-03-30T17:56:19.208Z</time>
      </trkpt>
      <trkpt lat="48.869396" lon="1.798563">
        <ele>135.190646</ele>
        <time>2023-03-30T17:56:23.089Z</time>
      </trkpt>
      <trkpt lat="48.869380" lon="1.799236">
        <ele>134.504378</ele>
        <time>2023-03-30T17:56:27.812Z</time>
      </trkpt>
      <trkpt lat="48.869359" lon="1.799572">
        <ele>133.897596</ele>
        <time>2023-03-30T17:56:30.081Z</time>
      </trkpt>
      <trkpt lat="48.869315" lon="1.800047">
        <ele>133.035212</ele>
        <time>2023-03-30T17:56:33.274Z</time>
      </trkpt>
      <trkpt lat="48.869270" lon="1.800031">
        <ele>132.908902</ele>
        <time>2023-03-30T17:56:33.766Z</time>
      </trkpt>
      <trkpt lat="48.869221" lon="1.800064">
        <ele>132.762425</ele>
        <time>2023-03-30T17:56:34.332Z</time>
      </trkpt>
      <trkpt lat="48.869196" lon="1.800149">
        <ele>132.595031</ele>
        <time>2023-03-30T17:56:34.953Z</time>
      </trkpt>
      <trkpt lat="48.869224" lon="1.800244">
        <ele>132.407877</ele>
        <time>2023-03-30T17:56:35.637Z</time>
      </trkpt>
      <trkpt lat="48.869288" lon="1.800271">
        <ele>132.226346</ele>
        <time>2023-03-30T17:56:36.291Z</time>
      </trkpt>
      <trkpt lat="48.869328" lon="1.800241">
        <ele>132.104440</ele>
        <time>2023-03-30T17:56:36.741Z</time>
      </trkpt>
      <trkpt lat="48.869412" lon="1.800374">
        <ele>131.772956</ele>
        <time>2023-03-30T17:56:38.004Z</time>
      </trkpt>
      <trkpt lat="48.869677" lon="1.800637">
        <ele>130.908002</ele>
        <time>2023-03-30T17:56:41.256Z</time>
      </trkpt>
      <trkpt lat="48.870149" lon="1.801387">
        <ele>129.419141</ele>
        <time>2023-03-30T17:56:48.469Z</time>
      </trkpt>
      <trkpt lat="48.871268" lon="1.803272">
        <ele>126.775312</ele>
        <time>2023-03-30T17:57:07.655Z</time>
      </trkpt>
      <trkpt lat="48.873352" lon="1.807026">
        <ele>124.611706</ele>
        <time>2023-03-30T17:57:49.670Z</time>
      </trkpt>
      <trkpt lat="48.875048" lon="1.809651">
        <ele>124.073768</ele>
        <time>2023-03-30T17:58:23.665Z</time>
      </trkpt>
      <trkpt lat="48.875652" lon="1.810758">
        <ele>124.000895</ele>
        <time>2023-03-30T17:58:37.623Z</time>
      </trkpt>
      <trkpt lat="48.876086" lon="1.811695">
        <ele>123.823777</ele>
        <time>2023-03-30T17:58:48.742Z</time>
      </trkpt>
      <trkpt lat="48.876720" lon="1.813449">
        <ele>123.329665</ele>
        <time>2023-03-30T17:59:06.628Z</time>
      </trkpt>
      <trkpt lat="48.877834" lon="1.816797">
        <ele>121.131726</ele>
        <time>2023-03-30T17:59:36.810Z</time>
      </trkpt>
      <trkpt lat="48.878182" lon="1.818077">
        <ele>120.407999</ele>
        <time>2023-03-30T17:59:48.153Z</time>
      </trkpt>
      <trkpt lat="48.878728" lon="1.819951">
        <ele>120.127398</ele>
        <time>2023-03-30T18:00:06.657Z</time>
      </trkpt>
      <trkpt lat="48.878906" lon="1.820797">
        <ele>120.104688</ele>
        <time>2023-03-30T18:00:16.272Z</time>
      </trkpt>
      <trkpt lat="48.879008" lon="1.821426">
        <ele>120.150586</ele>
        <time>2023-03-30T18:00:23.414Z</time>
      </trkpt>
      <trkpt lat="48.879027" lon="1.821519">
        <ele>120.163628</ele>
        <time>2023-03-30T18:00:24.524Z</time>
      </trkpt>
      <trkpt lat="48.879324" lon="1.823201">
        <ele>120.396866</ele>
        <time>2023-03-30T18:00:42.368Z</time>
      </trkpt>
      <trkpt lat="48.879364" lon="1.823305">
        <ele>120.413001</ele>
        <time>2023-03-30T18:00:43.547Z</time>
      </trkpt>
      <trkpt lat="48.879501" lon="1.823462">
        <ele>120.447935</ele>
        <time>2023-03-30T18:00:46.093Z</time>
      </trkpt>
      <trkpt lat="48.879983" lon="1.823922">
        <ele>120.448367</ele>
        <time>2023-03-30T18:00:54.386Z</time>
      </trkpt>
      <trkpt lat="48.880112" lon="1.824065">
        <ele>120.443119</ele>
        <time>2023-03-30T18:00:56.665Z</time>
      </trkpt>
      <trkpt lat="48.880968" lon="1.825243">
        <ele>120.406517</ele>
        <time>2023-03-30T18:01:13.384Z</time>
      </trkpt>
      <trkpt lat="48.880972" lon="1.825248">
        <ele>120.408257</ele>
        <time>2023-03-30T18:01:13.469Z</time>
      </trkpt>
      <trkpt lat="48.881427" lon="1.825761">
        <ele>120.598645</ele>
        <time>2023-03-30T18:01:22.569Z</time>
      </trkpt>
      <trkpt lat="48.881561" lon="1.825809">
        <ele>120.644918</ele>
        <time>2023-03-30T18:01:24.807Z</time>
      </trkpt>
      <trkpt lat="48.882480" lon="1.826328">
        <ele>120.974429</ele>
        <time>2023-03-30T18:01:41.237Z</time>
      </trkpt>
      <trkpt lat="48.882997" lon="1.826596">
        <ele>120.950326</ele>
        <time>2023-03-30T18:01:49.999Z</time>
      </trkpt>
      <trkpt lat="48.883211" lon="1.826717">
        <ele>120.919496</ele>
        <time>2023-03-30T18:01:53.481Z</time>
      </trkpt>
      <trkpt lat="48.882997" lon="1.826596">
        <ele>120.888665</ele>
        <time>2023-03-30T18:01:56.789Z</time>
      </trkpt>
      <trkpt lat="48.882480" lon="1.826328">
        <ele>120.814907</ele>
        <time>2023-03-30T18:02:04.328Z</time>
      </trkpt>
      <trkpt lat="48.881561" lon="1.825809">
        <ele>120.361533</ele>
        <time>2023-03-30T18:02:17.079Z</time>
      </trkpt>
      <trkpt lat="48.881492" lon="1.825676">
        <ele>120.289305</ele>
        <time>2023-03-30T18:02:18.485Z</time>
      </trkpt>
      <trkpt lat="48.881427" lon="1.825761">
        <ele>120.233724</ele>
        <time>2023-03-30T18:02:19.555Z</time>
      </trkpt>
      <trkpt lat="48.881299" lon="1.825998">
        <ele>120.102966</ele>
        <time>2023-03-30T18:02:23.129Z</time>
      </trkpt>
      <trkpt lat="48.881111" lon="1.826438">
        <ele>119.879248</ele>
        <time>2023-03-30T18:02:29.180Z</time>
      </trkpt>
      <trkpt lat="48.880897" lon="1.826939">
        <ele>119.624535</ele>
        <time>2023-03-30T18:02:36.268Z</time>
      </trkpt>
      <trkpt lat="48.880178" lon="1.828280">
        <ele>119.279879</ele>
        <time>2023-03-30T18:02:58.100Z</time>
      </trkpt>
      <trkpt lat="48.879683" lon="1.829122">
        <ele>119.092619</ele>
        <time>2023-03-30T18:03:12.376Z</time>
      </trkpt>
      <trkpt lat="48.879306" lon="1.829842">
        <ele>119.305677</ele>
        <time>2023-03-30T18:03:24.509Z</time>
      </trkpt>
      <trkpt lat="48.878807" lon="1.830922">
        <ele>119.611235</ele>
        <time>2023-03-30T18:03:44.129Z</time>
      </trkpt>
      <trkpt lat="48.878687" lon="1.831276">
        <ele>119.703434</ele>
        <time>2023-03-30T18:03:50.074Z</time>
      </trkpt>
      <trkpt lat="48.878626" lon="1.831612">
        <ele>119.942580</ele>
        <time>2023-03-30T18:03:55.463Z</time>
      </trkpt>
      <trkpt lat="48.878637" lon="1.832134">
        <ele>120.321203</ele>
        <time>2023-03-30T18:04:03.607Z</time>
      </trkpt>
      <trkpt lat="48.878730" lon="1.832360">
        <ele>120.514474</ele>
        <time>2023-03-30T18:04:07.799Z</time>
      </trkpt>
      <trkpt lat="48.878880" lon="1.832851">
        <ele>120.906958</ele>
        <time>2023-03-30T18:04:16.698Z</time>
      </trkpt>
      <trkpt lat="48.878967" lon="1.833364">
        <ele>121.291027</ele>
        <time>2023-03-30T18:04:25.717Z</time>
      </trkpt>
      <trkpt lat="48.879607" lon="1.838071">
        <ele>125.333659</ele>
        <time>2023-03-30T18:05:46.737Z</time>
      </trkpt>
      <trkpt lat="48.879719" lon="1.839204">
        <ele>126.233070</ele>
        <time>2023-03-30T18:06:05.220Z</time>
      </trkpt>
      <trkpt lat="48.879821" lon="1.840069">
        <ele>126.614673</ele>
        <time>2023-03-30T18:06:18.875Z</time>
      </trkpt>
      <trkpt lat="48.880076" lon="1.841610">
        <ele>127.255345</ele>
        <time>2023-03-30T18:06:42.247Z</time>
      </trkpt>
      <trkpt lat="48.880359" lon="1.843186">
        <ele>127.391052</ele>
        <time>2023-03-30T18:07:04.739Z</time>
      </trkpt>
      <trkpt lat="48.880526" lon="1.844334">
        <ele>127.390306</ele>
        <time>2023-03-30T18:07:20.176Z</time>
      </trkpt>
      <trkpt lat="48.880753" lon="1.846957">
        <ele>126.700461</ele>
        <time>2023-03-30T18:07:52.810Z</time>
      </trkpt>
      <trkpt lat="48.880794" lon="1.847790">
        <ele>126.424013</ele>
        <time>2023-03-30T18:08:02.750Z</time>
      </trkpt>
      <trkpt lat="48.880758" lon="1.849199">
        <ele>125.914570</ele>
        <time>2023-03-30T18:08:19.593Z</time>
      </trkpt>
      <trkpt lat="48.880843" lon="1.850838">
        <ele>125.512110</ele>
        <time>2023-03-30T18:08:40.022Z</time>
      </trkpt>
      <trkpt lat="48.880905" lon="1.851533">
        <ele>125.426465</ele>
        <time>2023-03-30T18:08:49.146Z</time>
      </trkpt>
      <trkpt lat="48.880921" lon="1.851674">
        <ele>125.408992</ele>
        <time>2023-03-30T18:08:50.982Z</time>
      </trkpt>
      <trkpt lat="48.881032" lon="1.853080">
        <ele>125.210649</ele>
        <time>2023-03-30T18:09:09.677Z</time>
      </trkpt>
      <trkpt lat="48.881073" lon="1.854693">
        <ele>124.887776</ele>
        <time>2023-03-30T18:09:30.319Z</time>
      </trkpt>
      <trkpt lat="48.881054" lon="1.855540">
        <ele>124.702267</ele>
        <time>2023-03-30T18:09:40.509Z</time>
      </trkpt>
      <trkpt lat="48.880963" lon="1.857313">
        <ele>123.809154</ele>
        <time>2023-03-30T18:10:01.821Z</time>
      </trkpt>
      <trkpt lat="48.880924" lon="1.858338">
        <ele>123.190291</ele>
        <time>2023-03-30T18:10:13.683Z</time>
      </trkpt>
      <trkpt lat="48.880842" lon="1.858558">
        <ele>122.850987</ele>
        <time>2023-03-30T18:10:16.489Z</time>
      </trkpt>
      <trkpt lat="48.880806" lon="1.858578">
        <ele>122.772788</ele>
        <time>2023-03-30T18:10:17.134Z</time>
      </trkpt>
      <trkpt lat="48.880779" lon="1.858651">
        <ele>122.660410</ele>
        <time>2023-03-30T18:10:18.056Z</time>
      </trkpt>
      <trkpt lat="48.880779" lon="1.858681">
        <ele>122.620158</ele>
        <time>2023-03-30T18:10:18.375Z</time>
      </trkpt>
      <trkpt lat="48.880829" lon="1.858764">
        <ele>122.469129</ele>
        <time>2023-03-30T18:10:19.569Z</time>
      </trkpt>
      <trkpt lat="48.880967" lon="1.859001">
        <ele>122.044394</ele>
        <time>2023-03-30T18:10:22.974Z</time>
      </trkpt>
      <trkpt lat="48.881067" lon="1.859150">
        <ele>121.758742</ele>
        <time>2023-03-30T18:10:25.233Z</time>
      </trkpt>
      <trkpt lat="48.881530" lon="1.859689">
        <ele>120.569032</ele>
        <time>2023-03-30T18:10:34.383Z</time>
      </trkpt>
      <trkpt lat="48.881919" lon="1.860092">
        <ele>119.571852</ele>
        <time>2023-03-30T18:10:41.316Z</time>
      </trkpt>
      <trkpt lat="48.882023" lon="1.860218">
        <ele>119.170574</ele>
        <time>2023-03-30T18:10:43.243Z</time>
      </trkpt>
      <trkpt lat="48.882050" lon="1.860315">
        <ele>118.961542</ele>
        <time>2023-03-30T18:10:44.228Z</time>
      </trkpt>
      <trkpt lat="48.882067" lon="1.860383">
        <ele>118.817173</ele>
        <time>2023-03-30T18:10:44.914Z</time>
      </trkpt>
      <trkpt lat="48.882164" lon="1.860929">
        <ele>117.694787</ele>
        <time>2023-03-30T18:10:50.274Z</time>
      </trkpt>
      <trkpt lat="48.882208" lon="1.861266">
        <ele>117.012955</ele>
        <time>2023-03-30T18:10:53.585Z</time>
      </trkpt>
      <trkpt lat="48.882250" lon="1.861642">
        <ele>116.256093</ele>
        <time>2023-03-30T18:10:57.305Z</time>
      </trkpt>
      <trkpt lat="48.882492" lon="1.861659">
        <ele>115.525017</ele>
        <time>2023-03-30T18:11:00.974Z</time>
      </trkpt>
      <trkpt lat="48.882606" lon="1.861653">
        <ele>115.180787</ele>
        <time>2023-03-30T18:11:02.673Z</time>
      </trkpt>
      <trkpt lat="48.882943" lon="1.861543">
        <ele>114.131949</ele>
        <time>2023-03-30T18:11:07.798Z</time>
      </trkpt>
      <trkpt lat="48.882988" lon="1.861501">
        <ele>113.960778</ele>
        <time>2023-03-30T18:11:08.584Z</time>
      </trkpt>
      <trkpt lat="48.883035" lon="1.861458">
        <ele>113.782960</ele>
        <time>2023-03-30T18:11:09.429Z</time>
      </trkpt>
      <trkpt lat="48.883079" lon="1.861290">
        <ele>113.397447</ele>
        <time>2023-03-30T18:11:11.159Z</time>
      </trkpt>
      <trkpt lat="48.883146" lon="1.860735">
        <ele>112.194497</ele>
        <time>2023-03-30T18:11:16.501Z</time>
      </trkpt>
      <trkpt lat="48.883159" lon="1.860292">
        <ele>111.249148</ele>
        <time>2023-03-30T18:11:20.645Z</time>
      </trkpt>
      <trkpt lat="48.883195" lon="1.859847">
        <ele>110.293323</ele>
        <time>2023-03-30T18:11:24.912Z</time>
      </trkpt>
      <trkpt lat="48.883334" lon="1.859767">
        <ele>109.811507</ele>
        <time>2023-03-30T18:11:27.081Z</time>
      </trkpt>
      <trkpt lat="48.883502" lon="1.859592">
        <ele>109.151347</ele>
        <time>2023-03-30T18:11:30.179Z</time>
      </trkpt>
      <trkpt lat="48.883763" lon="1.859169">
        <ele>107.585137</ele>
        <time>2023-03-30T18:11:35.892Z</time>
      </trkpt>
      <trkpt lat="48.883983" lon="1.859000">
        <ele>106.271529</ele>
        <time>2023-03-30T18:11:39.387Z</time>
      </trkpt>
      <trkpt lat="48.884191" lon="1.858815">
        <ele>104.987299</ele>
        <time>2023-03-30T18:11:42.674Z</time>
      </trkpt>
      <trkpt lat="48.884292" lon="1.858675">
        <ele>104.258954</ele>
        <time>2023-03-30T18:11:44.522Z</time>
      </trkpt>
      <trkpt lat="48.884364" lon="1.858507">
        <ele>103.556171</ele>
        <time>2023-03-30T18:11:46.269Z</time>
      </trkpt>
      <trkpt lat="48.884431" lon="1.858258">
        <ele>102.613291</ele>
        <time>2023-03-30T18:11:48.564Z</time>
      </trkpt>
      <trkpt lat="48.884505" lon="1.857649">
        <ele>100.442851</ele>
        <time>2023-03-30T18:11:53.839Z</time>
      </trkpt>
      <trkpt lat="48.884560" lon="1.857447">
        <ele>99.676635</ele>
        <time>2023-03-30T18:11:55.687Z</time>
      </trkpt>
      <trkpt lat="48.884634" lon="1.857305">
        <ele>99.041654</ele>
        <time>2023-03-30T18:11:57.223Z</time>
      </trkpt>
      <trkpt lat="48.884737" lon="1.857190">
        <ele>98.195208</ele>
        <time>2023-03-30T18:11:58.863Z</time>
      </trkpt>
      <trkpt lat="48.884846" lon="1.857131">
        <ele>97.366070</ele>
        <time>2023-03-30T18:12:00.361Z</time>
      </trkpt>
      <trkpt lat="48.884947" lon="1.857106">
        <ele>96.632744</ele>
        <time>2023-03-30T18:12:01.671Z</time>
      </trkpt>
      <trkpt lat="48.885062" lon="1.857125">
        <ele>95.803765</ele>
        <time>2023-03-30T18:12:03.171Z</time>
      </trkpt>
      <trkpt lat="48.885201" lon="1.857215">
        <ele>94.721114</ele>
        <time>2023-03-30T18:12:05.116Z</time>
      </trkpt>
      <trkpt lat="48.885313" lon="1.857368">
        <ele>93.642204</ele>
        <time>2023-03-30T18:12:07.047Z</time>
      </trkpt>
      <trkpt lat="48.885374" lon="1.857535">
        <ele>92.741976</ele>
        <time>2023-03-30T18:12:08.646Z</time>
      </trkpt>
      <trkpt lat="48.885417" lon="1.857738">
        <ele>91.736959</ele>
        <time>2023-03-30T18:12:10.419Z</time>
      </trkpt>
      <trkpt lat="48.885559" lon="1.859060">
        <ele>85.477922</ele>
        <time>2023-03-30T18:12:21.574Z</time>
      </trkpt>
      <trkpt lat="48.885638" lon="1.859478">
        <ele>83.635797</ele>
        <time>2023-03-30T18:12:25.249Z</time>
      </trkpt>
      <trkpt lat="48.885663" lon="1.859566">
        <ele>83.229773</ele>
        <time>2023-03-30T18:12:26.061Z</time>
      </trkpt>
      <trkpt lat="48.885797" lon="1.860032">
        <ele>81.075551</ele>
        <time>2023-03-30T18:12:30.427Z</time>
      </trkpt>
      <trkpt lat="48.885894" lon="1.860491">
        <ele>79.033522</ele>
        <time>2023-03-30T18:12:34.598Z</time>
      </trkpt>
      <trkpt lat="48.886008" lon="1.860855">
        <ele>77.325864</ele>
        <time>2023-03-30T18:12:38.096Z</time>
      </trkpt>
      <trkpt lat="48.886138" lon="1.861201">
        <ele>75.638026</ele>
        <time>2023-03-30T18:12:41.550Z</time>
      </trkpt>
      <trkpt lat="48.886398" lon="1.861693">
        <ele>72.690389</ele>
        <time>2023-03-30T18:12:47.014Z</time>
      </trkpt>
      <trkpt lat="48.887588" lon="1.864134">
        <ele>57.208070</ele>
        <time>2023-03-30T18:13:12.090Z</time>
      </trkpt>
      <trkpt lat="48.887797" lon="1.864558">
        <ele>54.446809</ele>
        <time>2023-03-30T18:13:16.392Z</time>
      </trkpt>
      <trkpt lat="48.887863" lon="1.864812">
        <ele>53.023673</ele>
        <time>2023-03-30T18:13:18.616Z</time>
      </trkpt>
      <trkpt lat="48.887937" lon="1.865409">
        <ele>49.858050</ele>
        <time>2023-03-30T18:13:23.632Z</time>
      </trkpt>
      <trkpt lat="48.888001" lon="1.865616">
        <ele>48.666131</ele>
        <time>2023-03-30T18:13:25.538Z</time>
      </trkpt>
      <trkpt lat="48.888089" lon="1.865781">
        <ele>47.559088</ele>
        <time>2023-03-30T18:13:27.307Z</time>
      </trkpt>
      <trkpt lat="48.888201" lon="1.865902">
        <ele>46.470369</ele>
        <time>2023-03-30T18:13:29.050Z</time>
      </trkpt>
      <trkpt lat="48.888315" lon="1.865967">
        <ele>45.918086</ele>
        <time>2023-03-30T18:13:30.650Z</time>
      </trkpt>
      <trkpt lat="48.889102" lon="1.866082">
        <ele>43.085928</ele>
        <time>2023-03-30T18:13:41.233Z</time>
      </trkpt>
      <trkpt lat="48.889180" lon="1.866175">
        <ele>42.730890</ele>
        <time>2023-03-30T18:13:42.647Z</time>
      </trkpt>
      <trkpt lat="48.889197" lon="1.866257">
        <ele>42.528379</ele>
        <time>2023-03-30T18:13:43.445Z</time>
      </trkpt>
      <trkpt lat="48.891199" lon="1.866257">
        <ele>38.958512</ele>
        <time>2023-03-30T18:14:08.485Z</time>
      </trkpt>
      <trkpt lat="48.892349" lon="1.866247">
        <ele>38.435248</ele>
        <time>2023-03-30T18:14:23.935Z</time>
      </trkpt>
      <trkpt lat="48.893823" lon="1.866235">
        <ele>38.442511</ele>
        <time>2023-03-30T18:14:44.967Z</time>
      </trkpt>
      <trkpt lat="48.893993" lon="1.866262">
        <ele>38.627393</ele>
        <time>2023-03-30T18:14:47.813Z</time>
      </trkpt>
      <trkpt lat="48.894168" lon="1.866337">
        <ele>38.824053</ele>
        <time>2023-03-30T18:14:51.023Z</time>
      </trkpt>
      <trkpt lat="48.894337" lon="1.866502">
        <ele>39.041271</ele>
        <time>2023-03-30T18:14:54.621Z</time>
      </trkpt>
      <trkpt lat="48.894448" lon="1.866769">
        <ele>39.265920</ele>
        <time>2023-03-30T18:14:58.627Z</time>
      </trkpt>
      <trkpt lat="48.894504" lon="1.866937">
        <ele>39.399868</ele>
        <time>2023-03-30T18:15:01.102Z</time>
      </trkpt>
      <trkpt lat="48.894650" lon="1.867373">
        <ele>39.747823</ele>
        <time>2023-03-30T18:15:08.143Z</time>
      </trkpt>
      <trkpt lat="48.894726" lon="1.867603">
        <ele>39.930879</ele>
        <time>2023-03-30T18:15:11.985Z</time>
      </trkpt>
      <trkpt lat="48.894894" lon="1.868178">
        <ele>40.802694</ele>
        <time>2023-03-30T18:15:21.713Z</time>
      </trkpt>
      <trkpt lat="48.894979" lon="1.868649">
        <ele>41.669279</ele>
        <time>2023-03-30T18:15:29.376Z</time>
      </trkpt>
      <trkpt lat="48.895009" lon="1.869047">
        <ele>42.380057</ele>
        <time>2023-03-30T18:15:35.572Z</time>
      </trkpt>
      <trkpt lat="48.895027" lon="1.869271">
        <ele>42.780447</ele>
        <time>2023-03-30T18:15:39.349Z</time>
      </trkpt>
      <trkpt lat="48.895036" lon="1.869343">
        <ele>42.910481</ele>
        <time>2023-03-30T18:15:40.556Z</time>
      </trkpt>
      <trkpt lat="48.895060" lon="1.869550">
        <ele>43.283418</ele>
        <time>2023-03-30T18:15:43.978Z</time>
      </trkpt>
      <trkpt lat="48.895026" lon="1.869603">
        <ele>43.414803</ele>
        <time>2023-03-30T18:15:45.136Z</time>
      </trkpt>
      <trkpt lat="48.895028" lon="1.869689">
        <ele>43.567484</ele>
        <time>2023-03-30T18:15:46.605Z</time>
      </trkpt>
      <trkpt lat="48.895036" lon="1.869707">
        <ele>43.606033</ele>
        <time>2023-03-30T18:15:46.983Z</time>
      </trkpt>
      <trkpt lat="48.895059" lon="1.869734">
        <ele>43.684440</ele>
        <time>2023-03-30T18:15:47.763Z</time>
      </trkpt>
      <trkpt lat="48.894997" lon="1.869906">
        <ele>44.032471</ele>
        <time>2023-03-30T18:15:51.109Z</time>
      </trkpt>
      <trkpt lat="48.895014" lon="1.870139">
        <ele>44.448409</ele>
        <time>2023-03-30T18:15:55.077Z</time>
      </trkpt>
      <trkpt lat="48.895053" lon="1.870597">
        <ele>45.705859</ele>
        <time>2023-03-30T18:16:03.906Z</time>
      </trkpt>
      <trkpt lat="48.895068" lon="1.870760">
        <ele>46.398540</ele>
        <time>2023-03-30T18:16:07.298Z</time>
      </trkpt>
      <trkpt lat="48.895081" lon="1.870900">
        <ele>46.993584</ele>
        <time>2023-03-30T18:16:10.342Z</time>
      </trkpt>
      <trkpt lat="48.895124" lon="1.870993">
        <ele>47.472079</ele>
        <time>2023-03-30T18:16:12.987Z</time>
      </trkpt>
      <trkpt lat="48.895214" lon="1.871013">
        <ele>48.054323</ele>
        <time>2023-03-30T18:16:16.143Z</time>
      </trkpt>
      <trkpt lat="48.895658" lon="1.870691">
        <ele>51.203078</ele>
        <time>2023-03-30T18:16:35.430Z</time>
      </trkpt>
      <trkpt lat="48.895750" lon="1.870672">
        <ele>51.797412</ele>
        <time>2023-03-30T18:16:39.333Z</time>
      </trkpt>
      <trkpt lat="48.895881" lon="1.870758">
        <ele>52.710767</ele>
        <time>2023-03-30T18:16:45.610Z</time>
      </trkpt>
      <trkpt lat="48.896016" lon="1.870957">
        <ele>53.914182</ele>
        <time>2023-03-30T18:16:53.987Z</time>
      </trkpt>
      <trkpt lat="48.896499" lon="1.871658">
        <ele>59.369185</ele>
        <time>2023-03-30T18:17:26.798Z</time>
      </trkpt>
      <trkpt lat="48.896617" lon="1.871849">
        <ele>61.227572</ele>
        <time>2023-03-30T18:17:36.190Z</time>
      </trkpt>
      <trkpt lat="48.896676" lon="1.871995">
        <ele>62.442689</ele>
        <time>2023-03-30T18:17:42.211Z</time>
      </trkpt>
      <trkpt lat="48.896840" lon="1.872809">
        <ele>68.479133</ele>
        <time>2023-03-30T18:18:15.613Z</time>
      </trkpt>
      <trkpt lat="48.896987" lon="1.873401">
        <ele>72.966003</ele>
        <time>2023-03-30T18:18:42.342Z</time>
      </trkpt>
      <trkpt lat="48.897180" lon="1.873919">
        <ele>77.154376</ele>
        <time>2023-03-30T18:19:07.575Z</time>
      </trkpt>
      <trkpt lat="48.897206" lon="1.873980">
        <ele>77.656924</ele>
        <time>2023-03-30T18:19:10.482Z</time>
      </trkpt>
      <trkpt lat="48.897395" lon="1.874187">
        <ele>80.105827</ele>
        <time>2023-03-30T18:19:25.171Z</time>
      </trkpt>
      <trkpt lat="48.898372" lon="1.874813">
        <ele>91.253242</ele>
        <time>2023-03-30T18:20:26.099Z</time>
      </trkpt>
      <trkpt lat="48.898899" lon="1.875270">
        <ele>96.261139</ele>
        <time>2023-03-30T18:20:56.980Z</time>
      </trkpt>
      <trkpt lat="48.899122" lon="1.875603">
        <ele>97.971138</ele>
        <time>2023-03-30T18:21:10.730Z</time>
      </trkpt>
      <trkpt lat="48.899790" lon="1.877096">
        <ele>104.467832</ele>
        <time>2023-03-30T18:21:49.111Z</time>
      </trkpt>
      <trkpt lat="48.900153" lon="1.877785">
        <ele>105.629401</ele>
        <time>2023-03-30T18:22:02.201Z</time>
      </trkpt>
      <trkpt lat="48.900439" lon="1.878152">
        <ele>106.314546</ele>
        <time>2023-03-30T18:22:10.027Z</time>
      </trkpt>
      <trkpt lat="48.901496" lon="1.879376">
        <ele>108.464537</ele>
        <time>2023-03-30T18:22:36.542Z</time>
      </trkpt>
      <trkpt lat="48.904667" lon="1.882984">
        <ele>112.287312</ele>
        <time>2023-03-30T18:23:53.992Z</time>
      </trkpt>
      <trkpt lat="48.903950" lon="1.884636">
        <ele>111.682958</ele>
        <time>2023-03-30T18:24:17.595Z</time>
      </trkpt>
      <trkpt lat="48.903411" lon="1.886052">
        <ele>109.413122</ele>
        <time>2023-03-30T18:24:34.047Z</time>
      </trkpt>
      <trkpt lat="48.903130" lon="1.886507">
        <ele>108.551383</ele>
        <time>2023-03-30T18:24:40.111Z</time>
      </trkpt>
      <trkpt lat="48.902581" lon="1.887717">
        <ele>106.941494</ele>
        <time>2023-03-30T18:24:54.692Z</time>
      </trkpt>
      <trkpt lat="48.902478" lon="1.888116">
        <ele>106.472114</ele>
        <time>2023-03-30T18:24:59.206Z</time>
      </trkpt>
      <trkpt lat="48.902419" lon="1.889251">
        <ele>105.954159</ele>
        <time>2023-03-30T18:25:13.223Z</time>
      </trkpt>
      <trkpt lat="48.902344" lon="1.889590">
        <ele>106.387462</ele>
        <time>2023-03-30T18:25:19.052Z</time>
      </trkpt>
      <trkpt lat="48.902174" lon="1.890046">
        <ele>107.022520</ele>
        <time>2023-03-30T18:25:28.732Z</time>
      </trkpt>
      <trkpt lat="48.902063" lon="1.890251">
        <ele>107.344261</ele>
        <time>2023-03-30T18:25:34.159Z</time>
      </trkpt>
      <trkpt lat="48.900883" lon="1.891573">
        <ele>109.263587</ele>
        <time>2023-03-30T18:26:20.202Z</time>
      </trkpt>
      <trkpt lat="48.897722" lon="1.895995">
        <ele>111.129786</ele>
        <time>2023-03-30T18:27:49.107Z</time>
      </trkpt>
      <trkpt lat="48.895807" lon="1.899605">
        <ele>111.168869</ele>
        <time>2023-03-30T18:28:49.978Z</time>
      </trkpt>
      <trkpt lat="48.894853" lon="1.901402">
        <ele>111.350638</ele>
        <time>2023-03-30T18:29:22.619Z</time>
      </trkpt>
      <trkpt lat="48.894593" lon="1.901919">
        <ele>111.375884</ele>
        <time>2023-03-30T18:29:31.450Z</time>
      </trkpt>
      <trkpt lat="48.894235" lon="1.902803">
        <ele>111.416154</ele>
        <time>2023-03-30T18:29:44.970Z</time>
      </trkpt>
      <trkpt lat="48.894057" lon="1.903288">
        <ele>111.480435</ele>
        <time>2023-03-30T18:29:51.912Z</time>
      </trkpt>
      <trkpt lat="48.893137" lon="1.905188">
        <ele>111.950441</ele>
        <time>2023-03-30T18:30:24.239Z</time>
      </trkpt>
      <trkpt lat="48.893057" lon="1.905342">
        <ele>112.069077</ele>
        <time>2023-03-30T18:30:27.353Z</time>
      </trkpt>
      <trkpt lat="48.891909" lon="1.907587">
        <ele>115.384538</ele>
        <time>2023-03-30T18:31:18.755Z</time>
      </trkpt>
      <trkpt lat="48.891231" lon="1.908853">
        <ele>118.367879</ele>
        <time>2023-03-30T18:31:52.273Z</time>
      </trkpt>
      <trkpt lat="48.890721" lon="1.909410">
        <ele>120.121638</ele>
        <time>2023-03-30T18:32:12.951Z</time>
      </trkpt>
      <trkpt lat="48.889372" lon="1.910522">
        <ele>124.828692</ele>
        <time>2023-03-30T18:33:04.097Z</time>
      </trkpt>
      <trkpt lat="48.889305" lon="1.910577">
        <ele>125.062255</ele>
        <time>2023-03-30T18:33:06.540Z</time>
      </trkpt>
      <trkpt lat="48.888718" lon="1.911146">
        <ele>126.271460</ele>
        <time>2023-03-30T18:33:23.622Z</time>
      </trkpt>
      <trkpt lat="48.888200" lon="1.911915">
        <ele>127.248256</ele>
        <time>2023-03-30T18:33:38.586Z</time>
      </trkpt>
      <trkpt lat="48.887425" lon="1.913294">
        <ele>127.241286</ele>
        <time>2023-03-30T18:33:55.917Z</time>
      </trkpt>
      <trkpt lat="48.886875" lon="1.914055">
        <ele>126.415271</ele>
        <time>2023-03-30T18:34:04.463Z</time>
      </trkpt>
      <trkpt lat="48.886705" lon="1.914054">
        <ele>126.226420</ele>
        <time>2023-03-30T18:34:07.167Z</time>
      </trkpt>
      <trkpt lat="48.886679" lon="1.914108">
        <ele>126.177531</ele>
        <time>2023-03-30T18:34:07.652Z</time>
      </trkpt>
      <trkpt lat="48.886631" lon="1.914210">
        <ele>126.085909</ele>
        <time>2023-03-30T18:34:08.562Z</time>
      </trkpt>
      <trkpt lat="48.886625" lon="1.914369">
        <ele>125.966677</ele>
        <time>2023-03-30T18:34:09.718Z</time>
      </trkpt>
      <trkpt lat="48.886621" lon="1.914462">
        <ele>125.842998</ele>
        <time>2023-03-30T18:34:10.391Z</time>
      </trkpt>
      <trkpt lat="48.886617" lon="1.914605">
        <ele>125.653059</ele>
        <time>2023-03-30T18:34:11.413Z</time>
      </trkpt>
      <trkpt lat="48.886610" lon="1.915734">
        <ele>124.154755</ele>
        <time>2023-03-30T18:34:19.419Z</time>
      </trkpt>
      <trkpt lat="48.886457" lon="1.920157">
        <ele>118.890834</ele>
        <time>2023-03-30T18:34:51.548Z</time>
      </trkpt>
      <trkpt lat="48.886450" lon="1.920376">
        <ele>118.826388</ele>
        <time>2023-03-30T18:34:53.327Z</time>
      </trkpt>
      <trkpt lat="48.886430" lon="1.920990">
        <ele>118.645697</ele>
        <time>2023-03-30T18:34:58.374Z</time>
      </trkpt>
      <trkpt lat="48.886362" lon="1.923157">
        <ele>118.500536</ele>
        <time>2023-03-30T18:35:20.328Z</time>
      </trkpt>
      <trkpt lat="48.886359" lon="1.923298">
        <ele>118.575499</ele>
        <time>2023-03-30T18:35:21.946Z</time>
      </trkpt>
      <trkpt lat="48.886297" lon="1.925091">
        <ele>119.529580</ele>
        <time>2023-03-30T18:35:44.054Z</time>
      </trkpt>
      <trkpt lat="48.886261" lon="1.925406">
        <ele>119.782761</ele>
        <time>2023-03-30T18:35:48.116Z</time>
      </trkpt>
      <trkpt lat="48.886401" lon="1.925534">
        <ele>120.090602</ele>
        <time>2023-03-30T18:35:51.466Z</time>
      </trkpt>
      <trkpt lat="48.887172" lon="1.926625">
        <ele>122.075246</ele>
        <time>2023-03-30T18:36:14.548Z</time>
      </trkpt>
      <trkpt lat="48.887361" lon="1.926808">
        <ele>122.497481</ele>
        <time>2023-03-30T18:36:19.694Z</time>
      </trkpt>
      <trkpt lat="48.889631" lon="1.928711">
        <ele>129.728511</ele>
        <time>2023-03-30T18:37:40.104Z</time>
      </trkpt>
      <trkpt lat="48.890047" lon="1.929050">
        <ele>131.471337</ele>
        <time>2023-03-30T18:37:55.952Z</time>
      </trkpt>
      <trkpt lat="48.890278" lon="1.929287">
        <ele>132.500323</ele>
        <time>2023-03-30T18:38:05.628Z</time>
      </trkpt>
      <trkpt lat="48.891635" lon="1.930773">
        <ele>140.869534</ele>
        <time>2023-03-30T18:39:13.283Z</time>
      </trkpt>
      <trkpt lat="48.891766" lon="1.930980">
        <ele>141.931763</ele>
        <time>2023-03-30T18:39:22.071Z</time>
      </trkpt>
      <trkpt lat="48.891968" lon="1.931447">
        <ele>143.998460</ele>
        <time>2023-03-30T18:39:39.022Z</time>
      </trkpt>
      <trkpt lat="48.892201" lon="1.932323">
        <ele>147.844713</ele>
        <time>2023-03-30T18:40:08.333Z</time>
      </trkpt>
      <trkpt lat="48.892292" lon="1.932492">
        <ele>148.750496</ele>
        <time>2023-03-30T18:40:15.207Z</time>
      </trkpt>
      <trkpt lat="48.892557" lon="1.932572">
        <ele>150.454379</ele>
        <time>2023-03-30T18:40:28.187Z</time>
      </trkpt>
      <trkpt lat="48.892695" lon="1.932497">
        <ele>151.378599</ele>
        <time>2023-03-30T18:40:34.998Z</time>
      </trkpt>
      <trkpt lat="48.892801" lon="1.932405">
        <ele>152.148295</ele>
        <time>2023-03-30T18:40:40.589Z</time>
      </trkpt>
      <trkpt lat="48.893011" lon="1.932052">
        <ele>154.122249</ele>
        <time>2023-03-30T18:40:54.372Z</time>
      </trkpt>
      <trkpt lat="48.893202" lon="1.931871">
        <ele>155.541503</ele>
        <time>2023-03-30T18:41:03.846Z</time>
      </trkpt>
      <trkpt lat="48.893443" lon="1.931971">
        <ele>157.015737</ele>
        <time>2023-03-30T18:41:14.169Z</time>
      </trkpt>
      <trkpt lat="48.893659" lon="1.932234">
        <ele>158.611257</ele>
        <time>2023-03-30T18:41:25.583Z</time>
      </trkpt>
      <trkpt lat="48.893720" lon="1.932438">
        <ele>159.460912</ele>
        <time>2023-03-30T18:41:31.706Z</time>
      </trkpt>
      <trkpt lat="48.893756" lon="1.932690">
        <ele>160.438605</ele>
        <time>2023-03-30T18:41:38.866Z</time>
      </trkpt>
      <trkpt lat="48.893570" lon="1.933503">
        <ele>163.702197</ele>
        <time>2023-03-30T18:42:03.266Z</time>
      </trkpt>
      <trkpt lat="48.893648" lon="1.933891">
        <ele>165.240442</ele>
        <time>2023-03-30T18:42:15.138Z</time>
      </trkpt>
      <trkpt lat="48.893891" lon="1.934467">
        <ele>168.070141</ele>
        <time>2023-03-30T18:42:35.689Z</time>
      </trkpt>
      <trkpt lat="48.894048" lon="1.934935">
        <ele>170.368422</ele>
        <time>2023-03-30T18:42:52.112Z</time>
      </trkpt>
      <trkpt lat="48.894047" lon="1.935368">
        <ele>172.262507</ele>
        <time>2023-03-30T18:43:05.655Z</time>
      </trkpt>
      <trkpt lat="48.893994" lon="1.935821">
        <ele>174.275200</ele>
        <time>2023-03-30T18:43:20.268Z</time>
      </trkpt>
      <trkpt lat="48.894006" lon="1.935978">
        <ele>174.966592</ele>
        <time>2023-03-30T18:43:25.268Z</time>
      </trkpt>
      <trkpt lat="48.894043" lon="1.936110">
        <ele>175.594289</ele>
        <time>2023-03-30T18:43:30.016Z</time>
      </trkpt>
      <trkpt lat="48.894185" lon="1.936324">
        <ele>176.924289</ele>
        <time>2023-03-30T18:43:39.405Z</time>
      </trkpt>
      <trkpt lat="48.894315" lon="1.936422">
        <ele>177.889635</ele>
        <time>2023-03-30T18:43:46.438Z</time>
      </trkpt>
      <trkpt lat="48.894697" lon="1.936518">
        <ele>179.751710</ele>
        <time>2023-03-30T18:44:04.292Z</time>
      </trkpt>
      <trkpt lat="48.894878" lon="1.936510">
        <ele>180.563983</ele>
        <time>2023-03-30T18:44:12.011Z</time>
      </trkpt>
      <trkpt lat="48.895179" lon="1.936470">
        <ele>181.919354</ele>
        <time>2023-03-30T18:44:24.585Z</time>
      </trkpt>
      <trkpt lat="48.895527" lon="1.936524">
        <ele>183.488517</ele>
        <time>2023-03-30T18:44:36.081Z</time>
      </trkpt>
      <trkpt lat="48.896000" lon="1.936973">
        <ele>185.989586</ele>
        <time>2023-03-30T18:44:51.625Z</time>
      </trkpt>
      <trkpt lat="48.896130" lon="1.937129">
        <ele>186.378161</ele>
        <time>2023-03-30T18:44:55.335Z</time>
      </trkpt>
      <trkpt lat="48.896247" lon="1.937317">
        <ele>186.447993</ele>
        <time>2023-03-30T18:44:58.950Z</time>
      </trkpt>
      <trkpt lat="48.896702" lon="1.938291">
        <ele>186.770305</ele>
        <time>2023-03-30T18:45:13.436Z</time>
      </trkpt>
      <trkpt lat="48.896997" lon="1.938777">
        <ele>186.948738</ele>
        <time>2023-03-30T18:45:19.374Z</time>
      </trkpt>
      <trkpt lat="48.897101" lon="1.939212">
        <ele>187.073596</ele>
        <time>2023-03-30T18:45:23.008Z</time>
      </trkpt>
      <trkpt lat="48.897163" lon="1.940039">
        <ele>185.620778</ele>
        <time>2023-03-30T18:45:29.010Z</time>
      </trkpt>
      <trkpt lat="48.897295" lon="1.940440">
        <ele>184.809308</ele>
        <time>2023-03-30T18:45:32.065Z</time>
      </trkpt>
      <trkpt lat="48.897423" lon="1.940674">
        <ele>184.258493</ele>
        <time>2023-03-30T18:45:34.087Z</time>
      </trkpt>
      <trkpt lat="48.897474" lon="1.940730">
        <ele>184.085369</ele>
        <time>2023-03-30T18:45:34.722Z</time>
      </trkpt>
      <trkpt lat="48.898785" lon="1.942079">
        <ele>179.834494</ele>
        <time>2023-03-30T18:45:50.540Z</time>
      </trkpt>
      <trkpt lat="48.899033" lon="1.942274">
        <ele>179.099885</ele>
        <time>2023-03-30T18:45:53.468Z</time>
      </trkpt>
      <trkpt lat="48.899230" lon="1.942362">
        <ele>178.559613</ele>
        <time>2023-03-30T18:45:55.692Z</time>
      </trkpt>
      <trkpt lat="48.899322" lon="1.942370">
        <ele>178.317130</ele>
        <time>2023-03-30T18:45:56.702Z</time>
      </trkpt>
      <trkpt lat="48.899985" lon="1.942316">
        <ele>177.272294</ele>
        <time>2023-03-30T18:46:04.457Z</time>
      </trkpt>
      <trkpt lat="48.900165" lon="1.942346">
        <ele>177.200435</ele>
        <time>2023-03-30T18:46:06.767Z</time>
      </trkpt>
      <trkpt lat="48.900393" lon="1.942489">
        <ele>177.102568</ele>
        <time>2023-03-30T18:46:10.149Z</time>
      </trkpt>
      <trkpt lat="48.900642" lon="1.942692">
        <ele>176.990459</ele>
        <time>2023-03-30T18:46:14.265Z</time>
      </trkpt>
      <trkpt lat="48.900680" lon="1.942751">
        <ele>176.968912</ele>
        <time>2023-03-30T18:46:15.086Z</time>
      </trkpt>
      <trkpt lat="48.900764" lon="1.943044">
        <ele>176.885525</ele>
        <time>2023-03-30T18:46:18.312Z</time>
      </trkpt>
      <trkpt lat="48.901114" lon="1.943728">
        <ele>176.689514</ele>
        <time>2023-03-30T18:46:26.955Z</time>
      </trkpt>
      <trkpt lat="48.900508" lon="1.944829">
        <ele>176.788099</ele>
        <time>2023-03-30T18:46:41.383Z</time>
      </trkpt>
      <trkpt lat="48.899982" lon="1.945784">
        <ele>176.875486</ele>
        <time>2023-03-30T18:46:53.798Z</time>
      </trkpt>
      <trkpt lat="48.899253" lon="1.947108">
        <ele>177.080186</ele>
        <time>2023-03-30T18:47:10.620Z</time>
      </trkpt>
      <trkpt lat="48.898394" lon="1.948686">
        <ele>177.577158</ele>
        <time>2023-03-30T18:47:33.190Z</time>
      </trkpt>
      <trkpt lat="48.897735" lon="1.949897">
        <ele>178.134489</ele>
        <time>2023-03-30T18:47:51.069Z</time>
      </trkpt>
      <trkpt lat="48.897079" lon="1.951103">
        <ele>178.335312</ele>
        <time>2023-03-30T18:48:08.233Z</time>
      </trkpt>
      <trkpt lat="48.896707" lon="1.951779">
        <ele>178.436673</ele>
        <time>2023-03-30T18:48:16.852Z</time>
      </trkpt>
      <trkpt lat="48.896283" lon="1.952549">
        <ele>178.333843</ele>
        <time>2023-03-30T18:48:25.925Z</time>
      </trkpt>
      <trkpt lat="48.895554" lon="1.953890">
        <ele>177.929280</ele>
        <time>2023-03-30T18:48:41.224Z</time>
      </trkpt>
      <trkpt lat="48.895369" lon="1.954322">
        <ele>177.812096</ele>
        <time>2023-03-30T18:48:45.825Z</time>
      </trkpt>
      <trkpt lat="48.894472" lon="1.956974">
        <ele>177.138170</ele>
        <time>2023-03-30T18:49:13.013Z</time>
      </trkpt>
      <trkpt lat="48.892943" lon="1.961598">
        <ele>175.530915</ele>
        <time>2023-03-30T18:49:58.013Z</time>
      </trkpt>
      <trkpt lat="48.892882" lon="1.961915">
        <ele>175.442872</ele>
        <time>2023-03-30T18:50:01.013Z</time>
      </trkpt>
      <trkpt lat="48.892811" lon="1.961984">
        <ele>175.408712</ele>
        <time>2023-03-30T18:50:02.154Z</time>
      </trkpt>
      <trkpt lat="48.891117" lon="1.967083">
        <ele>173.871698</ele>
        <time>2023-03-30T18:50:52.783Z</time>
      </trkpt>
      <trkpt lat="48.890917" lon="1.967682">
        <ele>173.673258</ele>
        <time>2023-03-30T18:50:58.716Z</time>
      </trkpt>
      <trkpt lat="48.890263" lon="1.969645">
        <ele>173.037734</ele>
        <time>2023-03-30T18:51:18.119Z</time>
      </trkpt>
      <trkpt lat="48.888997" lon="1.973432">
        <ele>172.045131</ele>
        <time>2023-03-30T18:51:55.673Z</time>
      </trkpt>
      <trkpt lat="48.885794" lon="1.983017">
        <ele>173.009774</ele>
        <time>2023-03-30T18:53:43.442Z</time>
      </trkpt>
      <trkpt lat="48.885694" lon="1.983209">
        <ele>173.070156</ele>
        <time>2023-03-30T18:53:46.501Z</time>
      </trkpt>
      <trkpt lat="48.885574" lon="1.983330">
        <ele>173.124136</ele>
        <time>2023-03-30T18:53:49.253Z</time>
      </trkpt>
      <trkpt lat="48.885374" lon="1.983394">
        <ele>173.388780</ele>
        <time>2023-03-30T18:53:53.446Z</time>
      </trkpt>
      <trkpt lat="48.885294" lon="1.983381">
        <ele>173.496114</ele>
        <time>2023-03-30T18:53:55.093Z</time>
      </trkpt>
      <trkpt lat="48.885150" lon="1.983289">
        <ele>173.704486</ele>
        <time>2023-03-30T18:53:58.457Z</time>
      </trkpt>
      <trkpt lat="48.885031" lon="1.983125">
        <ele>173.918733</ele>
        <time>2023-03-30T18:54:01.777Z</time>
      </trkpt>
      <trkpt lat="48.884901" lon="1.982796">
        <ele>174.255449</ele>
        <time>2023-03-30T18:54:07.367Z</time>
      </trkpt>
      <trkpt lat="48.884767" lon="1.982385">
        <ele>174.657886</ele>
        <time>2023-03-30T18:54:13.802Z</time>
      </trkpt>
      <trkpt lat="48.884702" lon="1.982282">
        <ele>174.783122</ele>
        <time>2023-03-30T18:54:15.844Z</time>
      </trkpt>
      <trkpt lat="48.884670" lon="1.982232">
        <ele>174.844330</ele>
        <time>2023-03-30T18:54:16.734Z</time>
      </trkpt>
      <trkpt lat="48.884587" lon="1.982185">
        <ele>174.962486</ele>
        <time>2023-03-30T18:54:18.508Z</time>
      </trkpt>
      <trkpt lat="48.884508" lon="1.982188">
        <ele>175.067912</ele>
        <time>2023-03-30T18:54:20.195Z</time>
      </trkpt>
      <trkpt lat="48.884351" lon="1.982289">
        <ele>175.295332</ele>
        <time>2023-03-30T18:54:23.723Z</time>
      </trkpt>
      <trkpt lat="48.884246" lon="1.982318">
        <ele>175.437702</ele>
        <time>2023-03-30T18:54:25.711Z</time>
      </trkpt>
      <trkpt lat="48.884208" lon="1.982298">
        <ele>175.491347</ele>
        <time>2023-03-30T18:54:26.542Z</time>
      </trkpt>
      <trkpt lat="48.884172" lon="1.982295">
        <ele>175.528252</ele>
        <time>2023-03-30T18:54:27.256Z</time>
      </trkpt>
      <trkpt lat="48.884099" lon="1.982331">
        <ele>175.539992</ele>
        <time>2023-03-30T18:54:28.787Z</time>
      </trkpt>
      <trkpt lat="48.884045" lon="1.982430">
        <ele>175.552932</ele>
        <time>2023-03-30T18:54:30.388Z</time>
      </trkpt>
      <trkpt lat="48.884033" lon="1.982529">
        <ele>175.563059</ele>
        <time>2023-03-30T18:54:31.494Z</time>
      </trkpt>
      <trkpt lat="48.883999" lon="1.982622">
        <ele>175.573764</ele>
        <time>2023-03-30T18:54:32.709Z</time>
      </trkpt>
      <trkpt lat="48.883942" lon="1.982676">
        <ele>175.584037</ele>
        <time>2023-03-30T18:54:33.932Z</time>
      </trkpt>
      <trkpt lat="48.883815" lon="1.982659">
        <ele>175.603541</ele>
        <time>2023-03-30T18:54:36.215Z</time>
      </trkpt>
      <trkpt lat="48.883635" lon="1.982518">
        <ele>175.634517</ele>
        <time>2023-03-30T18:54:39.372Z</time>
      </trkpt>
      <trkpt lat="48.882976" lon="1.984679">
        <ele>175.735347</ele>
        <time>2023-03-30T18:55:01.096Z</time>
      </trkpt>
      <trkpt lat="48.882919" lon="1.984867">
        <ele>175.716128</ele>
        <time>2023-03-30T18:55:02.809Z</time>
      </trkpt>
      <trkpt lat="48.882518" lon="1.984741">
        <ele>175.658321</ele>
        <time>2023-03-30T18:55:08.226Z</time>
      </trkpt>
      <trkpt lat="48.882411" lon="1.984696">
        <ele>175.642648</ele>
        <time>2023-03-30T18:55:09.813Z</time>
      </trkpt>
      <trkpt lat="48.882160" lon="1.984667">
        <ele>175.607111</ele>
        <time>2023-03-30T18:55:13.373Z</time>
      </trkpt>
      <trkpt lat="48.882063" lon="1.984727">
        <ele>175.592327</ele>
        <time>2023-03-30T18:55:14.999Z</time>
      </trkpt>
      <trkpt lat="48.881895" lon="1.984918">
        <ele>175.562714</ele>
        <time>2023-03-30T18:55:18.180Z</time>
      </trkpt>
      <trkpt lat="48.881715" lon="1.985063">
        <ele>175.611056</ele>
        <time>2023-03-30T18:55:21.593Z</time>
      </trkpt>
      <trkpt lat="48.881191" lon="1.985210">
        <ele>175.947627</ele>
        <time>2023-03-30T18:55:31.019Z</time>
      </trkpt>
      <trkpt lat="48.881067" lon="1.985280">
        <ele>176.031174</ele>
        <time>2023-03-30T18:55:33.480Z</time>
      </trkpt>
      <trkpt lat="48.880947" lon="1.985405">
        <ele>176.123051</ele>
        <time>2023-03-30T18:55:36.130Z</time>
      </trkpt>
      <trkpt lat="48.880761" lon="1.985837">
        <ele>176.337539</ele>
        <time>2023-03-30T18:55:42.304Z</time>
      </trkpt>
      <trkpt lat="48.880598" lon="1.986201">
        <ele>176.520468</ele>
        <time>2023-03-30T18:55:47.463Z</time>
      </trkpt>
      <trkpt lat="48.880348" lon="1.985861">
        <ele>176.658285</ele>
        <time>2023-03-30T18:55:55.040Z</time>
      </trkpt>
      <trkpt lat="48.880256" lon="1.985777">
        <ele>176.621881</ele>
        <time>2023-03-30T18:55:57.433Z</time>
      </trkpt>
      <trkpt lat="48.879917" lon="1.985568">
        <ele>176.497787</ele>
        <time>2023-03-30T18:56:05.523Z</time>
      </trkpt>
      <trkpt lat="48.879379" lon="1.985344">
        <ele>176.308560</ele>
        <time>2023-03-30T18:56:16.762Z</time>
      </trkpt>
      <trkpt lat="48.878940" lon="1.985221">
        <ele>176.157128</ele>
        <time>2023-03-30T18:56:24.647Z</time>
      </trkpt>
      <trkpt lat="48.878735" lon="1.985211">
        <ele>176.087549</ele>
        <time>2023-03-30T18:56:27.999Z</time>
      </trkpt>
      <trkpt lat="48.878556" lon="1.985136">
        <ele>175.894237</ele>
        <time>2023-03-30T18:56:30.110Z</time>
      </trkpt>
      <trkpt lat="48.878342" lon="1.984965">
        <ele>175.595990</ele>
        <time>2023-03-30T18:56:32.778Z</time>
      </trkpt>
      <trkpt lat="48.878265" lon="1.984844">
        <ele>175.459381</ele>
        <time>2023-03-30T18:56:34.002Z</time>
      </trkpt>
      <trkpt lat="48.878228" lon="1.984786">
        <ele>175.393821</ele>
        <time>2023-03-30T18:56:34.573Z</time>
      </trkpt>
      <trkpt lat="48.878135" lon="1.984473">
        <ele>175.115151</ele>
        <time>2023-03-30T18:56:37.066Z</time>
      </trkpt>
      <trkpt lat="48.878014" lon="1.983978">
        <ele>174.686683</ele>
        <time>2023-03-30T18:56:41.062Z</time>
      </trkpt>
      <trkpt lat="48.878013" lon="1.983969">
        <ele>174.679278</ele>
        <time>2023-03-30T18:56:41.130Z</time>
      </trkpt>
      <trkpt lat="48.877966" lon="1.983672">
        <ele>174.431426</ele>
        <time>2023-03-30T18:56:43.582Z</time>
      </trkpt>
      <trkpt lat="48.877902" lon="1.983025">
        <ele>173.900571</ele>
        <time>2023-03-30T18:56:49.119Z</time>
      </trkpt>
      <trkpt lat="48.877886" lon="1.982333">
        <ele>174.013236</ele>
        <time>2023-03-30T18:56:55.359Z</time>
      </trkpt>
      <trkpt lat="48.877714" lon="1.981200">
        <ele>174.302405</ele>
        <time>2023-03-30T18:57:08.127Z</time>
      </trkpt>
      <trkpt lat="48.877664" lon="1.980908">
        <ele>174.377442</ele>
        <time>2023-03-30T18:57:11.703Z</time>
      </trkpt>
      <trkpt lat="48.877635" lon="1.980741">
        <ele>174.420396</ele>
        <time>2023-03-30T18:57:13.773Z</time>
      </trkpt>
      <trkpt lat="48.877429" lon="1.979547">
        <ele>173.884901</ele>
        <time>2023-03-30T18:57:29.480Z</time>
      </trkpt>
      <trkpt lat="48.877463" lon="1.979389">
        <ele>173.745069</ele>
        <time>2023-03-30T18:57:31.394Z</time>
      </trkpt>
      <trkpt lat="48.877359" lon="1.979252">
        <ele>173.569082</ele>
        <time>2023-03-30T18:57:33.453Z</time>
      </trkpt>
      <trkpt lat="48.877288" lon="1.979159">
        <ele>173.449229</ele>
        <time>2023-03-30T18:57:34.718Z</time>
      </trkpt>
      <trkpt lat="48.877128" lon="1.978911">
        <ele>173.157014</ele>
        <time>2023-03-30T18:57:37.514Z</time>
      </trkpt>
      <trkpt lat="48.876423" lon="1.977892">
        <ele>170.906150</ele>
        <time>2023-03-30T18:57:47.351Z</time>
      </trkpt>
      <trkpt lat="48.876307" lon="1.977852">
        <ele>170.278040</ele>
        <time>2023-03-30T18:57:48.426Z</time>
      </trkpt>
      <trkpt lat="48.875551" lon="1.977961">
        <ele>166.267970</ele>
        <time>2023-03-30T18:57:55.413Z</time>
      </trkpt>
      <trkpt lat="48.875400" lon="1.978011">
        <ele>165.451903</ele>
        <time>2023-03-30T18:57:56.838Z</time>
      </trkpt>
      <trkpt lat="48.874930" lon="1.978361">
        <ele>162.700163</ele>
        <time>2023-03-30T18:58:01.681Z</time>
      </trkpt>
      <trkpt lat="48.874842" lon="1.978354">
        <ele>162.348686</ele>
        <time>2023-03-30T18:58:02.474Z</time>
      </trkpt>
      <trkpt lat="48.874755" lon="1.978269">
        <ele>161.936210</ele>
        <time>2023-03-30T18:58:03.439Z</time>
      </trkpt>
      <trkpt lat="48.874722" lon="1.978132">
        <ele>161.553469</ele>
        <time>2023-03-30T18:58:04.330Z</time>
      </trkpt>
      <trkpt lat="48.874716" lon="1.977644">
        <ele>160.273057</ele>
        <time>2023-03-30T18:58:07.345Z</time>
      </trkpt>
      <trkpt lat="48.874680" lon="1.977419">
        <ele>159.665592</ele>
        <time>2023-03-30T18:58:08.790Z</time>
      </trkpt>
      <trkpt lat="48.874617" lon="1.977224">
        <ele>159.095656</ele>
        <time>2023-03-30T18:58:10.182Z</time>
      </trkpt>
      <trkpt lat="48.874348" lon="1.976635">
        <ele>157.214517</ele>
        <time>2023-03-30T18:58:14.973Z</time>
      </trkpt>
      <trkpt lat="48.874260" lon="1.976329">
        <ele>156.338388</ele>
        <time>2023-03-30T18:58:17.286Z</time>
      </trkpt>
      <trkpt lat="48.874260" lon="1.976320">
        <ele>156.314778</ele>
        <time>2023-03-30T18:58:17.351Z</time>
      </trkpt>
      <trkpt lat="48.874240" lon="1.976043">
        <ele>155.583742</ele>
        <time>2023-03-30T18:58:19.451Z</time>
      </trkpt>
      <trkpt lat="48.874257" lon="1.975873">
        <ele>155.146766</ele>
        <time>2023-03-30T18:58:20.708Z</time>
      </trkpt>
      <trkpt lat="48.874408" lon="1.975379">
        <ele>153.764634</ele>
        <time>2023-03-30T18:58:24.457Z</time>
      </trkpt>
      <trkpt lat="48.874436" lon="1.975299">
        <ele>153.534707</ele>
        <time>2023-03-30T18:58:25.057Z</time>
      </trkpt>
      <trkpt lat="48.874511" lon="1.975111">
        <ele>152.976824</ele>
        <time>2023-03-30T18:58:26.518Z</time>
      </trkpt>
      <trkpt lat="48.874666" lon="1.974661">
        <ele>151.687987</ele>
        <time>2023-03-30T18:58:29.798Z</time>
      </trkpt>
      <trkpt lat="48.874668" lon="1.974502">
        <ele>151.284498</ele>
        <time>2023-03-30T18:58:30.804Z</time>
      </trkpt>
      <trkpt lat="48.874646" lon="1.974418">
        <ele>151.055097</ele>
        <time>2023-03-30T18:58:31.374Z</time>
      </trkpt>
      <trkpt lat="48.874617" lon="1.974333">
        <ele>150.812145</ele>
        <time>2023-03-30T18:58:31.970Z</time>
      </trkpt>
      <trkpt lat="48.874522" lon="1.974202">
        <ele>150.317396</ele>
        <time>2023-03-30T18:58:33.199Z</time>
      </trkpt>
      <trkpt lat="48.874494" lon="1.974167">
        <ele>150.177564</ele>
        <time>2023-03-30T18:58:33.545Z</time>
      </trkpt>
      <trkpt lat="48.874262" lon="1.973898">
        <ele>149.052044</ele>
        <time>2023-03-30T18:58:36.309Z</time>
      </trkpt>
      <trkpt lat="48.874109" lon="1.973745">
        <ele>148.278060</ele>
        <time>2023-03-30T18:58:38.036Z</time>
      </trkpt>
      <trkpt lat="48.874022" lon="1.973666">
        <ele>147.792358</ele>
        <time>2023-03-30T18:58:38.981Z</time>
      </trkpt>
      <trkpt lat="48.873368" lon="1.973062">
        <ele>144.124718</ele>
        <time>2023-03-30T18:58:46.084Z</time>
      </trkpt>
      <trkpt lat="48.873119" lon="1.972828">
        <ele>142.721671</ele>
        <time>2023-03-30T18:58:48.830Z</time>
      </trkpt>
      <trkpt lat="48.873043" lon="1.972758">
        <ele>142.295771</ele>
        <time>2023-03-30T18:58:49.682Z</time>
      </trkpt>
      <trkpt lat="48.872846" lon="1.972625">
        <ele>141.262637</ele>
        <time>2023-03-30T18:58:51.755Z</time>
      </trkpt>
      <trkpt lat="48.872697" lon="1.972581">
        <ele>140.535128</ele>
        <time>2023-03-30T18:58:53.233Z</time>
      </trkpt>
      <trkpt lat="48.872525" lon="1.972535">
        <ele>139.839862</ele>
        <time>2023-03-30T18:58:54.956Z</time>
      </trkpt>
      <trkpt lat="48.872375" lon="1.972491">
        <ele>139.447891</ele>
        <time>2023-03-30T18:58:56.483Z</time>
      </trkpt>
      <trkpt lat="48.871819" lon="1.972303">
        <ele>137.986440</ele>
        <time>2023-03-30T18:59:02.422Z</time>
      </trkpt>
      <trkpt lat="48.871196" lon="1.972071">
        <ele>136.340680</ele>
        <time>2023-03-30T18:59:09.544Z</time>
      </trkpt>
      <trkpt lat="48.871054" lon="1.971991">
        <ele>135.952122</ele>
        <time>2023-03-30T18:59:11.189Z</time>
      </trkpt>
      <trkpt lat="48.871067" lon="1.971910">
        <ele>135.811409</ele>
        <time>2023-03-30T18:59:12.068Z</time>
      </trkpt>
      <trkpt lat="48.871049" lon="1.971681">
        <ele>135.422180</ele>
        <time>2023-03-30T18:59:14.481Z</time>
      </trkpt>
      <trkpt lat="48.870858" lon="1.970454">
        <ele>133.170769</ele>
        <time>2023-03-30T18:59:27.215Z</time>
      </trkpt>
      <trkpt lat="48.870835" lon="1.970264">
        <ele>132.825506</ele>
        <time>2023-03-30T18:59:29.123Z</time>
      </trkpt>
      <trkpt lat="48.870690" lon="1.969047">
        <ele>130.615135</ele>
        <time>2023-03-30T18:59:41.129Z</time>
      </trkpt>
      <trkpt lat="48.870370" lon="1.967459">
        <ele>127.076509</ele>
        <time>2023-03-30T18:59:56.724Z</time>
      </trkpt>
      <trkpt lat="48.870145" lon="1.966637">
        <ele>125.167342</ele>
        <time>2023-03-30T19:00:05.256Z</time>
      </trkpt>
      <trkpt lat="48.869902" lon="1.965981">
        <ele>124.046122</ele>
        <time>2023-03-30T19:00:12.685Z</time>
      </trkpt>
      <trkpt lat="48.869776" lon="1.965651">
        <ele>123.599939</ele>
        <time>2023-03-30T19:00:15.341Z</time>
      </trkpt>
      <trkpt lat="48.869391" lon="1.964506">
        <ele>122.096241</ele>
        <time>2023-03-30T19:00:24.763Z</time>
      </trkpt>
      <trkpt lat="48.869141" lon="1.963556">
        <ele>121.590985</ele>
        <time>2023-03-30T19:00:33.500Z</time>
      </trkpt>
      <trkpt lat="48.869069" lon="1.963183">
        <ele>121.717907</ele>
        <time>2023-03-30T19:00:37.451Z</time>
      </trkpt>
      <trkpt lat="48.869067" lon="1.963093">
        <ele>121.747310</ele>
        <time>2023-03-30T19:00:38.378Z</time>
      </trkpt>
      <trkpt lat="48.869017" lon="1.962967">
        <ele>121.795356</ele>
        <time>2023-03-30T19:00:39.971Z</time>
      </trkpt>
      <trkpt lat="48.868926" lon="1.962914">
        <ele>121.843727</ele>
        <time>2023-03-30T19:00:41.584Z</time>
      </trkpt>
      <trkpt lat="48.868906" lon="1.962915">
        <ele>121.853660</ele>
        <time>2023-03-30T19:00:41.927Z</time>
      </trkpt>
      <trkpt lat="48.868817" lon="1.962975">
        <ele>121.901986</ele>
        <time>2023-03-30T19:00:43.630Z</time>
      </trkpt>
      <trkpt lat="48.868775" lon="1.963076">
        <ele>121.941001</ele>
        <time>2023-03-30T19:00:45.000Z</time>
      </trkpt>
      <trkpt lat="48.868781" lon="1.963233">
        <ele>121.992349</ele>
        <time>2023-03-30T19:00:46.846Z</time>
      </trkpt>
      <trkpt lat="48.868769" lon="1.963374">
        <ele>122.038770</ele>
        <time>2023-03-30T19:00:48.566Z</time>
      </trkpt>
      <trkpt lat="48.868710" lon="1.963590">
        <ele>122.115135</ele>
        <time>2023-03-30T19:00:51.477Z</time>
      </trkpt>
      <trkpt lat="48.868341" lon="1.964394">
        <ele>122.588129</ele>
        <time>2023-03-30T19:01:04.938Z</time>
      </trkpt>
      <trkpt lat="48.868190" lon="1.964700">
        <ele>122.899664</ele>
        <time>2023-03-30T19:01:10.411Z</time>
      </trkpt>
      <trkpt lat="48.867706" lon="1.965685">
        <ele>123.900957</ele>
        <time>2023-03-30T19:01:27.275Z</time>
      </trkpt>
      <trkpt lat="48.867700" lon="1.965850">
        <ele>124.035540</ele>
        <time>2023-03-30T19:01:29.324Z</time>
      </trkpt>
      <trkpt lat="48.867741" lon="1.966006">
        <ele>124.172353</ele>
        <time>2023-03-30T19:01:31.362Z</time>
      </trkpt>
      <trkpt lat="48.867814" lon="1.966097">
        <ele>124.289233</ele>
        <time>2023-03-30T19:01:33.126Z</time>
      </trkpt>
      <trkpt lat="48.867980" lon="1.966230">
        <ele>124.521551</ele>
        <time>2023-03-30T19:01:36.424Z</time>
      </trkpt>
      <trkpt lat="48.868062" lon="1.966349">
        <ele>124.511317</ele>
        <time>2023-03-30T19:01:38.333Z</time>
      </trkpt>
      <trkpt lat="48.868094" lon="1.966466">
        <ele>124.462357</ele>
        <time>2023-03-30T19:01:39.767Z</time>
      </trkpt>
      <trkpt lat="48.868091" lon="1.966588">
        <ele>124.415183</ele>
        <time>2023-03-30T19:01:41.058Z</time>
      </trkpt>
      <trkpt lat="48.868044" lon="1.966730">
        <ele>124.353760</ele>
        <time>2023-03-30T19:01:42.732Z</time>
      </trkpt>
      <trkpt lat="48.867725" lon="1.967132">
        <ele>124.110364</ele>
        <time>2023-03-30T19:01:48.644Z</time>
      </trkpt>
      <trkpt lat="48.866755" lon="1.967998">
        <ele>123.380315</ele>
        <time>2023-03-30T19:02:01.963Z</time>
      </trkpt>
      <trkpt lat="48.865594" lon="1.968906">
        <ele>121.623171</ele>
        <time>2023-03-30T19:02:17.311Z</time>
      </trkpt>
      <trkpt lat="48.865161" lon="1.969230">
        <ele>120.965324</ele>
        <time>2023-03-30T19:02:22.874Z</time>
      </trkpt>
      <trkpt lat="48.864638" lon="1.969498">
        <ele>120.165682</ele>
        <time>2023-03-30T19:02:29.265Z</time>
      </trkpt>
      <trkpt lat="48.864008" lon="1.969682">
        <ele>119.236212</ele>
        <time>2023-03-30T19:02:36.872Z</time>
      </trkpt>
      <trkpt lat="48.863737" lon="1.969720">
        <ele>118.841908</ele>
        <time>2023-03-30T19:02:40.036Z</time>
      </trkpt>
      <trkpt lat="48.863272" lon="1.969695">
        <ele>118.045931</ele>
        <time>2023-03-30T19:02:45.254Z</time>
      </trkpt>
      <trkpt lat="48.860813" lon="1.968986">
        <ele>112.308801</ele>
        <time>2023-03-30T19:03:12.504Z</time>
      </trkpt>
      <trkpt lat="48.860657" lon="1.968945">
        <ele>111.871530</ele>
        <time>2023-03-30T19:03:14.170Z</time>
      </trkpt>
      <trkpt lat="48.860298" lon="1.968803">
        <ele>110.846936</ele>
        <time>2023-03-30T19:03:18.011Z</time>
      </trkpt>
      <trkpt lat="48.859750" lon="1.968428">
        <ele>108.554909</ele>
        <time>2023-03-30T19:03:23.930Z</time>
      </trkpt>
      <trkpt lat="48.859135" lon="1.967756">
        <ele>104.539905</ele>
        <time>2023-03-30T19:03:31.043Z</time>
      </trkpt>
      <trkpt lat="48.858981" lon="1.967628">
        <ele>103.609487</ele>
        <time>2023-03-30T19:03:32.653Z</time>
      </trkpt>
      <trkpt lat="48.858573" lon="1.967400">
        <ele>101.305189</ele>
        <time>2023-03-30T19:03:36.619Z</time>
      </trkpt>
      <trkpt lat="48.857618" lon="1.967147">
        <ele>95.588462</ele>
        <time>2023-03-30T19:03:45.453Z</time>
      </trkpt>
      <trkpt lat="48.857259" lon="1.967106">
        <ele>93.415773</ele>
        <time>2023-03-30T19:03:48.736Z</time>
      </trkpt>
      <trkpt lat="48.856983" lon="1.967153">
        <ele>91.739679</ele>
        <time>2023-03-30T19:03:51.291Z</time>
      </trkpt>
      <trkpt lat="48.856245" lon="1.967525">
        <ele>87.575006</ele>
        <time>2023-03-30T19:03:58.516Z</time>
      </trkpt>
      <trkpt lat="48.855839" lon="1.967703">
        <ele>85.576849</ele>
        <time>2023-03-30T19:04:02.475Z</time>
      </trkpt>
      <trkpt lat="48.855610" lon="1.967723">
        <ele>84.492177</ele>
        <time>2023-03-30T19:04:04.658Z</time>
      </trkpt>
      <trkpt lat="48.855436" lon="1.967685">
        <ele>83.660922</ele>
        <time>2023-03-30T19:04:06.337Z</time>
      </trkpt>
      <trkpt lat="48.855310" lon="1.967628">
        <ele>83.039265</ele>
        <time>2023-03-30T19:04:07.618Z</time>
      </trkpt>
      <trkpt lat="48.855304" lon="1.967633">
        <ele>83.006907</ele>
        <time>2023-03-30T19:04:07.681Z</time>
      </trkpt>
      <trkpt lat="48.855199" lon="1.967775">
        <ele>82.342280</ele>
        <time>2023-03-30T19:04:09.040Z</time>
      </trkpt>
      <trkpt lat="48.855088" lon="1.967922">
        <ele>81.646077</ele>
        <time>2023-03-30T19:04:10.470Z</time>
      </trkpt>
      <trkpt lat="48.854959" lon="1.968347">
        <ele>80.635626</ele>
        <time>2023-03-30T19:04:13.498Z</time>
      </trkpt>
      <trkpt lat="48.854913" lon="1.968632">
        <ele>80.237654</ele>
        <time>2023-03-30T19:04:15.426Z</time>
      </trkpt>
      <trkpt lat="48.854913" lon="1.968820">
        <ele>79.982691</ele>
        <time>2023-03-30T19:04:16.682Z</time>
      </trkpt>
      <trkpt lat="48.854916" lon="1.969172">
        <ele>79.505273</ele>
        <time>2023-03-30T19:04:19.103Z</time>
      </trkpt>
      <trkpt lat="48.855064" lon="1.970340">
        <ele>77.892143</ele>
        <time>2023-03-30T19:04:27.978Z</time>
      </trkpt>
      <trkpt lat="48.855310" lon="1.971303">
        <ele>77.323132</ele>
        <time>2023-03-30T19:04:37.423Z</time>
      </trkpt>
      <trkpt lat="48.855360" lon="1.971850">
        <ele>77.371392</ele>
        <time>2023-03-30T19:04:43.001Z</time>
      </trkpt>
      <trkpt lat="48.855368" lon="1.973327">
        <ele>77.500467</ele>
        <time>2023-03-30T19:04:58.731Z</time>
      </trkpt>
      <trkpt lat="48.855378" lon="1.974016">
        <ele>77.919733</ele>
        <time>2023-03-30T19:05:06.562Z</time>
      </trkpt>
      <trkpt lat="48.855451" lon="1.974613">
        <ele>78.361321</ele>
        <time>2023-03-30T19:05:13.785Z</time>
      </trkpt>
      <trkpt lat="48.855613" lon="1.975839">
        <ele>79.270701</ele>
        <time>2023-03-30T19:05:30.524Z</time>
      </trkpt>
      <trkpt lat="48.855921" lon="1.977660">
        <ele>80.924891</ele>
        <time>2023-03-30T19:05:57.119Z</time>
      </trkpt>
      <trkpt lat="48.855967" lon="1.978105">
        <ele>81.335021</ele>
        <time>2023-03-30T19:06:03.141Z</time>
      </trkpt>
      <trkpt lat="48.855893" lon="1.978462">
        <ele>81.675808</ele>
        <time>2023-03-30T19:06:07.982Z</time>
      </trkpt>
      <trkpt lat="48.855445" lon="1.979759">
        <ele>82.206125</ele>
        <time>2023-03-30T19:06:25.262Z</time>
      </trkpt>
      <trkpt lat="48.854854" lon="1.981142">
        <ele>82.505799</ele>
        <time>2023-03-30T19:06:41.093Z</time>
      </trkpt>
      <trkpt lat="48.854533" lon="1.981901">
        <ele>82.183925</ele>
        <time>2023-03-30T19:06:49.227Z</time>
      </trkpt>
      <trkpt lat="48.853893" lon="1.983642">
        <ele>81.516321</ele>
        <time>2023-03-30T19:07:05.992Z</time>
      </trkpt>
      <trkpt lat="48.853812" lon="1.983789">
        <ele>81.490011</ele>
        <time>2023-03-30T19:07:07.611Z</time>
      </trkpt>
      <trkpt lat="48.853725" lon="1.983753">
        <ele>81.471207</ele>
        <time>2023-03-30T19:07:08.776Z</time>
      </trkpt>
      <trkpt lat="48.853671" lon="1.983829">
        <ele>81.455859</ele>
        <time>2023-03-30T19:07:09.715Z</time>
      </trkpt>
      <trkpt lat="48.853667" lon="1.983905">
        <ele>81.445398</ele>
        <time>2023-03-30T19:07:10.402Z</time>
      </trkpt>
      <trkpt lat="48.853676" lon="1.983937">
        <ele>81.440622</ele>
        <time>2023-03-30T19:07:10.720Z</time>
      </trkpt>
      <trkpt lat="48.853689" lon="1.983964">
        <ele>81.436031</ele>
        <time>2023-03-30T19:07:11.025Z</time>
      </trkpt>
      <trkpt lat="48.853440" lon="1.984125">
        <ele>81.379601</ele>
        <time>2023-03-30T19:07:14.572Z</time>
      </trkpt>
      <trkpt lat="48.852025" lon="1.984895">
        <ele>81.329688</ele>
        <time>2023-03-30T19:07:37.328Z</time>
      </trkpt>
      <trkpt lat="48.851957" lon="1.984936">
        <ele>81.353668</ele>
        <time>2023-03-30T19:07:38.385Z</time>
      </trkpt>
      <trkpt lat="48.851272" lon="1.985206">
        <ele>81.585635</ele>
        <time>2023-03-30T19:07:49.282Z</time>
      </trkpt>
      <trkpt lat="48.851098" lon="1.985254">
        <ele>81.643603</ele>
        <time>2023-03-30T19:07:52.629Z</time>
      </trkpt>
      <trkpt lat="48.851183" lon="1.985744">
        <ele>81.752903</ele>
        <time>2023-03-30T19:07:58.862Z</time>
      </trkpt>
      <trkpt lat="48.851270" lon="1.986188">
        <ele>81.805163</ele>
        <time>2023-03-30T19:08:04.309Z</time>
      </trkpt>
      <trkpt lat="48.851334" lon="1.986408">
        <ele>81.830908</ele>
        <time>2023-03-30T19:08:06.994Z</time>
      </trkpt>
      <trkpt lat="48.851436" lon="1.986640">
        <ele>81.860772</ele>
        <time>2023-03-30T19:08:10.143Z</time>
      </trkpt>
      <trkpt lat="48.851619" lon="1.987149">
        <ele>81.922853</ele>
        <time>2023-03-30T19:08:16.003Z</time>
      </trkpt>
      <trkpt lat="48.851552" lon="1.987572">
        <ele>81.969420</ele>
        <time>2023-03-30T19:08:19.881Z</time>
      </trkpt>
      <trkpt lat="48.851515" lon="1.987700">
        <ele>81.984384</ele>
        <time>2023-03-30T19:08:21.098Z</time>
      </trkpt>
      <trkpt lat="48.851362" lon="1.987898">
        <ele>82.017071</ele>
        <time>2023-03-30T19:08:23.836Z</time>
      </trkpt>
      <trkpt lat="48.851063" lon="1.988186">
        <ele>82.025159</ele>
        <time>2023-03-30T19:08:29.097Z</time>
      </trkpt>
      <trkpt lat="48.850958" lon="1.988368">
        <ele>81.997360</ele>
        <time>2023-03-30T19:08:31.756Z</time>
      </trkpt>
      <trkpt lat="48.850374" lon="1.989890">
        <ele>81.795007</ele>
        <time>2023-03-30T19:08:47.572Z</time>
      </trkpt>
      <trkpt lat="48.850258" lon="1.990195">
        <ele>81.754547</ele>
        <time>2023-03-30T19:08:50.716Z</time>
      </trkpt>
      <trkpt lat="48.850050" lon="1.990803">
        <ele>81.980352</ele>
        <time>2023-03-30T19:08:57.470Z</time>
      </trkpt>
      <trkpt lat="48.849712" lon="1.991586">
        <ele>82.409717</ele>
        <time>2023-03-30T19:09:08.728Z</time>
      </trkpt>
      <trkpt lat="48.849373" lon="1.992148">
        <ele>82.759280</ele>
        <time>2023-03-30T19:09:18.655Z</time>
      </trkpt>
      <trkpt lat="48.848900" lon="1.992689">
        <ele>82.996818</ele>
        <time>2023-03-30T19:09:29.579Z</time>
      </trkpt>
      <trkpt lat="48.848863" lon="1.992632">
        <ele>82.998175</ele>
        <time>2023-03-30T19:09:30.616Z</time>
      </trkpt>
      <trkpt lat="48.848811" lon="1.992630">
        <ele>82.999515</ele>
        <time>2023-03-30T19:09:31.620Z</time>
      </trkpt>
      <trkpt lat="48.848768" lon="1.992706">
        <ele>83.001214</ele>
        <time>2023-03-30T19:09:32.750Z</time>
      </trkpt>
      <trkpt lat="48.848786" lon="1.992802">
        <ele>83.002906</ele>
        <time>2023-03-30T19:09:33.700Z</time>
      </trkpt>
      <trkpt lat="48.847724" lon="1.993831">
        <ele>83.035352</ele>
        <time>2023-03-30T19:09:51.642Z</time>
      </trkpt>
      <trkpt lat="48.847239" lon="1.994373">
        <ele>82.827855</ele>
        <time>2023-03-30T19:09:58.797Z</time>
      </trkpt>
      <trkpt lat="48.846289" lon="1.995344">
        <ele>82.401398</ele>
        <time>2023-03-30T19:10:14.231Z</time>
      </trkpt>
      <trkpt lat="48.846015" lon="1.995812">
        <ele>82.672631</ele>
        <time>2023-03-30T19:10:21.289Z</time>
      </trkpt>
      <trkpt lat="48.844850" lon="1.998172">
        <ele>84.238762</ele>
        <time>2023-03-30T19:10:59.629Z</time>
      </trkpt>
      <trkpt lat="48.844719" lon="1.998535">
        <ele>84.323305</ele>
        <time>2023-03-30T19:11:04.401Z</time>
      </trkpt>
      <trkpt lat="48.843907" lon="2.001580">
        <ele>84.438522</ele>
        <time>2023-03-30T19:11:34.708Z</time>
      </trkpt>
      <trkpt lat="48.843476" lon="2.003605">
        <ele>84.200002</ele>
        <time>2023-03-30T19:11:54.698Z</time>
      </trkpt>
      <trkpt lat="48.843141" lon="2.004660">
        <ele>84.088703</ele>
        <time>2023-03-30T19:12:05.983Z</time>
      </trkpt>
      <trkpt lat="48.841606" lon="2.007421">
        <ele>83.855862</ele>
        <time>2023-03-30T19:12:39.621Z</time>
      </trkpt>
      <trkpt lat="48.840642" lon="2.008677">
        <ele>84.190938</ele>
        <time>2023-03-30T19:12:59.734Z</time>
      </trkpt>
      <trkpt lat="48.840485" lon="2.008750">
        <ele>84.234261</ele>
        <time>2023-03-30T19:13:02.417Z</time>
      </trkpt>
      <trkpt lat="48.840452" lon="2.008738">
        <ele>84.243214</ele>
        <time>2023-03-30T19:13:03.001Z</time>
      </trkpt>
      <trkpt lat="48.840345" lon="2.008793">
        <ele>84.304657</ele>
        <time>2023-03-30T19:13:04.996Z</time>
      </trkpt>
      <trkpt lat="48.840307" lon="2.008892">
        <ele>84.394892</ele>
        <time>2023-03-30T19:13:06.376Z</time>
      </trkpt>
      <trkpt lat="48.840303" lon="2.008958">
        <ele>84.447077</ele>
        <time>2023-03-30T19:13:07.130Z</time>
      </trkpt>
      <trkpt lat="48.840210" lon="2.009214">
        <ele>84.677306</ele>
        <time>2023-03-30T19:13:10.537Z</time>
      </trkpt>
      <trkpt lat="48.839269" lon="2.010181">
        <ele>86.036324</ele>
        <time>2023-03-30T19:13:32.950Z</time>
      </trkpt>
      <trkpt lat="48.838812" lon="2.010695">
        <ele>86.818586</ele>
        <time>2023-03-30T19:13:45.498Z</time>
      </trkpt>
      <trkpt lat="48.838399" lon="2.011573">
        <ele>87.956651</ele>
        <time>2023-03-30T19:14:01.381Z</time>
      </trkpt>
      <trkpt lat="48.838301" lon="2.011737">
        <ele>88.190247</ele>
        <time>2023-03-30T19:14:04.635Z</time>
      </trkpt>
      <trkpt lat="48.838166" lon="2.011866">
        <ele>88.445773</ele>
        <time>2023-03-30T19:14:08.207Z</time>
      </trkpt>
      <trkpt lat="48.837852" lon="2.011908">
        <ele>88.950823</ele>
        <time>2023-03-30T19:14:14.994Z</time>
      </trkpt>
      <trkpt lat="48.836554" lon="2.011604">
        <ele>90.040008</ele>
        <time>2023-03-30T19:14:38.927Z</time>
      </trkpt>
      <trkpt lat="48.836400" lon="2.011564">
        <ele>90.145748</ele>
        <time>2023-03-30T19:14:41.373Z</time>
      </trkpt>
      <trkpt lat="48.835774" lon="2.011406">
        <ele>90.579359</ele>
        <time>2023-03-30T19:14:51.106Z</time>
      </trkpt>
      <trkpt lat="48.835677" lon="2.011422">
        <ele>90.649915</ele>
        <time>2023-03-30T19:14:52.515Z</time>
      </trkpt>
      <trkpt lat="48.835542" lon="2.011519">
        <ele>90.757904</ele>
        <time>2023-03-30T19:14:54.872Z</time>
      </trkpt>
      <trkpt lat="48.835174" lon="2.011863">
        <ele>91.070352</ele>
        <time>2023-03-30T19:15:02.427Z</time>
      </trkpt>
      <trkpt lat="48.834832" lon="2.012307">
        <ele>91.395658</ele>
        <time>2023-03-30T19:15:10.902Z</time>
      </trkpt>
      <trkpt lat="48.834741" lon="2.012446">
        <ele>91.488972</ele>
        <time>2023-03-30T19:15:13.319Z</time>
      </trkpt>
      <trkpt lat="48.834540" lon="2.012802">
        <ele>91.712220</ele>
        <time>2023-03-30T19:15:19.214Z</time>
      </trkpt>
      <trkpt lat="48.834460" lon="2.012918">
        <ele>91.792190</ele>
        <time>2023-03-30T19:15:21.457Z</time>
      </trkpt>
      <trkpt lat="48.834272" lon="2.013119">
        <ele>91.840207</ele>
        <time>2023-03-30T19:15:25.789Z</time>
      </trkpt>
      <trkpt lat="48.833925" lon="2.013294">
        <ele>91.885744</ele>
        <time>2023-03-30T19:15:32.295Z</time>
      </trkpt>
      <trkpt lat="48.833856" lon="2.013389">
        <ele>91.897342</ele>
        <time>2023-03-30T19:15:33.772Z</time>
      </trkpt>
      <trkpt lat="48.833846" lon="2.013442">
        <ele>91.901862</ele>
        <time>2023-03-30T19:15:34.373Z</time>
      </trkpt>
      <trkpt lat="48.833978" lon="2.013928">
        <ele>91.944964</ele>
        <time>2023-03-30T19:15:39.316Z</time>
      </trkpt>
      <trkpt lat="48.834006" lon="2.014114">
        <ele>91.960606</ele>
        <time>2023-03-30T19:15:41.045Z</time>
      </trkpt>
      <trkpt lat="48.833902" lon="2.014452">
        <ele>91.991194</ele>
        <time>2023-03-30T19:15:44.506Z</time>
      </trkpt>
      <trkpt lat="48.833892" lon="2.014480">
        <ele>91.993806</ele>
        <time>2023-03-30T19:15:44.845Z</time>
      </trkpt>
      <trkpt lat="48.833692" lon="2.015077">
        <ele>91.971025</ele>
        <time>2023-03-30T19:15:50.938Z</time>
      </trkpt>
      <trkpt lat="48.833667" lon="2.015331">
        <ele>91.812293</ele>
        <time>2023-03-30T19:15:53.160Z</time>
      </trkpt>
      <trkpt lat="48.833684" lon="2.015405">
        <ele>91.763851</ele>
        <time>2023-03-30T19:15:53.824Z</time>
      </trkpt>
      <trkpt lat="48.833914" lon="2.015678">
        <ele>91.489793</ele>
        <time>2023-03-30T19:15:57.358Z</time>
      </trkpt>
      <trkpt lat="48.834267" lon="2.015951">
        <ele>91.117869</ele>
        <time>2023-03-30T19:16:02.163Z</time>
      </trkpt>
      <trkpt lat="48.834330" lon="2.015986">
        <ele>91.054884</ele>
        <time>2023-03-30T19:16:03.005Z</time>
      </trkpt>
      <trkpt lat="48.834440" lon="2.016069">
        <ele>90.939562</ele>
        <time>2023-03-30T19:16:04.477Z</time>
      </trkpt>
      <trkpt lat="48.834511" lon="2.016181">
        <ele>90.843458</ele>
        <time>2023-03-30T19:16:05.663Z</time>
      </trkpt>
      <trkpt lat="48.834545" lon="2.016313">
        <ele>90.755852</ele>
        <time>2023-03-30T19:16:06.771Z</time>
      </trkpt>
      <trkpt lat="48.834471" lon="2.016953">
        <ele>90.354244</ele>
        <time>2023-03-30T19:16:11.861Z</time>
      </trkpt>
      <trkpt lat="48.834431" lon="2.017475">
        <ele>90.013637</ele>
        <time>2023-03-30T19:16:16.131Z</time>
      </trkpt>
      <trkpt lat="48.834442" lon="2.017682">
        <ele>89.878971</ele>
        <time>2023-03-30T19:16:17.804Z</time>
      </trkpt>
      <trkpt lat="48.834520" lon="2.018040">
        <ele>89.634440</ele>
        <time>2023-03-30T19:16:20.917Z</time>
      </trkpt>
      <trkpt lat="48.834494" lon="2.018311">
        <ele>89.456854</ele>
        <time>2023-03-30T19:16:23.105Z</time>
      </trkpt>
      <trkpt lat="48.834450" lon="2.018361">
        <ele>89.402724</ele>
        <time>2023-03-30T19:16:23.863Z</time>
      </trkpt>
      <trkpt lat="48.834453" lon="2.018485">
        <ele>89.322262</ele>
        <time>2023-03-30T19:16:24.865Z</time>
      </trkpt>
      <trkpt lat="48.834493" lon="2.018529">
        <ele>89.273612</ele>
        <time>2023-03-30T19:16:25.430Z</time>
      </trkpt>
      <trkpt lat="48.834541" lon="2.018525">
        <ele>89.226254</ele>
        <time>2023-03-30T19:16:25.990Z</time>
      </trkpt>
      <trkpt lat="48.834718" lon="2.018659">
        <ele>89.031435</ele>
        <time>2023-03-30T19:16:28.435Z</time>
      </trkpt>
      <trkpt lat="48.834809" lon="2.018910">
        <ele>88.845620</ele>
        <time>2023-03-30T19:16:30.614Z</time>
      </trkpt>
      <trkpt lat="48.835094" lon="2.019518">
        <ele>88.579963</ele>
        <time>2023-03-30T19:16:36.740Z</time>
      </trkpt>
      <trkpt lat="48.835251" lon="2.019851">
        <ele>88.581272</ele>
        <time>2023-03-30T19:16:40.157Z</time>
      </trkpt>
      <trkpt lat="48.835536" lon="2.020699">
        <ele>88.584313</ele>
        <time>2023-03-30T19:16:49.418Z</time>
      </trkpt>
      <trkpt lat="48.835681" lon="2.021249">
        <ele>88.586205</ele>
        <time>2023-03-30T19:16:56.041Z</time>
      </trkpt>
      <trkpt lat="48.835798" lon="2.021983">
        <ele>88.676543</ele>
        <time>2023-03-30T19:17:04.998Z</time>
      </trkpt>
      <trkpt lat="48.835910" lon="2.022953">
        <ele>88.957257</ele>
        <time>2023-03-30T19:17:17.146Z</time>
      </trkpt>
      <trkpt lat="48.835923" lon="2.023479">
        <ele>89.107296</ele>
        <time>2023-03-30T19:17:23.191Z</time>
      </trkpt>
      <trkpt lat="48.835817" lon="2.025123">
        <ele>88.997328</ele>
        <time>2023-03-30T19:17:38.229Z</time>
      </trkpt>
      <trkpt lat="48.835851" lon="2.026342">
        <ele>88.390579</ele>
        <time>2023-03-30T19:17:47.988Z</time>
      </trkpt>
      <trkpt lat="48.835897" lon="2.026809">
        <ele>88.155755</ele>
        <time>2023-03-30T19:17:51.799Z</time>
      </trkpt>
      <trkpt lat="48.836145" lon="2.028283">
        <ele>87.699061</ele>
        <time>2023-03-30T19:18:04.609Z</time>
      </trkpt>
      <trkpt lat="48.836310" lon="2.029538">
        <ele>87.376311</ele>
        <time>2023-03-30T19:18:16.852Z</time>
      </trkpt>
      <trkpt lat="48.836704" lon="2.031050">
        <ele>87.404908</ele>
        <time>2023-03-30T19:18:32.681Z</time>
      </trkpt>
      <trkpt lat="48.836739" lon="2.031436">
        <ele>87.429015</ele>
        <time>2023-03-30T19:18:36.500Z</time>
      </trkpt>
      <trkpt lat="48.836748" lon="2.031827">
        <ele>87.453222</ele>
        <time>2023-03-30T19:18:40.278Z</time>
      </trkpt>
      <trkpt lat="48.836885" lon="2.034339">
        <ele>88.401217</ele>
        <time>2023-03-30T19:19:07.555Z</time>
      </trkpt>
      <trkpt lat="48.836979" lon="2.036803">
        <ele>90.297974</ele>
        <time>2023-03-30T19:19:40.794Z</time>
      </trkpt>
      <trkpt lat="48.836974" lon="2.037565">
        <ele>90.987929</ele>
        <time>2023-03-30T19:19:50.991Z</time>
      </trkpt>
      <trkpt lat="48.836894" lon="2.037953">
        <ele>91.376055</ele>
        <time>2023-03-30T19:19:56.130Z</time>
      </trkpt>
      <trkpt lat="48.835948" lon="2.040578">
        <ele>94.827300</ele>
        <time>2023-03-30T19:20:37.650Z</time>
      </trkpt>
      <trkpt lat="48.835932" lon="2.040638">
        <ele>94.945122</ele>
        <time>2023-03-30T19:20:38.871Z</time>
      </trkpt>
      <trkpt lat="48.835635" lon="2.041393">
        <ele>96.545937</ele>
        <time>2023-03-30T19:20:54.625Z</time>
      </trkpt>
      <trkpt lat="48.835078" lon="2.042592">
        <ele>99.248158</ele>
        <time>2023-03-30T19:21:20.107Z</time>
      </trkpt>
      <trkpt lat="48.835005" lon="2.042740">
        <ele>99.660261</ele>
        <time>2023-03-30T19:21:23.631Z</time>
      </trkpt>
      <trkpt lat="48.834925" lon="2.042909">
        <ele>100.124112</ele>
        <time>2023-03-30T19:21:27.679Z</time>
      </trkpt>
      <trkpt lat="48.834666" lon="2.043467">
        <ele>101.645548</ele>
        <time>2023-03-30T19:21:40.689Z</time>
      </trkpt>
      <trkpt lat="48.834544" lon="2.043822">
        <ele>102.537920</ele>
        <time>2023-03-30T19:21:48.471Z</time>
      </trkpt>
      <trkpt lat="48.834515" lon="2.043974">
        <ele>102.890564</ele>
        <time>2023-03-30T19:21:51.274Z</time>
      </trkpt>
      <trkpt lat="48.834521" lon="2.044144">
        <ele>103.269920</ele>
        <time>2023-03-30T19:21:54.506Z</time>
      </trkpt>
      <trkpt lat="48.834528" lon="2.044330">
        <ele>103.685062</ele>
        <time>2023-03-30T19:21:58.048Z</time>
      </trkpt>
      <trkpt lat="48.834533" lon="2.044514">
        <ele>104.095420</ele>
        <time>2023-03-30T19:22:01.287Z</time>
      </trkpt>
      <trkpt lat="48.834649" lon="2.045053">
        <ele>105.382235</ele>
        <time>2023-03-30T19:22:11.563Z</time>
      </trkpt>
      <trkpt lat="48.834753" lon="2.045420">
        <ele>106.379856</ele>
        <time>2023-03-30T19:22:19.172Z</time>
      </trkpt>
      <trkpt lat="48.834807" lon="2.045564">
        <ele>106.793642</ele>
        <time>2023-03-30T19:22:22.397Z</time>
      </trkpt>
      <trkpt lat="48.834877" lon="2.045705">
        <ele>107.234590</ele>
        <time>2023-03-30T19:22:26.024Z</time>
      </trkpt>
      <trkpt lat="48.835829" lon="2.047117">
        <ele>112.167064</ele>
        <time>2023-03-30T19:23:07.783Z</time>
      </trkpt>
      <trkpt lat="48.836115" lon="2.047478">
        <ele>113.026540</ele>
        <time>2023-03-30T19:23:17.849Z</time>
      </trkpt>
      <trkpt lat="48.837053" lon="2.048425">
        <ele>115.629775</ele>
        <time>2023-03-30T19:23:43.979Z</time>
      </trkpt>
      <trkpt lat="48.837350" lon="2.048778">
        <ele>116.310348</ele>
        <time>2023-03-30T19:23:51.373Z</time>
      </trkpt>
      <trkpt lat="48.838634" lon="2.050694">
        <ele>118.233878</ele>
        <time>2023-03-30T19:24:25.027Z</time>
      </trkpt>
      <trkpt lat="48.838639" lon="2.050703">
        <ele>118.242313</ele>
        <time>2023-03-30T19:24:25.175Z</time>
      </trkpt>
      <trkpt lat="48.839782" lon="2.052671">
        <ele>120.193290</ele>
        <time>2023-03-30T19:24:57.714Z</time>
      </trkpt>
      <trkpt lat="48.840468" lon="2.053661">
        <ele>121.961853</ele>
        <time>2023-03-30T19:25:18.111Z</time>
      </trkpt>
      <trkpt lat="48.840814" lon="2.054126">
        <ele>122.825321</ele>
        <time>2023-03-30T19:25:28.864Z</time>
      </trkpt>
      <trkpt lat="48.840938" lon="2.054267">
        <ele>123.114833</ele>
        <time>2023-03-30T19:25:32.570Z</time>
      </trkpt>
      <trkpt lat="48.842767" lon="2.055800">
        <ele>128.445514</ele>
        <time>2023-03-30T19:26:25.922Z</time>
      </trkpt>
      <trkpt lat="48.842922" lon="2.055895">
        <ele>128.864298</ele>
        <time>2023-03-30T19:26:30.102Z</time>
      </trkpt>
      <trkpt lat="48.843346" lon="2.055976">
        <ele>129.935066</ele>
        <time>2023-03-30T19:26:40.763Z</time>
      </trkpt>
      <trkpt lat="48.843463" lon="2.056030">
        <ele>130.241455</ele>
        <time>2023-03-30T19:26:43.779Z</time>
      </trkpt>
      <trkpt lat="48.843551" lon="2.056300">
        <ele>130.738301</ele>
        <time>2023-03-30T19:26:48.668Z</time>
      </trkpt>
      <trkpt lat="48.843535" lon="2.056492">
        <ele>131.057442</ele>
        <time>2023-03-30T19:26:51.805Z</time>
      </trkpt>
      <trkpt lat="48.843546" lon="2.056570">
        <ele>131.188986</ele>
        <time>2023-03-30T19:26:53.102Z</time>
      </trkpt>
      <trkpt lat="48.843623" lon="2.056806">
        <ele>131.623356</ele>
        <time>2023-03-30T19:26:57.391Z</time>
      </trkpt>
      <trkpt lat="48.843656" lon="2.056849">
        <ele>131.732283</ele>
        <time>2023-03-30T19:26:58.457Z</time>
      </trkpt>
      <trkpt lat="48.843780" lon="2.056943">
        <ele>132.079506</ele>
        <time>2023-03-30T19:27:01.743Z</time>
      </trkpt>
      <trkpt lat="48.843915" lon="2.056959">
        <ele>132.418799</ele>
        <time>2023-03-30T19:27:05.164Z</time>
      </trkpt>
      <trkpt lat="48.844000" lon="2.056923">
        <ele>132.640679</ele>
        <time>2023-03-30T19:27:07.347Z</time>
      </trkpt>
      <trkpt lat="48.844150" lon="2.056955">
        <ele>133.025845</ele>
        <time>2023-03-30T19:27:11.004Z</time>
      </trkpt>
      <trkpt lat="48.844375" lon="2.057135">
        <ele>133.672432</ele>
        <time>2023-03-30T19:27:17.311Z</time>
      </trkpt>
      <trkpt lat="48.844600" lon="2.057444">
        <ele>134.443619</ele>
        <time>2023-03-30T19:27:24.736Z</time>
      </trkpt>
      <trkpt lat="48.844871" lon="2.057806">
        <ele>135.361140</ele>
        <time>2023-03-30T19:27:33.572Z</time>
      </trkpt>
      <trkpt lat="48.844845" lon="2.057953">
        <ele>135.615865</ele>
        <time>2023-03-30T19:27:35.971Z</time>
      </trkpt>
      <trkpt lat="48.844881" lon="2.058041">
        <ele>135.789261</ele>
        <time>2023-03-30T19:27:37.668Z</time>
      </trkpt>
      <trkpt lat="48.844954" lon="2.058075">
        <ele>135.983412</ele>
        <time>2023-03-30T19:27:39.626Z</time>
      </trkpt>
      <trkpt lat="48.845022" lon="2.058026">
        <ele>136.174781</ele>
        <time>2023-03-30T19:27:41.561Z</time>
      </trkpt>
      <trkpt lat="48.845214" lon="2.058282">
        <ele>136.824310</ele>
        <time>2023-03-30T19:27:47.893Z</time>
      </trkpt>
      <trkpt lat="48.845553" lon="2.058747">
        <ele>138.268375</ele>
        <time>2023-03-30T19:27:59.917Z</time>
      </trkpt>
      <trkpt lat="48.846052" lon="2.059328">
        <ele>140.415087</ele>
        <time>2023-03-30T19:28:17.692Z</time>
      </trkpt>
      <trkpt lat="48.846426" lon="2.059695">
        <ele>141.935383</ele>
        <time>2023-03-30T19:28:31.002Z</time>
      </trkpt>
      <trkpt lat="48.846528" lon="2.059756">
        <ele>142.309700</ele>
        <time>2023-03-30T19:28:34.252Z</time>
      </trkpt>
      <trkpt lat="48.847329" lon="2.060867">
        <ele>146.832645</ele>
        <time>2023-03-30T19:29:06.644Z</time>
      </trkpt>
      <trkpt lat="48.847363" lon="2.060913">
        <ele>147.035110</ele>
        <time>2023-03-30T19:29:08.120Z</time>
      </trkpt>
      <trkpt lat="48.847386" lon="2.060944">
        <ele>147.171843</ele>
        <time>2023-03-30T19:29:09.145Z</time>
      </trkpt>
      <trkpt lat="48.847657" lon="2.061427">
        <ele>149.029547</ele>
        <time>2023-03-30T19:29:23.218Z</time>
      </trkpt>
      <trkpt lat="48.847840" lon="2.061839">
        <ele>150.484349</ele>
        <time>2023-03-30T19:29:34.538Z</time>
      </trkpt>
      <trkpt lat="48.847815" lon="2.061910">
        <ele>150.720026</ele>
        <time>2023-03-30T19:29:36.461Z</time>
      </trkpt>
      <trkpt lat="48.847824" lon="2.061962">
        <ele>150.877393</ele>
        <time>2023-03-30T19:29:37.771Z</time>
      </trkpt>
      <trkpt lat="48.847853" lon="2.061999">
        <ele>151.045804</ele>
        <time>2023-03-30T19:29:39.095Z</time>
      </trkpt>
      <trkpt lat="48.847909" lon="2.061989">
        <ele>151.296580</ele>
        <time>2023-03-30T19:29:41.015Z</time>
      </trkpt>
      <trkpt lat="48.847944" lon="2.062043">
        <ele>151.590858</ele>
        <time>2023-03-30T19:29:42.932Z</time>
      </trkpt>
      <trkpt lat="48.848554" lon="2.063280">
        <ele>157.633589</ele>
        <time>2023-03-30T19:30:20.942Z</time>
      </trkpt>
      <trkpt lat="48.848675" lon="2.063587">
        <ele>159.032491</ele>
        <time>2023-03-30T19:30:30.668Z</time>
      </trkpt>
      <trkpt lat="48.848660" lon="2.063736">
        <ele>159.621729</ele>
        <time>2023-03-30T19:30:34.411Z</time>
      </trkpt>
      <trkpt lat="48.848674" lon="2.063810">
        <ele>159.922723</ele>
        <time>2023-03-30T19:30:36.454Z</time>
      </trkpt>
      <trkpt lat="48.848779" lon="2.063959">
        <ele>160.776142</ele>
        <time>2023-03-30T19:30:42.669Z</time>
      </trkpt>
      <trkpt lat="48.848861" lon="2.063973">
        <ele>161.266327</ele>
        <time>2023-03-30T19:30:46.018Z</time>
      </trkpt>
      <trkpt lat="48.848939" lon="2.063930">
        <ele>161.759232</ele>
        <time>2023-03-30T19:30:49.251Z</time>
      </trkpt>
      <trkpt lat="48.849139" lon="2.063992">
        <ele>163.031020</ele>
        <time>2023-03-30T19:30:58.060Z</time>
      </trkpt>
      <trkpt lat="48.849353" lon="2.064144">
        <ele>164.518711</ele>
        <time>2023-03-30T19:31:07.708Z</time>
      </trkpt>
      <trkpt lat="48.849697" lon="2.064277">
        <ele>166.754195</ele>
        <time>2023-03-30T19:31:22.380Z</time>
      </trkpt>
      <trkpt lat="48.849992" lon="2.064293">
        <ele>168.613250</ele>
        <time>2023-03-30T19:31:34.335Z</time>
      </trkpt>
      <trkpt lat="48.850338" lon="2.064216">
        <ele>170.815555</ele>
        <time>2023-03-30T19:31:48.242Z</time>
      </trkpt>
      <trkpt lat="48.850923" lon="2.063999">
        <ele>174.302704</ele>
        <time>2023-03-30T19:32:11.355Z</time>
      </trkpt>
      <trkpt lat="48.851346" lon="2.063991">
        <ele>176.337879</ele>
        <time>2023-03-30T19:32:26.989Z</time>
      </trkpt>
      <trkpt lat="48.851656" lon="2.064065">
        <ele>177.847548</ele>
        <time>2023-03-30T19:32:37.950Z</time>
      </trkpt>
      <trkpt lat="48.852110" lon="2.064234">
        <ele>180.096270</ele>
        <time>2023-03-30T19:32:53.400Z</time>
      </trkpt>
      <trkpt lat="48.852603" lon="2.064418">
        <ele>182.262598</ele>
        <time>2023-03-30T19:33:09.038Z</time>
      </trkpt>
      <trkpt lat="48.852978" lon="2.064429">
        <ele>183.194108</ele>
        <time>2023-03-30T19:33:19.656Z</time>
      </trkpt>
      <trkpt lat="48.854707" lon="2.064316">
        <ele>186.997648</ele>
        <time>2023-03-30T19:33:58.958Z</time>
      </trkpt>
      <trkpt lat="48.854702" lon="2.064402">
        <ele>187.072723</ele>
        <time>2023-03-30T19:34:00.082Z</time>
      </trkpt>
      <trkpt lat="48.854698" lon="2.064589">
        <ele>187.235420</ele>
        <time>2023-03-30T19:34:02.493Z</time>
      </trkpt>
      <trkpt lat="48.854663" lon="2.066313">
        <ele>188.735291</ele>
        <time>2023-03-30T19:34:24.973Z</time>
      </trkpt>
      <trkpt lat="48.854608" lon="2.067683">
        <ele>187.811999</ele>
        <time>2023-03-30T19:34:39.326Z</time>
      </trkpt>
      <trkpt lat="48.854464" lon="2.073260">
        <ele>183.033005</ele>
        <time>2023-03-30T19:35:20.769Z</time>
      </trkpt>
      <trkpt lat="48.854461" lon="2.073343">
        <ele>182.942627</ele>
        <time>2023-03-30T19:35:21.370Z</time>
      </trkpt>
      <trkpt lat="48.854424" lon="2.074234">
        <ele>181.971963</ele>
        <time>2023-03-30T19:35:27.928Z</time>
      </trkpt>
      <trkpt lat="48.854417" lon="2.074796">
        <ele>181.472077</ele>
        <time>2023-03-30T19:35:32.182Z</time>
      </trkpt>
      <trkpt lat="48.854403" lon="2.076014">
        <ele>180.817077</ele>
        <time>2023-03-30T19:35:41.877Z</time>
      </trkpt>
      <trkpt lat="48.854350" lon="2.077264">
        <ele>180.143577</ele>
        <time>2023-03-30T19:35:52.739Z</time>
      </trkpt>
      <trkpt lat="48.854254" lon="2.080587">
        <ele>179.992848</ele>
        <time>2023-03-30T19:36:25.803Z</time>
      </trkpt>
      <trkpt lat="48.854197" lon="2.082789">
        <ele>179.727538</ele>
        <time>2023-03-30T19:36:45.893Z</time>
      </trkpt>
      <trkpt lat="48.854177" lon="2.083342">
        <ele>179.777495</ele>
        <time>2023-03-30T19:36:51.083Z</time>
      </trkpt>
      <trkpt lat="48.854161" lon="2.083802">
        <ele>179.819045</ele>
        <time>2023-03-30T19:36:55.414Z</time>
      </trkpt>
      <trkpt lat="48.856880" lon="2.083791">
        <ele>180.266119</ele>
        <time>2023-03-30T19:37:39.172Z</time>
      </trkpt>
      <trkpt lat="48.860035" lon="2.083788">
        <ele>179.097643</ele>
        <time>2023-03-30T19:38:21.517Z</time>
      </trkpt>
      <trkpt lat="48.861214" lon="2.083811">
        <ele>178.283804</ele>
        <time>2023-03-30T19:38:37.384Z</time>
      </trkpt>
      <trkpt lat="48.861291" lon="2.083838">
        <ele>178.205407</ele>
        <time>2023-03-30T19:38:38.399Z</time>
      </trkpt>
      <trkpt lat="48.861599" lon="2.083994">
        <ele>177.883329</ele>
        <time>2023-03-30T19:38:42.547Z</time>
      </trkpt>
      <trkpt lat="48.861763" lon="2.084133">
        <ele>177.697043</ele>
        <time>2023-03-30T19:38:44.875Z</time>
      </trkpt>
      <trkpt lat="48.862135" lon="2.084495">
        <ele>177.258839</ele>
        <time>2023-03-30T19:38:50.228Z</time>
      </trkpt>
      <trkpt lat="48.862164" lon="2.084521">
        <ele>177.225438</ele>
        <time>2023-03-30T19:38:50.631Z</time>
      </trkpt>
      <trkpt lat="48.864833" lon="2.086977">
        <ele>170.750695</ele>
        <time>2023-03-30T19:39:24.475Z</time>
      </trkpt>
      <trkpt lat="48.864996" lon="2.087194">
        <ele>170.256436</ele>
        <time>2023-03-30T19:39:26.800Z</time>
      </trkpt>
      <trkpt lat="48.865050" lon="2.087392">
        <ele>169.934792</ele>
        <time>2023-03-30T19:39:28.342Z</time>
      </trkpt>
      <trkpt lat="48.865074" lon="2.087900">
        <ele>169.155550</ele>
        <time>2023-03-30T19:39:31.964Z</time>
      </trkpt>
      <trkpt lat="48.865477" lon="2.089815">
        <ele>164.356044</ele>
        <time>2023-03-30T19:39:45.378Z</time>
      </trkpt>
      <trkpt lat="48.865606" lon="2.090259">
        <ele>163.197407</ele>
        <time>2023-03-30T19:39:48.442Z</time>
      </trkpt>
      <trkpt lat="48.865930" lon="2.090972">
        <ele>159.987357</ele>
        <time>2023-03-30T19:39:53.758Z</time>
      </trkpt>
      <trkpt lat="48.866628" lon="2.092372">
        <ele>152.686471</ele>
        <time>2023-03-30T19:40:04.112Z</time>
      </trkpt>
      <trkpt lat="48.866704" lon="2.092543">
        <ele>151.828780</ele>
        <time>2023-03-30T19:40:05.329Z</time>
      </trkpt>
      <trkpt lat="48.866763" lon="2.092674">
        <ele>151.197177</ele>
        <time>2023-03-30T19:40:06.285Z</time>
      </trkpt>
      <trkpt lat="48.866810" lon="2.092941">
        <ele>150.286326</ele>
        <time>2023-03-30T19:40:07.965Z</time>
      </trkpt>
      <trkpt lat="48.866799" lon="2.093066">
        <ele>149.870722</ele>
        <time>2023-03-30T19:40:08.729Z</time>
      </trkpt>
      <trkpt lat="48.866723" lon="2.093306">
        <ele>148.992935</ele>
        <time>2023-03-30T19:40:10.374Z</time>
      </trkpt>
      <trkpt lat="48.866608" lon="2.093550">
        <ele>148.003748</ele>
        <time>2023-03-30T19:40:12.240Z</time>
      </trkpt>
      <trkpt lat="48.866459" lon="2.093714">
        <ele>147.082179</ele>
        <time>2023-03-30T19:40:14.039Z</time>
      </trkpt>
      <trkpt lat="48.866292" lon="2.093785">
        <ele>146.213447</ele>
        <time>2023-03-30T19:40:15.706Z</time>
      </trkpt>
      <trkpt lat="48.866151" lon="2.093777">
        <ele>145.506580</ele>
        <time>2023-03-30T19:40:17.107Z</time>
      </trkpt>
      <trkpt lat="48.866032" lon="2.093720">
        <ele>144.881526</ele>
        <time>2023-03-30T19:40:18.335Z</time>
      </trkpt>
      <trkpt lat="48.865807" lon="2.093538">
        <ele>143.604689</ele>
        <time>2023-03-30T19:40:20.776Z</time>
      </trkpt>
      <trkpt lat="48.865695" lon="2.093502">
        <ele>143.031191</ele>
        <time>2023-03-30T19:40:21.851Z</time>
      </trkpt>
      <trkpt lat="48.865507" lon="2.093530">
        <ele>142.075197</ele>
        <time>2023-03-30T19:40:23.615Z</time>
      </trkpt>
      <trkpt lat="48.865310" lon="2.093681">
        <ele>140.919034</ele>
        <time>2023-03-30T19:40:25.654Z</time>
      </trkpt>
      <trkpt lat="48.865094" lon="2.093890">
        <ele>139.577266</ele>
        <time>2023-03-30T19:40:28.074Z</time>
      </trkpt>
      <trkpt lat="48.865032" lon="2.094013">
        <ele>139.043081</ele>
        <time>2023-03-30T19:40:29.029Z</time>
      </trkpt>
      <trkpt lat="48.864997" lon="2.094081">
        <ele>138.745438</ele>
        <time>2023-03-30T19:40:29.582Z</time>
      </trkpt>
      <trkpt lat="48.864982" lon="2.094112">
        <ele>138.612776</ele>
        <time>2023-03-30T19:40:29.820Z</time>
      </trkpt>
      <trkpt lat="48.864970" lon="2.094139">
        <ele>138.500447</ele>
        <time>2023-03-30T19:40:30.028Z</time>
      </trkpt>
      <trkpt lat="48.864948" lon="2.094194">
        <ele>138.278545</ele>
        <time>2023-03-30T19:40:30.433Z</time>
      </trkpt>
      <trkpt lat="48.864928" lon="2.094250">
        <ele>138.058881</ele>
        <time>2023-03-30T19:40:30.832Z</time>
      </trkpt>
      <trkpt lat="48.864910" lon="2.094307">
        <ele>137.840916</ele>
        <time>2023-03-30T19:40:31.232Z</time>
      </trkpt>
      <trkpt lat="48.864897" lon="2.094353">
        <ele>137.668326</ele>
        <time>2023-03-30T19:40:31.546Z</time>
      </trkpt>
      <trkpt lat="48.864885" lon="2.094400">
        <ele>137.494527</ele>
        <time>2023-03-30T19:40:31.860Z</time>
      </trkpt>
      <trkpt lat="48.864874" lon="2.094449">
        <ele>137.316044</ele>
        <time>2023-03-30T19:40:32.187Z</time>
      </trkpt>
      <trkpt lat="48.864865" lon="2.094498">
        <ele>137.140665</ele>
        <time>2023-03-30T19:40:32.515Z</time>
      </trkpt>
      <trkpt lat="48.864857" lon="2.094549">
        <ele>136.959923</ele>
        <time>2023-03-30T19:40:32.852Z</time>
      </trkpt>
      <trkpt lat="48.864850" lon="2.094600">
        <ele>136.780324</ele>
        <time>2023-03-30T19:40:33.186Z</time>
      </trkpt>
      <trkpt lat="48.864844" lon="2.094651">
        <ele>136.601721</ele>
        <time>2023-03-30T19:40:33.515Z</time>
      </trkpt>
      <trkpt lat="48.864841" lon="2.094702">
        <ele>136.425207</ele>
        <time>2023-03-30T19:40:33.842Z</time>
      </trkpt>
      <trkpt lat="48.864838" lon="2.094753">
        <ele>136.248692</ele>
        <time>2023-03-30T19:40:34.162Z</time>
      </trkpt>
      <trkpt lat="48.864837" lon="2.094799">
        <ele>136.090029</ele>
        <time>2023-03-30T19:40:34.445Z</time>
      </trkpt>
      <trkpt lat="48.864837" lon="2.094844">
        <ele>135.934900</ele>
        <time>2023-03-30T19:40:34.728Z</time>
      </trkpt>
      <trkpt lat="48.864838" lon="2.094893">
        <ele>135.765900</ele>
        <time>2023-03-30T19:40:35.028Z</time>
      </trkpt>
      <trkpt lat="48.864861" lon="2.095120">
        <ele>134.974132</ele>
        <time>2023-03-30T19:40:36.465Z</time>
      </trkpt>
      <trkpt lat="48.864932" lon="2.095455">
        <ele>133.760827</ele>
        <time>2023-03-30T19:40:38.592Z</time>
      </trkpt>
      <trkpt lat="48.865107" lon="2.096027">
        <ele>131.171575</ele>
        <time>2023-03-30T19:40:42.369Z</time>
      </trkpt>
      <trkpt lat="48.865150" lon="2.096169">
        <ele>130.458525</ele>
        <time>2023-03-30T19:40:43.300Z</time>
      </trkpt>
      <trkpt lat="48.865192" lon="2.096304">
        <ele>129.777343</ele>
        <time>2023-03-30T19:40:44.167Z</time>
      </trkpt>
      <trkpt lat="48.865249" lon="2.096490">
        <ele>128.841380</ele>
        <time>2023-03-30T19:40:45.365Z</time>
      </trkpt>
      <trkpt lat="48.865448" lon="2.097141">
        <ele>125.566978</ele>
        <time>2023-03-30T19:40:49.554Z</time>
      </trkpt>
      <trkpt lat="48.865509" lon="2.097340">
        <ele>124.565555</ele>
        <time>2023-03-30T19:40:50.840Z</time>
      </trkpt>
      <trkpt lat="48.865592" lon="2.097611">
        <ele>123.202015</ele>
        <time>2023-03-30T19:40:52.623Z</time>
      </trkpt>
      <trkpt lat="48.866061" lon="2.099144">
        <ele>116.555872</ele>
        <time>2023-03-30T19:41:02.666Z</time>
      </trkpt>
      <trkpt lat="48.866458" lon="2.100411">
        <ele>111.544716</ele>
        <time>2023-03-30T19:41:11.189Z</time>
      </trkpt>
      <trkpt lat="48.866537" lon="2.100543">
        <ele>110.907497</ele>
        <time>2023-03-30T19:41:12.386Z</time>
      </trkpt>
      <trkpt lat="48.866793" lon="2.100760">
        <ele>111.075199</ele>
        <time>2023-03-30T19:41:15.685Z</time>
      </trkpt>
      <trkpt lat="48.866897" lon="2.100861">
        <ele>111.299609</ele>
        <time>2023-03-30T19:41:17.136Z</time>
      </trkpt>
      <trkpt lat="48.867084" lon="2.101136">
        <ele>111.772719</ele>
        <time>2023-03-30T19:41:20.846Z</time>
      </trkpt>
      <trkpt lat="48.867144" lon="2.101317">
        <ele>112.015161</ele>
        <time>2023-03-30T19:41:23.140Z</time>
      </trkpt>
      <trkpt lat="48.867145" lon="2.101484">
        <ele>112.214928</ele>
        <time>2023-03-30T19:41:25.671Z</time>
      </trkpt>
      <trkpt lat="48.867145" lon="2.101648">
        <ele>112.411098</ele>
        <time>2023-03-30T19:41:28.033Z</time>
      </trkpt>
      <trkpt lat="48.867140" lon="2.101671">
        <ele>112.440073</ele>
        <time>2023-03-30T19:41:28.394Z</time>
      </trkpt>
      <trkpt lat="48.867134" lon="2.101713">
        <ele>112.491483</ele>
        <time>2023-03-30T19:41:29.078Z</time>
      </trkpt>
      <trkpt lat="48.867086" lon="2.101845">
        <ele>112.671896</ele>
        <time>2023-03-30T19:41:31.606Z</time>
      </trkpt>
      <trkpt lat="48.867009" lon="2.101968">
        <ele>112.875000</ele>
        <time>2023-03-30T19:41:35.041Z</time>
      </trkpt>
      <trkpt lat="48.866835" lon="2.102090">
        <ele>113.223435</ele>
        <time>2023-03-30T19:41:40.972Z</time>
      </trkpt>
      <trkpt lat="48.866635" lon="2.102122">
        <ele>113.589125</ele>
        <time>2023-03-30T19:41:48.379Z</time>
      </trkpt>
      <trkpt lat="48.866322" lon="2.101988">
        <ele>115.000641</ele>
        <time>2023-03-30T19:42:01.503Z</time>
      </trkpt>
      <trkpt lat="48.866087" lon="2.102020">
        <ele>116.705191</ele>
        <time>2023-03-30T19:42:11.968Z</time>
      </trkpt>
      <trkpt lat="48.864025" lon="2.103808">
        <ele>133.222535</ele>
        <time>2023-03-30T19:43:59.378Z</time>
      </trkpt>
      <trkpt lat="48.864045" lon="2.103872">
        <ele>133.528649</ele>
        <time>2023-03-30T19:44:01.180Z</time>
      </trkpt>
      <trkpt lat="48.864291" lon="2.104685">
        <ele>137.394821</ele>
        <time>2023-03-30T19:44:23.447Z</time>
      </trkpt>
      <trkpt lat="48.864533" lon="2.105356">
        <ele>140.087619</ele>
        <time>2023-03-30T19:44:41.036Z</time>
      </trkpt>
      <trkpt lat="48.865090" lon="2.105891">
        <ele>143.081076</ele>
        <time>2023-03-30T19:45:02.193Z</time>
      </trkpt>
      <trkpt lat="48.865442" lon="2.106079">
        <ele>144.776153</ele>
        <time>2023-03-30T19:45:14.625Z</time>
      </trkpt>
      <trkpt lat="48.866029" lon="2.106810">
        <ele>147.505437</ele>
        <time>2023-03-30T19:45:39.085Z</time>
      </trkpt>
      <trkpt lat="48.866236" lon="2.107529">
        <ele>148.594467</ele>
        <time>2023-03-30T19:45:53.558Z</time>
      </trkpt>
      <trkpt lat="48.866237" lon="2.107788">
        <ele>148.953854</ele>
        <time>2023-03-30T19:45:57.815Z</time>
      </trkpt>
      <trkpt lat="48.866232" lon="2.108111">
        <ele>149.402163</ele>
        <time>2023-03-30T19:46:02.585Z</time>
      </trkpt>
      <trkpt lat="48.866284" lon="2.108474">
        <ele>149.917655</ele>
        <time>2023-03-30T19:46:07.549Z</time>
      </trkpt>
      <trkpt lat="48.866546" lon="2.109518">
        <ele>149.242866</ele>
        <time>2023-03-30T19:46:17.663Z</time>
      </trkpt>
      <trkpt lat="48.866589" lon="2.109871">
        <ele>148.339953</ele>
        <time>2023-03-30T19:46:20.210Z</time>
      </trkpt>
      <trkpt lat="48.866572" lon="2.110498">
        <ele>146.761667</ele>
        <time>2023-03-30T19:46:24.216Z</time>
      </trkpt>
      <trkpt lat="48.866517" lon="2.110991">
        <ele>145.504033</ele>
        <time>2023-03-30T19:46:27.281Z</time>
      </trkpt>
      <trkpt lat="48.866511" lon="2.111247">
        <ele>144.859766</ele>
        <time>2023-03-30T19:46:28.819Z</time>
      </trkpt>
      <trkpt lat="48.866509" lon="2.111415">
        <ele>144.437165</ele>
        <time>2023-03-30T19:46:29.839Z</time>
      </trkpt>
      <trkpt lat="48.866494" lon="2.112033">
        <ele>142.013879</ele>
        <time>2023-03-30T19:46:33.509Z</time>
      </trkpt>
      <trkpt lat="48.866493" lon="2.112067">
        <ele>141.847377</ele>
        <time>2023-03-30T19:46:33.706Z</time>
      </trkpt>
      <trkpt lat="48.866484" lon="2.112280">
        <ele>140.803185</ele>
        <time>2023-03-30T19:46:34.951Z</time>
      </trkpt>
      <trkpt lat="48.866455" lon="2.112900">
        <ele>137.762345</ele>
        <time>2023-03-30T19:46:38.568Z</time>
      </trkpt>
      <trkpt lat="48.866451" lon="2.112992">
        <ele>137.311277</ele>
        <time>2023-03-30T19:46:39.112Z</time>
      </trkpt>
      <trkpt lat="48.866270" lon="2.113551">
        <ele>134.263173</ele>
        <time>2023-03-30T19:46:42.735Z</time>
      </trkpt>
      <trkpt lat="48.866108" lon="2.113869">
        <ele>132.295464</ele>
        <time>2023-03-30T19:46:45.069Z</time>
      </trkpt>
      <trkpt lat="48.865790" lon="2.114370">
        <ele>129.102922</ele>
        <time>2023-03-30T19:46:49.152Z</time>
      </trkpt>
      <trkpt lat="48.865543" lon="2.114658">
        <ele>127.109969</ele>
        <time>2023-03-30T19:46:51.958Z</time>
      </trkpt>
      <trkpt lat="48.864835" lon="2.115396">
        <ele>121.613906</ele>
        <time>2023-03-30T19:46:59.794Z</time>
      </trkpt>
      <trkpt lat="48.864816" lon="2.115511">
        <ele>121.114527</ele>
        <time>2023-03-30T19:47:00.495Z</time>
      </trkpt>
      <trkpt lat="48.864854" lon="2.115613">
        <ele>120.620835</ele>
        <time>2023-03-30T19:47:01.201Z</time>
      </trkpt>
      <trkpt lat="48.865360" lon="2.116392">
        <ele>116.615293</ele>
        <time>2023-03-30T19:47:07.899Z</time>
      </trkpt>
      <trkpt lat="48.865355" lon="2.116427">
        <ele>116.495951</ele>
        <time>2023-03-30T19:47:08.127Z</time>
      </trkpt>
      <trkpt lat="48.864790" lon="2.117137">
        <ele>112.782781</ele>
        <time>2023-03-30T19:47:15.154Z</time>
      </trkpt>
      <trkpt lat="48.864426" lon="2.117618">
        <ele>110.339749</ele>
        <time>2023-03-30T19:47:19.712Z</time>
      </trkpt>
      <trkpt lat="48.864173" lon="2.117970">
        <ele>108.579416</ele>
        <time>2023-03-30T19:47:22.904Z</time>
      </trkpt>
      <trkpt lat="48.864111" lon="2.118181">
        <ele>107.794503</ele>
        <time>2023-03-30T19:47:24.301Z</time>
      </trkpt>
      <trkpt lat="48.864090" lon="2.118369">
        <ele>107.146812</ele>
        <time>2023-03-30T19:47:25.456Z</time>
      </trkpt>
      <trkpt lat="48.863958" lon="2.119372">
        <ele>103.672569</ele>
        <time>2023-03-30T19:47:31.742Z</time>
      </trkpt>
      <trkpt lat="48.863689" lon="2.121918">
        <ele>96.238599</ele>
        <time>2023-03-30T19:47:47.795Z</time>
      </trkpt>
      <trkpt lat="48.863557" lon="2.123111">
        <ele>93.263110</ele>
        <time>2023-03-30T19:47:56.130Z</time>
      </trkpt>
      <trkpt lat="48.863496" lon="2.123184">
        <ele>93.111219</ele>
        <time>2023-03-30T19:47:57.045Z</time>
      </trkpt>
      <trkpt lat="48.863504" lon="2.123274">
        <ele>92.994330</ele>
        <time>2023-03-30T19:47:57.694Z</time>
      </trkpt>
      <trkpt lat="48.863534" lon="2.123314">
        <ele>92.916256</ele>
        <time>2023-03-30T19:47:58.107Z</time>
      </trkpt>
      <trkpt lat="48.863554" lon="2.123323">
        <ele>92.875448</ele>
        <time>2023-03-30T19:47:58.312Z</time>
      </trkpt>
      <trkpt lat="48.863693" lon="2.123639">
        <ele>92.386191</ele>
        <time>2023-03-30T19:48:01.064Z</time>
      </trkpt>
      <trkpt lat="48.863752" lon="2.123773">
        <ele>92.178659</ele>
        <time>2023-03-30T19:48:02.187Z</time>
      </trkpt>
      <trkpt lat="48.864020" lon="2.124346">
        <ele>91.273776</ele>
        <time>2023-03-30T19:48:07.270Z</time>
      </trkpt>
      <trkpt lat="48.864049" lon="2.124358">
        <ele>91.214974</ele>
        <time>2023-03-30T19:48:07.588Z</time>
      </trkpt>
      <trkpt lat="48.864148" lon="2.124546">
        <ele>90.905032</ele>
        <time>2023-03-30T19:48:09.439Z</time>
      </trkpt>
      <trkpt lat="48.864853" lon="2.125727">
        <ele>89.656767</ele>
        <time>2023-03-30T19:48:21.383Z</time>
      </trkpt>
      <trkpt lat="48.864981" lon="2.126071">
        <ele>89.537567</ele>
        <time>2023-03-30T19:48:24.664Z</time>
      </trkpt>
      <trkpt lat="48.864998" lon="2.127290">
        <ele>89.169826</ele>
        <time>2023-03-30T19:48:36.430Z</time>
      </trkpt>
      <trkpt lat="48.864880" lon="2.128138">
        <ele>89.156422</ele>
        <time>2023-03-30T19:48:47.253Z</time>
      </trkpt>
      <trkpt lat="48.864902" lon="2.128793">
        <ele>89.247413</ele>
        <time>2023-03-30T19:48:55.591Z</time>
      </trkpt>
      <trkpt lat="48.864941" lon="2.129075">
        <ele>89.287391</ele>
        <time>2023-03-30T19:48:58.924Z</time>
      </trkpt>
      <trkpt lat="48.865138" lon="2.130002">
        <ele>89.422544</ele>
        <time>2023-03-30T19:49:08.345Z</time>
      </trkpt>
      <trkpt lat="48.865283" lon="2.130522">
        <ele>88.959065</ele>
        <time>2023-03-30T19:49:12.890Z</time>
      </trkpt>
      <trkpt lat="48.865634" lon="2.131478">
        <ele>87.209829</ele>
        <time>2023-03-30T19:49:20.640Z</time>
      </trkpt>
      <trkpt lat="48.865647" lon="2.131648">
        <ele>86.936386</ele>
        <time>2023-03-30T19:49:21.787Z</time>
      </trkpt>
      <trkpt lat="48.865624" lon="2.132036">
        <ele>86.313956</ele>
        <time>2023-03-30T19:49:24.404Z</time>
      </trkpt>
      <trkpt lat="48.865543" lon="2.132646">
        <ele>85.319682</ele>
        <time>2023-03-30T19:49:28.498Z</time>
      </trkpt>
      <trkpt lat="48.865286" lon="2.134439">
        <ele>80.074488</ele>
        <time>2023-03-30T19:49:40.661Z</time>
      </trkpt>
      <trkpt lat="48.865071" lon="2.135401">
        <ele>77.061086</ele>
        <time>2023-03-30T19:49:46.779Z</time>
      </trkpt>
      <trkpt lat="48.864962" lon="2.136245">
        <ele>73.083948</ele>
        <time>2023-03-30T19:49:51.887Z</time>
      </trkpt>
      <trkpt lat="48.864969" lon="2.136545">
        <ele>71.679461</ele>
        <time>2023-03-30T19:49:53.633Z</time>
      </trkpt>
      <trkpt lat="48.864973" lon="2.136820">
        <ele>70.392509</ele>
        <time>2023-03-30T19:49:55.265Z</time>
      </trkpt>
      <trkpt lat="48.864944" lon="2.137199">
        <ele>68.607334</ele>
        <time>2023-03-30T19:49:57.486Z</time>
      </trkpt>
      <trkpt lat="48.864897" lon="2.137377">
        <ele>67.709945</ele>
        <time>2023-03-30T19:49:58.616Z</time>
      </trkpt>
      <trkpt lat="48.864845" lon="2.137572">
        <ele>66.725490</ele>
        <time>2023-03-30T19:49:59.833Z</time>
      </trkpt>
      <trkpt lat="48.864687" lon="2.137888">
        <ele>64.868437</ele>
        <time>2023-03-30T19:50:02.161Z</time>
      </trkpt>
      <trkpt lat="48.864381" lon="2.138147">
        <ele>63.515580</ele>
        <time>2023-03-30T19:50:05.268Z</time>
      </trkpt>
      <trkpt lat="48.863894" lon="2.138753">
        <ele>61.854319</ele>
        <time>2023-03-30T19:50:11.089Z</time>
      </trkpt>
      <trkpt lat="48.863586" lon="2.138974">
        <ele>60.955300</ele>
        <time>2023-03-30T19:50:15.193Z</time>
      </trkpt>
      <trkpt lat="48.863127" lon="2.139079">
        <ele>59.730080</ele>
        <time>2023-03-30T19:50:24.025Z</time>
      </trkpt>
      <trkpt lat="48.862972" lon="2.139229">
        <ele>59.785067</ele>
        <time>2023-03-30T19:50:28.473Z</time>
      </trkpt>
      <trkpt lat="48.862933" lon="2.139279">
        <ele>60.024312</ele>
        <time>2023-03-30T19:50:30.010Z</time>
      </trkpt>
      <trkpt lat="48.862931" lon="2.139372">
        <ele>60.311364</ele>
        <time>2023-03-30T19:50:31.857Z</time>
      </trkpt>
      <trkpt lat="48.862931" lon="2.139429">
        <ele>60.487204</ele>
        <time>2023-03-30T19:50:32.997Z</time>
      </trkpt>
      <trkpt lat="48.862973" lon="2.139485">
        <ele>60.749186</ele>
        <time>2023-03-30T19:50:34.508Z</time>
      </trkpt>
      <trkpt lat="48.862949" lon="2.139643">
        <ele>61.249428</ele>
        <time>2023-03-30T19:50:37.624Z</time>
      </trkpt>
      <trkpt lat="48.862928" lon="2.139715">
        <ele>61.492394</ele>
        <time>2023-03-30T19:50:39.473Z</time>
      </trkpt>
      <trkpt lat="48.862926" lon="2.139991">
        <ele>62.343885</ele>
        <time>2023-03-30T19:50:45.822Z</time>
      </trkpt>
      <trkpt lat="48.862855" lon="2.140005">
        <ele>62.679616</ele>
        <time>2023-03-30T19:50:48.111Z</time>
      </trkpt>
      <trkpt lat="48.862190" lon="2.140139">
        <ele>65.825292</ele>
        <time>2023-03-30T19:51:12.989Z</time>
      </trkpt>
      <trkpt lat="48.861787" lon="2.140286">
        <ele>67.768737</ele>
        <time>2023-03-30T19:51:29.273Z</time>
      </trkpt>
      <trkpt lat="48.861485" lon="2.140239">
        <ele>69.001559</ele>
        <time>2023-03-30T19:51:41.813Z</time>
      </trkpt>
      <trkpt lat="48.860892" lon="2.139984">
        <ele>71.473314</ele>
        <time>2023-03-30T19:52:00.570Z</time>
      </trkpt>
      <trkpt lat="48.860328" lon="2.139776">
        <ele>73.801041</ele>
        <time>2023-03-30T19:52:16.719Z</time>
      </trkpt>
      <trkpt lat="48.859602" lon="2.139698">
        <ele>76.723555</ele>
        <time>2023-03-30T19:52:36.351Z</time>
      </trkpt>
      <trkpt lat="48.859606" lon="2.139587">
        <ele>77.017506</ele>
        <time>2023-03-30T19:52:37.307Z</time>
      </trkpt>
      <trkpt lat="48.859571" lon="2.139500">
        <ele>77.287155</ele>
        <time>2023-03-30T19:52:39.266Z</time>
      </trkpt>
      <trkpt lat="48.859532" lon="2.139376">
        <ele>77.650581</ele>
        <time>2023-03-30T19:52:41.980Z</time>
      </trkpt>
      <trkpt lat="48.859428" lon="2.139405">
        <ele>78.075550</ele>
        <time>2023-03-30T19:52:45.310Z</time>
      </trkpt>
      <trkpt lat="48.859325" lon="2.139428">
        <ele>78.493968</ele>
        <time>2023-03-30T19:52:46.914Z</time>
      </trkpt>
      <trkpt lat="48.859340" lon="2.139593">
        <ele>78.934415</ele>
        <time>2023-03-30T19:52:50.138Z</time>
      </trkpt>
      <trkpt lat="48.859347" lon="2.139650">
        <ele>79.087741</ele>
        <time>2023-03-30T19:52:51.315Z</time>
      </trkpt>
      <trkpt lat="48.859392" lon="2.139768">
        <ele>79.448391</ele>
        <time>2023-03-30T19:52:54.298Z</time>
      </trkpt>
      <trkpt lat="48.859485" lon="2.139784">
        <ele>79.824560</ele>
        <time>2023-03-30T19:52:56.132Z</time>
      </trkpt>
      <trkpt lat="48.859532" lon="2.140004">
        <ele>80.436195</ele>
        <time>2023-03-30T19:53:02.021Z</time>
      </trkpt>
      <trkpt lat="48.859627" lon="2.140112">
        <ele>80.912999</ele>
        <time>2023-03-30T19:53:07.044Z</time>
      </trkpt>
      <trkpt lat="48.860673" lon="2.140420">
        <ele>86.480854</ele>
        <time>2023-03-30T19:53:48.538Z</time>
      </trkpt>
      <trkpt lat="48.860735" lon="2.140597">
        <ele>87.247922</ele>
        <time>2023-03-30T19:53:52.957Z</time>
      </trkpt>
      <trkpt lat="48.860737" lon="2.140795">
        <ele>88.005420</ele>
        <time>2023-03-30T19:53:58.729Z</time>
      </trkpt>
      <trkpt lat="48.860672" lon="2.140924">
        <ele>88.626987</ele>
        <time>2023-03-30T19:54:02.662Z</time>
      </trkpt>
      <trkpt lat="48.860532" lon="2.140968">
        <ele>89.458233</ele>
        <time>2023-03-30T19:54:07.493Z</time>
      </trkpt>
      <trkpt lat="48.859120" lon="2.140882">
        <ele>96.976836</ele>
        <time>2023-03-30T19:55:01.426Z</time>
      </trkpt>
      <trkpt lat="48.858969" lon="2.140875">
        <ele>97.730090</ele>
        <time>2023-03-30T19:55:06.353Z</time>
      </trkpt>
      <trkpt lat="48.855931" lon="2.140734">
        <ele>111.262316</ele>
        <time>2023-03-30T19:56:43.272Z</time>
      </trkpt>
      <trkpt lat="48.855282" lon="2.140726">
        <ele>113.978864</ele>
        <time>2023-03-30T19:57:04.003Z</time>
      </trkpt>
      <trkpt lat="48.855122" lon="2.140775">
        <ele>114.662021</ele>
        <time>2023-03-30T19:57:09.203Z</time>
      </trkpt>
      <trkpt lat="48.854998" lon="2.140855">
        <ele>115.225863</ele>
        <time>2023-03-30T19:57:13.554Z</time>
      </trkpt>
      <trkpt lat="48.854889" lon="2.140964">
        <ele>115.771993</ele>
        <time>2023-03-30T19:57:17.640Z</time>
      </trkpt>
      <trkpt lat="48.854244" lon="2.142046">
        <ele>120.363527</ele>
        <time>2023-03-30T19:57:46.922Z</time>
      </trkpt>
      <trkpt lat="48.854138" lon="2.142229">
        <ele>121.170527</ele>
        <time>2023-03-30T19:57:52.077Z</time>
      </trkpt>
      <trkpt lat="48.854043" lon="2.142392">
        <ele>121.891279</ele>
        <time>2023-03-30T19:57:57.022Z</time>
      </trkpt>
      <trkpt lat="48.854008" lon="2.142560">
        <ele>122.474567</ele>
        <time>2023-03-30T19:58:01.409Z</time>
      </trkpt>
      <trkpt lat="48.853473" lon="2.142515">
        <ele>125.170031</ele>
        <time>2023-03-30T19:58:21.937Z</time>
      </trkpt>
      <trkpt lat="48.852742" lon="2.142610">
        <ele>129.988652</ele>
        <time>2023-03-30T19:58:52.020Z</time>
      </trkpt>
      <trkpt lat="48.852502" lon="2.142483">
        <ele>131.773672</ele>
        <time>2023-03-30T19:59:02.419Z</time>
      </trkpt>
      <trkpt lat="48.852154" lon="2.142146">
        <ele>134.672078</ele>
        <time>2023-03-30T19:59:19.564Z</time>
      </trkpt>
      <trkpt lat="48.851977" lon="2.142054">
        <ele>135.986025</ele>
        <time>2023-03-30T19:59:28.336Z</time>
      </trkpt>
      <trkpt lat="48.851717" lon="2.141950">
        <ele>137.874457</ele>
        <time>2023-03-30T19:59:41.090Z</time>
      </trkpt>
      <trkpt lat="48.851493" lon="2.141621">
        <ele>140.047974</ele>
        <time>2023-03-30T19:59:56.401Z</time>
      </trkpt>
      <trkpt lat="48.851315" lon="2.141351">
        <ele>141.796263</ele>
        <time>2023-03-30T20:00:08.175Z</time>
      </trkpt>
      <trkpt lat="48.851045" lon="2.140934">
        <ele>144.472348</ele>
        <time>2023-03-30T20:00:24.721Z</time>
      </trkpt>
      <trkpt lat="48.851026" lon="2.141010">
        <ele>144.844242</ele>
        <time>2023-03-30T20:00:26.984Z</time>
      </trkpt>
      <trkpt lat="48.850951" lon="2.141153">
        <ele>145.680732</ele>
        <time>2023-03-30T20:00:32.197Z</time>
      </trkpt>
      <trkpt lat="48.850714" lon="2.140952">
        <ele>147.567467</ele>
        <time>2023-03-30T20:00:43.154Z</time>
      </trkpt>
      <trkpt lat="48.850590" lon="2.140907">
        <ele>148.453709</ele>
        <time>2023-03-30T20:00:48.181Z</time>
      </trkpt>
      <trkpt lat="48.850467" lon="2.140966">
        <ele>149.350345</ele>
        <time>2023-03-30T20:00:53.022Z</time>
      </trkpt>
      <trkpt lat="48.850421" lon="2.141138">
        <ele>150.199638</ele>
        <time>2023-03-30T20:00:57.945Z</time>
      </trkpt>
      <trkpt lat="48.850428" lon="2.141325">
        <ele>151.056430</ele>
        <time>2023-03-30T20:01:02.776Z</time>
      </trkpt>
      <trkpt lat="48.850467" lon="2.141462">
        <ele>151.559043</ele>
        <time>2023-03-30T20:01:06.419Z</time>
      </trkpt>
      <trkpt lat="48.850631" lon="2.141783">
        <ele>152.847863</ele>
        <time>2023-03-30T20:01:16.978Z</time>
      </trkpt>
      <trkpt lat="48.850661" lon="2.141947">
        <ele>153.387686</ele>
        <time>2023-03-30T20:01:21.158Z</time>
      </trkpt>
      <trkpt lat="48.850653" lon="2.142056">
        <ele>153.735506</ele>
        <time>2023-03-30T20:01:23.932Z</time>
      </trkpt>
      <trkpt lat="48.850607" lon="2.142190">
        <ele>154.214819</ele>
        <time>2023-03-30T20:01:27.749Z</time>
      </trkpt>
      <trkpt lat="48.850426" lon="2.142377">
        <ele>155.269644</ele>
        <time>2023-03-30T20:01:35.909Z</time>
      </trkpt>
      <trkpt lat="48.849683" lon="2.142269">
        <ele>158.866870</ele>
        <time>2023-03-30T20:01:59.677Z</time>
      </trkpt>
      <trkpt lat="48.849340" lon="2.142253">
        <ele>160.083023</ele>
        <time>2023-03-30T20:02:09.274Z</time>
      </trkpt>
      <trkpt lat="48.849266" lon="2.142335">
        <ele>160.248598</ele>
        <time>2023-03-30T20:02:11.631Z</time>
      </trkpt>
      <trkpt lat="48.849189" lon="2.142511">
        <ele>160.500035</ele>
        <time>2023-03-30T20:02:15.514Z</time>
      </trkpt>
      <trkpt lat="48.849095" lon="2.142856">
        <ele>160.944267</ele>
        <time>2023-03-30T20:02:21.915Z</time>
      </trkpt>
      <trkpt lat="48.849084" lon="2.143080">
        <ele>161.211497</ele>
        <time>2023-03-30T20:02:25.354Z</time>
      </trkpt>
      <trkpt lat="48.849103" lon="2.143272">
        <ele>161.442485</ele>
        <time>2023-03-30T20:02:28.223Z</time>
      </trkpt>
      <trkpt lat="48.849189" lon="2.143743">
        <ele>162.023996</ele>
        <time>2023-03-30T20:02:34.790Z</time>
      </trkpt>
      <trkpt lat="48.849191" lon="2.143758">
        <ele>162.042204</ele>
        <time>2023-03-30T20:02:34.988Z</time>
      </trkpt>
      <trkpt lat="48.849431" lon="2.144854">
        <ele>163.092907</ele>
        <time>2023-03-30T20:02:47.859Z</time>
      </trkpt>
      <trkpt lat="48.849588" lon="2.145602">
        <ele>163.149518</ele>
        <time>2023-03-30T20:02:55.200Z</time>
      </trkpt>
      <trkpt lat="48.849522" lon="2.147280">
        <ele>163.279551</ele>
        <time>2023-03-30T20:03:11.103Z</time>
      </trkpt>
      <trkpt lat="48.849423" lon="2.149507">
        <ele>164.326412</ele>
        <time>2023-03-30T20:03:36.826Z</time>
      </trkpt>
      <trkpt lat="48.849451" lon="2.149635">
        <ele>164.389676</ele>
        <time>2023-03-30T20:03:38.571Z</time>
      </trkpt>
      <trkpt lat="48.849252" lon="2.149823">
        <ele>164.559138</ele>
        <time>2023-03-30T20:03:43.317Z</time>
      </trkpt>
      <trkpt lat="48.848983" lon="2.149987">
        <ele>164.856180</ele>
        <time>2023-03-30T20:03:49.307Z</time>
      </trkpt>
      <trkpt lat="48.848812" lon="2.150005">
        <ele>165.031849</ele>
        <time>2023-03-30T20:03:52.653Z</time>
      </trkpt>
      <trkpt lat="48.848650" lon="2.149964">
        <ele>165.200161</ele>
        <time>2023-03-30T20:03:55.873Z</time>
      </trkpt>
      <trkpt lat="48.848667" lon="2.150075">
        <ele>165.277020</ele>
        <time>2023-03-30T20:03:57.217Z</time>
      </trkpt>
      <trkpt lat="48.848658" lon="2.150286">
        <ele>165.419618</ele>
        <time>2023-03-30T20:03:59.901Z</time>
      </trkpt>
      <trkpt lat="48.848738" lon="2.150536">
        <ele>165.607096</ele>
        <time>2023-03-30T20:04:03.386Z</time>
      </trkpt>
      <trkpt lat="48.848736" lon="2.150584">
        <ele>165.639532</ele>
        <time>2023-03-30T20:04:03.952Z</time>
      </trkpt>
      <trkpt lat="48.848391" lon="2.151440">
        <ele>166.316492</ele>
        <time>2023-03-30T20:04:16.415Z</time>
      </trkpt>
      <trkpt lat="48.848266" lon="2.151732">
        <ele>166.454664</ele>
        <time>2023-03-30T20:04:20.626Z</time>
      </trkpt>
      <trkpt lat="48.848193" lon="2.151903">
        <ele>166.507416</ele>
        <time>2023-03-30T20:04:22.982Z</time>
      </trkpt>
      <trkpt lat="48.848152" lon="2.152005">
        <ele>166.538349</ele>
        <time>2023-03-30T20:04:24.307Z</time>
      </trkpt>
      <trkpt lat="48.847920" lon="2.152543">
        <ele>166.704819</ele>
        <time>2023-03-30T20:04:31.777Z</time>
      </trkpt>
      <trkpt lat="48.847862" lon="2.152509">
        <ele>166.729268</ele>
        <time>2023-03-30T20:04:32.869Z</time>
      </trkpt>
      <trkpt lat="48.847771" lon="2.152538">
        <ele>166.765835</ele>
        <time>2023-03-30T20:04:34.359Z</time>
      </trkpt>
      <trkpt lat="48.847718" lon="2.152629">
        <ele>166.797286</ele>
        <time>2023-03-30T20:04:35.676Z</time>
      </trkpt>
      <trkpt lat="48.847706" lon="2.152708">
        <ele>166.818269</ele>
        <time>2023-03-30T20:04:36.499Z</time>
      </trkpt>
      <trkpt lat="48.847720" lon="2.152807">
        <ele>166.844476</ele>
        <time>2023-03-30T20:04:37.628Z</time>
      </trkpt>
      <trkpt lat="48.847763" lon="2.152884">
        <ele>166.870612</ele>
        <time>2023-03-30T20:04:38.703Z</time>
      </trkpt>
      <trkpt lat="48.846982" lon="2.154707">
        <ele>166.860220</ele>
        <time>2023-03-30T20:04:59.127Z</time>
      </trkpt>
      <trkpt lat="48.846852" lon="2.154726">
        <ele>166.822824</ele>
        <time>2023-03-30T20:05:00.838Z</time>
      </trkpt>
      <trkpt lat="48.846851" lon="2.155007">
        <ele>166.769874</ele>
        <time>2023-03-30T20:05:03.329Z</time>
      </trkpt>
      <trkpt lat="48.846849" lon="2.155991">
        <ele>166.584005</ele>
        <time>2023-03-30T20:05:12.043Z</time>
      </trkpt>
      <trkpt lat="48.846848" lon="2.156293">
        <ele>166.515989</ele>
        <time>2023-03-30T20:05:14.714Z</time>
      </trkpt>
      <trkpt lat="48.846841" lon="2.158564">
        <ele>166.004517</ele>
        <time>2023-03-30T20:05:35.148Z</time>
      </trkpt>
      <trkpt lat="48.846762" lon="2.158571">
        <ele>165.977434</ele>
        <time>2023-03-30T20:05:36.273Z</time>
      </trkpt>
      <trkpt lat="48.846716" lon="2.158667">
        <ele>165.951182</ele>
        <time>2023-03-30T20:05:37.371Z</time>
      </trkpt>
      <trkpt lat="48.846717" lon="2.158728">
        <ele>165.937769</ele>
        <time>2023-03-30T20:05:37.926Z</time>
      </trkpt>
      <trkpt lat="48.846762" lon="2.158817">
        <ele>165.913098</ele>
        <time>2023-03-30T20:05:38.987Z</time>
      </trkpt>
      <trkpt lat="48.846836" lon="2.158827">
        <ele>165.888283</ele>
        <time>2023-03-30T20:05:40.063Z</time>
      </trkpt>
      <trkpt lat="48.846851" lon="2.166931">
        <ele>164.249135</ele>
        <time>2023-03-30T20:07:21.575Z</time>
      </trkpt>
      <trkpt lat="48.846851" lon="2.167025">
        <ele>164.257425</ele>
        <time>2023-03-30T20:07:22.776Z</time>
      </trkpt>
      <trkpt lat="48.846853" lon="2.168318">
        <ele>164.371461</ele>
        <time>2023-03-30T20:07:40.232Z</time>
      </trkpt>
      <trkpt lat="48.846848" lon="2.168746">
        <ele>164.409215</ele>
        <time>2023-03-30T20:07:46.289Z</time>
      </trkpt>
      <trkpt lat="48.846846" lon="2.168963">
        <ele>164.428355</ele>
        <time>2023-03-30T20:07:49.453Z</time>
      </trkpt>
      <trkpt lat="48.846801" lon="2.168963">
        <ele>164.434386</ele>
        <time>2023-03-30T20:07:50.153Z</time>
      </trkpt>
      <trkpt lat="48.846769" lon="2.169032">
        <ele>164.441830</ele>
        <time>2023-03-30T20:07:50.994Z</time>
      </trkpt>
      <trkpt lat="48.846801" lon="2.169114">
        <ele>164.450238</ele>
        <time>2023-03-30T20:07:52.033Z</time>
      </trkpt>
      <trkpt lat="48.846811" lon="2.169119">
        <ele>164.451649</ele>
        <time>2023-03-30T20:07:52.225Z</time>
      </trkpt>
      <trkpt lat="48.846873" lon="2.169077">
        <ele>164.460747</ele>
        <time>2023-03-30T20:07:53.332Z</time>
      </trkpt>
      <trkpt lat="48.847106" lon="2.169191">
        <ele>164.609843</ele>
        <time>2023-03-30T20:07:57.393Z</time>
      </trkpt>
      <trkpt lat="48.847709" lon="2.169520">
        <ele>165.049654</ele>
        <time>2023-03-30T20:08:08.595Z</time>
      </trkpt>
      <trkpt lat="48.847814" lon="2.169658">
        <ele>165.144951</ele>
        <time>2023-03-30T20:08:11.029Z</time>
      </trkpt>
      <trkpt lat="48.848032" lon="2.169940">
        <ele>165.341479</ele>
        <time>2023-03-30T20:08:16.026Z</time>
      </trkpt>
      <trkpt lat="48.848301" lon="2.170290">
        <ele>165.584577</ele>
        <time>2023-03-30T20:08:22.577Z</time>
      </trkpt>
      <trkpt lat="48.848500" lon="2.170548">
        <ele>165.770735</ele>
        <time>2023-03-30T20:08:27.526Z</time>
      </trkpt>
      <trkpt lat="48.848618" lon="2.170743">
        <ele>165.902709</ele>
        <time>2023-03-30T20:08:30.802Z</time>
      </trkpt>
      <trkpt lat="48.848628" lon="2.170861">
        <ele>165.961979</ele>
        <time>2023-03-30T20:08:32.212Z</time>
      </trkpt>
      <trkpt lat="48.848605" lon="2.171135">
        <ele>166.099586</ele>
        <time>2023-03-30T20:08:35.475Z</time>
      </trkpt>
      <trkpt lat="48.848563" lon="2.171594">
        <ele>166.330449</ele>
        <time>2023-03-30T20:08:40.947Z</time>
      </trkpt>
      <trkpt lat="48.848534" lon="2.171995">
        <ele>166.531421</ele>
        <time>2023-03-30T20:08:45.743Z</time>
      </trkpt>
      <trkpt lat="48.848495" lon="2.172514">
        <ele>166.791655</ele>
        <time>2023-03-30T20:08:51.919Z</time>
      </trkpt>
      <trkpt lat="48.848283" lon="2.173847">
        <ele>167.235510</ele>
        <time>2023-03-30T20:09:07.369Z</time>
      </trkpt>
      <trkpt lat="48.847813" lon="2.176357">
        <ele>167.216083</ele>
        <time>2023-03-30T20:09:34.332Z</time>
      </trkpt>
      <trkpt lat="48.847713" lon="2.177231">
        <ele>166.690029</ele>
        <time>2023-03-30T20:09:41.671Z</time>
      </trkpt>
      <trkpt lat="48.847498" lon="2.179068">
        <ele>164.907187</ele>
        <time>2023-03-30T20:09:55.596Z</time>
      </trkpt>
      <trkpt lat="48.847273" lon="2.180592">
        <ele>162.524524</ele>
        <time>2023-03-30T20:10:06.233Z</time>
      </trkpt>
      <trkpt lat="48.847212" lon="2.181004">
        <ele>161.880303</ele>
        <time>2023-03-30T20:10:09.157Z</time>
      </trkpt>
      <trkpt lat="48.847075" lon="2.181608">
        <ele>161.379730</ele>
        <time>2023-03-30T20:10:13.750Z</time>
      </trkpt>
      <trkpt lat="48.847009" lon="2.181674">
        <ele>161.289087</ele>
        <time>2023-03-30T20:10:14.648Z</time>
      </trkpt>
      <trkpt lat="48.847009" lon="2.181746">
        <ele>161.234728</ele>
        <time>2023-03-30T20:10:15.174Z</time>
      </trkpt>
      <trkpt lat="48.847040" lon="2.181800">
        <ele>161.180627</ele>
        <time>2023-03-30T20:10:15.709Z</time>
      </trkpt>
      <trkpt lat="48.847115" lon="2.181789">
        <ele>161.094182</ele>
        <time>2023-03-30T20:10:16.664Z</time>
      </trkpt>
      <trkpt lat="48.847543" lon="2.182027">
        <ele>160.571311</ele>
        <time>2023-03-30T20:10:22.342Z</time>
      </trkpt>
      <trkpt lat="48.848059" lon="2.182429">
        <ele>159.906061</ele>
        <time>2023-03-30T20:10:29.742Z</time>
      </trkpt>
      <trkpt lat="48.848339" lon="2.182640">
        <ele>159.705014</ele>
        <time>2023-03-30T20:10:34.190Z</time>
      </trkpt>
      <trkpt lat="48.848526" lon="2.182836">
        <ele>159.620442</ele>
        <time>2023-03-30T20:10:37.926Z</time>
      </trkpt>
      <trkpt lat="48.850504" lon="2.185295">
        <ele>158.482800</ele>
        <time>2023-03-30T20:11:12.156Z</time>
      </trkpt>
      <trkpt lat="48.850859" lon="2.185713">
        <ele>158.245167</ele>
        <time>2023-03-30T20:11:17.671Z</time>
      </trkpt>
      <trkpt lat="48.850902" lon="2.185823">
        <ele>158.200618</ele>
        <time>2023-03-30T20:11:18.731Z</time>
      </trkpt>
      <trkpt lat="48.850912" lon="2.186069">
        <ele>158.167579</ele>
        <time>2023-03-30T20:11:20.839Z</time>
      </trkpt>
      <trkpt lat="48.850892" lon="2.186178">
        <ele>158.174891</ele>
        <time>2023-03-30T20:11:21.832Z</time>
      </trkpt>
      <trkpt lat="48.850836" lon="2.186297">
        <ele>158.184344</ele>
        <time>2023-03-30T20:11:23.134Z</time>
      </trkpt>
      <trkpt lat="48.850402" lon="2.187010">
        <ele>158.247101</ele>
        <time>2023-03-30T20:11:32.556Z</time>
      </trkpt>
      <trkpt lat="48.850352" lon="2.187203">
        <ele>158.260503</ele>
        <time>2023-03-30T20:11:34.794Z</time>
      </trkpt>
      <trkpt lat="48.850384" lon="2.187450">
        <ele>158.276768</ele>
        <time>2023-03-30T20:11:37.602Z</time>
      </trkpt>
      <trkpt lat="48.850479" lon="2.187596">
        <ele>158.290035</ele>
        <time>2023-03-30T20:11:39.911Z</time>
      </trkpt>
      <trkpt lat="48.850631" lon="2.187732">
        <ele>158.307355</ele>
        <time>2023-03-30T20:11:42.897Z</time>
      </trkpt>
      <trkpt lat="48.851749" lon="2.188393">
        <ele>158.583897</ele>
        <time>2023-03-30T20:12:03.229Z</time>
      </trkpt>
      <trkpt lat="48.851826" lon="2.188474">
        <ele>158.609454</ele>
        <time>2023-03-30T20:12:04.677Z</time>
      </trkpt>
      <trkpt lat="48.851875" lon="2.188626">
        <ele>158.639849</ele>
        <time>2023-03-30T20:12:06.443Z</time>
      </trkpt>
      <trkpt lat="48.851919" lon="2.189202">
        <ele>158.743979</ele>
        <time>2023-03-30T20:12:12.398Z</time>
      </trkpt>
      <trkpt lat="48.851900" lon="2.189461">
        <ele>158.790777</ele>
        <time>2023-03-30T20:12:14.938Z</time>
      </trkpt>
      <trkpt lat="48.851613" lon="2.190657">
        <ele>158.202550</ele>
        <time>2023-03-30T20:12:26.231Z</time>
      </trkpt>
      <trkpt lat="48.851572" lon="2.190929">
        <ele>158.040129</ele>
        <time>2023-03-30T20:12:28.427Z</time>
      </trkpt>
      <trkpt lat="48.851516" lon="2.191250">
        <ele>157.846833</ele>
        <time>2023-03-30T20:12:31.076Z</time>
      </trkpt>
      <trkpt lat="48.851472" lon="2.191503">
        <ele>157.694515</ele>
        <time>2023-03-30T20:12:33.090Z</time>
      </trkpt>
      <trkpt lat="48.851279" lon="2.192267">
        <ele>157.189131</ele>
        <time>2023-03-30T20:12:39.493Z</time>
      </trkpt>
      <trkpt lat="48.851172" lon="2.192667">
        <ele>156.522798</ele>
        <time>2023-03-30T20:12:42.788Z</time>
      </trkpt>
      <trkpt lat="48.851109" lon="2.192715">
        <ele>156.357521</ele>
        <time>2023-03-30T20:12:43.622Z</time>
      </trkpt>
      <trkpt lat="48.851097" lon="2.192818">
        <ele>156.196099</ele>
        <time>2023-03-30T20:12:44.404Z</time>
      </trkpt>
      <trkpt lat="48.850735" lon="2.194110">
        <ele>154.029064</ele>
        <time>2023-03-30T20:12:54.556Z</time>
      </trkpt>
      <trkpt lat="48.850688" lon="2.194301">
        <ele>153.714376</ele>
        <time>2023-03-30T20:12:55.905Z</time>
      </trkpt>
      <trkpt lat="48.850695" lon="2.194393">
        <ele>153.571455</ele>
        <time>2023-03-30T20:12:56.507Z</time>
      </trkpt>
      <trkpt lat="48.850681" lon="2.194457">
        <ele>153.467375</ele>
        <time>2023-03-30T20:12:56.952Z</time>
      </trkpt>
      <trkpt lat="48.850423" lon="2.195652">
        <ele>150.208634</ele>
        <time>2023-03-30T20:13:04.999Z</time>
      </trkpt>
      <trkpt lat="48.849989" lon="2.197830">
        <ele>143.912321</ele>
        <time>2023-03-30T20:13:19.199Z</time>
      </trkpt>
      <trkpt lat="48.849957" lon="2.197996">
        <ele>143.518147</ele>
        <time>2023-03-30T20:13:20.285Z</time>
      </trkpt>
      <trkpt lat="48.849795" lon="2.198767">
        <ele>141.673817</ele>
        <time>2023-03-30T20:13:25.522Z</time>
      </trkpt>
      <trkpt lat="48.849647" lon="2.199317">
        <ele>140.319742</ele>
        <time>2023-03-30T20:13:29.533Z</time>
      </trkpt>
      <trkpt lat="48.849009" lon="2.201078">
        <ele>136.697787</ele>
        <time>2023-03-30T20:13:43.937Z</time>
      </trkpt>
      <trkpt lat="48.849297" lon="2.201406">
        <ele>135.836570</ele>
        <time>2023-03-30T20:13:47.816Z</time>
      </trkpt>
      <trkpt lat="48.849436" lon="2.201621">
        <ele>135.361968</ele>
        <time>2023-03-30T20:13:49.921Z</time>
      </trkpt>
      <trkpt lat="48.849754" lon="2.202300">
        <ele>133.717696</ele>
        <time>2023-03-30T20:13:55.631Z</time>
      </trkpt>
      <trkpt lat="48.850001" lon="2.202875">
        <ele>131.901956</ele>
        <time>2023-03-30T20:14:00.177Z</time>
      </trkpt>
      <trkpt lat="48.850099" lon="2.203088">
        <ele>131.214712</ele>
        <time>2023-03-30T20:14:01.860Z</time>
      </trkpt>
      <trkpt lat="48.850360" lon="2.203743">
        <ele>129.189932</ele>
        <time>2023-03-30T20:14:06.736Z</time>
      </trkpt>
      <trkpt lat="48.850643" lon="2.204245">
        <ele>127.442006</ele>
        <time>2023-03-30T20:14:10.842Z</time>
      </trkpt>
      <trkpt lat="48.850910" lon="2.204930">
        <ele>124.509711</ele>
        <time>2023-03-30T20:14:15.719Z</time>
      </trkpt>
      <trkpt lat="48.851123" lon="2.205143">
        <ele>123.055770</ele>
        <time>2023-03-30T20:14:18.085Z</time>
      </trkpt>
      <trkpt lat="48.851692" lon="2.205459">
        <ele>119.601337</ele>
        <time>2023-03-30T20:14:23.674Z</time>
      </trkpt>
      <trkpt lat="48.851830" lon="2.205478">
        <ele>118.811205</ele>
        <time>2023-03-30T20:14:24.942Z</time>
      </trkpt>
      <trkpt lat="48.851941" lon="2.205586">
        <ele>118.059650</ele>
        <time>2023-03-30T20:14:26.159Z</time>
      </trkpt>
      <trkpt lat="48.852083" lon="2.205602">
        <ele>117.247709</ele>
        <time>2023-03-30T20:14:27.445Z</time>
      </trkpt>
      <trkpt lat="48.852160" lon="2.205630">
        <ele>116.826098</ele>
        <time>2023-03-30T20:14:28.172Z</time>
      </trkpt>
      <trkpt lat="48.852830" lon="2.205820">
        <ele>113.389233</ele>
        <time>2023-03-30T20:14:34.374Z</time>
      </trkpt>
      <trkpt lat="48.852899" lon="2.205842">
        <ele>113.033718</ele>
        <time>2023-03-30T20:14:35.018Z</time>
      </trkpt>
      <trkpt lat="48.854298" lon="2.206574">
        <ele>106.933434</ele>
        <time>2023-03-30T20:14:49.400Z</time>
      </trkpt>
      <trkpt lat="48.854475" lon="2.206703">
        <ele>106.502053</ele>
        <time>2023-03-30T20:14:51.501Z</time>
      </trkpt>
      <trkpt lat="48.855519" lon="2.208007">
        <ele>103.741378</ele>
        <time>2023-03-30T20:15:07.358Z</time>
      </trkpt>
      <trkpt lat="48.856851" lon="2.209678">
        <ele>101.322746</ele>
        <time>2023-03-30T20:15:28.205Z</time>
      </trkpt>
      <trkpt lat="48.856958" lon="2.209773">
        <ele>100.996319</ele>
        <time>2023-03-30T20:15:29.523Z</time>
      </trkpt>
      <trkpt lat="48.857747" lon="2.210338">
        <ele>98.698805</ele>
        <time>2023-03-30T20:15:38.575Z</time>
      </trkpt>
      <trkpt lat="48.857863" lon="2.210496">
        <ele>98.288492</ele>
        <time>2023-03-30T20:15:40.187Z</time>
      </trkpt>
      <trkpt lat="48.857925" lon="2.210863">
        <ele>97.631804</ele>
        <time>2023-03-30T20:15:42.776Z</time>
      </trkpt>
      <trkpt lat="48.857941" lon="2.211028">
        <ele>97.342750</ele>
        <time>2023-03-30T20:15:43.901Z</time>
      </trkpt>
      <trkpt lat="48.858038" lon="2.211054">
        <ele>97.083289</ele>
        <time>2023-03-30T20:15:44.928Z</time>
      </trkpt>
      <trkpt lat="48.858388" lon="2.211223">
        <ele>95.678492</ele>
        <time>2023-03-30T20:15:48.593Z</time>
      </trkpt>
      <trkpt lat="48.858586" lon="2.211420">
        <ele>94.744929</ele>
        <time>2023-03-30T20:15:50.875Z</time>
      </trkpt>
      <trkpt lat="48.858758" lon="2.211695">
        <ele>93.760130</ele>
        <time>2023-03-30T20:15:53.247Z</time>
      </trkpt>
      <trkpt lat="48.858839" lon="2.211839">
        <ele>93.268410</ele>
        <time>2023-03-30T20:15:54.420Z</time>
      </trkpt>
      <trkpt lat="48.858887" lon="2.211956">
        <ele>92.910544</ele>
        <time>2023-03-30T20:15:55.282Z</time>
      </trkpt>
      <trkpt lat="48.859050" lon="2.212519">
        <ele>91.314095</ele>
        <time>2023-03-30T20:15:59.169Z</time>
      </trkpt>
      <trkpt lat="48.859063" lon="2.212560">
        <ele>91.195969</ele>
        <time>2023-03-30T20:15:59.457Z</time>
      </trkpt>
      <trkpt lat="48.859170" lon="2.212937">
        <ele>90.130334</ele>
        <time>2023-03-30T20:16:02.151Z</time>
      </trkpt>
      <trkpt lat="48.859348" lon="2.213507">
        <ele>89.112842</ele>
        <time>2023-03-30T20:16:06.363Z</time>
      </trkpt>
      <trkpt lat="48.859375" lon="2.213607">
        <ele>88.955959</ele>
        <time>2023-03-30T20:16:07.082Z</time>
      </trkpt>
      <trkpt lat="48.859411" lon="2.213734">
        <ele>88.755255</ele>
        <time>2023-03-30T20:16:08.002Z</time>
      </trkpt>
      <trkpt lat="48.859520" lon="2.213690">
        <ele>88.506462</ele>
        <time>2023-03-30T20:16:09.215Z</time>
      </trkpt>
      <trkpt lat="48.859577" lon="2.213668">
        <ele>88.376728</ele>
        <time>2023-03-30T20:16:09.828Z</time>
      </trkpt>
      <trkpt lat="48.859685" lon="2.213625">
        <ele>88.130438</ele>
        <time>2023-03-30T20:16:10.982Z</time>
      </trkpt>
      <trkpt lat="48.859860" lon="2.213492">
        <ele>87.698814</ele>
        <time>2023-03-30T20:16:13.108Z</time>
      </trkpt>
      <trkpt lat="48.860077" lon="2.213405">
        <ele>87.203733</ele>
        <time>2023-03-30T20:16:15.553Z</time>
      </trkpt>
      <trkpt lat="48.860862" lon="2.213023">
        <ele>85.491949</ele>
        <time>2023-03-30T20:16:25.554Z</time>
      </trkpt>
      <trkpt lat="48.860970" lon="2.212975">
        <ele>85.292135</ele>
        <time>2023-03-30T20:16:27.150Z</time>
      </trkpt>
      <trkpt lat="48.861331" lon="2.212795">
        <ele>84.617467</ele>
        <time>2023-03-30T20:16:32.291Z</time>
      </trkpt>
      <trkpt lat="48.861543" lon="2.212798">
        <ele>84.240985</ele>
        <time>2023-03-30T20:16:34.828Z</time>
      </trkpt>
      <trkpt lat="48.861580" lon="2.212785">
        <ele>84.173549</ele>
        <time>2023-03-30T20:16:35.271Z</time>
      </trkpt>
      <trkpt lat="48.861669" lon="2.212754">
        <ele>84.011408</ele>
        <time>2023-03-30T20:16:36.345Z</time>
      </trkpt>
      <trkpt lat="48.861764" lon="2.212895">
        <ele>83.775625</ele>
        <time>2023-03-30T20:16:37.820Z</time>
      </trkpt>
      <trkpt lat="48.861790" lon="2.212990">
        <ele>83.655421</ele>
        <time>2023-03-30T20:16:38.559Z</time>
      </trkpt>
      <trkpt lat="48.861863" lon="2.213250">
        <ele>83.325171</ele>
        <time>2023-03-30T20:16:40.543Z</time>
      </trkpt>
      <trkpt lat="48.862132" lon="2.213988">
        <ele>81.546855</ele>
        <time>2023-03-30T20:16:46.150Z</time>
      </trkpt>
      <trkpt lat="48.862288" lon="2.214398">
        <ele>79.891886</ele>
        <time>2023-03-30T20:16:49.123Z</time>
      </trkpt>
      <trkpt lat="48.862373" lon="2.214639">
        <ele>78.936403</ele>
        <time>2023-03-30T20:16:50.796Z</time>
      </trkpt>
      <trkpt lat="48.862484" lon="2.215101">
        <ele>77.217807</ele>
        <time>2023-03-30T20:16:53.746Z</time>
      </trkpt>
      <trkpt lat="48.862535" lon="2.215537">
        <ele>75.670456</ele>
        <time>2023-03-30T20:16:56.381Z</time>
      </trkpt>
      <trkpt lat="48.862584" lon="2.216166">
        <ele>73.457271</ele>
        <time>2023-03-30T20:17:00.181Z</time>
      </trkpt>
      <trkpt lat="48.862616" lon="2.216704">
        <ele>73.184422</ele>
        <time>2023-03-30T20:17:03.451Z</time>
      </trkpt>
      <trkpt lat="48.862631" lon="2.216876">
        <ele>73.184422</ele>
        <time>2023-03-30T20:17:04.501Z</time>
      </trkpt>
      <trkpt lat="48.862681" lon="2.216903">
        <ele>73.184422</ele>
        <time>2023-03-30T20:17:04.994Z</time>
      </trkpt>
      <trkpt lat="48.862771" lon="2.216975">
        <ele>73.184422</ele>
        <time>2023-03-30T20:17:05.950Z</time>
      </trkpt>
      <trkpt lat="48.863031" lon="2.217372">
        <ele>73.184422</ele>
        <time>2023-03-30T20:17:09.499Z</time>
      </trkpt>
      <trkpt lat="48.863183" lon="2.217502">
        <ele>73.184422</ele>
        <time>2023-03-30T20:17:11.212Z</time>
      </trkpt>
      <trkpt lat="48.864054" lon="2.217838">
        <ele>73.184422</ele>
        <time>2023-03-30T20:17:20.570Z</time>
      </trkpt>
      <trkpt lat="48.864125" lon="2.217827">
        <ele>73.184422</ele>
        <time>2023-03-30T20:17:21.483Z</time>
      </trkpt>
      <trkpt lat="48.864235" lon="2.217891">
        <ele>73.184422</ele>
        <time>2023-03-30T20:17:33.940Z</time>
      </trkpt>
      <trkpt lat="48.864370" lon="2.217939">
        <ele>73.184422</ele>
        <time>2023-03-30T20:17:48.817Z</time>
      </trkpt>
      <trkpt lat="48.864476" lon="2.217980">
        <ele>73.184422</ele>
        <time>2023-03-30T20:18:00.887Z</time>
      </trkpt>
      <trkpt lat="48.864699" lon="2.218081">
        <ele>73.184422</ele>
        <time>2023-03-30T20:18:26.268Z</time>
      </trkpt>
    </trkseg>
  </trk>
</gpx>